<?xml version='1.0' encoding='UTF-8'?><gpx version="1.1" creator="JPX - https://github.com/jenetics/jpx" xmlns="http://www.topografix.com/GPX/1/1"><trk><trkseg><trkpt lat="43.8568182" lon="11.1787881"><ele>76.0</ele><time>2026-04-25T14:20:52.062Z</time></trkpt><trkpt lat="43.8569022" lon="11.1787183"><ele>76.0</ele><time>2026-04-25T14:21:20.33Z</time></trkpt><trkpt lat="43.8570332" lon="11.1786594"><ele>76.0</ele><time>2026-04-25T14:21:22.337Z</time></trkpt><trkpt lat="43.8571208" lon="11.1786362"><ele>76.0</ele><time>2026-04-25T14:21:23.328Z</time></trkpt><trkpt lat="43.8572111" lon="11.1786087"><ele>76.0</ele><time>2026-04-25T14:21:24.333Z</time></trkpt><trkpt lat="43.8572979" lon="11.1785832"><ele>76.0</ele><time>2026-04-25T14:21:25.335Z</time></trkpt><trkpt lat="43.8573918" lon="11.1785523"><ele>76.0</ele><time>2026-04-25T14:21:26.339Z</time></trkpt><trkpt lat="43.8574934" lon="11.1785142"><ele>76.0</ele><time>2026-04-25T14:21:27.341Z</time></trkpt><trkpt lat="43.8575914" lon="11.1784833"><ele>76.0</ele><time>2026-04-25T14:21:28.339Z</time></trkpt><trkpt lat="43.8576899" lon="11.1784429"><ele>76.0</ele><time>2026-04-25T14:21:29.341Z</time></trkpt><trkpt lat="43.8577822" lon="11.1784158"><ele>76.39999999999999</ele><time>2026-04-25T14:21:30.342Z</time></trkpt><trkpt lat="43.8578716" lon="11.1783897"><ele>76.8</ele><time>2026-04-25T14:21:31.337Z</time></trkpt><trkpt lat="43.857964" lon="11.1783723"><ele>77.19999999999999</ele><time>2026-04-25T14:21:32.346Z</time></trkpt><trkpt lat="43.8580537" lon="11.178365"><ele>77.6</ele><time>2026-04-25T14:21:33.348Z</time></trkpt><trkpt lat="43.858142" lon="11.1783762"><ele>78.0</ele><time>2026-04-25T14:21:34.335Z</time></trkpt><trkpt lat="43.8582284" lon="11.1784111"><ele>78.0</ele><time>2026-04-25T14:21:35.336Z</time></trkpt><trkpt lat="43.858305" lon="11.1784677"><ele>78.0</ele><time>2026-04-25T14:21:36.339Z</time></trkpt><trkpt lat="43.8583779" lon="11.1785476"><ele>78.0</ele><time>2026-04-25T14:21:37.331Z</time></trkpt><trkpt lat="43.858442" lon="11.178645"><ele>78.0</ele><time>2026-04-25T14:21:38.327Z</time></trkpt><trkpt lat="43.8585031" lon="11.1787561"><ele>78.0</ele><time>2026-04-25T14:21:39.344Z</time></trkpt><trkpt lat="43.8585605" lon="11.178865"><ele>78.6</ele><time>2026-04-25T14:21:40.353Z</time></trkpt><trkpt lat="43.8586351" lon="11.1789517"><ele>79.19999999999999</ele><time>2026-04-25T14:21:41.328Z</time></trkpt><trkpt lat="43.8587211" lon="11.1790223"><ele>79.8</ele><time>2026-04-25T14:21:42.34Z</time></trkpt><trkpt lat="43.8588195" lon="11.1790614"><ele>80.39999999999999</ele><time>2026-04-25T14:21:43.341Z</time></trkpt><trkpt lat="43.858924" lon="11.1790726"><ele>81.0</ele><time>2026-04-25T14:21:44.331Z</time></trkpt><trkpt lat="43.8590379" lon="11.1790595"><ele>81.0</ele><time>2026-04-25T14:21:45.33Z</time></trkpt><trkpt lat="43.8591598" lon="11.1790305"><ele>81.0</ele><time>2026-04-25T14:21:46.328Z</time></trkpt><trkpt lat="43.8592803" lon="11.1789913"><ele>81.0</ele><time>2026-04-25T14:21:47.329Z</time></trkpt><trkpt lat="43.8594057" lon="11.1789476"><ele>81.0</ele><time>2026-04-25T14:21:48.341Z</time></trkpt><trkpt lat="43.8595364" lon="11.1789062"><ele>81.0</ele><time>2026-04-25T14:21:49.334Z</time></trkpt><trkpt lat="43.8596618" lon="11.178862"><ele>81.0</ele><time>2026-04-25T14:21:50.334Z</time></trkpt><trkpt lat="43.8597854" lon="11.1788331"><ele>81.0</ele><time>2026-04-25T14:21:51.339Z</time></trkpt><trkpt lat="43.8599046" lon="11.1788039"><ele>81.0</ele><time>2026-04-25T14:21:52.324Z</time></trkpt><trkpt lat="43.8600158" lon="11.1787786"><ele>81.25</ele><time>2026-04-25T14:21:53.33Z</time></trkpt><trkpt lat="43.8601334" lon="11.1787539"><ele>81.5</ele><time>2026-04-25T14:21:54.337Z</time></trkpt><trkpt lat="43.8602524" lon="11.1787181"><ele>81.75</ele><time>2026-04-25T14:21:55.34Z</time></trkpt><trkpt lat="43.860378" lon="11.1786875"><ele>82.0</ele><time>2026-04-25T14:21:56.34Z</time></trkpt><trkpt lat="43.8605042" lon="11.1786525"><ele>82.0</ele><time>2026-04-25T14:21:57.337Z</time></trkpt><trkpt lat="43.8606255" lon="11.1786124"><ele>82.0</ele><time>2026-04-25T14:21:58.341Z</time></trkpt><trkpt lat="43.8607478" lon="11.1785825"><ele>82.0</ele><time>2026-04-25T14:21:59.34Z</time></trkpt><trkpt lat="43.8608694" lon="11.1785578"><ele>82.0</ele><time>2026-04-25T14:22:00.34Z</time></trkpt><trkpt lat="43.8609956" lon="11.1785347"><ele>82.0</ele><time>2026-04-25T14:22:01.34Z</time></trkpt><trkpt lat="43.8611224" lon="11.1785259"><ele>82.0</ele><time>2026-04-25T14:22:02.339Z</time></trkpt><trkpt lat="43.8612506" lon="11.1785137"><ele>82.0</ele><time>2026-04-25T14:22:03.35Z</time></trkpt><trkpt lat="43.8613732" lon="11.1784891"><ele>82.0</ele><time>2026-04-25T14:22:04.347Z</time></trkpt><trkpt lat="43.8614803" lon="11.1784515"><ele>82.0</ele><time>2026-04-25T14:22:05.35Z</time></trkpt><trkpt lat="43.8615907" lon="11.1783998"><ele>82.0</ele><time>2026-04-25T14:22:06.344Z</time></trkpt><trkpt lat="43.8617009" lon="11.1783564"><ele>82.0</ele><time>2026-04-25T14:22:07.344Z</time></trkpt><trkpt lat="43.8618118" lon="11.1783117"><ele>82.0</ele><time>2026-04-25T14:22:08.338Z</time></trkpt><trkpt lat="43.8619224" lon="11.1782454"><ele>81.39999999999999</ele><time>2026-04-25T14:22:09.348Z</time></trkpt><trkpt lat="43.8620301" lon="11.1781758"><ele>80.8</ele><time>2026-04-25T14:22:10.343Z</time></trkpt><trkpt lat="43.8621264" lon="11.1781175"><ele>80.2</ele><time>2026-04-25T14:22:11.357Z</time></trkpt><trkpt lat="43.8622236" lon="11.1780487"><ele>79.6</ele><time>2026-04-25T14:22:12.35Z</time></trkpt><trkpt lat="43.8623149" lon="11.1779876"><ele>79.0</ele><time>2026-04-25T14:22:13.355Z</time></trkpt><trkpt lat="43.8624045" lon="11.1779244"><ele>79.0</ele><time>2026-04-25T14:22:14.348Z</time></trkpt><trkpt lat="43.8624904" lon="11.1778711"><ele>79.0</ele><time>2026-04-25T14:22:15.342Z</time></trkpt><trkpt lat="43.8625846" lon="11.1778118"><ele>79.0</ele><time>2026-04-25T14:22:16.349Z</time></trkpt><trkpt lat="43.8626655" lon="11.1777528"><ele>79.0</ele><time>2026-04-25T14:22:17.348Z</time></trkpt><trkpt lat="43.862741" lon="11.1776699"><ele>79.0</ele><time>2026-04-25T14:22:18.334Z</time></trkpt><trkpt lat="43.862796" lon="11.1775617"><ele>79.0</ele><time>2026-04-25T14:22:19.342Z</time></trkpt><trkpt lat="43.8628329" lon="11.1774292"><ele>79.0</ele><time>2026-04-25T14:22:20.335Z</time></trkpt><trkpt lat="43.8628566" lon="11.1772806"><ele>79.0</ele><time>2026-04-25T14:22:21.341Z</time></trkpt><trkpt lat="43.8628576" lon="11.1771416"><ele>79.0</ele><time>2026-04-25T14:22:22.344Z</time></trkpt><trkpt lat="43.8628548" lon="11.1769992"><ele>79.0</ele><time>2026-04-25T14:22:23.334Z</time></trkpt><trkpt lat="43.8628565" lon="11.1768544"><ele>79.0</ele><time>2026-04-25T14:22:24.319Z</time></trkpt><trkpt lat="43.8628558" lon="11.17672"><ele>79.0</ele><time>2026-04-25T14:22:25.313Z</time></trkpt><trkpt lat="43.8628512" lon="11.176587"><ele>79.0</ele><time>2026-04-25T14:22:26.303Z</time></trkpt><trkpt lat="43.8628405" lon="11.1764598"><ele>79.0</ele><time>2026-04-25T14:22:27.302Z</time></trkpt><trkpt lat="43.8629066" lon="11.1763534"><ele>79.0</ele><time>2026-04-25T14:22:28.327Z</time></trkpt><trkpt lat="43.8629987" lon="11.1763091"><ele>79.0</ele><time>2026-04-25T14:22:29.322Z</time></trkpt><trkpt lat="43.8630928" lon="11.1762737"><ele>79.0</ele><time>2026-04-25T14:22:30.315Z</time></trkpt><trkpt lat="43.8631892" lon="11.1762313"><ele>79.0</ele><time>2026-04-25T14:22:31.309Z</time></trkpt><trkpt lat="43.863282" lon="11.1762084"><ele>79.0</ele><time>2026-04-25T14:22:32.315Z</time></trkpt><trkpt lat="43.8633882" lon="11.1762064"><ele>79.0</ele><time>2026-04-25T14:22:33.318Z</time></trkpt><trkpt lat="43.8635175" lon="11.1762037"><ele>79.75</ele><time>2026-04-25T14:22:34.317Z</time></trkpt><trkpt lat="43.8636547" lon="11.1761839"><ele>80.5</ele><time>2026-04-25T14:22:35.318Z</time></trkpt><trkpt lat="43.8637871" lon="11.176145"><ele>81.25</ele><time>2026-04-25T14:22:36.323Z</time></trkpt><trkpt lat="43.8639209" lon="11.176088"><ele>82.0</ele><time>2026-04-25T14:22:37.317Z</time></trkpt><trkpt lat="43.864067" lon="11.1760212"><ele>82.0</ele><time>2026-04-25T14:22:38.307Z</time></trkpt><trkpt lat="43.8642111" lon="11.1759396"><ele>82.0</ele><time>2026-04-25T14:22:39.308Z</time></trkpt><trkpt lat="43.8643554" lon="11.1759097"><ele>82.0</ele><time>2026-04-25T14:22:40.305Z</time></trkpt><trkpt lat="43.8645064" lon="11.1758619"><ele>81.75</ele><time>2026-04-25T14:22:41.298Z</time></trkpt><trkpt lat="43.8646528" lon="11.1758099"><ele>81.5</ele><time>2026-04-25T14:22:42.317Z</time></trkpt><trkpt lat="43.8647776" lon="11.1757386"><ele>81.25</ele><time>2026-04-25T14:22:43.304Z</time></trkpt><trkpt lat="43.8649091" lon="11.1756685"><ele>81.0</ele><time>2026-04-25T14:22:44.298Z</time></trkpt><trkpt lat="43.8650476" lon="11.1755933"><ele>81.75</ele><time>2026-04-25T14:22:45.303Z</time></trkpt><trkpt lat="43.8651795" lon="11.1755068"><ele>82.5</ele><time>2026-04-25T14:22:46.306Z</time></trkpt><trkpt lat="43.8653186" lon="11.175432"><ele>83.25</ele><time>2026-04-25T14:22:47.312Z</time></trkpt><trkpt lat="43.8654528" lon="11.1753535"><ele>84.0</ele><time>2026-04-25T14:22:48.307Z</time></trkpt><trkpt lat="43.8655888" lon="11.1752829"><ele>84.0</ele><time>2026-04-25T14:22:49.31Z</time></trkpt><trkpt lat="43.8657422" lon="11.1752133"><ele>84.0</ele><time>2026-04-25T14:22:50.307Z</time></trkpt><trkpt lat="43.8658747" lon="11.1751474"><ele>84.0</ele><time>2026-04-25T14:22:51.311Z</time></trkpt><trkpt lat="43.8660156" lon="11.1750676"><ele>86.33333333333333</ele><time>2026-04-25T14:22:52.299Z</time></trkpt><trkpt lat="43.8661907" lon="11.1750129"><ele>88.66666666666666</ele><time>2026-04-25T14:22:53.281Z</time></trkpt><trkpt lat="43.8663204" lon="11.1749292"><ele>91.0</ele><time>2026-04-25T14:22:54.267Z</time></trkpt><trkpt lat="43.8664665" lon="11.1748744"><ele>92.0</ele><time>2026-04-25T14:22:55.253Z</time></trkpt><trkpt lat="43.8665984" lon="11.1748042"><ele>93.0</ele><time>2026-04-25T14:22:56.247Z</time></trkpt><trkpt lat="43.8667296" lon="11.1747105"><ele>94.0</ele><time>2026-04-25T14:22:57.235Z</time></trkpt><trkpt lat="43.8668605" lon="11.1746171"><ele>95.0</ele><time>2026-04-25T14:22:58.234Z</time></trkpt><trkpt lat="43.8669921" lon="11.1745225"><ele>87.0</ele><time>2026-04-25T14:22:59.22Z</time></trkpt><trkpt lat="43.8704249" lon="11.172164"><ele>87.0</ele><time>2026-04-25T14:23:23.317Z</time></trkpt><trkpt lat="43.870566" lon="11.1720269"><ele>87.0</ele><time>2026-04-25T14:23:24.326Z</time></trkpt><trkpt lat="43.8707053" lon="11.1718744"><ele>87.0</ele><time>2026-04-25T14:23:25.328Z</time></trkpt><trkpt lat="43.8708175" lon="11.171731"><ele>87.0</ele><time>2026-04-25T14:23:26.327Z</time></trkpt><trkpt lat="43.8709323" lon="11.1715964"><ele>87.0</ele><time>2026-04-25T14:23:27.331Z</time></trkpt><trkpt lat="43.8710346" lon="11.1714471"><ele>87.0</ele><time>2026-04-25T14:23:28.332Z</time></trkpt><trkpt lat="43.8711408" lon="11.1712923"><ele>85.0</ele><time>2026-04-25T14:23:29.329Z</time></trkpt><trkpt lat="43.8712399" lon="11.1711419"><ele>83.0</ele><time>2026-04-25T14:23:30.341Z</time></trkpt><trkpt lat="43.871331" lon="11.1709993"><ele>81.0</ele><time>2026-04-25T14:23:31.332Z</time></trkpt><trkpt lat="43.8714089" lon="11.1708721"><ele>79.0</ele><time>2026-04-25T14:23:32.347Z</time></trkpt><trkpt lat="43.8714798" lon="11.1707322"><ele>79.0</ele><time>2026-04-25T14:23:33.346Z</time></trkpt><trkpt lat="43.8715513" lon="11.170598"><ele>79.0</ele><time>2026-04-25T14:23:34.351Z</time></trkpt><trkpt lat="43.8716184" lon="11.1704701"><ele>79.0</ele><time>2026-04-25T14:23:35.349Z</time></trkpt><trkpt lat="43.8716749" lon="11.1703514"><ele>79.0</ele><time>2026-04-25T14:23:36.347Z</time></trkpt><trkpt lat="43.8717323" lon="11.1702491"><ele>79.0</ele><time>2026-04-25T14:23:37.357Z</time></trkpt><trkpt lat="43.8717929" lon="11.1701868"><ele>77.8</ele><time>2026-04-25T14:23:38.356Z</time></trkpt><trkpt lat="43.871856" lon="11.1701226"><ele>76.60000000000001</ele><time>2026-04-25T14:23:39.361Z</time></trkpt><trkpt lat="43.8719322" lon="11.1701072"><ele>75.4</ele><time>2026-04-25T14:23:40.363Z</time></trkpt><trkpt lat="43.8720225" lon="11.1701562"><ele>74.2</ele><time>2026-04-25T14:23:41.354Z</time></trkpt><trkpt lat="43.8721105" lon="11.1702448"><ele>73.0</ele><time>2026-04-25T14:23:42.36Z</time></trkpt><trkpt lat="43.8721793" lon="11.1703646"><ele>73.0</ele><time>2026-04-25T14:23:43.365Z</time></trkpt><trkpt lat="43.8722585" lon="11.1704933"><ele>73.0</ele><time>2026-04-25T14:23:44.364Z</time></trkpt><trkpt lat="43.8723436" lon="11.1706348"><ele>73.0</ele><time>2026-04-25T14:23:45.357Z</time></trkpt><trkpt lat="43.8724362" lon="11.1707846"><ele>73.0</ele><time>2026-04-25T14:23:46.358Z</time></trkpt><trkpt lat="43.8725331" lon="11.1709525"><ele>73.25</ele><time>2026-04-25T14:23:47.361Z</time></trkpt><trkpt lat="43.8726238" lon="11.1710962"><ele>73.5</ele><time>2026-04-25T14:23:48.362Z</time></trkpt><trkpt lat="43.8727214" lon="11.1712404"><ele>73.75</ele><time>2026-04-25T14:23:49.358Z</time></trkpt><trkpt lat="43.8728198" lon="11.1713916"><ele>74.0</ele><time>2026-04-25T14:23:50.363Z</time></trkpt><trkpt lat="43.8729099" lon="11.1715478"><ele>74.33333333333334</ele><time>2026-04-25T14:23:51.359Z</time></trkpt><trkpt lat="43.8730087" lon="11.1717003"><ele>74.66666666666667</ele><time>2026-04-25T14:23:52.362Z</time></trkpt><trkpt lat="43.8731101" lon="11.1718601"><ele>75.0</ele><time>2026-04-25T14:23:53.359Z</time></trkpt><trkpt lat="43.8732082" lon="11.1720243"><ele>75.0</ele><time>2026-04-25T14:23:54.359Z</time></trkpt><trkpt lat="43.8733037" lon="11.1721645"><ele>75.0</ele><time>2026-04-25T14:23:55.355Z</time></trkpt><trkpt lat="43.8734" lon="11.1722911"><ele>75.0</ele><time>2026-04-25T14:23:56.352Z</time></trkpt><trkpt lat="43.8735069" lon="11.1724208"><ele>75.0</ele><time>2026-04-25T14:23:57.348Z</time></trkpt><trkpt lat="43.8736193" lon="11.1725293"><ele>76.0</ele><time>2026-04-25T14:23:58.358Z</time></trkpt><trkpt lat="43.8737373" lon="11.1726432"><ele>77.0</ele><time>2026-04-25T14:23:59.348Z</time></trkpt><trkpt lat="43.8738609" lon="11.1727437"><ele>78.0</ele><time>2026-04-25T14:24:00.349Z</time></trkpt><trkpt lat="43.8739917" lon="11.1728356"><ele>79.0</ele><time>2026-04-25T14:24:01.344Z</time></trkpt><trkpt lat="43.8741185" lon="11.1729194"><ele>79.0</ele><time>2026-04-25T14:24:02.345Z</time></trkpt><trkpt lat="43.8742365" lon="11.1729904"><ele>79.0</ele><time>2026-04-25T14:24:03.338Z</time></trkpt><trkpt lat="43.8743677" lon="11.1730801"><ele>79.0</ele><time>2026-04-25T14:24:04.345Z</time></trkpt><trkpt lat="43.8744999" lon="11.1731858"><ele>79.0</ele><time>2026-04-25T14:24:05.344Z</time></trkpt><trkpt lat="43.8746306" lon="11.173286"><ele>78.75</ele><time>2026-04-25T14:24:06.346Z</time></trkpt><trkpt lat="43.8747498" lon="11.1733943"><ele>78.5</ele><time>2026-04-25T14:24:07.343Z</time></trkpt><trkpt lat="43.8748782" lon="11.1735132"><ele>78.25</ele><time>2026-04-25T14:24:08.346Z</time></trkpt><trkpt lat="43.8750003" lon="11.1736252"><ele>78.0</ele><time>2026-04-25T14:24:09.346Z</time></trkpt><trkpt lat="43.8751318" lon="11.173744"><ele>78.0</ele><time>2026-04-25T14:24:10.345Z</time></trkpt><trkpt lat="43.8752632" lon="11.1738679"><ele>78.0</ele><time>2026-04-25T14:24:11.342Z</time></trkpt><trkpt lat="43.8753981" lon="11.1739898"><ele>78.0</ele><time>2026-04-25T14:24:12.345Z</time></trkpt><trkpt lat="43.8755146" lon="11.1741296"><ele>79.0</ele><time>2026-04-25T14:24:13.343Z</time></trkpt><trkpt lat="43.8756373" lon="11.1742527"><ele>80.0</ele><time>2026-04-25T14:24:14.339Z</time></trkpt><trkpt lat="43.8757586" lon="11.1743867"><ele>81.0</ele><time>2026-04-25T14:24:15.356Z</time></trkpt><trkpt lat="43.8758925" lon="11.1745042"><ele>80.66666666666667</ele><time>2026-04-25T14:24:16.341Z</time></trkpt><trkpt lat="43.8760274" lon="11.1746273"><ele>80.33333333333334</ele><time>2026-04-25T14:24:17.347Z</time></trkpt><trkpt lat="43.876154" lon="11.1747373"><ele>80.0</ele><time>2026-04-25T14:24:18.341Z</time></trkpt><trkpt lat="43.8762844" lon="11.1748434"><ele>81.66666666666667</ele><time>2026-04-25T14:24:19.339Z</time></trkpt><trkpt lat="43.8764085" lon="11.1749452"><ele>83.33333333333333</ele><time>2026-04-25T14:24:20.342Z</time></trkpt><trkpt lat="43.8765434" lon="11.1750528"><ele>85.0</ele><time>2026-04-25T14:24:21.335Z</time></trkpt><trkpt lat="43.8766806" lon="11.1751602"><ele>83.66666666666666</ele><time>2026-04-25T14:24:22.336Z</time></trkpt><trkpt lat="43.8768149" lon="11.17527"><ele>82.33333333333333</ele><time>2026-04-25T14:24:23.335Z</time></trkpt><trkpt lat="43.8769425" lon="11.1753793"><ele>81.0</ele><time>2026-04-25T14:24:24.34Z</time></trkpt><trkpt lat="43.8770717" lon="11.1755057"><ele>81.0</ele><time>2026-04-25T14:24:25.34Z</time></trkpt><trkpt lat="43.877187" lon="11.1756374"><ele>81.0</ele><time>2026-04-25T14:24:26.339Z</time></trkpt><trkpt lat="43.8773122" lon="11.1757443"><ele>81.0</ele><time>2026-04-25T14:24:27.35Z</time></trkpt><trkpt lat="43.8774348" lon="11.1758479"><ele>81.0</ele><time>2026-04-25T14:24:28.343Z</time></trkpt><trkpt lat="43.8775547" lon="11.1759612"><ele>81.25</ele><time>2026-04-25T14:24:29.336Z</time></trkpt><trkpt lat="43.8776791" lon="11.17608"><ele>81.5</ele><time>2026-04-25T14:24:30.342Z</time></trkpt><trkpt lat="43.8777954" lon="11.1761771"><ele>81.75</ele><time>2026-04-25T14:24:31.341Z</time></trkpt><trkpt lat="43.8779117" lon="11.1762792"><ele>82.0</ele><time>2026-04-25T14:24:32.343Z</time></trkpt><trkpt lat="43.8780232" lon="11.1763977"><ele>82.0</ele><time>2026-04-25T14:24:33.344Z</time></trkpt><trkpt lat="43.8781328" lon="11.1765134"><ele>82.0</ele><time>2026-04-25T14:24:34.344Z</time></trkpt><trkpt lat="43.8782299" lon="11.176632"><ele>82.0</ele><time>2026-04-25T14:24:35.337Z</time></trkpt><trkpt lat="43.8783346" lon="11.1767855"><ele>82.0</ele><time>2026-04-25T14:24:36.339Z</time></trkpt><trkpt lat="43.8784332" lon="11.1769068"><ele>81.5</ele><time>2026-04-25T14:24:37.343Z</time></trkpt><trkpt lat="43.8785356" lon="11.1770418"><ele>81.0</ele><time>2026-04-25T14:24:38.341Z</time></trkpt><trkpt lat="43.8786409" lon="11.1771895"><ele>80.5</ele><time>2026-04-25T14:24:39.343Z</time></trkpt><trkpt lat="43.8787386" lon="11.1773326"><ele>80.0</ele><time>2026-04-25T14:24:40.34Z</time></trkpt><trkpt lat="43.8788297" lon="11.1774703"><ele>81.0</ele><time>2026-04-25T14:24:41.341Z</time></trkpt><trkpt lat="43.8789272" lon="11.1776149"><ele>82.0</ele><time>2026-04-25T14:24:42.339Z</time></trkpt><trkpt lat="43.8790215" lon="11.1777742"><ele>83.0</ele><time>2026-04-25T14:24:43.342Z</time></trkpt><trkpt lat="43.879119" lon="11.1779348"><ele>84.0</ele><time>2026-04-25T14:24:44.347Z</time></trkpt><trkpt lat="43.8792183" lon="11.1781026"><ele>83.5</ele><time>2026-04-25T14:24:45.333Z</time></trkpt><trkpt lat="43.8793023" lon="11.1782611"><ele>83.0</ele><time>2026-04-25T14:24:46.344Z</time></trkpt><trkpt lat="43.8793703" lon="11.1784325"><ele>82.5</ele><time>2026-04-25T14:24:47.331Z</time></trkpt><trkpt lat="43.8794534" lon="11.1785998"><ele>82.0</ele><time>2026-04-25T14:24:48.33Z</time></trkpt><trkpt lat="43.87952" lon="11.1787724"><ele>82.0</ele><time>2026-04-25T14:24:49.313Z</time></trkpt><trkpt lat="43.8795972" lon="11.1789557"><ele>82.0</ele><time>2026-04-25T14:24:50.32Z</time></trkpt><trkpt lat="43.879689" lon="11.1791274"><ele>82.0</ele><time>2026-04-25T14:24:51.321Z</time></trkpt><trkpt lat="43.8797729" lon="11.1792797"><ele>82.0</ele><time>2026-04-25T14:24:52.319Z</time></trkpt><trkpt lat="43.8798442" lon="11.1794517"><ele>83.25</ele><time>2026-04-25T14:24:53.315Z</time></trkpt><trkpt lat="43.8799284" lon="11.1795995"><ele>84.5</ele><time>2026-04-25T14:24:54.319Z</time></trkpt><trkpt lat="43.8800077" lon="11.1797423"><ele>85.75</ele><time>2026-04-25T14:24:55.316Z</time></trkpt><trkpt lat="43.880104" lon="11.1798799"><ele>87.0</ele><time>2026-04-25T14:24:56.316Z</time></trkpt><trkpt lat="43.8802124" lon="11.1800071"><ele>87.0</ele><time>2026-04-25T14:24:57.325Z</time></trkpt><trkpt lat="43.880325" lon="11.180135"><ele>87.0</ele><time>2026-04-25T14:24:58.329Z</time></trkpt><trkpt lat="43.8804424" lon="11.1802471"><ele>87.0</ele><time>2026-04-25T14:24:59.32Z</time></trkpt><trkpt lat="43.880565" lon="11.1803171"><ele>87.0</ele><time>2026-04-25T14:25:00.32Z</time></trkpt><trkpt lat="43.8806845" lon="11.1803932"><ele>87.0</ele><time>2026-04-25T14:25:01.32Z</time></trkpt><trkpt lat="43.8807984" lon="11.180458"><ele>87.0</ele><time>2026-04-25T14:25:02.322Z</time></trkpt><trkpt lat="43.8809134" lon="11.1804961"><ele>87.0</ele><time>2026-04-25T14:25:03.323Z</time></trkpt><trkpt lat="43.881029" lon="11.1805223"><ele>87.0</ele><time>2026-04-25T14:25:04.326Z</time></trkpt><trkpt lat="43.8811407" lon="11.1805354"><ele>87.19999999999999</ele><time>2026-04-25T14:25:05.322Z</time></trkpt><trkpt lat="43.8812643" lon="11.1805205"><ele>87.4</ele><time>2026-04-25T14:25:06.325Z</time></trkpt><trkpt lat="43.8813711" lon="11.1805014"><ele>87.6</ele><time>2026-04-25T14:25:07.328Z</time></trkpt><trkpt lat="43.8814753" lon="11.180478"><ele>87.80000000000001</ele><time>2026-04-25T14:25:08.331Z</time></trkpt><trkpt lat="43.8815764" lon="11.180454"><ele>88.0</ele><time>2026-04-25T14:25:09.333Z</time></trkpt><trkpt lat="43.881677" lon="11.1804592"><ele>88.5</ele><time>2026-04-25T14:25:10.324Z</time></trkpt><trkpt lat="43.8817664" lon="11.1804736"><ele>89.0</ele><time>2026-04-25T14:25:11.329Z</time></trkpt><trkpt lat="43.8818431" lon="11.1804579"><ele>89.5</ele><time>2026-04-25T14:25:12.32Z</time></trkpt><trkpt lat="43.8819081" lon="11.1804146"><ele>90.0</ele><time>2026-04-25T14:25:13.331Z</time></trkpt><trkpt lat="43.8819866" lon="11.1803416"><ele>90.5</ele><time>2026-04-25T14:25:15.33Z</time></trkpt><trkpt lat="43.8820901" lon="11.1803439"><ele>91.0</ele><time>2026-04-25T14:25:17.344Z</time></trkpt><trkpt lat="43.8822153" lon="11.1803784"><ele>91.0</ele><time>2026-04-25T14:25:19.327Z</time></trkpt><trkpt lat="43.88228" lon="11.1803905"><ele>91.0</ele><time>2026-04-25T14:25:20.325Z</time></trkpt><trkpt lat="43.8823576" lon="11.1804043"><ele>91.0</ele><time>2026-04-25T14:25:21.334Z</time></trkpt><trkpt lat="43.8824251" lon="11.1804255"><ele>91.0</ele><time>2026-04-25T14:25:22.325Z</time></trkpt><trkpt lat="43.8824891" lon="11.1804548"><ele>91.0</ele><time>2026-04-25T14:25:23.329Z</time></trkpt><trkpt lat="43.8825639" lon="11.1805335"><ele>91.0</ele><time>2026-04-25T14:25:25.322Z</time></trkpt><trkpt lat="43.8826376" lon="11.1805451"><ele>91.0</ele><time>2026-04-25T14:26:06.34Z</time></trkpt><trkpt lat="43.8827235" lon="11.1805635"><ele>91.0</ele><time>2026-04-25T14:26:10.337Z</time></trkpt><trkpt lat="43.8827698" lon="11.1806321"><ele>91.0</ele><time>2026-04-25T14:26:12.338Z</time></trkpt><trkpt lat="43.8828187" lon="11.1807242"><ele>91.0</ele><time>2026-04-25T14:26:14.346Z</time></trkpt><trkpt lat="43.8828478" lon="11.1808288"><ele>91.0</ele><time>2026-04-25T14:26:16.334Z</time></trkpt><trkpt lat="43.8828115" lon="11.1809189"><ele>91.0</ele><time>2026-04-25T14:26:18.343Z</time></trkpt><trkpt lat="43.8827524" lon="11.1810314"><ele>91.0</ele><time>2026-04-25T14:26:20.336Z</time></trkpt><trkpt lat="43.8827" lon="11.1811474"><ele>91.0</ele><time>2026-04-25T14:26:22.33Z</time></trkpt><trkpt lat="43.8826351" lon="11.1812888"><ele>91.0</ele><time>2026-04-25T14:26:24.34Z</time></trkpt><trkpt lat="43.8826057" lon="11.1813688"><ele>91.0</ele><time>2026-04-25T14:26:25.321Z</time></trkpt><trkpt lat="43.8825758" lon="11.1815247"><ele>91.0</ele><time>2026-04-25T14:26:27.314Z</time></trkpt><trkpt lat="43.88259" lon="11.1816354"><ele>91.0</ele><time>2026-04-25T14:26:29.316Z</time></trkpt><trkpt lat="43.8826832" lon="11.1816893"><ele>91.16666666666666</ele><time>2026-04-25T14:26:31.308Z</time></trkpt><trkpt lat="43.8827898" lon="11.1817611"><ele>91.33333333333333</ele><time>2026-04-25T14:26:33.307Z</time></trkpt><trkpt lat="43.8828948" lon="11.1818519"><ele>91.5</ele><time>2026-04-25T14:26:35.315Z</time></trkpt><trkpt lat="43.8829473" lon="11.1819058"><ele>91.66666666666667</ele><time>2026-04-25T14:26:36.314Z</time></trkpt><trkpt lat="43.8830046" lon="11.1819589"><ele>91.83333333333334</ele><time>2026-04-25T14:26:37.327Z</time></trkpt><trkpt lat="43.8830627" lon="11.1820176"><ele>92.0</ele><time>2026-04-25T14:26:38.317Z</time></trkpt><trkpt lat="43.8831193" lon="11.1820829"><ele>92.0</ele><time>2026-04-25T14:26:39.303Z</time></trkpt><trkpt lat="43.8831797" lon="11.1821606"><ele>92.0</ele><time>2026-04-25T14:26:40.306Z</time></trkpt><trkpt lat="43.8832359" lon="11.1822435"><ele>92.0</ele><time>2026-04-25T14:26:41.316Z</time></trkpt><trkpt lat="43.8832862" lon="11.1823317"><ele>92.0</ele><time>2026-04-25T14:26:42.324Z</time></trkpt><trkpt lat="43.8833343" lon="11.1824333"><ele>92.0</ele><time>2026-04-25T14:26:43.321Z</time></trkpt><trkpt lat="43.8833884" lon="11.1825279"><ele>92.0</ele><time>2026-04-25T14:26:44.332Z</time></trkpt><trkpt lat="43.8834467" lon="11.1826277"><ele>92.39999999999999</ele><time>2026-04-25T14:26:45.322Z</time></trkpt><trkpt lat="43.883489" lon="11.1827258"><ele>92.8</ele><time>2026-04-25T14:26:46.328Z</time></trkpt><trkpt lat="43.8835355" lon="11.1828362"><ele>93.2</ele><time>2026-04-25T14:26:47.324Z</time></trkpt><trkpt lat="43.8835774" lon="11.1829601"><ele>93.6</ele><time>2026-04-25T14:26:48.322Z</time></trkpt><trkpt lat="43.8836224" lon="11.1830845"><ele>94.0</ele><time>2026-04-25T14:26:49.322Z</time></trkpt><trkpt lat="43.8836633" lon="11.1832291"><ele>94.0</ele><time>2026-04-25T14:26:50.331Z</time></trkpt><trkpt lat="43.8837001" lon="11.1833703"><ele>94.0</ele><time>2026-04-25T14:26:51.321Z</time></trkpt><trkpt lat="43.8837345" lon="11.1835032"><ele>94.0</ele><time>2026-04-25T14:26:52.321Z</time></trkpt><trkpt lat="43.8837701" lon="11.183637"><ele>94.0</ele><time>2026-04-25T14:26:53.323Z</time></trkpt><trkpt lat="43.8838053" lon="11.1837631"><ele>94.0</ele><time>2026-04-25T14:26:54.329Z</time></trkpt><trkpt lat="43.8838397" lon="11.1838798"><ele>94.0</ele><time>2026-04-25T14:26:55.325Z</time></trkpt><trkpt lat="43.8838752" lon="11.183999"><ele>94.0</ele><time>2026-04-25T14:26:56.327Z</time></trkpt><trkpt lat="43.8839084" lon="11.1841122"><ele>94.0</ele><time>2026-04-25T14:26:57.326Z</time></trkpt><trkpt lat="43.8839399" lon="11.1842223"><ele>94.0</ele><time>2026-04-25T14:26:58.326Z</time></trkpt><trkpt lat="43.8839612" lon="11.1843183"><ele>94.0</ele><time>2026-04-25T14:26:59.325Z</time></trkpt><trkpt lat="43.884004" lon="11.184445"><ele>94.0</ele><time>2026-04-25T14:27:01.308Z</time></trkpt><trkpt lat="43.8841073" lon="11.1844629"><ele>94.16666666666666</ele><time>2026-04-25T14:27:03.31Z</time></trkpt><trkpt lat="43.8841833" lon="11.1844445"><ele>94.33333333333333</ele><time>2026-04-25T14:27:04.319Z</time></trkpt><trkpt lat="43.8842528" lon="11.1844198"><ele>94.5</ele><time>2026-04-25T14:27:05.305Z</time></trkpt><trkpt lat="43.8843182" lon="11.1843952"><ele>94.66666666666667</ele><time>2026-04-25T14:27:06.333Z</time></trkpt><trkpt lat="43.8843868" lon="11.1843761"><ele>94.83333333333334</ele><time>2026-04-25T14:27:07.331Z</time></trkpt><trkpt lat="43.8844818" lon="11.1843381"><ele>95.0</ele><time>2026-04-25T14:27:09.317Z</time></trkpt><trkpt lat="43.8845463" lon="11.1843502"><ele>95.0</ele><time>2026-04-25T14:27:11.329Z</time></trkpt><trkpt lat="43.884582" lon="11.1844343"><ele>95.0</ele><time>2026-04-25T14:27:13.334Z</time></trkpt><trkpt lat="43.8846329" lon="11.1846055"><ele>95.0</ele><time>2026-04-25T14:27:15.326Z</time></trkpt><trkpt lat="43.8846773" lon="11.1847073"><ele>95.0</ele><time>2026-04-25T14:27:16.335Z</time></trkpt><trkpt lat="43.8847334" lon="11.1848323"><ele>95.0</ele><time>2026-04-25T14:27:17.335Z</time></trkpt><trkpt lat="43.8847923" lon="11.184976"><ele>95.5</ele><time>2026-04-25T14:27:18.328Z</time></trkpt><trkpt lat="43.8848543" lon="11.1851087"><ele>96.0</ele><time>2026-04-25T14:27:19.329Z</time></trkpt><trkpt lat="43.8849183" lon="11.1852544"><ele>96.5</ele><time>2026-04-25T14:27:20.326Z</time></trkpt><trkpt lat="43.8849981" lon="11.1853903"><ele>97.0</ele><time>2026-04-25T14:27:21.341Z</time></trkpt><trkpt lat="43.8850878" lon="11.1855214"><ele>97.0</ele><time>2026-04-25T14:27:22.323Z</time></trkpt><trkpt lat="43.8851864" lon="11.1856392"><ele>97.0</ele><time>2026-04-25T14:27:23.335Z</time></trkpt><trkpt lat="43.8853021" lon="11.1857248"><ele>97.0</ele><time>2026-04-25T14:27:24.356Z</time></trkpt><trkpt lat="43.8854248" lon="11.1857877"><ele>97.0</ele><time>2026-04-25T14:27:25.341Z</time></trkpt><trkpt lat="43.8855431" lon="11.1858476"><ele>97.0</ele><time>2026-04-25T14:27:26.345Z</time></trkpt><trkpt lat="43.8856639" lon="11.1859096"><ele>97.0</ele><time>2026-04-25T14:27:27.352Z</time></trkpt><trkpt lat="43.885782" lon="11.1859886"><ele>97.0</ele><time>2026-04-25T14:27:28.357Z</time></trkpt><trkpt lat="43.8859016" lon="11.1860823"><ele>97.0</ele><time>2026-04-25T14:27:29.346Z</time></trkpt><trkpt lat="43.8860157" lon="11.1861971"><ele>98.25</ele><time>2026-04-25T14:27:30.346Z</time></trkpt><trkpt lat="43.8861159" lon="11.1863476"><ele>99.5</ele><time>2026-04-25T14:27:31.345Z</time></trkpt><trkpt lat="43.8862222" lon="11.1864972"><ele>100.75</ele><time>2026-04-25T14:27:32.347Z</time></trkpt><trkpt lat="43.8863258" lon="11.1866432"><ele>102.0</ele><time>2026-04-25T14:27:33.348Z</time></trkpt><trkpt lat="43.886424" lon="11.1867926"><ele>102.0</ele><time>2026-04-25T14:27:34.355Z</time></trkpt><trkpt lat="43.8865244" lon="11.1869327"><ele>102.0</ele><time>2026-04-25T14:27:35.344Z</time></trkpt><trkpt lat="43.886629" lon="11.1870851"><ele>102.0</ele><time>2026-04-25T14:27:36.347Z</time></trkpt><trkpt lat="43.88674" lon="11.1872436"><ele>104.0</ele><time>2026-04-25T14:27:37.344Z</time></trkpt><trkpt lat="43.8868432" lon="11.1874151"><ele>106.0</ele><time>2026-04-25T14:27:38.34Z</time></trkpt><trkpt lat="43.8869246" lon="11.1875488"><ele>108.0</ele><time>2026-04-25T14:27:39.335Z</time></trkpt><trkpt lat="43.886983" lon="11.1876545"><ele>110.0</ele><time>2026-04-25T14:27:40.33Z</time></trkpt><trkpt lat="43.8870309" lon="11.1877535"><ele>109.99999999999999</ele><time>2026-04-25T14:27:41.336Z</time></trkpt><trkpt lat="43.8870754" lon="11.1878496"><ele>110.0</ele><time>2026-04-25T14:27:42.341Z</time></trkpt><trkpt lat="43.8871174" lon="11.1879618"><ele>110.0</ele><time>2026-04-25T14:27:43.341Z</time></trkpt><trkpt lat="43.8871408" lon="11.1880624"><ele>110.0</ele><time>2026-04-25T14:27:44.352Z</time></trkpt><trkpt lat="43.8871663" lon="11.1881718"><ele>109.99999999999999</ele><time>2026-04-25T14:27:45.34Z</time></trkpt><trkpt lat="43.8871815" lon="11.1882761"><ele>110.0</ele><time>2026-04-25T14:27:46.344Z</time></trkpt><trkpt lat="43.887193" lon="11.1883767"><ele>109.99999999999999</ele><time>2026-04-25T14:27:47.339Z</time></trkpt><trkpt lat="43.8871971" lon="11.1884731"><ele>110.0</ele><time>2026-04-25T14:27:48.342Z</time></trkpt><trkpt lat="43.8871934" lon="11.1886333"><ele>110.0</ele><time>2026-04-25T14:27:50.339Z</time></trkpt><trkpt lat="43.8871732" lon="11.1887461"><ele>110.0</ele><time>2026-04-25T14:27:52.358Z</time></trkpt><trkpt lat="43.8871188" lon="11.1888155"><ele>109.99999999999999</ele><time>2026-04-25T14:27:55.345Z</time></trkpt><trkpt lat="43.8871986" lon="11.1887805"><ele>110.0</ele><time>2026-04-25T14:28:00.358Z</time></trkpt><trkpt lat="43.8872054" lon="11.1885865"><ele>109.99999999999999</ele><time>2026-04-25T14:28:02.352Z</time></trkpt><trkpt lat="43.8872064" lon="11.1884781"><ele>110.0</ele><time>2026-04-25T14:28:03.349Z</time></trkpt><trkpt lat="43.8872015" lon="11.1883488"><ele>110.0</ele><time>2026-04-25T14:28:04.363Z</time></trkpt><trkpt lat="43.8871951" lon="11.1882369"><ele>110.0</ele><time>2026-04-25T14:28:05.347Z</time></trkpt><trkpt lat="43.8871859" lon="11.188144"><ele>109.99999999999999</ele><time>2026-04-25T14:28:06.352Z</time></trkpt><trkpt lat="43.8871599" lon="11.1879815"><ele>110.0</ele><time>2026-04-25T14:28:08.346Z</time></trkpt><trkpt lat="43.8871177" lon="11.1878401"><ele>109.99999999999999</ele><time>2026-04-25T14:28:10.344Z</time></trkpt><trkpt lat="43.8870712" lon="11.187709"><ele>110.0</ele><time>2026-04-25T14:28:12.332Z</time></trkpt><trkpt lat="43.8871583" lon="11.1876729"><ele>110.0</ele><time>2026-04-25T14:28:15.343Z</time></trkpt><trkpt lat="43.887221" lon="11.1876849"><ele>110.0</ele><time>2026-04-25T14:28:16.35Z</time></trkpt><trkpt lat="43.8872886" lon="11.1876795"><ele>109.99999999999999</ele><time>2026-04-25T14:28:17.349Z</time></trkpt><trkpt lat="43.8873846" lon="11.1876625"><ele>110.0</ele><time>2026-04-25T14:28:19.339Z</time></trkpt><trkpt lat="43.887454" lon="11.1876393"><ele>110.0</ele><time>2026-04-25T14:28:22.346Z</time></trkpt><trkpt lat="43.887536" lon="11.1876127"><ele>110.0</ele><time>2026-04-25T14:28:24.341Z</time></trkpt><trkpt lat="43.8876603" lon="11.1875691"><ele>110.0</ele><time>2026-04-25T14:28:26.333Z</time></trkpt><trkpt lat="43.8877288" lon="11.1875288"><ele>110.0</ele><time>2026-04-25T14:28:27.339Z</time></trkpt><trkpt lat="43.8878104" lon="11.1874287"><ele>110.0</ele><time>2026-04-25T14:28:29.325Z</time></trkpt><trkpt lat="43.8878273" lon="11.1872589"><ele>113.49999999999999</ele><time>2026-04-25T14:28:31.335Z</time></trkpt><trkpt lat="43.8878102" lon="11.1871715"><ele>117.0</ele><time>2026-04-25T14:28:32.328Z</time></trkpt><trkpt lat="43.8877963" lon="11.1870824"><ele>120.5</ele><time>2026-04-25T14:28:33.326Z</time></trkpt><trkpt lat="43.8877945" lon="11.1869854"><ele>124.0</ele><time>2026-04-25T14:28:34.32Z</time></trkpt><trkpt lat="43.8877782" lon="11.1868195"><ele>127.49999999999999</ele><time>2026-04-25T14:28:36.325Z</time></trkpt><trkpt lat="43.8877807" lon="11.1867322"><ele>131.0</ele><time>2026-04-25T14:28:37.322Z</time></trkpt><trkpt lat="43.8877863" lon="11.1865508"><ele>132.83333333333331</ele><time>2026-04-25T14:28:39.333Z</time></trkpt><trkpt lat="43.8878035" lon="11.1864504"><ele>134.66666666666666</ele><time>2026-04-25T14:28:40.327Z</time></trkpt><trkpt lat="43.8878277" lon="11.186362"><ele>136.5</ele><time>2026-04-25T14:28:41.326Z</time></trkpt><trkpt lat="43.8878594" lon="11.1862646"><ele>138.33333333333334</ele><time>2026-04-25T14:28:42.328Z</time></trkpt><trkpt lat="43.8878813" lon="11.1861571"><ele>140.16666666666669</ele><time>2026-04-25T14:28:43.329Z</time></trkpt><trkpt lat="43.8878923" lon="11.186035"><ele>142.0</ele><time>2026-04-25T14:28:44.331Z</time></trkpt><trkpt lat="43.8878977" lon="11.1859302"><ele>142.0</ele><time>2026-04-25T14:28:45.329Z</time></trkpt><trkpt lat="43.8879016" lon="11.1858328"><ele>142.0</ele><time>2026-04-25T14:28:46.324Z</time></trkpt><trkpt lat="43.8879001" lon="11.1857157"><ele>142.0</ele><time>2026-04-25T14:28:47.341Z</time></trkpt><trkpt lat="43.8878886" lon="11.1855937"><ele>142.0</ele><time>2026-04-25T14:28:48.331Z</time></trkpt><trkpt lat="43.8878639" lon="11.1854794"><ele>142.0</ele><time>2026-04-25T14:28:49.328Z</time></trkpt><trkpt lat="43.8878361" lon="11.1853752"><ele>142.0</ele><time>2026-04-25T14:28:50.326Z</time></trkpt><trkpt lat="43.8878081" lon="11.1852732"><ele>141.79999999999998</ele><time>2026-04-25T14:28:51.329Z</time></trkpt><trkpt lat="43.8877907" lon="11.1851829"><ele>141.6</ele><time>2026-04-25T14:28:52.335Z</time></trkpt><trkpt lat="43.8877979" lon="11.1850562"><ele>141.39999999999998</ele><time>2026-04-25T14:28:54.374Z</time></trkpt><trkpt lat="43.8878788" lon="11.1850673"><ele>141.2</ele><time>2026-04-25T14:28:56.339Z</time></trkpt><trkpt lat="43.8879595" lon="11.1851875"><ele>141.0</ele><time>2026-04-25T14:28:58.367Z</time></trkpt><trkpt lat="43.8880202" lon="11.1852834"><ele>141.0</ele><time>2026-04-25T14:28:59.343Z</time></trkpt><trkpt lat="43.8880835" lon="11.1853868"><ele>141.0</ele><time>2026-04-25T14:29:00.352Z</time></trkpt><trkpt lat="43.8881426" lon="11.1854799"><ele>141.0</ele><time>2026-04-25T14:29:01.345Z</time></trkpt><trkpt lat="43.8882011" lon="11.1855576"><ele>141.0</ele><time>2026-04-25T14:29:02.345Z</time></trkpt><trkpt lat="43.888265" lon="11.1856414"><ele>141.0</ele><time>2026-04-25T14:29:03.348Z</time></trkpt><trkpt lat="43.8883306" lon="11.1857351"><ele>141.16666666666666</ele><time>2026-04-25T14:29:04.339Z</time></trkpt><trkpt lat="43.8883873" lon="11.1858127"><ele>141.33333333333334</ele><time>2026-04-25T14:29:05.343Z</time></trkpt><trkpt lat="43.8884566" lon="11.1858762"><ele>141.5</ele><time>2026-04-25T14:29:06.341Z</time></trkpt><trkpt lat="43.8885257" lon="11.1859324"><ele>141.66666666666669</ele><time>2026-04-25T14:29:07.342Z</time></trkpt><trkpt lat="43.8886029" lon="11.1859595"><ele>141.83333333333334</ele><time>2026-04-25T14:29:08.338Z</time></trkpt><trkpt lat="43.8886831" lon="11.1859777"><ele>142.0</ele><time>2026-04-25T14:29:09.34Z</time></trkpt><trkpt lat="43.8887569" lon="11.1859887"><ele>143.28571428571428</ele><time>2026-04-25T14:29:10.335Z</time></trkpt><trkpt lat="43.88883" lon="11.1860057"><ele>144.57142857142856</ele><time>2026-04-25T14:29:11.339Z</time></trkpt><trkpt lat="43.8889021" lon="11.1860233"><ele>145.85714285714286</ele><time>2026-04-25T14:29:12.337Z</time></trkpt><trkpt lat="43.888977" lon="11.1860365"><ele>147.14285714285714</ele><time>2026-04-25T14:29:13.338Z</time></trkpt><trkpt lat="43.8890491" lon="11.1860553"><ele>148.42857142857144</ele><time>2026-04-25T14:29:14.332Z</time></trkpt><trkpt lat="43.8891224" lon="11.186072"><ele>149.71428571428572</ele><time>2026-04-25T14:29:15.336Z</time></trkpt><trkpt lat="43.8891998" lon="11.1860905"><ele>151.0</ele><time>2026-04-25T14:29:16.339Z</time></trkpt><trkpt lat="43.8892824" lon="11.1861151"><ele>151.0</ele><time>2026-04-25T14:29:17.343Z</time></trkpt><trkpt lat="43.8893609" lon="11.186144"><ele>151.0</ele><time>2026-04-25T14:29:18.343Z</time></trkpt><trkpt lat="43.8894413" lon="11.1861799"><ele>151.0</ele><time>2026-04-25T14:29:19.335Z</time></trkpt><trkpt lat="43.8895137" lon="11.1862298"><ele>151.0</ele><time>2026-04-25T14:29:20.335Z</time></trkpt><trkpt lat="43.8895736" lon="11.1863066"><ele>151.0</ele><time>2026-04-25T14:29:21.332Z</time></trkpt><trkpt lat="43.8896303" lon="11.1863985"><ele>151.0</ele><time>2026-04-25T14:29:22.337Z</time></trkpt><trkpt lat="43.889683" lon="11.1864888"><ele>152.83333333333334</ele><time>2026-04-25T14:29:23.33Z</time></trkpt><trkpt lat="43.8897405" lon="11.1865797"><ele>154.66666666666669</ele><time>2026-04-25T14:29:24.333Z</time></trkpt><trkpt lat="43.8897932" lon="11.1866808"><ele>156.5</ele><time>2026-04-25T14:29:25.351Z</time></trkpt><trkpt lat="43.8898437" lon="11.1867775"><ele>158.33333333333334</ele><time>2026-04-25T14:29:26.337Z</time></trkpt><trkpt lat="43.8898901" lon="11.1868726"><ele>160.16666666666666</ele><time>2026-04-25T14:29:27.34Z</time></trkpt><trkpt lat="43.8899377" lon="11.1869727"><ele>162.0</ele><time>2026-04-25T14:29:28.338Z</time></trkpt><trkpt lat="43.8899837" lon="11.1870861"><ele>162.0</ele><time>2026-04-25T14:29:29.345Z</time></trkpt><trkpt lat="43.8900233" lon="11.1871975"><ele>162.0</ele><time>2026-04-25T14:29:30.338Z</time></trkpt><trkpt lat="43.8900588" lon="11.1873075"><ele>162.0</ele><time>2026-04-25T14:29:31.34Z</time></trkpt><trkpt lat="43.8901051" lon="11.1874061"><ele>162.0</ele><time>2026-04-25T14:29:32.335Z</time></trkpt><trkpt lat="43.8901667" lon="11.1874992"><ele>162.0</ele><time>2026-04-25T14:29:33.332Z</time></trkpt><trkpt lat="43.8902284" lon="11.1875889"><ele>162.0</ele><time>2026-04-25T14:29:34.336Z</time></trkpt><trkpt lat="43.8903003" lon="11.1876507"><ele>163.83333333333334</ele><time>2026-04-25T14:29:35.337Z</time></trkpt><trkpt lat="43.8903744" lon="11.1877323"><ele>165.66666666666666</ele><time>2026-04-25T14:29:37.333Z</time></trkpt><trkpt lat="43.8904124" lon="11.1878264"><ele>167.5</ele><time>2026-04-25T14:29:41.346Z</time></trkpt><trkpt lat="43.8904374" lon="11.1879439"><ele>169.33333333333331</ele><time>2026-04-25T14:29:44.34Z</time></trkpt><trkpt lat="43.8904862" lon="11.1880018"><ele>171.16666666666666</ele><time>2026-04-25T14:29:46.344Z</time></trkpt><trkpt lat="43.8905626" lon="11.1880631"><ele>173.0</ele><time>2026-04-25T14:29:49.34Z</time></trkpt><trkpt lat="43.8906209" lon="11.1881025"><ele>174.0</ele><time>2026-04-25T14:29:52.339Z</time></trkpt><trkpt lat="43.8906557" lon="11.1881919"><ele>175.0</ele><time>2026-04-25T14:29:55.329Z</time></trkpt><trkpt lat="43.8906704" lon="11.1882914"><ele>176.0</ele><time>2026-04-25T14:29:57.33Z</time></trkpt><trkpt lat="43.8906651" lon="11.1884676"><ele>177.0</ele><time>2026-04-25T14:29:59.324Z</time></trkpt><trkpt lat="43.8906558" lon="11.1885768"><ele>178.0</ele><time>2026-04-25T14:30:00.321Z</time></trkpt><trkpt lat="43.8906267" lon="11.1887001"><ele>179.0</ele><time>2026-04-25T14:30:01.311Z</time></trkpt><trkpt lat="43.890595" lon="11.1888103"><ele>179.0</ele><time>2026-04-25T14:30:02.314Z</time></trkpt><trkpt lat="43.8905983" lon="11.188967"><ele>179.0</ele><time>2026-04-25T14:30:04.313Z</time></trkpt><trkpt lat="43.8906497" lon="11.1891242"><ele>179.0</ele><time>2026-04-25T14:30:06.317Z</time></trkpt><trkpt lat="43.8906947" lon="11.1891926"><ele>179.0</ele><time>2026-04-25T14:30:07.327Z</time></trkpt><trkpt lat="43.89075" lon="11.1892483"><ele>179.0</ele><time>2026-04-25T14:30:08.32Z</time></trkpt><trkpt lat="43.890816" lon="11.1892952"><ele>179.0</ele><time>2026-04-25T14:30:09.323Z</time></trkpt><trkpt lat="43.8908803" lon="11.1893292"><ele>181.0</ele><time>2026-04-25T14:30:10.32Z</time></trkpt><trkpt lat="43.8909491" lon="11.189344"><ele>183.0</ele><time>2026-04-25T14:30:11.316Z</time></trkpt><trkpt lat="43.8910258" lon="11.1893451"><ele>185.0</ele><time>2026-04-25T14:30:12.323Z</time></trkpt><trkpt lat="43.891132" lon="11.1893567"><ele>187.0</ele><time>2026-04-25T14:30:14.322Z</time></trkpt><trkpt lat="43.8912008" lon="11.1893697"><ele>189.0</ele><time>2026-04-25T14:30:15.324Z</time></trkpt><trkpt lat="43.8912913" lon="11.1894122"><ele>191.0</ele><time>2026-04-25T14:30:16.327Z</time></trkpt><trkpt lat="43.8913876" lon="11.1894662"><ele>191.0</ele><time>2026-04-25T14:30:17.32Z</time></trkpt><trkpt lat="43.8914775" lon="11.1895255"><ele>191.0</ele><time>2026-04-25T14:30:18.319Z</time></trkpt><trkpt lat="43.8915758" lon="11.1896058"><ele>191.0</ele><time>2026-04-25T14:30:19.309Z</time></trkpt><trkpt lat="43.8916635" lon="11.1896969"><ele>191.0</ele><time>2026-04-25T14:30:20.309Z</time></trkpt><trkpt lat="43.8917444" lon="11.1898338"><ele>193.4</ele><time>2026-04-25T14:30:21.319Z</time></trkpt><trkpt lat="43.89182" lon="11.189977"><ele>195.8</ele><time>2026-04-25T14:30:22.312Z</time></trkpt><trkpt lat="43.8918992" lon="11.190093"><ele>198.20000000000002</ele><time>2026-04-25T14:30:23.322Z</time></trkpt><trkpt lat="43.8919787" lon="11.1901988"><ele>200.60000000000002</ele><time>2026-04-25T14:30:24.333Z</time></trkpt><trkpt lat="43.8920357" lon="11.1902963"><ele>203.0</ele><time>2026-04-25T14:30:25.318Z</time></trkpt><trkpt lat="43.8921019" lon="11.1903802"><ele>203.0</ele><time>2026-04-25T14:30:26.326Z</time></trkpt><trkpt lat="43.8921767" lon="11.1904501"><ele>203.0</ele><time>2026-04-25T14:30:27.342Z</time></trkpt><trkpt lat="43.8922781" lon="11.1905108"><ele>203.0</ele><time>2026-04-25T14:30:28.331Z</time></trkpt><trkpt lat="43.8923874" lon="11.1905689"><ele>203.0</ele><time>2026-04-25T14:30:29.326Z</time></trkpt><trkpt lat="43.8924887" lon="11.1906362"><ele>203.0</ele><time>2026-04-25T14:30:30.326Z</time></trkpt><trkpt lat="43.892583" lon="11.1907131"><ele>203.4</ele><time>2026-04-25T14:30:31.325Z</time></trkpt><trkpt lat="43.8926724" lon="11.1907937"><ele>203.8</ele><time>2026-04-25T14:30:32.337Z</time></trkpt><trkpt lat="43.8927469" lon="11.1908812"><ele>204.2</ele><time>2026-04-25T14:30:33.339Z</time></trkpt><trkpt lat="43.8928344" lon="11.1909652"><ele>204.6</ele><time>2026-04-25T14:30:34.338Z</time></trkpt><trkpt lat="43.8929218" lon="11.1910398"><ele>205.0</ele><time>2026-04-25T14:30:35.329Z</time></trkpt><trkpt lat="43.8930168" lon="11.1911014"><ele>205.0</ele><time>2026-04-25T14:30:36.329Z</time></trkpt><trkpt lat="43.8931257" lon="11.191158"><ele>205.0</ele><time>2026-04-25T14:30:37.332Z</time></trkpt><trkpt lat="43.8932242" lon="11.1912207"><ele>205.0</ele><time>2026-04-25T14:30:38.331Z</time></trkpt><trkpt lat="43.8933199" lon="11.1912741"><ele>205.0</ele><time>2026-04-25T14:30:39.326Z</time></trkpt><trkpt lat="43.8933937" lon="11.1913282"><ele>205.0</ele><time>2026-04-25T14:30:40.33Z</time></trkpt><trkpt lat="43.8934578" lon="11.1913704"><ele>206.0</ele><time>2026-04-25T14:30:41.33Z</time></trkpt><trkpt lat="43.8935555" lon="11.1914122"><ele>207.0</ele><time>2026-04-25T14:30:43.333Z</time></trkpt><trkpt lat="43.8936349" lon="11.1914584"><ele>208.0</ele><time>2026-04-25T14:30:45.328Z</time></trkpt><trkpt lat="43.8936915" lon="11.1915599"><ele>209.0</ele><time>2026-04-25T14:30:48.339Z</time></trkpt><trkpt lat="43.8937661" lon="11.1916677"><ele>210.0</ele><time>2026-04-25T14:30:50.334Z</time></trkpt><trkpt lat="43.893805" lon="11.1917431"><ele>210.0</ele><time>2026-04-25T14:30:51.336Z</time></trkpt><trkpt lat="43.8938508" lon="11.1918113"><ele>210.0</ele><time>2026-04-25T14:30:52.328Z</time></trkpt><trkpt lat="43.8939281" lon="11.1918707"><ele>210.0</ele><time>2026-04-25T14:30:53.334Z</time></trkpt><trkpt lat="43.8939922" lon="11.1919343"><ele>210.0</ele><time>2026-04-25T14:30:54.327Z</time></trkpt><trkpt lat="43.8940407" lon="11.1920041"><ele>210.0</ele><time>2026-04-25T14:30:55.33Z</time></trkpt><trkpt lat="43.8940806" lon="11.1920903"><ele>210.0</ele><time>2026-04-25T14:30:56.328Z</time></trkpt><trkpt lat="43.8941246" lon="11.192167"><ele>210.0</ele><time>2026-04-25T14:30:57.33Z</time></trkpt><trkpt lat="43.8941901" lon="11.1922948"><ele>210.33333333333334</ele><time>2026-04-25T14:30:59.33Z</time></trkpt><trkpt lat="43.8942173" lon="11.1924345"><ele>210.66666666666669</ele><time>2026-04-25T14:31:01.332Z</time></trkpt><trkpt lat="43.8942176" lon="11.1925352"><ele>211.0</ele><time>2026-04-25T14:31:03.334Z</time></trkpt><trkpt lat="43.8942129" lon="11.1926239"><ele>211.33333333333334</ele><time>2026-04-25T14:31:05.338Z</time></trkpt><trkpt lat="43.8942694" lon="11.1926632"><ele>211.66666666666669</ele><time>2026-04-25T14:31:11.344Z</time></trkpt><trkpt lat="43.8943369" lon="11.1927787"><ele>212.0</ele><time>2026-04-25T14:31:14.334Z</time></trkpt><trkpt lat="43.8943611" lon="11.1928808"><ele>212.0</ele><time>2026-04-25T14:31:15.326Z</time></trkpt><trkpt lat="43.8943911" lon="11.1930287"><ele>212.0</ele><time>2026-04-25T14:31:16.323Z</time></trkpt><trkpt lat="43.894433" lon="11.1931878"><ele>212.0</ele><time>2026-04-25T14:31:17.318Z</time></trkpt><trkpt lat="43.8944756" lon="11.1933522"><ele>212.0</ele><time>2026-04-25T14:31:18.322Z</time></trkpt><trkpt lat="43.894509" lon="11.1935113"><ele>214.2</ele><time>2026-04-25T14:31:19.318Z</time></trkpt><trkpt lat="43.8945444" lon="11.1936664"><ele>216.39999999999998</ele><time>2026-04-25T14:31:20.317Z</time></trkpt><trkpt lat="43.8945767" lon="11.1937993"><ele>218.60000000000002</ele><time>2026-04-25T14:31:21.317Z</time></trkpt><trkpt lat="43.8946113" lon="11.193937"><ele>220.8</ele><time>2026-04-25T14:31:22.317Z</time></trkpt><trkpt lat="43.8946535" lon="11.1940546"><ele>223.0</ele><time>2026-04-25T14:31:23.318Z</time></trkpt><trkpt lat="43.8947003" lon="11.1941631"><ele>225.4</ele><time>2026-04-25T14:31:24.323Z</time></trkpt><trkpt lat="43.89475" lon="11.1942734"><ele>227.8</ele><time>2026-04-25T14:31:25.318Z</time></trkpt><trkpt lat="43.8947998" lon="11.1943907"><ele>230.2</ele><time>2026-04-25T14:31:26.323Z</time></trkpt><trkpt lat="43.8948516" lon="11.1945085"><ele>232.6</ele><time>2026-04-25T14:31:27.327Z</time></trkpt><trkpt lat="43.8949073" lon="11.1946193"><ele>235.0</ele><time>2026-04-25T14:31:28.327Z</time></trkpt><trkpt lat="43.8949615" lon="11.1947267"><ele>235.0</ele><time>2026-04-25T14:31:29.349Z</time></trkpt><trkpt lat="43.8950241" lon="11.1948292"><ele>235.0</ele><time>2026-04-25T14:31:30.323Z</time></trkpt><trkpt lat="43.8950899" lon="11.1949202"><ele>235.0</ele><time>2026-04-25T14:31:31.325Z</time></trkpt><trkpt lat="43.8951934" lon="11.1950039"><ele>235.0</ele><time>2026-04-25T14:31:32.312Z</time></trkpt><trkpt lat="43.8953102" lon="11.1951041"><ele>235.0</ele><time>2026-04-25T14:31:33.315Z</time></trkpt><trkpt lat="43.8954214" lon="11.1952082"><ele>237.16666666666666</ele><time>2026-04-25T14:31:34.316Z</time></trkpt><trkpt lat="43.8955093" lon="11.1952846"><ele>239.33333333333331</ele><time>2026-04-25T14:31:35.318Z</time></trkpt><trkpt lat="43.8955805" lon="11.1953511"><ele>241.5</ele><time>2026-04-25T14:31:36.314Z</time></trkpt><trkpt lat="43.8956428" lon="11.1954173"><ele>243.66666666666669</ele><time>2026-04-25T14:31:37.319Z</time></trkpt><trkpt lat="43.895687" lon="11.195492"><ele>245.83333333333334</ele><time>2026-04-25T14:31:38.32Z</time></trkpt><trkpt lat="43.8957061" lon="11.19558"><ele>248.0</ele><time>2026-04-25T14:31:39.326Z</time></trkpt><trkpt lat="43.8957125" lon="11.1957085"><ele>250.25</ele><time>2026-04-25T14:31:40.33Z</time></trkpt><trkpt lat="43.8957108" lon="11.1958653"><ele>252.5</ele><time>2026-04-25T14:31:41.319Z</time></trkpt><trkpt lat="43.8957105" lon="11.1960432"><ele>254.75</ele><time>2026-04-25T14:31:42.319Z</time></trkpt><trkpt lat="43.89571" lon="11.1962103"><ele>257.0</ele><time>2026-04-25T14:31:43.318Z</time></trkpt><trkpt lat="43.8957105" lon="11.1963596"><ele>257.0</ele><time>2026-04-25T14:31:44.318Z</time></trkpt><trkpt lat="43.8957209" lon="11.1964688"><ele>257.0</ele><time>2026-04-25T14:31:45.319Z</time></trkpt><trkpt lat="43.8957412" lon="11.1965573"><ele>257.0</ele><time>2026-04-25T14:31:46.317Z</time></trkpt><trkpt lat="43.8957946" lon="11.1967198"><ele>257.0</ele><time>2026-04-25T14:31:48.33Z</time></trkpt><trkpt lat="43.8958613" lon="11.1968485"><ele>257.0</ele><time>2026-04-25T14:31:50.323Z</time></trkpt><trkpt lat="43.8959232" lon="11.1969817"><ele>256.0</ele><time>2026-04-25T14:31:52.327Z</time></trkpt><trkpt lat="43.8959921" lon="11.1971008"><ele>255.0</ele><time>2026-04-25T14:31:54.324Z</time></trkpt><trkpt lat="43.8960398" lon="11.1971665"><ele>254.0</ele><time>2026-04-25T14:31:55.325Z</time></trkpt><trkpt lat="43.896091" lon="11.197238"><ele>253.0</ele><time>2026-04-25T14:31:56.321Z</time></trkpt><trkpt lat="43.8961481" lon="11.1973163"><ele>252.00000000000003</ele><time>2026-04-25T14:31:57.321Z</time></trkpt><trkpt lat="43.8962099" lon="11.1974142"><ele>251.0</ele><time>2026-04-25T14:31:58.327Z</time></trkpt><trkpt lat="43.8962676" lon="11.1974854"><ele>253.66666666666669</ele><time>2026-04-25T14:31:59.337Z</time></trkpt><trkpt lat="43.8963225" lon="11.197533"><ele>256.33333333333337</ele><time>2026-04-25T14:32:00.32Z</time></trkpt><trkpt lat="43.8963921" lon="11.1975568"><ele>259.0</ele><time>2026-04-25T14:32:01.325Z</time></trkpt><trkpt lat="43.8964755" lon="11.1975625"><ele>261.6666666666667</ele><time>2026-04-25T14:32:02.323Z</time></trkpt><trkpt lat="43.8965568" lon="11.1975598"><ele>264.3333333333333</ele><time>2026-04-25T14:32:03.312Z</time></trkpt><trkpt lat="43.896648" lon="11.197532"><ele>267.0</ele><time>2026-04-25T14:32:04.307Z</time></trkpt><trkpt lat="43.8967422" lon="11.1975069"><ele>267.1666666666667</ele><time>2026-04-25T14:32:05.309Z</time></trkpt><trkpt lat="43.8968258" lon="11.197483"><ele>267.3333333333333</ele><time>2026-04-25T14:32:06.311Z</time></trkpt><trkpt lat="43.896904" lon="11.1974577"><ele>267.5</ele><time>2026-04-25T14:32:07.313Z</time></trkpt><trkpt lat="43.8969902" lon="11.1974318"><ele>267.66666666666663</ele><time>2026-04-25T14:32:08.311Z</time></trkpt><trkpt lat="43.8970812" lon="11.1974321"><ele>267.8333333333333</ele><time>2026-04-25T14:32:09.309Z</time></trkpt><trkpt lat="43.8971675" lon="11.1974433"><ele>268.0</ele><time>2026-04-25T14:32:10.311Z</time></trkpt><trkpt lat="43.8972457" lon="11.1974734"><ele>268.0</ele><time>2026-04-25T14:32:11.309Z</time></trkpt><trkpt lat="43.8973236" lon="11.1975108"><ele>268.0</ele><time>2026-04-25T14:32:12.312Z</time></trkpt><trkpt lat="43.8974031" lon="11.1975955"><ele>268.0</ele><time>2026-04-25T14:32:13.314Z</time></trkpt><trkpt lat="43.8974813" lon="11.197714"><ele>268.0</ele><time>2026-04-25T14:32:14.31Z</time></trkpt><trkpt lat="43.8975511" lon="11.1978443"><ele>268.0</ele><time>2026-04-25T14:32:15.317Z</time></trkpt><trkpt lat="43.8976305" lon="11.1979721"><ele>266.6</ele><time>2026-04-25T14:32:16.321Z</time></trkpt><trkpt lat="43.8977119" lon="11.198085"><ele>265.20000000000005</ele><time>2026-04-25T14:32:17.32Z</time></trkpt><trkpt lat="43.897781" lon="11.1981973"><ele>263.8</ele><time>2026-04-25T14:32:18.319Z</time></trkpt><trkpt lat="43.8978557" lon="11.1983046"><ele>262.40000000000003</ele><time>2026-04-25T14:32:19.322Z</time></trkpt><trkpt lat="43.8979299" lon="11.1984082"><ele>261.0</ele><time>2026-04-25T14:32:20.326Z</time></trkpt><trkpt lat="43.8980019" lon="11.1985194"><ele>261.0</ele><time>2026-04-25T14:32:21.318Z</time></trkpt><trkpt lat="43.8980665" lon="11.1986383"><ele>261.0</ele><time>2026-04-25T14:32:22.328Z</time></trkpt><trkpt lat="43.8981324" lon="11.1987465"><ele>261.0</ele><time>2026-04-25T14:32:23.322Z</time></trkpt><trkpt lat="43.8981895" lon="11.198854"><ele>261.0</ele><time>2026-04-25T14:32:24.323Z</time></trkpt><trkpt lat="43.8982508" lon="11.19896"><ele>261.0</ele><time>2026-04-25T14:32:25.325Z</time></trkpt><trkpt lat="43.8983145" lon="11.1990576"><ele>261.5</ele><time>2026-04-25T14:32:26.324Z</time></trkpt><trkpt lat="43.8983741" lon="11.1991654"><ele>262.0</ele><time>2026-04-25T14:32:27.326Z</time></trkpt><trkpt lat="43.8984245" lon="11.1992475"><ele>262.5</ele><time>2026-04-25T14:32:28.329Z</time></trkpt><trkpt lat="43.8984763" lon="11.1993208"><ele>263.0</ele><time>2026-04-25T14:32:29.326Z</time></trkpt><trkpt lat="43.8985329" lon="11.1993931"><ele>263.5</ele><time>2026-04-25T14:32:30.335Z</time></trkpt><trkpt lat="43.8986046" lon="11.1994685"><ele>264.0</ele><time>2026-04-25T14:32:31.326Z</time></trkpt><trkpt lat="43.8986944" lon="11.1995328"><ele>264.0</ele><time>2026-04-25T14:32:32.335Z</time></trkpt><trkpt lat="43.8987745" lon="11.1995716"><ele>264.0</ele><time>2026-04-25T14:32:33.334Z</time></trkpt><trkpt lat="43.8988652" lon="11.1996398"><ele>264.0</ele><time>2026-04-25T14:32:34.336Z</time></trkpt><trkpt lat="43.8989514" lon="11.199699"><ele>264.0</ele><time>2026-04-25T14:32:35.337Z</time></trkpt><trkpt lat="43.8990321" lon="11.1997529"><ele>264.0</ele><time>2026-04-25T14:32:36.336Z</time></trkpt><trkpt lat="43.8991087" lon="11.1997875"><ele>266.0</ele><time>2026-04-25T14:32:37.335Z</time></trkpt><trkpt lat="43.899189" lon="11.1998364"><ele>268.0</ele><time>2026-04-25T14:32:38.335Z</time></trkpt><trkpt lat="43.8992766" lon="11.1998791"><ele>270.0</ele><time>2026-04-25T14:32:39.332Z</time></trkpt><trkpt lat="43.8993724" lon="11.1998935"><ele>272.0</ele><time>2026-04-25T14:32:40.328Z</time></trkpt><trkpt lat="43.8994841" lon="11.1999008"><ele>274.0</ele><time>2026-04-25T14:32:41.335Z</time></trkpt><trkpt lat="43.8996029" lon="11.1999118"><ele>274.0</ele><time>2026-04-25T14:32:42.333Z</time></trkpt><trkpt lat="43.8997121" lon="11.1999248"><ele>274.0</ele><time>2026-04-25T14:32:43.335Z</time></trkpt><trkpt lat="43.8998207" lon="11.1999378"><ele>274.0</ele><time>2026-04-25T14:32:44.33Z</time></trkpt><trkpt lat="43.8999307" lon="11.1999456"><ele>274.0</ele><time>2026-04-25T14:32:45.336Z</time></trkpt><trkpt lat="43.9000354" lon="11.1999594"><ele>274.0</ele><time>2026-04-25T14:32:46.341Z</time></trkpt><trkpt lat="43.9001296" lon="11.1999771"><ele>274.0</ele><time>2026-04-25T14:32:47.34Z</time></trkpt><trkpt lat="43.9002193" lon="11.1999873"><ele>274.0</ele><time>2026-04-25T14:32:48.339Z</time></trkpt><trkpt lat="43.9003104" lon="11.1999928"><ele>274.0</ele><time>2026-04-25T14:32:49.338Z</time></trkpt><trkpt lat="43.9003961" lon="11.2000067"><ele>274.0</ele><time>2026-04-25T14:32:50.334Z</time></trkpt><trkpt lat="43.9004861" lon="11.2000222"><ele>274.0</ele><time>2026-04-25T14:32:51.332Z</time></trkpt><trkpt lat="43.9005684" lon="11.2000274"><ele>274.0</ele><time>2026-04-25T14:32:52.329Z</time></trkpt><trkpt lat="43.9006473" lon="11.2000313"><ele>274.0</ele><time>2026-04-25T14:32:53.319Z</time></trkpt><trkpt lat="43.9007262" lon="11.2000412"><ele>274.0</ele><time>2026-04-25T14:32:54.313Z</time></trkpt><trkpt lat="43.9008012" lon="11.2000566"><ele>274.0</ele><time>2026-04-25T14:32:55.319Z</time></trkpt><trkpt lat="43.900871" lon="11.2000748"><ele>274.0</ele><time>2026-04-25T14:32:56.328Z</time></trkpt><trkpt lat="43.9009396" lon="11.2000934"><ele>274.0</ele><time>2026-04-25T14:32:57.334Z</time></trkpt><trkpt lat="43.9010142" lon="11.2001294"><ele>274.0</ele><time>2026-04-25T14:32:58.34Z</time></trkpt><trkpt lat="43.9010957" lon="11.2001919"><ele>272.8</ele><time>2026-04-25T14:32:59.336Z</time></trkpt><trkpt lat="43.9011814" lon="11.2002496"><ele>271.59999999999997</ele><time>2026-04-25T14:33:00.341Z</time></trkpt><trkpt lat="43.9012661" lon="11.2003086"><ele>270.4</ele><time>2026-04-25T14:33:01.348Z</time></trkpt><trkpt lat="43.9013522" lon="11.2003612"><ele>269.2</ele><time>2026-04-25T14:33:02.339Z</time></trkpt><trkpt lat="43.9014394" lon="11.2004123"><ele>268.0</ele><time>2026-04-25T14:33:03.343Z</time></trkpt><trkpt lat="43.9015347" lon="11.2004585"><ele>268.0</ele><time>2026-04-25T14:33:04.34Z</time></trkpt><trkpt lat="43.9016191" lon="11.2005081"><ele>268.0</ele><time>2026-04-25T14:33:05.334Z</time></trkpt><trkpt lat="43.901678" lon="11.2005468"><ele>268.0</ele><time>2026-04-25T14:33:06.342Z</time></trkpt><trkpt lat="43.901762" lon="11.2006076"><ele>268.0</ele><time>2026-04-25T14:33:08.351Z</time></trkpt><trkpt lat="43.9018449" lon="11.2006707"><ele>268.0</ele><time>2026-04-25T14:33:10.346Z</time></trkpt><trkpt lat="43.9019066" lon="11.2007176"><ele>268.0</ele><time>2026-04-25T14:33:11.343Z</time></trkpt><trkpt lat="43.9019726" lon="11.2007587"><ele>270.5</ele><time>2026-04-25T14:33:12.346Z</time></trkpt><trkpt lat="43.9020346" lon="11.2007974"><ele>273.0</ele><time>2026-04-25T14:33:13.34Z</time></trkpt><trkpt lat="43.9021016" lon="11.2008363"><ele>275.5</ele><time>2026-04-25T14:33:14.344Z</time></trkpt><trkpt lat="43.902171" lon="11.2008756"><ele>278.0</ele><time>2026-04-25T14:33:15.344Z</time></trkpt><trkpt lat="43.9022332" lon="11.2009118"><ele>280.5</ele><time>2026-04-25T14:33:16.345Z</time></trkpt><trkpt lat="43.9022914" lon="11.2009511"><ele>283.0</ele><time>2026-04-25T14:33:17.342Z</time></trkpt><trkpt lat="43.9024132" lon="11.2010209"><ele>283.0</ele><time>2026-04-25T14:33:19.339Z</time></trkpt><trkpt lat="43.9025286" lon="11.2010671"><ele>283.0</ele><time>2026-04-25T14:33:21.335Z</time></trkpt><trkpt lat="43.9026113" lon="11.2011074"><ele>283.0</ele><time>2026-04-25T14:33:23.335Z</time></trkpt><trkpt lat="43.9026557" lon="11.201172"><ele>283.0</ele><time>2026-04-25T14:33:25.34Z</time></trkpt><trkpt lat="43.9027238" lon="11.2012231"><ele>283.0</ele><time>2026-04-25T14:33:27.334Z</time></trkpt><trkpt lat="43.9028204" lon="11.2013126"><ele>283.66666666666663</ele><time>2026-04-25T14:33:29.325Z</time></trkpt><trkpt lat="43.9029305" lon="11.2013862"><ele>284.3333333333333</ele><time>2026-04-25T14:33:31.329Z</time></trkpt><trkpt lat="43.9029952" lon="11.2014026"><ele>285.0</ele><time>2026-04-25T14:33:32.354Z</time></trkpt><trkpt lat="43.9030689" lon="11.2014135"><ele>285.6666666666667</ele><time>2026-04-25T14:33:33.333Z</time></trkpt><trkpt lat="43.9031437" lon="11.2014244"><ele>286.33333333333337</ele><time>2026-04-25T14:33:34.332Z</time></trkpt><trkpt lat="43.9032253" lon="11.2014251"><ele>287.0</ele><time>2026-04-25T14:33:35.338Z</time></trkpt><trkpt lat="43.9033111" lon="11.2014343"><ele>287.0</ele><time>2026-04-25T14:33:36.335Z</time></trkpt><trkpt lat="43.9034064" lon="11.2014219"><ele>287.0</ele><time>2026-04-25T14:33:37.337Z</time></trkpt><trkpt lat="43.9034955" lon="11.2013908"><ele>287.0</ele><time>2026-04-25T14:33:38.331Z</time></trkpt><trkpt lat="43.9035933" lon="11.2013406"><ele>287.0</ele><time>2026-04-25T14:33:39.332Z</time></trkpt><trkpt lat="43.9036915" lon="11.201285"><ele>287.0</ele><time>2026-04-25T14:33:40.327Z</time></trkpt><trkpt lat="43.90378" lon="11.2012357"><ele>288.6</ele><time>2026-04-25T14:33:41.33Z</time></trkpt><trkpt lat="43.9038727" lon="11.2011924"><ele>290.2</ele><time>2026-04-25T14:33:42.329Z</time></trkpt><trkpt lat="43.9039607" lon="11.2011414"><ele>291.8</ele><time>2026-04-25T14:33:43.329Z</time></trkpt><trkpt lat="43.9040516" lon="11.2010901"><ele>293.4</ele><time>2026-04-25T14:33:44.325Z</time></trkpt><trkpt lat="43.9041457" lon="11.2010438"><ele>295.0</ele><time>2026-04-25T14:33:45.325Z</time></trkpt><trkpt lat="43.9042481" lon="11.2009944"><ele>296.8</ele><time>2026-04-25T14:33:46.324Z</time></trkpt><trkpt lat="43.9043552" lon="11.2009453"><ele>298.6</ele><time>2026-04-25T14:33:47.324Z</time></trkpt><trkpt lat="43.904467" lon="11.2008948"><ele>300.4</ele><time>2026-04-25T14:33:48.327Z</time></trkpt><trkpt lat="43.9045707" lon="11.2008431"><ele>302.2</ele><time>2026-04-25T14:33:49.328Z</time></trkpt><trkpt lat="43.9046725" lon="11.2008009"><ele>304.0</ele><time>2026-04-25T14:33:50.329Z</time></trkpt><trkpt lat="43.9047673" lon="11.2007581"><ele>304.0</ele><time>2026-04-25T14:33:51.329Z</time></trkpt><trkpt lat="43.9048538" lon="11.200713"><ele>304.0</ele><time>2026-04-25T14:33:52.331Z</time></trkpt><trkpt lat="43.9049409" lon="11.2006721"><ele>304.0</ele><time>2026-04-25T14:33:53.332Z</time></trkpt><trkpt lat="43.9050262" lon="11.2006313"><ele>304.0</ele><time>2026-04-25T14:33:54.335Z</time></trkpt><trkpt lat="43.9050966" lon="11.2005968"><ele>304.0</ele><time>2026-04-25T14:33:55.331Z</time></trkpt><trkpt lat="43.9051927" lon="11.200553"><ele>302.5</ele><time>2026-04-25T14:33:57.322Z</time></trkpt><trkpt lat="43.9052571" lon="11.2005085"><ele>301.0</ele><time>2026-04-25T14:34:00.344Z</time></trkpt><trkpt lat="43.9052371" lon="11.2004254"><ele>299.5</ele><time>2026-04-25T14:34:08.343Z</time></trkpt><trkpt lat="43.905212" lon="11.2003063"><ele>298.0</ele><time>2026-04-25T14:34:10.342Z</time></trkpt><trkpt lat="43.9051928" lon="11.2001907"><ele>296.5</ele><time>2026-04-25T14:34:12.333Z</time></trkpt><trkpt lat="43.9051655" lon="11.2000882"><ele>295.0</ele><time>2026-04-25T14:34:15.337Z</time></trkpt><trkpt lat="43.9051559" lon="11.1999715"><ele>295.00000000000006</ele><time>2026-04-25T14:34:19.34Z</time></trkpt><trkpt lat="43.9050911" lon="11.1999903"><ele>295.0</ele><time>2026-04-25T14:34:24.34Z</time></trkpt><trkpt lat="43.9051595" lon="11.2000514"><ele>295.0</ele><time>2026-04-25T14:34:27.346Z</time></trkpt><trkpt lat="43.905184" lon="11.2001696"><ele>295.0</ele><time>2026-04-25T14:34:30.346Z</time></trkpt><trkpt lat="43.905199" lon="11.2002746"><ele>295.0</ele><time>2026-04-25T14:34:33.338Z</time></trkpt><trkpt lat="43.9052057" lon="11.200362"><ele>295.00000000000006</ele><time>2026-04-25T14:34:36.348Z</time></trkpt><trkpt lat="43.9052159" lon="11.2004613"><ele>295.0</ele><time>2026-04-25T14:34:40.348Z</time></trkpt><trkpt lat="43.9052831" lon="11.2004751"><ele>295.0</ele><time>2026-04-25T14:34:51.339Z</time></trkpt><trkpt lat="43.9053473" lon="11.200442"><ele>295.0</ele><time>2026-04-25T14:34:53.339Z</time></trkpt><trkpt lat="43.9054172" lon="11.2004007"><ele>295.0</ele><time>2026-04-25T14:34:55.341Z</time></trkpt><trkpt lat="43.9054904" lon="11.2003517"><ele>295.0</ele><time>2026-04-25T14:34:58.348Z</time></trkpt><trkpt lat="43.9055631" lon="11.2003345"><ele>295.0</ele><time>2026-04-25T14:35:01.336Z</time></trkpt><trkpt lat="43.9054668" lon="11.2003585"><ele>295.0</ele><time>2026-04-25T14:35:18.327Z</time></trkpt><trkpt lat="43.9053994" lon="11.2003931"><ele>295.0</ele><time>2026-04-25T14:35:19.326Z</time></trkpt><trkpt lat="43.9053408" lon="11.2004253"><ele>295.0</ele><time>2026-04-25T14:35:20.334Z</time></trkpt><trkpt lat="43.9052327" lon="11.2004847"><ele>295.0</ele><time>2026-04-25T14:35:22.334Z</time></trkpt><trkpt lat="43.9051209" lon="11.2005596"><ele>295.0</ele><time>2026-04-25T14:35:24.327Z</time></trkpt><trkpt lat="43.9050553" lon="11.2006087"><ele>295.0</ele><time>2026-04-25T14:35:25.329Z</time></trkpt><trkpt lat="43.9049669" lon="11.2006543"><ele>297.25</ele><time>2026-04-25T14:35:26.33Z</time></trkpt><trkpt lat="43.9048649" lon="11.2007019"><ele>299.5</ele><time>2026-04-25T14:35:27.319Z</time></trkpt><trkpt lat="43.9047537" lon="11.2007559"><ele>301.75</ele><time>2026-04-25T14:35:28.32Z</time></trkpt><trkpt lat="43.9046332" lon="11.200808"><ele>304.0</ele><time>2026-04-25T14:35:29.319Z</time></trkpt><trkpt lat="43.9045132" lon="11.2008576"><ele>304.0</ele><time>2026-04-25T14:35:30.317Z</time></trkpt><trkpt lat="43.9043953" lon="11.2009087"><ele>304.0</ele><time>2026-04-25T14:35:31.319Z</time></trkpt><trkpt lat="43.904282" lon="11.2009589"><ele>304.0</ele><time>2026-04-25T14:35:32.317Z</time></trkpt><trkpt lat="43.9041717" lon="11.2010146"><ele>304.0</ele><time>2026-04-25T14:35:33.317Z</time></trkpt><trkpt lat="43.904071" lon="11.2010706"><ele>302.2</ele><time>2026-04-25T14:35:34.322Z</time></trkpt><trkpt lat="43.903977" lon="11.2011219"><ele>300.4</ele><time>2026-04-25T14:35:35.316Z</time></trkpt><trkpt lat="43.9038866" lon="11.2011622"><ele>298.6</ele><time>2026-04-25T14:35:36.342Z</time></trkpt><trkpt lat="43.9038012" lon="11.2012127"><ele>296.8</ele><time>2026-04-25T14:35:37.317Z</time></trkpt><trkpt lat="43.9037061" lon="11.2012665"><ele>295.0</ele><time>2026-04-25T14:35:38.315Z</time></trkpt><trkpt lat="43.9036205" lon="11.2013142"><ele>295.0</ele><time>2026-04-25T14:35:39.305Z</time></trkpt><trkpt lat="43.9035578" lon="11.201338"><ele>295.0</ele><time>2026-04-25T14:35:40.3Z</time></trkpt><trkpt lat="43.903463" lon="11.2013686"><ele>295.0</ele><time>2026-04-25T14:35:42.307Z</time></trkpt><trkpt lat="43.9034034" lon="11.2014065"><ele>295.0</ele><time>2026-04-25T14:35:44.311Z</time></trkpt><trkpt lat="43.903324" lon="11.2014062"><ele>295.0</ele><time>2026-04-25T14:35:46.321Z</time></trkpt><trkpt lat="43.9032421" lon="11.2014257"><ele>295.0</ele><time>2026-04-25T14:35:48.326Z</time></trkpt><trkpt lat="43.9031519" lon="11.2014406"><ele>293.66666666666663</ele><time>2026-04-25T14:35:50.327Z</time></trkpt><trkpt lat="43.9030777" lon="11.2014453"><ele>292.3333333333333</ele><time>2026-04-25T14:35:52.328Z</time></trkpt><trkpt lat="43.9030164" lon="11.2014175"><ele>291.0</ele><time>2026-04-25T14:36:34.337Z</time></trkpt><trkpt lat="43.9029541" lon="11.2014352"><ele>289.6666666666667</ele><time>2026-04-25T14:36:50.331Z</time></trkpt><trkpt lat="43.9028787" lon="11.2014098"><ele>288.33333333333337</ele><time>2026-04-25T14:36:55.338Z</time></trkpt><trkpt lat="43.9027865" lon="11.2013116"><ele>287.0</ele><time>2026-04-25T14:36:57.328Z</time></trkpt><trkpt lat="43.9027142" lon="11.2012491"><ele>287.0</ele><time>2026-04-25T14:36:58.329Z</time></trkpt><trkpt lat="43.9026375" lon="11.2011931"><ele>287.0</ele><time>2026-04-25T14:36:59.325Z</time></trkpt><trkpt lat="43.9025338" lon="11.2011357"><ele>287.0</ele><time>2026-04-25T14:37:00.317Z</time></trkpt><trkpt lat="43.902435" lon="11.201074"><ele>287.0</ele><time>2026-04-25T14:37:01.318Z</time></trkpt><trkpt lat="43.9023359" lon="11.2009949"><ele>287.0</ele><time>2026-04-25T14:37:02.326Z</time></trkpt><trkpt lat="43.9022304" lon="11.2009173"><ele>286.2</ele><time>2026-04-25T14:37:03.324Z</time></trkpt><trkpt lat="43.9021261" lon="11.2008414"><ele>285.4</ele><time>2026-04-25T14:37:04.328Z</time></trkpt><trkpt lat="43.9020386" lon="11.2007751"><ele>284.6</ele><time>2026-04-25T14:37:05.326Z</time></trkpt><trkpt lat="43.9019585" lon="11.2007274"><ele>283.8</ele><time>2026-04-25T14:37:06.332Z</time></trkpt><trkpt lat="43.9018846" lon="11.200685"><ele>283.0</ele><time>2026-04-25T14:37:07.332Z</time></trkpt><trkpt lat="43.9018136" lon="11.2006455"><ele>280.8</ele><time>2026-04-25T14:37:08.346Z</time></trkpt><trkpt lat="43.9017304" lon="11.2005822"><ele>278.6</ele><time>2026-04-25T14:37:10.333Z</time></trkpt><trkpt lat="43.901651" lon="11.2006601"><ele>276.4</ele><time>2026-04-25T14:37:13.334Z</time></trkpt><trkpt lat="43.9016454" lon="11.2008173"><ele>274.2</ele><time>2026-04-25T14:37:15.336Z</time></trkpt><trkpt lat="43.9016718" lon="11.2009089"><ele>272.0</ele><time>2026-04-25T14:37:16.327Z</time></trkpt><trkpt lat="43.9017122" lon="11.2010106"><ele>273.6</ele><time>2026-04-25T14:37:17.337Z</time></trkpt><trkpt lat="43.9017686" lon="11.2011137"><ele>275.2</ele><time>2026-04-25T14:37:18.332Z</time></trkpt><trkpt lat="43.9018204" lon="11.201233"><ele>276.8</ele><time>2026-04-25T14:37:19.335Z</time></trkpt><trkpt lat="43.9018791" lon="11.2013345"><ele>278.4</ele><time>2026-04-25T14:37:20.325Z</time></trkpt><trkpt lat="43.9019364" lon="11.2014345"><ele>280.0</ele><time>2026-04-25T14:37:21.322Z</time></trkpt><trkpt lat="43.9020039" lon="11.2015208"><ele>280.0</ele><time>2026-04-25T14:37:22.328Z</time></trkpt><trkpt lat="43.9020677" lon="11.2016038"><ele>280.0</ele><time>2026-04-25T14:37:23.322Z</time></trkpt><trkpt lat="43.9021337" lon="11.2017004"><ele>280.0</ele><time>2026-04-25T14:37:24.322Z</time></trkpt><trkpt lat="43.9022066" lon="11.2017871"><ele>280.0</ele><time>2026-04-25T14:37:25.319Z</time></trkpt><trkpt lat="43.902289" lon="11.2018848"><ele>280.0</ele><time>2026-04-25T14:37:26.32Z</time></trkpt><trkpt lat="43.9023657" lon="11.2019793"><ele>280.0</ele><time>2026-04-25T14:37:27.316Z</time></trkpt><trkpt lat="43.9024481" lon="11.2020682"><ele>280.0</ele><time>2026-04-25T14:37:28.322Z</time></trkpt><trkpt lat="43.9025268" lon="11.2021589"><ele>280.0</ele><time>2026-04-25T14:37:29.315Z</time></trkpt><trkpt lat="43.9025974" lon="11.2022384"><ele>280.0</ele><time>2026-04-25T14:37:30.314Z</time></trkpt><trkpt lat="43.9026635" lon="11.2023098"><ele>280.0</ele><time>2026-04-25T14:37:31.313Z</time></trkpt><trkpt lat="43.9027157" lon="11.2023725"><ele>282.0</ele><time>2026-04-25T14:37:32.312Z</time></trkpt><trkpt lat="43.9027716" lon="11.2024327"><ele>284.0</ele><time>2026-04-25T14:37:33.309Z</time></trkpt><trkpt lat="43.9028269" lon="11.2024928"><ele>286.0</ele><time>2026-04-25T14:37:34.309Z</time></trkpt><trkpt lat="43.9028871" lon="11.2025662"><ele>288.0</ele><time>2026-04-25T14:37:35.305Z</time></trkpt><trkpt lat="43.9029175" lon="11.2026595"><ele>290.0</ele><time>2026-04-25T14:37:36.305Z</time></trkpt><trkpt lat="43.9029377" lon="11.202767"><ele>292.0</ele><time>2026-04-25T14:37:37.307Z</time></trkpt><trkpt lat="43.9029325" lon="11.2028891"><ele>292.0</ele><time>2026-04-25T14:37:38.307Z</time></trkpt><trkpt lat="43.902919" lon="11.2030526"><ele>292.0</ele><time>2026-04-25T14:37:39.313Z</time></trkpt><trkpt lat="43.9029107" lon="11.2032246"><ele>292.0</ele><time>2026-04-25T14:37:40.292Z</time></trkpt><trkpt lat="43.9029211" lon="11.2033725"><ele>292.0</ele><time>2026-04-25T14:37:41.3Z</time></trkpt><trkpt lat="43.9029315" lon="11.2034876"><ele>292.0</ele><time>2026-04-25T14:37:42.301Z</time></trkpt><trkpt lat="43.9029318" lon="11.2036007"><ele>291.2857142857143</ele><time>2026-04-25T14:37:43.297Z</time></trkpt><trkpt lat="43.9029395" lon="11.2037171"><ele>290.57142857142856</ele><time>2026-04-25T14:37:44.306Z</time></trkpt><trkpt lat="43.9029453" lon="11.2038062"><ele>289.8571428571429</ele><time>2026-04-25T14:37:45.302Z</time></trkpt><trkpt lat="43.9029498" lon="11.2038988"><ele>289.1428571428571</ele><time>2026-04-25T14:37:46.308Z</time></trkpt><trkpt lat="43.9029654" lon="11.2039927"><ele>288.42857142857144</ele><time>2026-04-25T14:37:47.313Z</time></trkpt><trkpt lat="43.9029923" lon="11.204084"><ele>287.7142857142857</ele><time>2026-04-25T14:37:48.31Z</time></trkpt><trkpt lat="43.9030289" lon="11.2041593"><ele>287.0</ele><time>2026-04-25T14:37:49.304Z</time></trkpt><trkpt lat="43.9030697" lon="11.2042317"><ele>285.0</ele><time>2026-04-25T14:37:50.309Z</time></trkpt><trkpt lat="43.9031059" lon="11.2043128"><ele>283.0</ele><time>2026-04-25T14:37:51.301Z</time></trkpt><trkpt lat="43.9031413" lon="11.2044004"><ele>281.0</ele><time>2026-04-25T14:37:52.303Z</time></trkpt><trkpt lat="43.9031831" lon="11.2044996"><ele>279.0</ele><time>2026-04-25T14:37:53.303Z</time></trkpt><trkpt lat="43.9032224" lon="11.204586"><ele>277.0</ele><time>2026-04-25T14:37:54.306Z</time></trkpt><trkpt lat="43.9032628" lon="11.2046865"><ele>275.0</ele><time>2026-04-25T14:37:55.304Z</time></trkpt><trkpt lat="43.9033058" lon="11.2047795"><ele>273.42857142857144</ele><time>2026-04-25T14:37:56.306Z</time></trkpt><trkpt lat="43.9033416" lon="11.2048697"><ele>271.85714285714283</ele><time>2026-04-25T14:37:57.307Z</time></trkpt><trkpt lat="43.9033526" lon="11.2049634"><ele>270.2857142857143</ele><time>2026-04-25T14:37:58.304Z</time></trkpt><trkpt lat="43.9033572" lon="11.2050684"><ele>268.7142857142857</ele><time>2026-04-25T14:37:59.303Z</time></trkpt><trkpt lat="43.9033784" lon="11.2051635"><ele>267.14285714285717</ele><time>2026-04-25T14:38:00.3Z</time></trkpt><trkpt lat="43.903404" lon="11.2052462"><ele>265.57142857142856</ele><time>2026-04-25T14:38:01.305Z</time></trkpt><trkpt lat="43.9034315" lon="11.2053263"><ele>264.0</ele><time>2026-04-25T14:38:02.305Z</time></trkpt><trkpt lat="43.9034904" lon="11.2054573"><ele>267.8333333333333</ele><time>2026-04-25T14:38:04.309Z</time></trkpt><trkpt lat="43.9035395" lon="11.2055712"><ele>271.6666666666667</ele><time>2026-04-25T14:38:06.306Z</time></trkpt><trkpt lat="43.9036026" lon="11.2057288"><ele>275.5</ele><time>2026-04-25T14:38:08.311Z</time></trkpt><trkpt lat="43.9036382" lon="11.205811"><ele>279.33333333333337</ele><time>2026-04-25T14:38:09.311Z</time></trkpt><trkpt lat="43.9036749" lon="11.2058863"><ele>283.1666666666667</ele><time>2026-04-25T14:38:10.325Z</time></trkpt><trkpt lat="43.9037129" lon="11.2059673"><ele>287.0</ele><time>2026-04-25T14:38:11.31Z</time></trkpt><trkpt lat="43.9037467" lon="11.2060592"><ele>287.0</ele><time>2026-04-25T14:38:12.312Z</time></trkpt><trkpt lat="43.9037837" lon="11.2061425"><ele>287.0</ele><time>2026-04-25T14:38:13.31Z</time></trkpt><trkpt lat="43.9038356" lon="11.2062206"><ele>287.0</ele><time>2026-04-25T14:38:14.311Z</time></trkpt><trkpt lat="43.9038941" lon="11.2062942"><ele>287.0</ele><time>2026-04-25T14:38:15.309Z</time></trkpt><trkpt lat="43.9039594" lon="11.2063419"><ele>287.0</ele><time>2026-04-25T14:38:16.308Z</time></trkpt><trkpt lat="43.9040297" lon="11.2063988"><ele>287.0</ele><time>2026-04-25T14:38:17.313Z</time></trkpt><trkpt lat="43.9040941" lon="11.206459"><ele>287.0</ele><time>2026-04-25T14:38:18.311Z</time></trkpt><trkpt lat="43.9041542" lon="11.2064894"><ele>287.0</ele><time>2026-04-25T14:38:19.308Z</time></trkpt><trkpt lat="43.9042441" lon="11.2065903"><ele>287.0</ele><time>2026-04-25T14:38:21.302Z</time></trkpt><trkpt lat="43.9042928" lon="11.2067096"><ele>287.0</ele><time>2026-04-25T14:38:23.308Z</time></trkpt><trkpt lat="43.9043118" lon="11.2068741"><ele>287.0</ele><time>2026-04-25T14:38:25.302Z</time></trkpt><trkpt lat="43.9043351" lon="11.2069739"><ele>284.83333333333337</ele><time>2026-04-25T14:38:26.303Z</time></trkpt><trkpt lat="43.904382" lon="11.2071335"><ele>282.6666666666667</ele><time>2026-04-25T14:38:28.303Z</time></trkpt><trkpt lat="43.9044075" lon="11.2072211"><ele>280.5</ele><time>2026-04-25T14:38:29.296Z</time></trkpt><trkpt lat="43.9044399" lon="11.2073294"><ele>278.3333333333333</ele><time>2026-04-25T14:38:30.297Z</time></trkpt><trkpt lat="43.9044772" lon="11.2074209"><ele>276.16666666666663</ele><time>2026-04-25T14:38:31.307Z</time></trkpt><trkpt lat="43.904528" lon="11.2075078"><ele>274.0</ele><time>2026-04-25T14:38:32.306Z</time></trkpt><trkpt lat="43.9045738" lon="11.2075842"><ele>274.0</ele><time>2026-04-25T14:38:33.307Z</time></trkpt><trkpt lat="43.9046273" lon="11.2076587"><ele>274.0</ele><time>2026-04-25T14:38:34.306Z</time></trkpt><trkpt lat="43.9046911" lon="11.2077193"><ele>274.0</ele><time>2026-04-25T14:38:35.3Z</time></trkpt><trkpt lat="43.9047784" lon="11.2077931"><ele>274.0</ele><time>2026-04-25T14:38:36.3Z</time></trkpt><trkpt lat="43.9048716" lon="11.2078797"><ele>274.0</ele><time>2026-04-25T14:38:37.309Z</time></trkpt><trkpt lat="43.9049556" lon="11.2079701"><ele>274.0</ele><time>2026-04-25T14:38:38.303Z</time></trkpt><trkpt lat="43.9050276" lon="11.2080502"><ele>274.0</ele><time>2026-04-25T14:38:39.307Z</time></trkpt><trkpt lat="43.9050887" lon="11.2081267"><ele>274.0</ele><time>2026-04-25T14:38:40.308Z</time></trkpt><trkpt lat="43.9051495" lon="11.2082074"><ele>274.0</ele><time>2026-04-25T14:38:41.324Z</time></trkpt><trkpt lat="43.9052065" lon="11.2082869"><ele>274.0</ele><time>2026-04-25T14:38:42.306Z</time></trkpt><trkpt lat="43.9052686" lon="11.2083643"><ele>274.0</ele><time>2026-04-25T14:38:43.308Z</time></trkpt><trkpt lat="43.9053266" lon="11.2084286"><ele>273.5714285714286</ele><time>2026-04-25T14:38:44.308Z</time></trkpt><trkpt lat="43.905389" lon="11.2084657"><ele>273.14285714285717</ele><time>2026-04-25T14:38:45.309Z</time></trkpt><trkpt lat="43.9054623" lon="11.2084888"><ele>272.7142857142857</ele><time>2026-04-25T14:38:46.307Z</time></trkpt><trkpt lat="43.9055326" lon="11.2084973"><ele>272.28571428571433</ele><time>2026-04-25T14:38:47.305Z</time></trkpt><trkpt lat="43.9056058" lon="11.2085159"><ele>271.8571428571429</ele><time>2026-04-25T14:38:48.297Z</time></trkpt><trkpt lat="43.9056715" lon="11.2085546"><ele>271.42857142857144</ele><time>2026-04-25T14:38:49.297Z</time></trkpt><trkpt lat="43.9057471" lon="11.2086189"><ele>271.0</ele><time>2026-04-25T14:38:50.292Z</time></trkpt><trkpt lat="43.9058038" lon="11.2086957"><ele>271.0</ele><time>2026-04-25T14:38:51.301Z</time></trkpt><trkpt lat="43.9058514" lon="11.2087925"><ele>271.0</ele><time>2026-04-25T14:38:52.3Z</time></trkpt><trkpt lat="43.9058904" lon="11.2089116"><ele>271.0</ele><time>2026-04-25T14:38:53.301Z</time></trkpt><trkpt lat="43.9059163" lon="11.2090085"><ele>271.0</ele><time>2026-04-25T14:38:54.3Z</time></trkpt><trkpt lat="43.905956" lon="11.2090841"><ele>271.0</ele><time>2026-04-25T14:38:55.31Z</time></trkpt><trkpt lat="43.9060156" lon="11.2091577"><ele>271.0</ele><time>2026-04-25T14:38:56.302Z</time></trkpt><trkpt lat="43.9060895" lon="11.2092298"><ele>270.6</ele><time>2026-04-25T14:38:57.305Z</time></trkpt><trkpt lat="43.9061827" lon="11.2093127"><ele>270.20000000000005</ele><time>2026-04-25T14:38:58.301Z</time></trkpt><trkpt lat="43.9062756" lon="11.2093966"><ele>269.79999999999995</ele><time>2026-04-25T14:38:59.301Z</time></trkpt><trkpt lat="43.9063822" lon="11.2094717"><ele>269.4</ele><time>2026-04-25T14:39:00.296Z</time></trkpt><trkpt lat="43.906454" lon="11.2095352"><ele>269.0</ele><time>2026-04-25T14:39:01.299Z</time></trkpt><trkpt lat="43.9065515" lon="11.2096312"><ele>269.0</ele><time>2026-04-25T14:39:03.302Z</time></trkpt><trkpt lat="43.9066056" lon="11.2096889"><ele>269.0</ele><time>2026-04-25T14:39:04.308Z</time></trkpt><trkpt lat="43.9066721" lon="11.2097605"><ele>269.0</ele><time>2026-04-25T14:39:05.307Z</time></trkpt><trkpt lat="43.9067387" lon="11.2098231"><ele>269.0</ele><time>2026-04-25T14:39:06.303Z</time></trkpt><trkpt lat="43.9068077" lon="11.2098919"><ele>269.0</ele><time>2026-04-25T14:39:07.297Z</time></trkpt><trkpt lat="43.9069005" lon="11.2099753"><ele>269.0</ele><time>2026-04-25T14:39:08.306Z</time></trkpt><trkpt lat="43.9069835" lon="11.2100309"><ele>266.6666666666667</ele><time>2026-04-25T14:39:09.306Z</time></trkpt><trkpt lat="43.9070615" lon="11.2100871"><ele>264.33333333333337</ele><time>2026-04-25T14:39:10.302Z</time></trkpt><trkpt lat="43.9071227" lon="11.2101342"><ele>262.0</ele><time>2026-04-25T14:39:11.309Z</time></trkpt><trkpt lat="43.9072149" lon="11.2101855"><ele>259.6666666666667</ele><time>2026-04-25T14:39:13.305Z</time></trkpt><trkpt lat="43.907302" lon="11.210242"><ele>257.3333333333333</ele><time>2026-04-25T14:39:15.298Z</time></trkpt><trkpt lat="43.9073625" lon="11.2102879"><ele>255.0</ele><time>2026-04-25T14:39:16.307Z</time></trkpt><trkpt lat="43.9074251" lon="11.2103532"><ele>255.0</ele><time>2026-04-25T14:39:17.301Z</time></trkpt><trkpt lat="43.9074857" lon="11.2104255"><ele>255.00000000000003</ele><time>2026-04-25T14:39:18.309Z</time></trkpt><trkpt lat="43.9075513" lon="11.210499"><ele>255.0</ele><time>2026-04-25T14:39:19.301Z</time></trkpt><trkpt lat="43.9076045" lon="11.2105551"><ele>255.0</ele><time>2026-04-25T14:39:20.301Z</time></trkpt><trkpt lat="43.907651" lon="11.2106262"><ele>255.00000000000003</ele><time>2026-04-25T14:39:21.303Z</time></trkpt><trkpt lat="43.9076999" lon="11.2106973"><ele>255.0</ele><time>2026-04-25T14:39:22.309Z</time></trkpt><trkpt lat="43.9077578" lon="11.2107648"><ele>255.0</ele><time>2026-04-25T14:39:23.304Z</time></trkpt><trkpt lat="43.9078035" lon="11.2108336"><ele>253.6</ele><time>2026-04-25T14:39:24.304Z</time></trkpt><trkpt lat="43.9078582" lon="11.2109412"><ele>252.2</ele><time>2026-04-25T14:39:26.298Z</time></trkpt><trkpt lat="43.9079143" lon="11.2110057"><ele>250.8</ele><time>2026-04-25T14:40:06.31Z</time></trkpt><trkpt lat="43.9079917" lon="11.2111573"><ele>249.4</ele><time>2026-04-25T14:40:08.307Z</time></trkpt><trkpt lat="43.9080409" lon="11.2112417"><ele>248.0</ele><time>2026-04-25T14:40:09.301Z</time></trkpt><trkpt lat="43.9080883" lon="11.2113249"><ele>248.00000000000003</ele><time>2026-04-25T14:40:10.304Z</time></trkpt><trkpt lat="43.9081657" lon="11.2114712"><ele>248.0</ele><time>2026-04-25T14:40:12.305Z</time></trkpt><trkpt lat="43.9081983" lon="11.2115553"><ele>248.0</ele><time>2026-04-25T14:40:13.297Z</time></trkpt><trkpt lat="43.908224" lon="11.2116495"><ele>248.0</ele><time>2026-04-25T14:40:14.315Z</time></trkpt><trkpt lat="43.9082488" lon="11.2117537"><ele>248.00000000000003</ele><time>2026-04-25T14:40:15.303Z</time></trkpt><trkpt lat="43.908268" lon="11.2118528"><ele>248.0</ele><time>2026-04-25T14:40:16.309Z</time></trkpt><trkpt lat="43.9082809" lon="11.2119657"><ele>245.14285714285717</ele><time>2026-04-25T14:40:17.299Z</time></trkpt><trkpt lat="43.9082954" lon="11.2120713"><ele>242.2857142857143</ele><time>2026-04-25T14:40:18.299Z</time></trkpt><trkpt lat="43.9083097" lon="11.2121814"><ele>239.42857142857144</ele><time>2026-04-25T14:40:19.298Z</time></trkpt><trkpt lat="43.9083188" lon="11.2122776"><ele>236.57142857142856</ele><time>2026-04-25T14:40:20.296Z</time></trkpt><trkpt lat="43.9083315" lon="11.2123816"><ele>233.7142857142857</ele><time>2026-04-25T14:40:21.298Z</time></trkpt><trkpt lat="43.9083507" lon="11.2124807"><ele>230.85714285714283</ele><time>2026-04-25T14:40:22.303Z</time></trkpt><trkpt lat="43.9083523" lon="11.2125712"><ele>228.0</ele><time>2026-04-25T14:40:23.298Z</time></trkpt><trkpt lat="43.9083642" lon="11.2127412"><ele>226.83333333333334</ele><time>2026-04-25T14:40:25.3Z</time></trkpt><trkpt lat="43.90836" lon="11.2128305"><ele>225.66666666666669</ele><time>2026-04-25T14:40:26.298Z</time></trkpt><trkpt lat="43.9083314" lon="11.2129797"><ele>224.5</ele><time>2026-04-25T14:40:28.303Z</time></trkpt><trkpt lat="43.9083162" lon="11.2130993"><ele>223.33333333333334</ele><time>2026-04-25T14:40:30.308Z</time></trkpt><trkpt lat="43.9083039" lon="11.2131899"><ele>222.16666666666669</ele><time>2026-04-25T14:40:32.308Z</time></trkpt><trkpt lat="43.9082949" lon="11.2133061"><ele>221.0</ele><time>2026-04-25T14:40:34.304Z</time></trkpt><trkpt lat="43.908318" lon="11.2133964"><ele>220.83333333333334</ele><time>2026-04-25T14:40:36.313Z</time></trkpt><trkpt lat="43.9083462" lon="11.2135146"><ele>220.66666666666669</ele><time>2026-04-25T14:40:38.308Z</time></trkpt><trkpt lat="43.9083745" lon="11.2136459"><ele>220.5</ele><time>2026-04-25T14:40:40.309Z</time></trkpt><trkpt lat="43.908412" lon="11.2137881"><ele>220.33333333333331</ele><time>2026-04-25T14:40:42.306Z</time></trkpt><trkpt lat="43.9084352" lon="11.2138731"><ele>220.16666666666666</ele><time>2026-04-25T14:40:43.311Z</time></trkpt><trkpt lat="43.9084624" lon="11.2139673"><ele>220.0</ele><time>2026-04-25T14:40:44.307Z</time></trkpt><trkpt lat="43.9084964" lon="11.2140474"><ele>222.49999999999997</ele><time>2026-04-25T14:40:45.323Z</time></trkpt><trkpt lat="43.9085189" lon="11.2141361"><ele>225.0</ele><time>2026-04-25T14:40:46.316Z</time></trkpt><trkpt lat="43.9085419" lon="11.2142183"><ele>227.5</ele><time>2026-04-25T14:40:47.315Z</time></trkpt><trkpt lat="43.9085545" lon="11.2143104"><ele>230.0</ele><time>2026-04-25T14:40:48.316Z</time></trkpt><trkpt lat="43.9085927" lon="11.2144659"><ele>232.49999999999997</ele><time>2026-04-25T14:40:50.316Z</time></trkpt><trkpt lat="43.9086611" lon="11.2145829"><ele>235.0</ele><time>2026-04-25T14:40:52.318Z</time></trkpt><trkpt lat="43.9087556" lon="11.2146475"><ele>235.0</ele><time>2026-04-25T14:40:54.318Z</time></trkpt><trkpt lat="43.9088629" lon="11.2146546"><ele>235.0</ele><time>2026-04-25T14:40:56.317Z</time></trkpt><trkpt lat="43.9089705" lon="11.2146407"><ele>235.0</ele><time>2026-04-25T14:40:58.321Z</time></trkpt><trkpt lat="43.9090585" lon="11.2146387"><ele>235.0</ele><time>2026-04-25T14:41:00.316Z</time></trkpt><trkpt lat="43.9091683" lon="11.2146587"><ele>235.0</ele><time>2026-04-25T14:41:02.314Z</time></trkpt><trkpt lat="43.9092593" lon="11.2147142"><ele>235.85714285714283</ele><time>2026-04-25T14:41:04.314Z</time></trkpt><trkpt lat="43.9093155" lon="11.2147537"><ele>236.7142857142857</ele><time>2026-04-25T14:41:05.315Z</time></trkpt><trkpt lat="43.909376" lon="11.2147935"><ele>237.57142857142856</ele><time>2026-04-25T14:41:06.311Z</time></trkpt><trkpt lat="43.9094334" lon="11.2148466"><ele>238.42857142857144</ele><time>2026-04-25T14:41:07.315Z</time></trkpt><trkpt lat="43.9094859" lon="11.2149032"><ele>239.2857142857143</ele><time>2026-04-25T14:41:08.309Z</time></trkpt><trkpt lat="43.9095418" lon="11.2149648"><ele>240.14285714285717</ele><time>2026-04-25T14:41:09.313Z</time></trkpt><trkpt lat="43.9095935" lon="11.2150385"><ele>241.0</ele><time>2026-04-25T14:41:10.311Z</time></trkpt><trkpt lat="43.9096493" lon="11.2151078"><ele>241.0</ele><time>2026-04-25T14:41:11.311Z</time></trkpt><trkpt lat="43.9097131" lon="11.2151595"><ele>241.00000000000003</ele><time>2026-04-25T14:41:12.309Z</time></trkpt><trkpt lat="43.9097808" lon="11.2152031"><ele>241.0</ele><time>2026-04-25T14:41:13.308Z</time></trkpt><trkpt lat="43.9098462" lon="11.2152525"><ele>241.0</ele><time>2026-04-25T14:41:14.31Z</time></trkpt><trkpt lat="43.9099005" lon="11.2153014"><ele>241.00000000000003</ele><time>2026-04-25T14:41:15.301Z</time></trkpt><trkpt lat="43.9099544" lon="11.2153547"><ele>241.0</ele><time>2026-04-25T14:41:16.322Z</time></trkpt><trkpt lat="43.9100094" lon="11.2154149"><ele>241.0</ele><time>2026-04-25T14:41:17.305Z</time></trkpt><trkpt lat="43.9100603" lon="11.2154775"><ele>240.83333333333331</ele><time>2026-04-25T14:41:18.304Z</time></trkpt><trkpt lat="43.9101159" lon="11.2155419"><ele>240.66666666666666</ele><time>2026-04-25T14:41:19.307Z</time></trkpt><trkpt lat="43.9101825" lon="11.2156088"><ele>240.5</ele><time>2026-04-25T14:41:20.308Z</time></trkpt><trkpt lat="43.91024" lon="11.2156748"><ele>240.33333333333331</ele><time>2026-04-25T14:41:21.302Z</time></trkpt><trkpt lat="43.9102895" lon="11.2157466"><ele>240.16666666666666</ele><time>2026-04-25T14:41:22.31Z</time></trkpt><trkpt lat="43.9103384" lon="11.2158176"><ele>240.0</ele><time>2026-04-25T14:41:23.309Z</time></trkpt><trkpt lat="43.9103977" lon="11.2158961"><ele>240.0</ele><time>2026-04-25T14:41:24.305Z</time></trkpt><trkpt lat="43.9104561" lon="11.2159598"><ele>240.0</ele><time>2026-04-25T14:41:25.296Z</time></trkpt><trkpt lat="43.9105078" lon="11.2160289"><ele>240.0</ele><time>2026-04-25T14:41:26.304Z</time></trkpt><trkpt lat="43.9105467" lon="11.2161494"><ele>240.0</ele><time>2026-04-25T14:41:28.301Z</time></trkpt><trkpt lat="43.9104697" lon="11.2162041"><ele>240.0</ele><time>2026-04-25T14:41:30.304Z</time></trkpt><trkpt lat="43.9103683" lon="11.2161229"><ele>240.0</ele><time>2026-04-25T14:41:32.299Z</time></trkpt><trkpt lat="43.9102666" lon="11.2160478"><ele>240.0</ele><time>2026-04-25T14:41:34.298Z</time></trkpt><trkpt lat="43.9101551" lon="11.2159825"><ele>240.0</ele><time>2026-04-25T14:41:36.301Z</time></trkpt><trkpt lat="43.9100463" lon="11.2159291"><ele>240.0</ele><time>2026-04-25T14:41:38.304Z</time></trkpt><trkpt lat="43.9099836" lon="11.2158972"><ele>240.0</ele><time>2026-04-25T14:41:39.304Z</time></trkpt><trkpt lat="43.9099073" lon="11.2158729"><ele>240.0</ele><time>2026-04-25T14:41:40.303Z</time></trkpt><trkpt lat="43.9098373" lon="11.2158428"><ele>235.16666666666666</ele><time>2026-04-25T14:41:41.303Z</time></trkpt><trkpt lat="43.9097709" lon="11.215801"><ele>230.33333333333331</ele><time>2026-04-25T14:41:42.299Z</time></trkpt><trkpt lat="43.9096957" lon="11.2157714"><ele>225.5</ele><time>2026-04-25T14:41:43.302Z</time></trkpt><trkpt lat="43.9096246" lon="11.215738"><ele>220.66666666666666</ele><time>2026-04-25T14:41:44.302Z</time></trkpt><trkpt lat="43.9095551" lon="11.2157175"><ele>215.83333333333331</ele><time>2026-04-25T14:41:45.303Z</time></trkpt><trkpt lat="43.9094915" lon="11.2157039"><ele>211.0</ele><time>2026-04-25T14:41:46.302Z</time></trkpt><trkpt lat="43.9093936" lon="11.2156796"><ele>212.0</ele><time>2026-04-25T14:41:48.303Z</time></trkpt><trkpt lat="43.9093001" lon="11.2156377"><ele>213.0</ele><time>2026-04-25T14:41:50.302Z</time></trkpt><trkpt lat="43.9092203" lon="11.2155677"><ele>214.00000000000003</ele><time>2026-04-25T14:41:52.308Z</time></trkpt><trkpt lat="43.9091432" lon="11.215525"><ele>215.0</ele><time>2026-04-25T14:41:54.312Z</time></trkpt><trkpt lat="43.9090506" lon="11.2154811"><ele>216.0</ele><time>2026-04-25T14:41:56.309Z</time></trkpt><trkpt lat="43.9089498" lon="11.2154477"><ele>216.0</ele><time>2026-04-25T14:41:58.31Z</time></trkpt><trkpt lat="43.9088561" lon="11.2154187"><ele>216.00000000000003</ele><time>2026-04-25T14:42:00.305Z</time></trkpt><trkpt lat="43.908758" lon="11.2154032"><ele>216.00000000000003</ele><time>2026-04-25T14:42:02.301Z</time></trkpt><trkpt lat="43.9086402" lon="11.2153491"><ele>216.0</ele><time>2026-04-25T14:42:04.305Z</time></trkpt><trkpt lat="43.9085725" lon="11.2153265"><ele>216.0</ele><time>2026-04-25T14:42:05.303Z</time></trkpt><trkpt lat="43.9084985" lon="11.2152865"><ele>216.0</ele><time>2026-04-25T14:42:06.302Z</time></trkpt><trkpt lat="43.9084286" lon="11.2152383"><ele>216.0</ele><time>2026-04-25T14:42:07.301Z</time></trkpt><trkpt lat="43.9083673" lon="11.2152148"><ele>216.0</ele><time>2026-04-25T14:42:08.304Z</time></trkpt><trkpt lat="43.9082732" lon="11.2151618"><ele>216.0</ele><time>2026-04-25T14:42:10.303Z</time></trkpt><trkpt lat="43.9082144" lon="11.2150976"><ele>216.0</ele><time>2026-04-25T14:42:12.308Z</time></trkpt><trkpt lat="43.9081223" lon="11.2150776"><ele>216.0</ele><time>2026-04-25T14:42:56.301Z</time></trkpt><trkpt lat="43.9080895" lon="11.2151889"><ele>216.0</ele><time>2026-04-25T14:42:58.298Z</time></trkpt><trkpt lat="43.9081153" lon="11.2152813"><ele>216.0</ele><time>2026-04-25T14:42:59.303Z</time></trkpt><trkpt lat="43.9081591" lon="11.2153552"><ele>216.0</ele><time>2026-04-25T14:43:00.301Z</time></trkpt><trkpt lat="43.9082135" lon="11.2154164"><ele>216.0</ele><time>2026-04-25T14:43:01.292Z</time></trkpt><trkpt lat="43.9082815" lon="11.215465"><ele>216.0</ele><time>2026-04-25T14:43:02.3Z</time></trkpt><trkpt lat="43.9083559" lon="11.2155168"><ele>216.0</ele><time>2026-04-25T14:43:03.305Z</time></trkpt><trkpt lat="43.9084319" lon="11.2155722"><ele>216.0</ele><time>2026-04-25T14:43:04.301Z</time></trkpt><trkpt lat="43.9085152" lon="11.2156345"><ele>216.0</ele><time>2026-04-25T14:43:05.303Z</time></trkpt><trkpt lat="43.9085907" lon="11.2156924"><ele>216.0</ele><time>2026-04-25T14:43:06.291Z</time></trkpt><trkpt lat="43.9086557" lon="11.2157431"><ele>216.0</ele><time>2026-04-25T14:43:07.297Z</time></trkpt><trkpt lat="43.9087108" lon="11.2157868"><ele>216.0</ele><time>2026-04-25T14:43:08.296Z</time></trkpt><trkpt lat="43.9087615" lon="11.2159061"><ele>216.0</ele><time>2026-04-25T14:43:10.294Z</time></trkpt><trkpt lat="43.9087176" lon="11.216088"><ele>211.60000000000002</ele><time>2026-04-25T14:43:12.301Z</time></trkpt><trkpt lat="43.9086886" lon="11.216247"><ele>207.20000000000002</ele><time>2026-04-25T14:43:14.299Z</time></trkpt><trkpt lat="43.9086612" lon="11.2163648"><ele>202.8</ele><time>2026-04-25T14:43:16.303Z</time></trkpt><trkpt lat="43.9086484" lon="11.2164591"><ele>198.39999999999998</ele><time>2026-04-25T14:43:18.304Z</time></trkpt><trkpt lat="43.9086225" lon="11.2165657"><ele>194.0</ele><time>2026-04-25T14:43:21.304Z</time></trkpt><trkpt lat="43.9086623" lon="11.2166953"><ele>190.0</ele><time>2026-04-25T14:43:27.298Z</time></trkpt><trkpt lat="43.9087807" lon="11.2168247"><ele>186.0</ele><time>2026-04-25T14:43:29.306Z</time></trkpt><trkpt lat="43.9088597" lon="11.2169238"><ele>182.0</ele><time>2026-04-25T14:43:30.302Z</time></trkpt><trkpt lat="43.908942" lon="11.2170053"><ele>178.0</ele><time>2026-04-25T14:43:31.301Z</time></trkpt><trkpt lat="43.9090247" lon="11.2170953"><ele>178.0</ele><time>2026-04-25T14:43:32.326Z</time></trkpt><trkpt lat="43.9091076" lon="11.2171801"><ele>178.0</ele><time>2026-04-25T14:43:33.391Z</time></trkpt><trkpt lat="43.909192" lon="11.2172584"><ele>178.0</ele><time>2026-04-25T14:43:34.388Z</time></trkpt><trkpt lat="43.9092681" lon="11.2173336"><ele>178.0</ele><time>2026-04-25T14:43:35.386Z</time></trkpt><trkpt lat="43.9093365" lon="11.2174079"><ele>178.0</ele><time>2026-04-25T14:43:36.389Z</time></trkpt><trkpt lat="43.9094052" lon="11.2174767"><ele>179.0</ele><time>2026-04-25T14:43:37.39Z</time></trkpt><trkpt lat="43.9094797" lon="11.2175472"><ele>180.0</ele><time>2026-04-25T14:43:38.389Z</time></trkpt><trkpt lat="43.9095541" lon="11.2175992"><ele>181.0</ele><time>2026-04-25T14:43:39.383Z</time></trkpt><trkpt lat="43.9096345" lon="11.2176512"><ele>182.0</ele><time>2026-04-25T14:43:40.387Z</time></trkpt><trkpt lat="43.9097201" lon="11.2177185"><ele>183.0</ele><time>2026-04-25T14:43:41.38Z</time></trkpt><trkpt lat="43.9098122" lon="11.2177959"><ele>183.0</ele><time>2026-04-25T14:43:42.382Z</time></trkpt><trkpt lat="43.9099141" lon="11.2178804"><ele>183.0</ele><time>2026-04-25T14:43:43.388Z</time></trkpt><trkpt lat="43.910038" lon="11.2179903"><ele>183.0</ele><time>2026-04-25T14:43:44.391Z</time></trkpt><trkpt lat="43.9101589" lon="11.2180991"><ele>183.0</ele><time>2026-04-25T14:43:45.397Z</time></trkpt><trkpt lat="43.9102796" lon="11.2182099"><ele>183.75</ele><time>2026-04-25T14:43:46.397Z</time></trkpt><trkpt lat="43.910401" lon="11.2183222"><ele>184.5</ele><time>2026-04-25T14:43:47.397Z</time></trkpt><trkpt lat="43.9105244" lon="11.218427"><ele>185.25</ele><time>2026-04-25T14:43:48.398Z</time></trkpt><trkpt lat="43.9106479" lon="11.2185335"><ele>186.0</ele><time>2026-04-25T14:43:49.408Z</time></trkpt><trkpt lat="43.9107631" lon="11.2186379"><ele>186.0</ele><time>2026-04-25T14:43:50.401Z</time></trkpt><trkpt lat="43.9108745" lon="11.21874"><ele>186.0</ele><time>2026-04-25T14:43:51.412Z</time></trkpt><trkpt lat="43.9109818" lon="11.218845"><ele>186.0</ele><time>2026-04-25T14:43:52.397Z</time></trkpt><trkpt lat="43.9110744" lon="11.2189485"><ele>186.0</ele><time>2026-04-25T14:43:53.392Z</time></trkpt><trkpt lat="43.9111643" lon="11.2190517"><ele>185.8</ele><time>2026-04-25T14:43:54.396Z</time></trkpt><trkpt lat="43.9112465" lon="11.2191513"><ele>185.60000000000002</ele><time>2026-04-25T14:43:55.393Z</time></trkpt><trkpt lat="43.9113236" lon="11.2192551"><ele>185.4</ele><time>2026-04-25T14:43:56.396Z</time></trkpt><trkpt lat="43.9113987" lon="11.2193546"><ele>185.2</ele><time>2026-04-25T14:43:57.395Z</time></trkpt><trkpt lat="43.9114777" lon="11.2194488"><ele>185.0</ele><time>2026-04-25T14:43:58.391Z</time></trkpt><trkpt lat="43.9115611" lon="11.2195362"><ele>185.0</ele><time>2026-04-25T14:43:59.4Z</time></trkpt><trkpt lat="43.9116475" lon="11.2196203"><ele>185.0</ele><time>2026-04-25T14:44:00.392Z</time></trkpt><trkpt lat="43.9117367" lon="11.2197008"><ele>185.0</ele><time>2026-04-25T14:44:01.388Z</time></trkpt><trkpt lat="43.9118324" lon="11.2197753"><ele>185.0</ele><time>2026-04-25T14:44:02.389Z</time></trkpt><trkpt lat="43.911932" lon="11.2198419"><ele>185.0</ele><time>2026-04-25T14:44:03.389Z</time></trkpt><trkpt lat="43.9120344" lon="11.2199001"><ele>185.6</ele><time>2026-04-25T14:44:04.394Z</time></trkpt><trkpt lat="43.9121377" lon="11.2199547"><ele>186.2</ele><time>2026-04-25T14:44:05.398Z</time></trkpt><trkpt lat="43.9122409" lon="11.220011"><ele>186.8</ele><time>2026-04-25T14:44:06.393Z</time></trkpt><trkpt lat="43.9123411" lon="11.2200706"><ele>187.4</ele><time>2026-04-25T14:44:07.392Z</time></trkpt><trkpt lat="43.9124387" lon="11.2201377"><ele>188.0</ele><time>2026-04-25T14:44:08.399Z</time></trkpt><trkpt lat="43.91253" lon="11.2202147"><ele>190.4</ele><time>2026-04-25T14:44:09.402Z</time></trkpt><trkpt lat="43.9126164" lon="11.2202997"><ele>192.8</ele><time>2026-04-25T14:44:10.389Z</time></trkpt><trkpt lat="43.9126945" lon="11.2203945"><ele>195.2</ele><time>2026-04-25T14:44:11.387Z</time></trkpt><trkpt lat="43.9127547" lon="11.2205076"><ele>197.6</ele><time>2026-04-25T14:44:12.385Z</time></trkpt><trkpt lat="43.9127963" lon="11.220632"><ele>200.0</ele><time>2026-04-25T14:44:13.374Z</time></trkpt><trkpt lat="43.912824" lon="11.2207786"><ele>200.0</ele><time>2026-04-25T14:44:14.374Z</time></trkpt><trkpt lat="43.9128444" lon="11.2209365"><ele>200.0</ele><time>2026-04-25T14:44:15.371Z</time></trkpt><trkpt lat="43.9128774" lon="11.2210833"><ele>200.0</ele><time>2026-04-25T14:44:16.378Z</time></trkpt><trkpt lat="43.9129192" lon="11.221222"><ele>200.0</ele><time>2026-04-25T14:44:17.393Z</time></trkpt><trkpt lat="43.9129554" lon="11.2213735"><ele>198.4</ele><time>2026-04-25T14:44:18.308Z</time></trkpt><trkpt lat="43.912987" lon="11.2215099"><ele>196.8</ele><time>2026-04-25T14:44:19.303Z</time></trkpt><trkpt lat="43.9130089" lon="11.2216423"><ele>195.2</ele><time>2026-04-25T14:44:20.303Z</time></trkpt><trkpt lat="43.9130158" lon="11.2217833"><ele>193.6</ele><time>2026-04-25T14:44:21.303Z</time></trkpt><trkpt lat="43.9130265" lon="11.2219241"><ele>192.0</ele><time>2026-04-25T14:44:22.316Z</time></trkpt><trkpt lat="43.913036" lon="11.2220592"><ele>192.0</ele><time>2026-04-25T14:44:23.304Z</time></trkpt><trkpt lat="43.9130409" lon="11.2222011"><ele>192.0</ele><time>2026-04-25T14:44:24.302Z</time></trkpt><trkpt lat="43.9130512" lon="11.2223437"><ele>192.0</ele><time>2026-04-25T14:44:25.301Z</time></trkpt><trkpt lat="43.9130591" lon="11.2224841"><ele>192.0</ele><time>2026-04-25T14:44:26.301Z</time></trkpt><trkpt lat="43.9130709" lon="11.2226237"><ele>192.0</ele><time>2026-04-25T14:44:27.299Z</time></trkpt><trkpt lat="43.913087" lon="11.2227634"><ele>191.83333333333334</ele><time>2026-04-25T14:44:28.303Z</time></trkpt><trkpt lat="43.9131062" lon="11.2228862"><ele>191.66666666666666</ele><time>2026-04-25T14:44:29.296Z</time></trkpt><trkpt lat="43.913133" lon="11.2229907"><ele>191.5</ele><time>2026-04-25T14:44:30.297Z</time></trkpt><trkpt lat="43.9131598" lon="11.223088"><ele>191.33333333333331</ele><time>2026-04-25T14:44:31.296Z</time></trkpt><trkpt lat="43.9132111" lon="11.223149"><ele>191.16666666666666</ele><time>2026-04-25T14:44:32.296Z</time></trkpt><trkpt lat="43.9132586" lon="11.2232389"><ele>191.0</ele><time>2026-04-25T14:44:33.296Z</time></trkpt><trkpt lat="43.9133062" lon="11.2233322"><ele>191.8</ele><time>2026-04-25T14:44:34.299Z</time></trkpt><trkpt lat="43.9133577" lon="11.2234212"><ele>192.60000000000002</ele><time>2026-04-25T14:44:35.304Z</time></trkpt><trkpt lat="43.9134157" lon="11.2235097"><ele>193.4</ele><time>2026-04-25T14:44:36.309Z</time></trkpt><trkpt lat="43.9134777" lon="11.2236019"><ele>194.2</ele><time>2026-04-25T14:44:37.304Z</time></trkpt><trkpt lat="43.9135381" lon="11.2237078"><ele>195.0</ele><time>2026-04-25T14:44:38.308Z</time></trkpt><trkpt lat="43.9136016" lon="11.2238111"><ele>195.4</ele><time>2026-04-25T14:44:39.306Z</time></trkpt><trkpt lat="43.9136752" lon="11.2239176"><ele>195.8</ele><time>2026-04-25T14:44:40.305Z</time></trkpt><trkpt lat="43.9137566" lon="11.2240198"><ele>196.2</ele><time>2026-04-25T14:44:41.303Z</time></trkpt><trkpt lat="43.9138469" lon="11.2241006"><ele>196.6</ele><time>2026-04-25T14:44:42.305Z</time></trkpt><trkpt lat="43.9139371" lon="11.2241621"><ele>197.0</ele><time>2026-04-25T14:44:43.303Z</time></trkpt><trkpt lat="43.9140351" lon="11.2242065"><ele>197.00000000000003</ele><time>2026-04-25T14:44:44.299Z</time></trkpt><trkpt lat="43.91412" lon="11.2242528"><ele>197.0</ele><time>2026-04-25T14:44:45.292Z</time></trkpt><trkpt lat="43.9141813" lon="11.224314"><ele>197.0</ele><time>2026-04-25T14:44:46.3Z</time></trkpt><trkpt lat="43.9142413" lon="11.2243857"><ele>197.0</ele><time>2026-04-25T14:44:47.291Z</time></trkpt><trkpt lat="43.9142865" lon="11.2244726"><ele>197.00000000000003</ele><time>2026-04-25T14:44:48.283Z</time></trkpt><trkpt lat="43.9143452" lon="11.2245567"><ele>197.0</ele><time>2026-04-25T14:44:49.289Z</time></trkpt><trkpt lat="43.9143992" lon="11.224654"><ele>198.39999999999998</ele><time>2026-04-25T14:44:50.288Z</time></trkpt><trkpt lat="43.9144533" lon="11.2247427"><ele>199.79999999999998</ele><time>2026-04-25T14:44:51.285Z</time></trkpt><trkpt lat="43.9145207" lon="11.2248255"><ele>201.2</ele><time>2026-04-25T14:44:52.296Z</time></trkpt><trkpt lat="43.9145997" lon="11.2248899"><ele>202.6</ele><time>2026-04-25T14:44:53.31Z</time></trkpt><trkpt lat="43.9146962" lon="11.2249274"><ele>204.0</ele><time>2026-04-25T14:44:54.293Z</time></trkpt><trkpt lat="43.9147982" lon="11.2249549"><ele>204.0</ele><time>2026-04-25T14:44:55.297Z</time></trkpt><trkpt lat="43.9148937" lon="11.2249798"><ele>204.0</ele><time>2026-04-25T14:44:56.296Z</time></trkpt><trkpt lat="43.9149812" lon="11.2249993"><ele>204.0</ele><time>2026-04-25T14:44:57.302Z</time></trkpt><trkpt lat="43.9150611" lon="11.2250201"><ele>204.0</ele><time>2026-04-25T14:44:58.299Z</time></trkpt><trkpt lat="43.9151389" lon="11.2250469"><ele>204.0</ele><time>2026-04-25T14:44:59.29Z</time></trkpt><trkpt lat="43.9152041" lon="11.2250685"><ele>204.0</ele><time>2026-04-25T14:45:00.29Z</time></trkpt><trkpt lat="43.9153084" lon="11.2251003"><ele>205.75</ele><time>2026-04-25T14:45:02.289Z</time></trkpt><trkpt lat="43.9154106" lon="11.2251366"><ele>207.5</ele><time>2026-04-25T14:45:04.286Z</time></trkpt><trkpt lat="43.9155231" lon="11.2251948"><ele>209.25</ele><time>2026-04-25T14:45:06.287Z</time></trkpt><trkpt lat="43.9156269" lon="11.225282"><ele>211.0</ele><time>2026-04-25T14:45:08.291Z</time></trkpt><trkpt lat="43.9157304" lon="11.2253679"><ele>210.99999999999997</ele><time>2026-04-25T14:45:10.291Z</time></trkpt><trkpt lat="43.9158366" lon="11.2254407"><ele>211.0</ele><time>2026-04-25T14:45:12.289Z</time></trkpt><trkpt lat="43.9158995" lon="11.2254701"><ele>211.0</ele><time>2026-04-25T14:45:13.291Z</time></trkpt><trkpt lat="43.9160219" lon="11.2254547"><ele>211.0</ele><time>2026-04-25T14:45:15.297Z</time></trkpt><trkpt lat="43.9160825" lon="11.2254132"><ele>210.99999999999997</ele><time>2026-04-25T14:45:16.3Z</time></trkpt><trkpt lat="43.9161441" lon="11.2253608"><ele>211.0</ele><time>2026-04-25T14:45:17.299Z</time></trkpt><trkpt lat="43.9162053" lon="11.2253108"><ele>211.83333333333331</ele><time>2026-04-25T14:45:18.294Z</time></trkpt><trkpt lat="43.9162631" lon="11.2252668"><ele>212.66666666666666</ele><time>2026-04-25T14:45:19.287Z</time></trkpt><trkpt lat="43.9163547" lon="11.2251579"><ele>213.5</ele><time>2026-04-25T14:45:21.295Z</time></trkpt><trkpt lat="43.9164055" lon="11.2251055"><ele>214.33333333333331</ele><time>2026-04-25T14:45:22.297Z</time></trkpt><trkpt lat="43.9164695" lon="11.2250611"><ele>215.16666666666666</ele><time>2026-04-25T14:45:23.292Z</time></trkpt><trkpt lat="43.916526" lon="11.2250126"><ele>216.0</ele><time>2026-04-25T14:45:24.306Z</time></trkpt><trkpt lat="43.9165928" lon="11.2249908"><ele>216.0</ele><time>2026-04-25T14:45:25.291Z</time></trkpt><trkpt lat="43.916705" lon="11.2249785"><ele>216.00000000000003</ele><time>2026-04-25T14:45:27.297Z</time></trkpt><trkpt lat="43.9167993" lon="11.22498"><ele>216.00000000000003</ele><time>2026-04-25T14:45:29.292Z</time></trkpt><trkpt lat="43.9168467" lon="11.2248395"><ele>216.0</ele><time>2026-04-25T14:45:32.302Z</time></trkpt><trkpt lat="43.9168484" lon="11.2247372"><ele>216.0</ele><time>2026-04-25T14:45:33.3Z</time></trkpt><trkpt lat="43.9168464" lon="11.2246335"><ele>221.4</ele><time>2026-04-25T14:45:34.295Z</time></trkpt><trkpt lat="43.9168483" lon="11.2245299"><ele>226.8</ele><time>2026-04-25T14:45:35.298Z</time></trkpt><trkpt lat="43.9168553" lon="11.2243614"><ele>232.20000000000002</ele><time>2026-04-25T14:45:37.288Z</time></trkpt><trkpt lat="43.9168803" lon="11.2242214"><ele>237.60000000000002</ele><time>2026-04-25T14:45:39.288Z</time></trkpt><trkpt lat="43.9169764" lon="11.2242649"><ele>243.0</ele><time>2026-04-25T14:45:42.29Z</time></trkpt><trkpt lat="43.9170135" lon="11.2243514"><ele>243.0</ele><time>2026-04-25T14:45:43.293Z</time></trkpt><trkpt lat="43.9171069" lon="11.2244775"><ele>243.0</ele><time>2026-04-25T14:45:45.288Z</time></trkpt><trkpt lat="43.9172077" lon="11.2245083"><ele>243.0</ele><time>2026-04-25T14:45:47.297Z</time></trkpt><trkpt lat="43.9172814" lon="11.22445"><ele>243.0</ele><time>2026-04-25T14:45:49.3Z</time></trkpt><trkpt lat="43.9172753" lon="11.2243571"><ele>243.0</ele><time>2026-04-25T14:45:51.299Z</time></trkpt><trkpt lat="43.9173038" lon="11.2242429"><ele>243.0</ele><time>2026-04-25T14:45:53.31Z</time></trkpt><trkpt lat="43.9173948" lon="11.2241892"><ele>243.0</ele><time>2026-04-25T14:45:55.319Z</time></trkpt><trkpt lat="43.9175073" lon="11.2241587"><ele>243.0</ele><time>2026-04-25T14:45:57.298Z</time></trkpt><trkpt lat="43.9175578" lon="11.2240602"><ele>243.0</ele><time>2026-04-25T14:45:59.307Z</time></trkpt><trkpt lat="43.9175481" lon="11.223915"><ele>243.0</ele><time>2026-04-25T14:46:01.3Z</time></trkpt><trkpt lat="43.9175364" lon="11.2237768"><ele>245.60000000000002</ele><time>2026-04-25T14:46:03.303Z</time></trkpt><trkpt lat="43.917539" lon="11.2236257"><ele>248.20000000000002</ele><time>2026-04-25T14:46:05.302Z</time></trkpt><trkpt lat="43.9175527" lon="11.2235018"><ele>250.8</ele><time>2026-04-25T14:46:07.299Z</time></trkpt><trkpt lat="43.9175243" lon="11.2233285"><ele>253.4</ele><time>2026-04-25T14:46:09.296Z</time></trkpt><trkpt lat="43.9174905" lon="11.2232431"><ele>256.0</ele><time>2026-04-25T14:46:10.296Z</time></trkpt><trkpt lat="43.9174448" lon="11.2231589"><ele>258.5</ele><time>2026-04-25T14:46:11.292Z</time></trkpt><trkpt lat="43.9174114" lon="11.2230834"><ele>261.0</ele><time>2026-04-25T14:46:12.293Z</time></trkpt><trkpt lat="43.9173687" lon="11.2230102"><ele>263.5</ele><time>2026-04-25T14:46:13.296Z</time></trkpt><trkpt lat="43.917332" lon="11.2228435"><ele>266.0</ele><time>2026-04-25T14:46:15.292Z</time></trkpt><trkpt lat="43.9173676" lon="11.2226977"><ele>268.5</ele><time>2026-04-25T14:46:17.307Z</time></trkpt><trkpt lat="43.9174278" lon="11.2226477"><ele>271.0</ele><time>2026-04-25T14:46:18.303Z</time></trkpt><trkpt lat="43.9175508" lon="11.2225869"><ele>273.3333333333333</ele><time>2026-04-25T14:46:20.308Z</time></trkpt><trkpt lat="43.9176148" lon="11.2225666"><ele>275.66666666666663</ele><time>2026-04-25T14:46:21.305Z</time></trkpt><trkpt lat="43.9176962" lon="11.2225436"><ele>278.0</ele><time>2026-04-25T14:46:22.301Z</time></trkpt><trkpt lat="43.9177693" lon="11.2225792"><ele>280.3333333333333</ele><time>2026-04-25T14:46:23.3Z</time></trkpt><trkpt lat="43.9178515" lon="11.2226041"><ele>282.6666666666667</ele><time>2026-04-25T14:46:24.306Z</time></trkpt><trkpt lat="43.9179272" lon="11.2226447"><ele>285.0</ele><time>2026-04-25T14:46:25.305Z</time></trkpt><trkpt lat="43.9180005" lon="11.2226903"><ele>285.0</ele><time>2026-04-25T14:46:26.318Z</time></trkpt><trkpt lat="43.9180839" lon="11.2227435"><ele>285.0</ele><time>2026-04-25T14:46:27.299Z</time></trkpt><trkpt lat="43.9181673" lon="11.222797"><ele>285.0</ele><time>2026-04-25T14:46:28.299Z</time></trkpt><trkpt lat="43.9182418" lon="11.2228535"><ele>285.0</ele><time>2026-04-25T14:46:29.3Z</time></trkpt><trkpt lat="43.9183103" lon="11.2229059"><ele>285.0</ele><time>2026-04-25T14:46:30.302Z</time></trkpt><trkpt lat="43.9183793" lon="11.2229408"><ele>285.0</ele><time>2026-04-25T14:46:31.301Z</time></trkpt><trkpt lat="43.9184521" lon="11.2229819"><ele>287.5</ele><time>2026-04-25T14:46:32.303Z</time></trkpt><trkpt lat="43.9185299" lon="11.22302"><ele>290.0</ele><time>2026-04-25T14:46:33.305Z</time></trkpt><trkpt lat="43.9186092" lon="11.2230285"><ele>292.5</ele><time>2026-04-25T14:46:34.302Z</time></trkpt><trkpt lat="43.9186919" lon="11.2230217"><ele>295.0</ele><time>2026-04-25T14:46:35.304Z</time></trkpt><trkpt lat="43.9187626" lon="11.2230023"><ele>297.5</ele><time>2026-04-25T14:46:36.296Z</time></trkpt><trkpt lat="43.9188234" lon="11.2229534"><ele>300.0</ele><time>2026-04-25T14:46:37.302Z</time></trkpt><trkpt lat="43.9188691" lon="11.2228589"><ele>300.0</ele><time>2026-04-25T14:46:38.296Z</time></trkpt><trkpt lat="43.9188989" lon="11.2227579"><ele>300.0</ele><time>2026-04-25T14:46:39.297Z</time></trkpt><trkpt lat="43.9189307" lon="11.2226575"><ele>300.0</ele><time>2026-04-25T14:46:40.3Z</time></trkpt><trkpt lat="43.9189678" lon="11.2225553"><ele>300.0</ele><time>2026-04-25T14:46:41.297Z</time></trkpt><trkpt lat="43.9189865" lon="11.2224514"><ele>300.0</ele><time>2026-04-25T14:46:42.292Z</time></trkpt><trkpt lat="43.9189878" lon="11.2223454"><ele>300.0</ele><time>2026-04-25T14:46:43.29Z</time></trkpt><trkpt lat="43.9189682" lon="11.222218"><ele>303.0</ele><time>2026-04-25T14:46:45.294Z</time></trkpt><trkpt lat="43.9189532" lon="11.2221254"><ele>306.0</ele><time>2026-04-25T14:46:48.301Z</time></trkpt><trkpt lat="43.9190131" lon="11.2220775"><ele>309.0</ele><time>2026-04-25T14:46:58.313Z</time></trkpt><trkpt lat="43.9191199" lon="11.2221411"><ele>312.0</ele><time>2026-04-25T14:47:00.315Z</time></trkpt><trkpt lat="43.9191739" lon="11.2221906"><ele>315.0</ele><time>2026-04-25T14:47:01.308Z</time></trkpt><trkpt lat="43.9192357" lon="11.2222098"><ele>318.0</ele><time>2026-04-25T14:47:02.301Z</time></trkpt><trkpt lat="43.9193144" lon="11.2221889"><ele>322.0</ele><time>2026-04-25T14:47:03.298Z</time></trkpt><trkpt lat="43.9193938" lon="11.2221842"><ele>326.0</ele><time>2026-04-25T14:47:04.296Z</time></trkpt><trkpt lat="43.919467" lon="11.2222097"><ele>330.0</ele><time>2026-04-25T14:47:05.301Z</time></trkpt><trkpt lat="43.9195519" lon="11.2222168"><ele>334.0</ele><time>2026-04-25T14:47:06.301Z</time></trkpt><trkpt lat="43.9196271" lon="11.2222401"><ele>338.0</ele><time>2026-04-25T14:47:07.295Z</time></trkpt><trkpt lat="43.9197084" lon="11.2222495"><ele>342.0</ele><time>2026-04-25T14:47:08.298Z</time></trkpt><trkpt lat="43.9197867" lon="11.2222677"><ele>344.3333333333333</ele><time>2026-04-25T14:47:09.297Z</time></trkpt><trkpt lat="43.9199072" lon="11.222354"><ele>346.6666666666667</ele><time>2026-04-25T14:47:11.295Z</time></trkpt><trkpt lat="43.9199606" lon="11.2224308"><ele>349.0</ele><time>2026-04-25T14:47:12.302Z</time></trkpt><trkpt lat="43.9200206" lon="11.222508"><ele>351.33333333333337</ele><time>2026-04-25T14:47:13.3Z</time></trkpt><trkpt lat="43.9200755" lon="11.2225789"><ele>353.6666666666667</ele><time>2026-04-25T14:47:14.296Z</time></trkpt><trkpt lat="43.9201284" lon="11.2226455"><ele>356.0</ele><time>2026-04-25T14:47:15.295Z</time></trkpt><trkpt lat="43.9201748" lon="11.2227181"><ele>356.0</ele><time>2026-04-25T14:47:16.296Z</time></trkpt><trkpt lat="43.9202298" lon="11.2227774"><ele>356.0</ele><time>2026-04-25T14:47:31.292Z</time></trkpt><trkpt lat="43.9202798" lon="11.2228498"><ele>356.0</ele><time>2026-04-25T14:47:33.301Z</time></trkpt><trkpt lat="43.9203413" lon="11.2229651"><ele>356.0</ele><time>2026-04-25T14:47:35.297Z</time></trkpt><trkpt lat="43.9203894" lon="11.2230295"><ele>356.0</ele><time>2026-04-25T14:47:37.296Z</time></trkpt><trkpt lat="43.9204469" lon="11.2229845"><ele>356.0</ele><time>2026-04-25T14:47:41.291Z</time></trkpt><trkpt lat="43.9203551" lon="11.2229767"><ele>356.0</ele><time>2026-04-25T14:47:56.299Z</time></trkpt><trkpt lat="43.9202776" lon="11.222891"><ele>356.0</ele><time>2026-04-25T14:47:58.293Z</time></trkpt><trkpt lat="43.9202276" lon="11.2228079"><ele>356.0</ele><time>2026-04-25T14:47:59.3Z</time></trkpt><trkpt lat="43.920164" lon="11.2227204"><ele>356.0</ele><time>2026-04-25T14:48:00.289Z</time></trkpt><trkpt lat="43.9201046" lon="11.2226454"><ele>356.0</ele><time>2026-04-25T14:48:01.289Z</time></trkpt><trkpt lat="43.9200398" lon="11.2225647"><ele>356.0</ele><time>2026-04-25T14:48:02.285Z</time></trkpt><trkpt lat="43.9199831" lon="11.2224922"><ele>353.6666666666667</ele><time>2026-04-25T14:48:03.291Z</time></trkpt><trkpt lat="43.9199189" lon="11.2224059"><ele>351.33333333333337</ele><time>2026-04-25T14:48:04.285Z</time></trkpt><trkpt lat="43.9198611" lon="11.222338"><ele>349.0</ele><time>2026-04-25T14:48:05.289Z</time></trkpt><trkpt lat="43.91981" lon="11.2222762"><ele>346.6666666666667</ele><time>2026-04-25T14:48:06.283Z</time></trkpt><trkpt lat="43.91974" lon="11.2222513"><ele>344.3333333333333</ele><time>2026-04-25T14:48:07.281Z</time></trkpt><trkpt lat="43.9196544" lon="11.2222442"><ele>342.0</ele><time>2026-04-25T14:48:08.284Z</time></trkpt><trkpt lat="43.9195633" lon="11.2222441"><ele>342.0</ele><time>2026-04-25T14:48:09.285Z</time></trkpt><trkpt lat="43.919483" lon="11.2222358"><ele>342.0</ele><time>2026-04-25T14:48:10.285Z</time></trkpt><trkpt lat="43.9193999" lon="11.222213"><ele>342.0</ele><time>2026-04-25T14:48:11.282Z</time></trkpt><trkpt lat="43.9193192" lon="11.2221672"><ele>342.0</ele><time>2026-04-25T14:48:12.288Z</time></trkpt><trkpt lat="43.9192471" lon="11.2221522"><ele>342.0</ele><time>2026-04-25T14:48:13.292Z</time></trkpt><trkpt lat="43.9191666" lon="11.2221483"><ele>342.0</ele><time>2026-04-25T14:48:14.294Z</time></trkpt><trkpt lat="43.9191014" lon="11.2221266"><ele>337.20000000000005</ele><time>2026-04-25T14:48:15.293Z</time></trkpt><trkpt lat="43.9190152" lon="11.2220626"><ele>332.40000000000003</ele><time>2026-04-25T14:48:17.295Z</time></trkpt><trkpt lat="43.91895" lon="11.2220618"><ele>327.6</ele><time>2026-04-25T14:48:19.298Z</time></trkpt><trkpt lat="43.918926" lon="11.2221775"><ele>322.8</ele><time>2026-04-25T14:48:21.296Z</time></trkpt><trkpt lat="43.918968" lon="11.2223129"><ele>318.0</ele><time>2026-04-25T14:48:23.301Z</time></trkpt><trkpt lat="43.9189736" lon="11.2224564"><ele>315.0</ele><time>2026-04-25T14:48:25.3Z</time></trkpt><trkpt lat="43.9189539" lon="11.2225517"><ele>312.0</ele><time>2026-04-25T14:48:27.306Z</time></trkpt><trkpt lat="43.918915" lon="11.222652"><ele>309.0</ele><time>2026-04-25T14:48:30.319Z</time></trkpt><trkpt lat="43.9188619" lon="11.2227605"><ele>306.0</ele><time>2026-04-25T14:48:33.299Z</time></trkpt><trkpt lat="43.9188163" lon="11.222875"><ele>303.0</ele><time>2026-04-25T14:48:35.295Z</time></trkpt><trkpt lat="43.918761" lon="11.2229483"><ele>300.0</ele><time>2026-04-25T14:48:37.306Z</time></trkpt><trkpt lat="43.9188353" lon="11.22287"><ele>300.0</ele><time>2026-04-25T14:48:47.311Z</time></trkpt><trkpt lat="43.918877" lon="11.2227976"><ele>300.0</ele><time>2026-04-25T14:48:49.306Z</time></trkpt><trkpt lat="43.9189075" lon="11.2226784"><ele>300.0</ele><time>2026-04-25T14:48:51.304Z</time></trkpt><trkpt lat="43.9189465" lon="11.2225611"><ele>300.0</ele><time>2026-04-25T14:48:53.303Z</time></trkpt><trkpt lat="43.9189813" lon="11.2224198"><ele>300.0</ele><time>2026-04-25T14:48:55.301Z</time></trkpt><trkpt lat="43.9189726" lon="11.2222748"><ele>303.6</ele><time>2026-04-25T14:48:57.302Z</time></trkpt><trkpt lat="43.9189531" lon="11.2221465"><ele>307.2</ele><time>2026-04-25T14:48:59.302Z</time></trkpt><trkpt lat="43.9189154" lon="11.2220088"><ele>310.8</ele><time>2026-04-25T14:49:01.313Z</time></trkpt><trkpt lat="43.9188751" lon="11.2218545"><ele>314.4</ele><time>2026-04-25T14:49:03.299Z</time></trkpt><trkpt lat="43.9187985" lon="11.2217371"><ele>318.0</ele><time>2026-04-25T14:49:05.302Z</time></trkpt><trkpt lat="43.9187266" lon="11.2215957"><ele>317.0</ele><time>2026-04-25T14:49:07.303Z</time></trkpt><trkpt lat="43.9186697" lon="11.2214633"><ele>316.0</ele><time>2026-04-25T14:49:09.3Z</time></trkpt><trkpt lat="43.9185733" lon="11.2213613"><ele>315.0</ele><time>2026-04-25T14:49:11.3Z</time></trkpt><trkpt lat="43.9184494" lon="11.2213012"><ele>314.0</ele><time>2026-04-25T14:49:13.299Z</time></trkpt><trkpt lat="43.9183438" lon="11.2212165"><ele>314.0</ele><time>2026-04-25T14:49:15.298Z</time></trkpt><trkpt lat="43.9182973" lon="11.2211316"><ele>314.0</ele><time>2026-04-25T14:49:16.303Z</time></trkpt><trkpt lat="43.9182622" lon="11.2210239"><ele>314.0</ele><time>2026-04-25T14:49:17.304Z</time></trkpt><trkpt lat="43.9182337" lon="11.2209018"><ele>314.0</ele><time>2026-04-25T14:49:18.304Z</time></trkpt><trkpt lat="43.918195" lon="11.2207833"><ele>314.0</ele><time>2026-04-25T14:49:19.301Z</time></trkpt><trkpt lat="43.9181551" lon="11.2206626"><ele>314.0</ele><time>2026-04-25T14:49:20.293Z</time></trkpt><trkpt lat="43.9180933" lon="11.220521"><ele>317.0</ele><time>2026-04-25T14:49:21.299Z</time></trkpt><trkpt lat="43.9180193" lon="11.220376"><ele>320.0</ele><time>2026-04-25T14:49:22.303Z</time></trkpt><trkpt lat="43.9179577" lon="11.2202481"><ele>323.0</ele><time>2026-04-25T14:49:23.297Z</time></trkpt><trkpt lat="43.9179104" lon="11.2201274"><ele>326.0</ele><time>2026-04-25T14:49:24.289Z</time></trkpt><trkpt lat="43.9178562" lon="11.22003"><ele>329.0</ele><time>2026-04-25T14:49:25.296Z</time></trkpt><trkpt lat="43.9177987" lon="11.2199429"><ele>329.0</ele><time>2026-04-25T14:49:26.295Z</time></trkpt><trkpt lat="43.9177399" lon="11.2198653"><ele>329.0</ele><time>2026-04-25T14:49:27.29Z</time></trkpt><trkpt lat="43.9176664" lon="11.219804"><ele>329.0</ele><time>2026-04-25T14:49:28.291Z</time></trkpt><trkpt lat="43.917592" lon="11.2197446"><ele>329.0</ele><time>2026-04-25T14:49:29.294Z</time></trkpt><trkpt lat="43.9175158" lon="11.2197251"><ele>329.0</ele><time>2026-04-25T14:49:30.288Z</time></trkpt><trkpt lat="43.9174408" lon="11.2197182"><ele>329.0</ele><time>2026-04-25T14:49:31.291Z</time></trkpt><trkpt lat="43.9173662" lon="11.2197185"><ele>330.33333333333337</ele><time>2026-04-25T14:49:32.302Z</time></trkpt><trkpt lat="43.9172861" lon="11.2197063"><ele>331.6666666666667</ele><time>2026-04-25T14:49:33.29Z</time></trkpt><trkpt lat="43.9172057" lon="11.2196684"><ele>333.0</ele><time>2026-04-25T14:49:34.298Z</time></trkpt><trkpt lat="43.9171295" lon="11.2196178"><ele>334.3333333333333</ele><time>2026-04-25T14:49:35.303Z</time></trkpt><trkpt lat="43.9170694" lon="11.219537"><ele>335.66666666666663</ele><time>2026-04-25T14:49:36.296Z</time></trkpt><trkpt lat="43.917014" lon="11.2194423"><ele>337.0</ele><time>2026-04-25T14:49:37.296Z</time></trkpt><trkpt lat="43.9169797" lon="11.2193407"><ele>337.0</ele><time>2026-04-25T14:49:38.299Z</time></trkpt><trkpt lat="43.9169751" lon="11.2192179"><ele>337.0</ele><time>2026-04-25T14:49:39.292Z</time></trkpt><trkpt lat="43.9169929" lon="11.219096"><ele>337.0</ele><time>2026-04-25T14:49:40.299Z</time></trkpt><trkpt lat="43.9170438" lon="11.2190063"><ele>337.0</ele><time>2026-04-25T14:49:41.294Z</time></trkpt><trkpt lat="43.9171025" lon="11.218949"><ele>337.0</ele><time>2026-04-25T14:49:42.289Z</time></trkpt><trkpt lat="43.9171659" lon="11.2189149"><ele>337.0</ele><time>2026-04-25T14:49:43.293Z</time></trkpt><trkpt lat="43.9172466" lon="11.2189017"><ele>341.6</ele><time>2026-04-25T14:49:44.291Z</time></trkpt><trkpt lat="43.9173391" lon="11.2189127"><ele>346.20000000000005</ele><time>2026-04-25T14:49:45.289Z</time></trkpt><trkpt lat="43.9174397" lon="11.2189107"><ele>350.8</ele><time>2026-04-25T14:49:46.294Z</time></trkpt><trkpt lat="43.9175473" lon="11.2188897"><ele>355.4</ele><time>2026-04-25T14:49:47.301Z</time></trkpt><trkpt lat="43.9176542" lon="11.2188727"><ele>360.0</ele><time>2026-04-25T14:49:48.296Z</time></trkpt><trkpt lat="43.9177483" lon="11.218863"><ele>361.8333333333333</ele><time>2026-04-25T14:49:49.295Z</time></trkpt><trkpt lat="43.9178458" lon="11.2188494"><ele>363.6666666666667</ele><time>2026-04-25T14:49:50.294Z</time></trkpt><trkpt lat="43.9179342" lon="11.2188285"><ele>365.5</ele><time>2026-04-25T14:49:51.294Z</time></trkpt><trkpt lat="43.9180189" lon="11.2188096"><ele>367.33333333333337</ele><time>2026-04-25T14:49:52.296Z</time></trkpt><trkpt lat="43.9181068" lon="11.2187782"><ele>369.1666666666667</ele><time>2026-04-25T14:49:53.293Z</time></trkpt><trkpt lat="43.9181853" lon="11.2187499"><ele>371.0</ele><time>2026-04-25T14:49:54.293Z</time></trkpt><trkpt lat="43.9182663" lon="11.2187263"><ele>371.0</ele><time>2026-04-25T14:49:55.293Z</time></trkpt><trkpt lat="43.9183464" lon="11.2187244"><ele>371.0</ele><time>2026-04-25T14:49:56.293Z</time></trkpt><trkpt lat="43.9184167" lon="11.2187389"><ele>371.0</ele><time>2026-04-25T14:49:57.292Z</time></trkpt><trkpt lat="43.9184909" lon="11.2187821"><ele>371.0</ele><time>2026-04-25T14:49:58.294Z</time></trkpt><trkpt lat="43.9185706" lon="11.2188154"><ele>371.0</ele><time>2026-04-25T14:49:59.287Z</time></trkpt><trkpt lat="43.9186495" lon="11.2188209"><ele>371.0</ele><time>2026-04-25T14:50:00.287Z</time></trkpt><trkpt lat="43.9187189" lon="11.2187819"><ele>372.4</ele><time>2026-04-25T14:50:01.285Z</time></trkpt><trkpt lat="43.9187815" lon="11.2186992"><ele>373.8</ele><time>2026-04-25T14:50:02.293Z</time></trkpt><trkpt lat="43.9188432" lon="11.2185854"><ele>375.2</ele><time>2026-04-25T14:50:03.307Z</time></trkpt><trkpt lat="43.9189023" lon="11.2184862"><ele>376.59999999999997</ele><time>2026-04-25T14:50:04.291Z</time></trkpt><trkpt lat="43.9189664" lon="11.2184055"><ele>378.0</ele><time>2026-04-25T14:50:05.298Z</time></trkpt><trkpt lat="43.9190339" lon="11.2183355"><ele>378.0</ele><time>2026-04-25T14:50:06.295Z</time></trkpt><trkpt lat="43.9191042" lon="11.2182729"><ele>378.0</ele><time>2026-04-25T14:50:07.294Z</time></trkpt><trkpt lat="43.919177" lon="11.2182366"><ele>378.0</ele><time>2026-04-25T14:50:08.289Z</time></trkpt><trkpt lat="43.9192829" lon="11.2182173"><ele>378.0</ele><time>2026-04-25T14:50:10.291Z</time></trkpt><trkpt lat="43.9193685" lon="11.2182476"><ele>378.0</ele><time>2026-04-25T14:50:12.29Z</time></trkpt><trkpt lat="43.9194851" lon="11.2182882"><ele>378.3333333333333</ele><time>2026-04-25T14:50:14.295Z</time></trkpt><trkpt lat="43.9195963" lon="11.2183233"><ele>378.6666666666667</ele><time>2026-04-25T14:50:16.298Z</time></trkpt><trkpt lat="43.9196757" lon="11.2183454"><ele>379.0</ele><time>2026-04-25T14:50:18.315Z</time></trkpt><trkpt lat="43.9197397" lon="11.218353"><ele>379.33333333333337</ele><time>2026-04-25T14:50:20.315Z</time></trkpt><trkpt lat="43.9198044" lon="11.2183763"><ele>379.6666666666667</ele><time>2026-04-25T14:50:23.312Z</time></trkpt><trkpt lat="43.9198938" lon="11.2184325"><ele>380.0</ele><time>2026-04-25T14:50:30.312Z</time></trkpt><trkpt lat="43.9199648" lon="11.2184965"><ele>380.0</ele><time>2026-04-25T14:50:32.307Z</time></trkpt><trkpt lat="43.9200177" lon="11.2185508"><ele>380.0</ele><time>2026-04-25T14:50:59.31Z</time></trkpt><trkpt lat="43.9200751" lon="11.2186203"><ele>380.0</ele><time>2026-04-25T14:51:01.307Z</time></trkpt><trkpt lat="43.9201505" lon="11.2186556"><ele>380.0</ele><time>2026-04-25T14:51:04.306Z</time></trkpt><trkpt lat="43.9202438" lon="11.2186651"><ele>380.0</ele><time>2026-04-25T14:51:07.304Z</time></trkpt><trkpt lat="43.9203074" lon="11.21868"><ele>380.0</ele><time>2026-04-25T14:51:09.302Z</time></trkpt><trkpt lat="43.9204197" lon="11.2186854"><ele>379.33333333333337</ele><time>2026-04-25T14:51:11.304Z</time></trkpt><trkpt lat="43.9204831" lon="11.2187401"><ele>378.6666666666667</ele><time>2026-04-25T14:51:13.313Z</time></trkpt><trkpt lat="43.9205449" lon="11.2187985"><ele>378.0</ele><time>2026-04-25T14:51:15.308Z</time></trkpt><trkpt lat="43.9206117" lon="11.2188763"><ele>377.3333333333333</ele><time>2026-04-25T14:51:17.312Z</time></trkpt><trkpt lat="43.9206605" lon="11.2189649"><ele>376.66666666666663</ele><time>2026-04-25T14:51:19.3Z</time></trkpt><trkpt lat="43.9206922" lon="11.2191003"><ele>376.0</ele><time>2026-04-25T14:51:21.299Z</time></trkpt><trkpt lat="43.9207245" lon="11.2192348"><ele>379.5</ele><time>2026-04-25T14:51:23.302Z</time></trkpt><trkpt lat="43.9207549" lon="11.2193638"><ele>383.0</ele><time>2026-04-25T14:51:25.302Z</time></trkpt><trkpt lat="43.9207889" lon="11.2194815"><ele>386.5</ele><time>2026-04-25T14:51:27.311Z</time></trkpt><trkpt lat="43.9208342" lon="11.2195616"><ele>390.0</ele><time>2026-04-25T14:51:56.298Z</time></trkpt><trkpt lat="43.9208712" lon="11.2196489"><ele>393.50000000000006</ele><time>2026-04-25T14:51:58.308Z</time></trkpt><trkpt lat="43.9209122" lon="11.2197392"><ele>397.0</ele><time>2026-04-25T14:52:01.295Z</time></trkpt><trkpt lat="43.9209626" lon="11.2197946"><ele>401.00000000000006</ele><time>2026-04-25T14:52:04.296Z</time></trkpt><trkpt lat="43.9210234" lon="11.2198508"><ele>405.0</ele><time>2026-04-25T14:57:46.326Z</time></trkpt><trkpt lat="43.9211004" lon="11.2198684"><ele>409.0</ele><time>2026-04-25T14:57:49.318Z</time></trkpt><trkpt lat="43.9211747" lon="11.2199393"><ele>413.0</ele><time>2026-04-25T14:57:52.33Z</time></trkpt><trkpt lat="43.9212328" lon="11.219977"><ele>417.00000000000006</ele><time>2026-04-25T14:58:13.324Z</time></trkpt><trkpt lat="43.9212925" lon="11.2200197"><ele>421.0</ele><time>2026-04-25T14:58:20.326Z</time></trkpt><trkpt lat="43.9213801" lon="11.2200468"><ele>421.00000000000006</ele><time>2026-04-25T14:58:23.324Z</time></trkpt><trkpt lat="43.9214591" lon="11.2200201"><ele>421.0</ele><time>2026-04-25T14:58:26.319Z</time></trkpt><trkpt lat="43.92152" lon="11.219989"><ele>421.0</ele><time>2026-04-25T14:58:28.324Z</time></trkpt><trkpt lat="43.9215828" lon="11.2199485"><ele>421.0</ele><time>2026-04-25T14:58:30.313Z</time></trkpt><trkpt lat="43.9216456" lon="11.2199181"><ele>421.0</ele><time>2026-04-25T14:58:32.327Z</time></trkpt><trkpt lat="43.9217291" lon="11.2198941"><ele>421.00000000000006</ele><time>2026-04-25T14:58:34.324Z</time></trkpt><trkpt lat="43.9217934" lon="11.2198904"><ele>421.0</ele><time>2026-04-25T14:58:36.325Z</time></trkpt><trkpt lat="43.9218718" lon="11.2198935"><ele>422.28571428571433</ele><time>2026-04-25T14:58:38.317Z</time></trkpt><trkpt lat="43.9219334" lon="11.2199183"><ele>423.57142857142856</ele><time>2026-04-25T14:58:40.315Z</time></trkpt><trkpt lat="43.9220007" lon="11.219918"><ele>424.8571428571429</ele><time>2026-04-25T14:58:42.32Z</time></trkpt><trkpt lat="43.9220813" lon="11.2199266"><ele>426.14285714285717</ele><time>2026-04-25T15:05:55.32Z</time></trkpt><trkpt lat="43.9221587" lon="11.2199544"><ele>427.42857142857144</ele><time>2026-04-25T15:05:58.321Z</time></trkpt><trkpt lat="43.9222276" lon="11.219962"><ele>428.7142857142857</ele><time>2026-04-25T15:06:00.313Z</time></trkpt><trkpt lat="43.9223023" lon="11.2199954"><ele>430.0</ele><time>2026-04-25T15:06:02.314Z</time></trkpt><trkpt lat="43.9224081" lon="11.2200571"><ele>430.00000000000006</ele><time>2026-04-25T15:06:04.317Z</time></trkpt><trkpt lat="43.9224642" lon="11.2200992"><ele>430.0</ele><time>2026-04-25T15:06:05.304Z</time></trkpt><trkpt lat="43.9225556" lon="11.2201691"><ele>430.0</ele><time>2026-04-25T15:06:07.316Z</time></trkpt><trkpt lat="43.9226163" lon="11.2202594"><ele>430.0</ele><time>2026-04-25T15:06:09.313Z</time></trkpt><trkpt lat="43.9225858" lon="11.2203505"><ele>430.00000000000006</ele><time>2026-04-25T15:06:12.304Z</time></trkpt><trkpt lat="43.9225236" lon="11.2203875"><ele>430.0</ele><time>2026-04-25T15:06:32.317Z</time></trkpt><trkpt lat="43.9224775" lon="11.2204559"><ele>430.0</ele><time>2026-04-25T15:06:34.342Z</time></trkpt><trkpt lat="43.9224121" lon="11.2205172"><ele>430.0</ele><time>2026-04-25T15:06:36.325Z</time></trkpt><trkpt lat="43.9223321" lon="11.2205378"><ele>430.0</ele><time>2026-04-25T15:06:38.32Z</time></trkpt><trkpt lat="43.9222844" lon="11.2205976"><ele>430.0</ele><time>2026-04-25T15:06:40.318Z</time></trkpt><trkpt lat="43.9222733" lon="11.2206856"><ele>430.0</ele><time>2026-04-25T15:06:42.327Z</time></trkpt><trkpt lat="43.9223016" lon="11.2207808"><ele>430.0</ele><time>2026-04-25T15:06:44.32Z</time></trkpt><trkpt lat="43.9223748" lon="11.2208175"><ele>430.0</ele><time>2026-04-25T15:06:46.316Z</time></trkpt><trkpt lat="43.9224474" lon="11.2208707"><ele>432.6666666666667</ele><time>2026-04-25T15:06:48.31Z</time></trkpt><trkpt lat="43.9225179" lon="11.2209361"><ele>435.33333333333337</ele><time>2026-04-25T15:06:50.318Z</time></trkpt><trkpt lat="43.9225675" lon="11.2209918"><ele>438.0</ele><time>2026-04-25T15:06:52.32Z</time></trkpt><trkpt lat="43.9226309" lon="11.2210039"><ele>440.66666666666663</ele><time>2026-04-25T15:06:54.317Z</time></trkpt><trkpt lat="43.9227045" lon="11.2210688"><ele>443.3333333333333</ele><time>2026-04-25T15:06:56.316Z</time></trkpt><trkpt lat="43.9227801" lon="11.2211275"><ele>446.0</ele><time>2026-04-25T15:06:58.316Z</time></trkpt><trkpt lat="43.922823" lon="11.2212221"><ele>446.99999999999994</ele><time>2026-04-25T15:07:00.333Z</time></trkpt><trkpt lat="43.9228898" lon="11.2212774"><ele>448.0</ele><time>2026-04-25T15:07:03.324Z</time></trkpt><trkpt lat="43.9229839" lon="11.2212481"><ele>449.0</ele><time>2026-04-25T15:07:05.312Z</time></trkpt><trkpt lat="43.9230448" lon="11.2213128"><ele>450.0</ele><time>2026-04-25T15:07:07.299Z</time></trkpt><trkpt lat="43.9231299" lon="11.2213605"><ele>450.99999999999994</ele><time>2026-04-25T15:07:10.33Z</time></trkpt><trkpt lat="43.9232106" lon="11.2213625"><ele>452.0</ele><time>2026-04-25T15:07:13.321Z</time></trkpt><trkpt lat="43.9232947" lon="11.2213883"><ele>451.99999999999994</ele><time>2026-04-25T15:07:16.311Z</time></trkpt><trkpt lat="43.9233512" lon="11.2214589"><ele>452.0</ele><time>2026-04-25T15:12:12.321Z</time></trkpt><trkpt lat="43.923411" lon="11.221516"><ele>452.0</ele><time>2026-04-25T15:12:46.327Z</time></trkpt><trkpt lat="43.9234969" lon="11.2215415"><ele>452.0</ele><time>2026-04-25T15:12:54.323Z</time></trkpt><trkpt lat="43.9235728" lon="11.2215905"><ele>451.99999999999994</ele><time>2026-04-25T15:12:56.321Z</time></trkpt><trkpt lat="43.9236444" lon="11.2216594"><ele>452.0</ele><time>2026-04-25T15:12:58.315Z</time></trkpt><trkpt lat="43.9237066" lon="11.2217436"><ele>454.8333333333333</ele><time>2026-04-25T15:13:00.319Z</time></trkpt><trkpt lat="43.9237547" lon="11.2218607"><ele>457.66666666666663</ele><time>2026-04-25T15:13:02.313Z</time></trkpt><trkpt lat="43.9238177" lon="11.2219457"><ele>460.5</ele><time>2026-04-25T15:13:04.319Z</time></trkpt><trkpt lat="43.9238658" lon="11.2220032"><ele>463.33333333333337</ele><time>2026-04-25T15:13:06.306Z</time></trkpt><trkpt lat="43.9238687" lon="11.2220928"><ele>466.1666666666667</ele><time>2026-04-25T15:13:08.324Z</time></trkpt><trkpt lat="43.9238842" lon="11.2221918"><ele>469.0</ele><time>2026-04-25T15:13:10.313Z</time></trkpt><trkpt lat="43.9239602" lon="11.2222685"><ele>472.1666666666667</ele><time>2026-04-25T15:13:12.328Z</time></trkpt><trkpt lat="43.9240075" lon="11.2223566"><ele>475.33333333333337</ele><time>2026-04-25T15:13:14.319Z</time></trkpt><trkpt lat="43.924045" lon="11.2224731"><ele>478.5</ele><time>2026-04-25T15:13:16.332Z</time></trkpt><trkpt lat="43.9240328" lon="11.2225913"><ele>481.66666666666663</ele><time>2026-04-25T15:13:18.32Z</time></trkpt><trkpt lat="43.9240814" lon="11.2226834"><ele>484.8333333333333</ele><time>2026-04-25T15:13:21.318Z</time></trkpt><trkpt lat="43.9241705" lon="11.2227508"><ele>488.0</ele><time>2026-04-25T15:16:31.327Z</time></trkpt><trkpt lat="43.9242457" lon="11.2228144"><ele>487.99999999999994</ele><time>2026-04-25T15:16:33.325Z</time></trkpt><trkpt lat="43.9243006" lon="11.2228774"><ele>488.0</ele><time>2026-04-25T15:16:35.312Z</time></trkpt><trkpt lat="43.924379" lon="11.2229513"><ele>488.0</ele><time>2026-04-25T15:16:37.308Z</time></trkpt><trkpt lat="43.9244571" lon="11.2230111"><ele>488.0</ele><time>2026-04-25T15:16:39.316Z</time></trkpt><trkpt lat="43.924527" lon="11.2230678"><ele>487.99999999999994</ele><time>2026-04-25T15:16:41.326Z</time></trkpt><trkpt lat="43.9245879" lon="11.2230395"><ele>488.0</ele><time>2026-04-25T15:16:43.326Z</time></trkpt><trkpt lat="43.9246563" lon="11.2230203"><ele>488.0</ele><time>2026-04-25T15:16:45.319Z</time></trkpt><trkpt lat="43.9247521" lon="11.2230358"><ele>487.99999999999994</ele><time>2026-04-25T15:16:47.32Z</time></trkpt><trkpt lat="43.9248557" lon="11.2230945"><ele>487.99999999999994</ele><time>2026-04-25T15:16:49.328Z</time></trkpt><trkpt lat="43.9249113" lon="11.2231359"><ele>488.0</ele><time>2026-04-25T15:16:50.333Z</time></trkpt><trkpt lat="43.9250205" lon="11.2231764"><ele>488.0</ele><time>2026-04-25T15:16:52.331Z</time></trkpt><trkpt lat="43.9251249" lon="11.2231929"><ele>490.99999999999994</ele><time>2026-04-25T15:16:54.331Z</time></trkpt><trkpt lat="43.9251903" lon="11.2232137"><ele>494.0</ele><time>2026-04-25T15:16:55.333Z</time></trkpt><trkpt lat="43.9252549" lon="11.2232431"><ele>497.0</ele><time>2026-04-25T15:16:56.322Z</time></trkpt><trkpt lat="43.9253149" lon="11.2232757"><ele>500.0</ele><time>2026-04-25T15:16:57.32Z</time></trkpt><trkpt lat="43.9253732" lon="11.2233163"><ele>502.99999999999994</ele><time>2026-04-25T15:16:58.319Z</time></trkpt><trkpt lat="43.9254586" lon="11.2234192"><ele>506.0</ele><time>2026-04-25T15:17:00.321Z</time></trkpt><trkpt lat="43.9255252" lon="11.223489"><ele>506.0</ele><time>2026-04-25T15:17:02.327Z</time></trkpt><trkpt lat="43.9256225" lon="11.2235779"><ele>506.0</ele><time>2026-04-25T15:17:04.327Z</time></trkpt><trkpt lat="43.9257565" lon="11.2236354"><ele>506.0</ele><time>2026-04-25T15:17:06.326Z</time></trkpt><trkpt lat="43.925876" lon="11.2236229"><ele>506.0</ele><time>2026-04-25T15:17:08.319Z</time></trkpt><trkpt lat="43.925983" lon="11.2236178"><ele>507.8</ele><time>2026-04-25T15:17:10.317Z</time></trkpt><trkpt lat="43.9260762" lon="11.223587"><ele>509.6</ele><time>2026-04-25T15:17:12.307Z</time></trkpt><trkpt lat="43.9261584" lon="11.2235186"><ele>511.4</ele><time>2026-04-25T15:17:14.306Z</time></trkpt><trkpt lat="43.9262373" lon="11.2234012"><ele>513.2</ele><time>2026-04-25T15:17:16.305Z</time></trkpt><trkpt lat="43.926298" lon="11.2232661"><ele>515.0</ele><time>2026-04-25T15:17:18.328Z</time></trkpt><trkpt lat="43.926359" lon="11.2232258"><ele>515.0</ele><time>2026-04-25T15:17:20.322Z</time></trkpt><trkpt lat="43.9264601" lon="11.2232372"><ele>515.0</ele><time>2026-04-25T15:17:22.33Z</time></trkpt><trkpt lat="43.9265724" lon="11.2232458"><ele>515.0</ele><time>2026-04-25T15:17:24.345Z</time></trkpt><trkpt lat="43.9266683" lon="11.2232316"><ele>515.0</ele><time>2026-04-25T15:17:26.324Z</time></trkpt><trkpt lat="43.9267467" lon="11.2232421"><ele>515.0</ele><time>2026-04-25T15:17:28.327Z</time></trkpt><trkpt lat="43.9268413" lon="11.2233179"><ele>514.0</ele><time>2026-04-25T15:17:30.328Z</time></trkpt><trkpt lat="43.9268893" lon="11.2233778"><ele>513.0</ele><time>2026-04-25T15:17:31.322Z</time></trkpt><trkpt lat="43.9269423" lon="11.2235128"><ele>512.0</ele><time>2026-04-25T15:17:33.329Z</time></trkpt><trkpt lat="43.9269828" lon="11.2236033"><ele>511.0</ele><time>2026-04-25T15:17:34.314Z</time></trkpt><trkpt lat="43.9270186" lon="11.2237008"><ele>509.99999999999994</ele><time>2026-04-25T15:17:35.313Z</time></trkpt><trkpt lat="43.9270562" lon="11.2237894"><ele>509.0</ele><time>2026-04-25T15:17:36.327Z</time></trkpt><trkpt lat="43.9271359" lon="11.2238842"><ele>509.0</ele><time>2026-04-25T15:17:38.324Z</time></trkpt><trkpt lat="43.9272037" lon="11.2239631"><ele>509.0</ele><time>2026-04-25T15:17:40.316Z</time></trkpt><trkpt lat="43.9272394" lon="11.2240462"><ele>509.0</ele><time>2026-04-25T15:17:42.326Z</time></trkpt><trkpt lat="43.9272883" lon="11.2241386"><ele>509.0</ele><time>2026-04-25T15:17:44.318Z</time></trkpt><trkpt lat="43.9273137" lon="11.2243007"><ele>509.0</ele><time>2026-04-25T15:18:25.309Z</time></trkpt><trkpt lat="43.9273455" lon="11.2244184"><ele>508.2857142857142</ele><time>2026-04-25T15:18:26.323Z</time></trkpt><trkpt lat="43.9273623" lon="11.2245316"><ele>507.57142857142856</ele><time>2026-04-25T15:18:27.31Z</time></trkpt><trkpt lat="43.9273939" lon="11.2246107"><ele>506.85714285714283</ele><time>2026-04-25T15:18:28.301Z</time></trkpt><trkpt lat="43.9274355" lon="11.2246785"><ele>506.1428571428571</ele><time>2026-04-25T15:18:29.31Z</time></trkpt><trkpt lat="43.9274892" lon="11.2247483"><ele>505.42857142857144</ele><time>2026-04-25T15:18:30.301Z</time></trkpt><trkpt lat="43.9275493" lon="11.2248089"><ele>504.7142857142857</ele><time>2026-04-25T15:18:31.311Z</time></trkpt><trkpt lat="43.927596" lon="11.2248744"><ele>504.0</ele><time>2026-04-25T15:18:32.314Z</time></trkpt><trkpt lat="43.9276525" lon="11.2249641"><ele>504.0</ele><time>2026-04-25T15:18:33.302Z</time></trkpt><trkpt lat="43.9277156" lon="11.2250545"><ele>504.0</ele><time>2026-04-25T15:18:34.308Z</time></trkpt><trkpt lat="43.9277721" lon="11.2251465"><ele>504.0</ele><time>2026-04-25T15:18:35.314Z</time></trkpt><trkpt lat="43.9278246" lon="11.2252295"><ele>504.0</ele><time>2026-04-25T15:18:36.312Z</time></trkpt><trkpt lat="43.927888" lon="11.2253047"><ele>504.0</ele><time>2026-04-25T15:18:37.309Z</time></trkpt><trkpt lat="43.9279364" lon="11.2253763"><ele>504.0</ele><time>2026-04-25T15:18:38.311Z</time></trkpt><trkpt lat="43.9279754" lon="11.2254589"><ele>504.0</ele><time>2026-04-25T15:18:39.31Z</time></trkpt><trkpt lat="43.9280363" lon="11.225535"><ele>504.0</ele><time>2026-04-25T15:18:40.312Z</time></trkpt><trkpt lat="43.9281031" lon="11.2255829"><ele>504.0</ele><time>2026-04-25T15:18:41.313Z</time></trkpt><trkpt lat="43.9281678" lon="11.2256265"><ele>504.0</ele><time>2026-04-25T15:18:42.32Z</time></trkpt><trkpt lat="43.928243" lon="11.2257225"><ele>504.0</ele><time>2026-04-25T15:18:44.313Z</time></trkpt><trkpt lat="43.9282747" lon="11.2258459"><ele>504.0</ele><time>2026-04-25T15:18:46.317Z</time></trkpt><trkpt lat="43.9283369" lon="11.2259286"><ele>501.2</ele><time>2026-04-25T15:18:48.328Z</time></trkpt><trkpt lat="43.9284089" lon="11.2260392"><ele>498.4</ele><time>2026-04-25T15:18:50.317Z</time></trkpt><trkpt lat="43.9284864" lon="11.2261637"><ele>495.6</ele><time>2026-04-25T15:18:52.315Z</time></trkpt><trkpt lat="43.9285585" lon="11.2262582"><ele>492.8</ele><time>2026-04-25T15:18:53.323Z</time></trkpt><trkpt lat="43.9286321" lon="11.2263432"><ele>490.0</ele><time>2026-04-25T15:18:54.318Z</time></trkpt><trkpt lat="43.9286917" lon="11.226423"><ele>492.00000000000006</ele><time>2026-04-25T15:18:55.315Z</time></trkpt><trkpt lat="43.9287384" lon="11.2265123"><ele>494.0</ele><time>2026-04-25T15:18:56.319Z</time></trkpt><trkpt lat="43.9287823" lon="11.2266029"><ele>496.0</ele><time>2026-04-25T15:18:57.335Z</time></trkpt><trkpt lat="43.928825" lon="11.2266725"><ele>498.0</ele><time>2026-04-25T15:18:58.321Z</time></trkpt><trkpt lat="43.9288995" lon="11.2267998"><ele>500.00000000000006</ele><time>2026-04-25T15:19:00.321Z</time></trkpt><trkpt lat="43.9289416" lon="11.2269341"><ele>502.0</ele><time>2026-04-25T15:19:02.319Z</time></trkpt><trkpt lat="43.9290034" lon="11.2270715"><ele>502.0</ele><time>2026-04-25T15:19:04.318Z</time></trkpt><trkpt lat="43.9290726" lon="11.2271616"><ele>502.00000000000006</ele><time>2026-04-25T15:19:06.317Z</time></trkpt><trkpt lat="43.9291528" lon="11.2272177"><ele>502.00000000000006</ele><time>2026-04-25T15:19:08.323Z</time></trkpt><trkpt lat="43.9292229" lon="11.2273314"><ele>502.0</ele><time>2026-04-25T15:19:10.32Z</time></trkpt><trkpt lat="43.9292632" lon="11.2274193"><ele>502.0</ele><time>2026-04-25T15:19:11.318Z</time></trkpt><trkpt lat="43.929364" lon="11.2275205"><ele>500.6</ele><time>2026-04-25T15:19:13.315Z</time></trkpt><trkpt lat="43.9294787" lon="11.2275831"><ele>499.20000000000005</ele><time>2026-04-25T15:19:15.316Z</time></trkpt><trkpt lat="43.92958" lon="11.2276681"><ele>497.8</ele><time>2026-04-25T15:19:17.314Z</time></trkpt><trkpt lat="43.9296282" lon="11.2277271"><ele>496.4</ele><time>2026-04-25T15:19:18.322Z</time></trkpt><trkpt lat="43.9296921" lon="11.2278272"><ele>495.0</ele><time>2026-04-25T15:19:20.307Z</time></trkpt><trkpt lat="43.9297704" lon="11.2279179"><ele>495.0</ele><time>2026-04-25T15:19:24.327Z</time></trkpt><trkpt lat="43.9298271" lon="11.2279905"><ele>495.0</ele><time>2026-04-25T15:19:26.323Z</time></trkpt><trkpt lat="43.9298522" lon="11.2280951"><ele>495.0</ele><time>2026-04-25T15:19:28.332Z</time></trkpt><trkpt lat="43.9298698" lon="11.2281951"><ele>495.0</ele><time>2026-04-25T15:19:30.319Z</time></trkpt><trkpt lat="43.9299186" lon="11.2282911"><ele>495.0</ele><time>2026-04-25T15:19:32.311Z</time></trkpt><trkpt lat="43.929999" lon="11.228317"><ele>495.0</ele><time>2026-04-25T15:19:34.317Z</time></trkpt><trkpt lat="43.9301016" lon="11.2283306"><ele>494.6666666666667</ele><time>2026-04-25T15:19:36.313Z</time></trkpt><trkpt lat="43.9302051" lon="11.2284271"><ele>494.33333333333337</ele><time>2026-04-25T15:19:38.306Z</time></trkpt><trkpt lat="43.9302692" lon="11.2285126"><ele>494.0</ele><time>2026-04-25T15:19:39.319Z</time></trkpt><trkpt lat="43.9303252" lon="11.2285819"><ele>493.6666666666667</ele><time>2026-04-25T15:19:40.312Z</time></trkpt><trkpt lat="43.9303836" lon="11.2286491"><ele>493.33333333333337</ele><time>2026-04-25T15:19:41.311Z</time></trkpt><trkpt lat="43.9304476" lon="11.2286949"><ele>493.0</ele><time>2026-04-25T15:19:42.307Z</time></trkpt><trkpt lat="43.9305144" lon="11.2287263"><ele>493.00000000000006</ele><time>2026-04-25T15:19:43.316Z</time></trkpt><trkpt lat="43.9305828" lon="11.2287409"><ele>493.0</ele><time>2026-04-25T15:19:44.31Z</time></trkpt><trkpt lat="43.9306435" lon="11.2287703"><ele>493.0</ele><time>2026-04-25T15:19:45.313Z</time></trkpt><trkpt lat="43.9307443" lon="11.2288675"><ele>493.0</ele><time>2026-04-25T15:19:47.308Z</time></trkpt><trkpt lat="43.9307832" lon="11.2289454"><ele>493.00000000000006</ele><time>2026-04-25T15:19:48.303Z</time></trkpt><trkpt lat="43.9308133" lon="11.2290989"><ele>493.0</ele><time>2026-04-25T15:19:50.309Z</time></trkpt><trkpt lat="43.9308809" lon="11.2292246"><ele>495.2</ele><time>2026-04-25T15:19:52.305Z</time></trkpt><trkpt lat="43.9309769" lon="11.2292644"><ele>497.4</ele><time>2026-04-25T15:19:54.319Z</time></trkpt><trkpt lat="43.9310796" lon="11.2293366"><ele>499.59999999999997</ele><time>2026-04-25T15:19:56.311Z</time></trkpt><trkpt lat="43.9311533" lon="11.2294419"><ele>501.79999999999995</ele><time>2026-04-25T15:19:58.308Z</time></trkpt><trkpt lat="43.9312465" lon="11.229495"><ele>504.0</ele><time>2026-04-25T15:20:00.311Z</time></trkpt><trkpt lat="43.9313461" lon="11.2295935"><ele>504.0</ele><time>2026-04-25T15:20:02.31Z</time></trkpt><trkpt lat="43.9313977" lon="11.2296527"><ele>504.0</ele><time>2026-04-25T15:20:03.302Z</time></trkpt><trkpt lat="43.9314355" lon="11.2297405"><ele>504.0</ele><time>2026-04-25T15:20:04.307Z</time></trkpt><trkpt lat="43.9314696" lon="11.2298144"><ele>504.0</ele><time>2026-04-25T15:20:05.299Z</time></trkpt><trkpt lat="43.9314866" lon="11.2299631"><ele>504.0</ele><time>2026-04-25T15:20:07.3Z</time></trkpt><trkpt lat="43.9315413" lon="11.2301016"><ele>504.0</ele><time>2026-04-25T15:20:09.307Z</time></trkpt><trkpt lat="43.9316661" lon="11.2301781"><ele>506.6</ele><time>2026-04-25T15:20:11.304Z</time></trkpt><trkpt lat="43.9317571" lon="11.2302394"><ele>509.2</ele><time>2026-04-25T15:20:12.312Z</time></trkpt><trkpt lat="43.931833" lon="11.2303028"><ele>511.80000000000007</ele><time>2026-04-25T15:20:13.314Z</time></trkpt><trkpt lat="43.9319091" lon="11.230375"><ele>514.4</ele><time>2026-04-25T15:20:14.316Z</time></trkpt><trkpt lat="43.9319971" lon="11.2304361"><ele>517.0</ele><time>2026-04-25T15:20:15.315Z</time></trkpt><trkpt lat="43.9320778" lon="11.2304736"><ele>517.0</ele><time>2026-04-25T15:20:16.316Z</time></trkpt><trkpt lat="43.9321628" lon="11.2305139"><ele>517.0</ele><time>2026-04-25T15:20:17.313Z</time></trkpt><trkpt lat="43.9322481" lon="11.2305505"><ele>517.0</ele><time>2026-04-25T15:20:18.315Z</time></trkpt><trkpt lat="43.9323258" lon="11.2306017"><ele>517.0</ele><time>2026-04-25T15:20:19.31Z</time></trkpt><trkpt lat="43.9323829" lon="11.2306575"><ele>517.0</ele><time>2026-04-25T15:20:20.308Z</time></trkpt><trkpt lat="43.9324313" lon="11.2307179"><ele>517.0</ele><time>2026-04-25T15:20:21.309Z</time></trkpt><trkpt lat="43.9324869" lon="11.2307596"><ele>518.8000000000001</ele><time>2026-04-25T15:20:22.308Z</time></trkpt><trkpt lat="43.9325626" lon="11.2307837"><ele>520.6</ele><time>2026-04-25T15:20:23.315Z</time></trkpt><trkpt lat="43.9326389" lon="11.2308365"><ele>522.4000000000001</ele><time>2026-04-25T15:20:24.316Z</time></trkpt><trkpt lat="43.9327021" lon="11.2308998"><ele>524.2</ele><time>2026-04-25T15:20:25.314Z</time></trkpt><trkpt lat="43.932799" lon="11.2309666"><ele>526.0</ele><time>2026-04-25T15:20:27.307Z</time></trkpt><trkpt lat="43.9329102" lon="11.2309778"><ele>526.0</ele><time>2026-04-25T15:20:29.31Z</time></trkpt><trkpt lat="43.9329761" lon="11.2309926"><ele>526.0</ele><time>2026-04-25T15:20:30.325Z</time></trkpt><trkpt lat="43.9330608" lon="11.231012"><ele>526.0</ele><time>2026-04-25T15:20:31.312Z</time></trkpt><trkpt lat="43.9331488" lon="11.2310442"><ele>526.0</ele><time>2026-04-25T15:20:32.314Z</time></trkpt><trkpt lat="43.9332294" lon="11.2310754"><ele>526.0</ele><time>2026-04-25T15:20:33.31Z</time></trkpt><trkpt lat="43.9333031" lon="11.2310901"><ele>526.0</ele><time>2026-04-25T15:20:34.306Z</time></trkpt><trkpt lat="43.9334191" lon="11.2311252"><ele>526.3333333333334</ele><time>2026-04-25T15:20:36.305Z</time></trkpt><trkpt lat="43.9334927" lon="11.2311572"><ele>526.6666666666667</ele><time>2026-04-25T15:20:37.303Z</time></trkpt><trkpt lat="43.9335836" lon="11.2311646"><ele>527.0</ele><time>2026-04-25T15:20:38.3Z</time></trkpt><trkpt lat="43.9336706" lon="11.2311611"><ele>527.3333333333334</ele><time>2026-04-25T15:20:39.305Z</time></trkpt><trkpt lat="43.9337365" lon="11.2311989"><ele>527.6666666666666</ele><time>2026-04-25T15:20:40.31Z</time></trkpt><trkpt lat="43.9337991" lon="11.231259"><ele>528.0</ele><time>2026-04-25T15:20:41.313Z</time></trkpt><trkpt lat="43.9338456" lon="11.231343"><ele>528.0</ele><time>2026-04-25T15:20:42.313Z</time></trkpt><trkpt lat="43.9338813" lon="11.2314203"><ele>528.0</ele><time>2026-04-25T15:20:43.312Z</time></trkpt><trkpt lat="43.9339183" lon="11.2315472"><ele>528.0</ele><time>2026-04-25T15:20:45.308Z</time></trkpt><trkpt lat="43.9339769" lon="11.2315863"><ele>528.0</ele><time>2026-04-25T15:20:47.322Z</time></trkpt><trkpt lat="43.9340711" lon="11.2316488"><ele>528.0</ele><time>2026-04-25T15:20:49.317Z</time></trkpt><trkpt lat="43.9341702" lon="11.2317313"><ele>527.3333333333334</ele><time>2026-04-25T15:20:51.312Z</time></trkpt><trkpt lat="43.9342772" lon="11.2318065"><ele>526.6666666666666</ele><time>2026-04-25T15:20:53.315Z</time></trkpt><trkpt lat="43.9343426" lon="11.231845"><ele>526.0</ele><time>2026-04-25T15:20:54.314Z</time></trkpt><trkpt lat="43.9344114" lon="11.2319152"><ele>525.3333333333333</ele><time>2026-04-25T15:20:56.32Z</time></trkpt><trkpt lat="43.9344578" lon="11.231993"><ele>524.6666666666666</ele><time>2026-04-25T15:20:58.316Z</time></trkpt><trkpt lat="43.9345217" lon="11.2320425"><ele>524.0</ele><time>2026-04-25T15:21:01.337Z</time></trkpt><trkpt lat="43.9345799" lon="11.2320836"><ele>524.0</ele><time>2026-04-25T15:21:04.317Z</time></trkpt><trkpt lat="43.9346495" lon="11.2321553"><ele>524.0</ele><time>2026-04-25T15:21:07.317Z</time></trkpt><trkpt lat="43.9347125" lon="11.2322219"><ele>524.0</ele><time>2026-04-25T15:21:09.317Z</time></trkpt><trkpt lat="43.9347738" lon="11.2322729"><ele>524.0</ele><time>2026-04-25T15:21:11.323Z</time></trkpt><trkpt lat="43.9348618" lon="11.2323068"><ele>524.0</ele><time>2026-04-25T15:21:13.322Z</time></trkpt><trkpt lat="43.934944" lon="11.2323424"><ele>524.0</ele><time>2026-04-25T15:21:15.314Z</time></trkpt><trkpt lat="43.9350337" lon="11.2323704"><ele>522.8</ele><time>2026-04-25T15:21:18.319Z</time></trkpt><trkpt lat="43.9350988" lon="11.2324152"><ele>521.5999999999999</ele><time>2026-04-25T15:21:20.316Z</time></trkpt><trkpt lat="43.9351766" lon="11.2324668"><ele>520.4</ele><time>2026-04-25T15:21:22.319Z</time></trkpt><trkpt lat="43.9352734" lon="11.2325517"><ele>519.1999999999999</ele><time>2026-04-25T15:21:24.316Z</time></trkpt><trkpt lat="43.9353548" lon="11.232648"><ele>518.0</ele><time>2026-04-25T15:21:26.316Z</time></trkpt><trkpt lat="43.9353644" lon="11.2327543"><ele>518.0</ele><time>2026-04-25T15:21:58.304Z</time></trkpt><trkpt lat="43.935403" lon="11.2328513"><ele>518.0</ele><time>2026-04-25T15:22:01.298Z</time></trkpt><trkpt lat="43.9355033" lon="11.2329239"><ele>518.0</ele><time>2026-04-25T15:22:03.299Z</time></trkpt><trkpt lat="43.935558" lon="11.2329676"><ele>518.0</ele><time>2026-04-25T15:22:04.3Z</time></trkpt><trkpt lat="43.9356136" lon="11.2330086"><ele>518.0</ele><time>2026-04-25T15:22:05.3Z</time></trkpt><trkpt lat="43.9356879" lon="11.2330664"><ele>518.0</ele><time>2026-04-25T15:22:07.306Z</time></trkpt><trkpt lat="43.9357471" lon="11.2331028"><ele>517.5</ele><time>2026-04-25T15:22:09.313Z</time></trkpt><trkpt lat="43.9358078" lon="11.2331888"><ele>517.0</ele><time>2026-04-25T15:22:11.314Z</time></trkpt><trkpt lat="43.9359057" lon="11.2332272"><ele>516.5</ele><time>2026-04-25T15:22:13.318Z</time></trkpt><trkpt lat="43.9360185" lon="11.2332843"><ele>516.0</ele><time>2026-04-25T15:22:15.305Z</time></trkpt><trkpt lat="43.9360806" lon="11.2333119"><ele>515.5</ele><time>2026-04-25T15:22:16.296Z</time></trkpt><trkpt lat="43.936152" lon="11.2333298"><ele>515.0</ele><time>2026-04-25T15:22:17.3Z</time></trkpt><trkpt lat="43.9362086" lon="11.233407"><ele>515.0</ele><time>2026-04-25T15:22:19.297Z</time></trkpt><trkpt lat="43.9363005" lon="11.2334644"><ele>515.0</ele><time>2026-04-25T15:22:21.293Z</time></trkpt><trkpt lat="43.9364139" lon="11.2335197"><ele>515.0</ele><time>2026-04-25T15:22:23.295Z</time></trkpt><trkpt lat="43.9364594" lon="11.2336029"><ele>515.0</ele><time>2026-04-25T15:22:25.3Z</time></trkpt><trkpt lat="43.9365236" lon="11.2336578"><ele>515.0</ele><time>2026-04-25T15:23:04.309Z</time></trkpt><trkpt lat="43.9364769" lon="11.2335873"><ele>515.0</ele><time>2026-04-25T15:23:13.303Z</time></trkpt><trkpt lat="43.9365413" lon="11.233597"><ele>515.0</ele><time>2026-04-25T15:23:31.304Z</time></trkpt><trkpt lat="43.936604" lon="11.2336399"><ele>515.0</ele><time>2026-04-25T15:23:35.321Z</time></trkpt><trkpt lat="43.9366569" lon="11.2336929"><ele>515.0</ele><time>2026-04-25T15:23:37.308Z</time></trkpt><trkpt lat="43.9367576" lon="11.2338248"><ele>515.0</ele><time>2026-04-25T15:23:39.293Z</time></trkpt><trkpt lat="43.9368144" lon="11.2338966"><ele>515.0</ele><time>2026-04-25T15:23:40.292Z</time></trkpt><trkpt lat="43.9368899" lon="11.2339564"><ele>515.0</ele><time>2026-04-25T15:23:41.299Z</time></trkpt><trkpt lat="43.9369662" lon="11.2340233"><ele>515.1666666666666</ele><time>2026-04-25T15:23:42.309Z</time></trkpt><trkpt lat="43.937033" lon="11.2341084"><ele>515.3333333333333</ele><time>2026-04-25T15:23:43.299Z</time></trkpt><trkpt lat="43.9371027" lon="11.2341733"><ele>515.5</ele><time>2026-04-25T15:23:44.303Z</time></trkpt><trkpt lat="43.9371808" lon="11.2342404"><ele>515.6666666666666</ele><time>2026-04-25T15:23:45.302Z</time></trkpt><trkpt lat="43.9372598" lon="11.2343037"><ele>515.8333333333334</ele><time>2026-04-25T15:23:46.3Z</time></trkpt><trkpt lat="43.9373326" lon="11.2343615"><ele>516.0</ele><time>2026-04-25T15:23:47.308Z</time></trkpt><trkpt lat="43.9373894" lon="11.2344029"><ele>516.0</ele><time>2026-04-25T15:23:48.308Z</time></trkpt><trkpt lat="43.9374524" lon="11.2344411"><ele>516.0</ele><time>2026-04-25T15:23:49.305Z</time></trkpt><trkpt lat="43.9375498" lon="11.2344731"><ele>516.0</ele><time>2026-04-25T15:23:51.301Z</time></trkpt><trkpt lat="43.9376263" lon="11.2345231"><ele>516.0</ele><time>2026-04-25T15:23:56.307Z</time></trkpt><trkpt lat="43.9376935" lon="11.2345934"><ele>516.0</ele><time>2026-04-25T15:24:00.309Z</time></trkpt><trkpt lat="43.9377649" lon="11.2346595"><ele>516.0</ele><time>2026-04-25T15:24:02.313Z</time></trkpt><trkpt lat="43.9378444" lon="11.2347542"><ele>515.5</ele><time>2026-04-25T15:24:04.313Z</time></trkpt><trkpt lat="43.9379039" lon="11.2348397"><ele>515.0</ele><time>2026-04-25T15:24:06.322Z</time></trkpt><trkpt lat="43.9379536" lon="11.2349246"><ele>514.5</ele><time>2026-04-25T15:24:08.316Z</time></trkpt><trkpt lat="43.9380276" lon="11.235"><ele>514.0</ele><time>2026-04-25T15:24:10.311Z</time></trkpt><trkpt lat="43.9380801" lon="11.2350581"><ele>513.5</ele><time>2026-04-25T15:24:11.301Z</time></trkpt><trkpt lat="43.9381304" lon="11.2351273"><ele>513.0</ele><time>2026-04-25T15:24:12.309Z</time></trkpt><trkpt lat="43.9381863" lon="11.2351959"><ele>513.0</ele><time>2026-04-25T15:24:13.315Z</time></trkpt><trkpt lat="43.9382375" lon="11.2352592"><ele>513.0</ele><time>2026-04-25T15:24:14.309Z</time></trkpt><trkpt lat="43.9382961" lon="11.235324"><ele>513.0</ele><time>2026-04-25T15:24:15.309Z</time></trkpt><trkpt lat="43.9383501" lon="11.2353708"><ele>513.0</ele><time>2026-04-25T15:24:16.308Z</time></trkpt><trkpt lat="43.9384499" lon="11.2354596"><ele>513.0</ele><time>2026-04-25T15:24:18.312Z</time></trkpt><trkpt lat="43.9385372" lon="11.2354783"><ele>513.0</ele><time>2026-04-25T15:24:20.309Z</time></trkpt><trkpt lat="43.93862" lon="11.2354672"><ele>512.4</ele><time>2026-04-25T15:24:23.317Z</time></trkpt><trkpt lat="43.9387185" lon="11.2355487"><ele>511.79999999999995</ele><time>2026-04-25T15:24:26.31Z</time></trkpt><trkpt lat="43.9388105" lon="11.2356482"><ele>511.2</ele><time>2026-04-25T15:24:28.312Z</time></trkpt><trkpt lat="43.9389396" lon="11.2356908"><ele>510.6</ele><time>2026-04-25T15:24:30.316Z</time></trkpt><trkpt lat="43.939006" lon="11.2357236"><ele>510.0</ele><time>2026-04-25T15:24:31.314Z</time></trkpt><trkpt lat="43.9390759" lon="11.2357537"><ele>510.0</ele><time>2026-04-25T15:24:32.314Z</time></trkpt><trkpt lat="43.9391337" lon="11.2358074"><ele>510.0</ele><time>2026-04-25T15:24:33.317Z</time></trkpt><trkpt lat="43.9391831" lon="11.2358756"><ele>510.0</ele><time>2026-04-25T15:24:34.308Z</time></trkpt><trkpt lat="43.939201" lon="11.2359679"><ele>510.0</ele><time>2026-04-25T15:24:36.307Z</time></trkpt><trkpt lat="43.9392556" lon="11.2360555"><ele>510.0</ele><time>2026-04-25T15:24:40.31Z</time></trkpt><trkpt lat="43.9393355" lon="11.2361488"><ele>510.0</ele><time>2026-04-25T15:24:42.313Z</time></trkpt><trkpt lat="43.9393833" lon="11.2362172"><ele>509.0</ele><time>2026-04-25T15:24:43.31Z</time></trkpt><trkpt lat="43.9394739" lon="11.2363037"><ele>508.0</ele><time>2026-04-25T15:24:45.304Z</time></trkpt><trkpt lat="43.9395174" lon="11.236373"><ele>507.0</ele><time>2026-04-25T15:24:46.305Z</time></trkpt><trkpt lat="43.939576" lon="11.2365177"><ele>506.0</ele><time>2026-04-25T15:24:48.307Z</time></trkpt><trkpt lat="43.9396513" lon="11.2366485"><ele>505.0</ele><time>2026-04-25T15:24:50.295Z</time></trkpt><trkpt lat="43.9397231" lon="11.2367233"><ele>505.33333333333337</ele><time>2026-04-25T15:24:52.297Z</time></trkpt><trkpt lat="43.9398047" lon="11.2367401"><ele>505.6666666666667</ele><time>2026-04-25T15:24:55.311Z</time></trkpt><trkpt lat="43.9398628" lon="11.2367861"><ele>506.0</ele><time>2026-04-25T15:24:58.309Z</time></trkpt><trkpt lat="43.9399228" lon="11.2368212"><ele>506.33333333333337</ele><time>2026-04-25T15:27:49.319Z</time></trkpt><trkpt lat="43.9400262" lon="11.2368349"><ele>506.6666666666667</ele><time>2026-04-25T15:27:51.318Z</time></trkpt><trkpt lat="43.9401548" lon="11.2368599"><ele>507.0</ele><time>2026-04-25T15:27:53.307Z</time></trkpt><trkpt lat="43.9402811" lon="11.236878"><ele>507.0</ele><time>2026-04-25T15:27:55.3Z</time></trkpt><trkpt lat="43.9403458" lon="11.236896"><ele>507.0</ele><time>2026-04-25T15:27:56.301Z</time></trkpt><trkpt lat="43.9404163" lon="11.2369293"><ele>507.0</ele><time>2026-04-25T15:27:57.307Z</time></trkpt><trkpt lat="43.940477" lon="11.2369669"><ele>507.0</ele><time>2026-04-25T15:27:58.296Z</time></trkpt><trkpt lat="43.9405263" lon="11.2370311"><ele>507.0</ele><time>2026-04-25T15:27:59.296Z</time></trkpt><trkpt lat="43.940578" lon="11.2370962"><ele>507.0</ele><time>2026-04-25T15:28:00.302Z</time></trkpt><trkpt lat="43.9406295" lon="11.2371552"><ele>507.0</ele><time>2026-04-25T15:28:01.306Z</time></trkpt><trkpt lat="43.9406807" lon="11.2372143"><ele>507.0</ele><time>2026-04-25T15:28:02.302Z</time></trkpt><trkpt lat="43.9407839" lon="11.2372956"><ele>507.0</ele><time>2026-04-25T15:28:04.304Z</time></trkpt><trkpt lat="43.9408533" lon="11.2373341"><ele>507.0</ele><time>2026-04-25T15:28:05.303Z</time></trkpt><trkpt lat="43.9409137" lon="11.2373798"><ele>507.0</ele><time>2026-04-25T15:28:06.303Z</time></trkpt><trkpt lat="43.9409934" lon="11.2374808"><ele>507.0</ele><time>2026-04-25T15:28:08.302Z</time></trkpt><trkpt lat="43.941058" lon="11.2375335"><ele>507.0</ele><time>2026-04-25T15:28:10.306Z</time></trkpt><trkpt lat="43.9411269" lon="11.2375107"><ele>507.0</ele><time>2026-04-25T15:28:34.304Z</time></trkpt><trkpt lat="43.9412048" lon="11.237418"><ele>507.00000000000006</ele><time>2026-04-25T15:28:37.315Z</time></trkpt><trkpt lat="43.9412769" lon="11.2373675"><ele>507.00000000000006</ele><time>2026-04-25T15:28:39.31Z</time></trkpt><trkpt lat="43.9413545" lon="11.2373267"><ele>507.0</ele><time>2026-04-25T15:28:41.307Z</time></trkpt><trkpt lat="43.9414374" lon="11.2373592"><ele>507.0</ele><time>2026-04-25T15:28:43.304Z</time></trkpt><trkpt lat="43.9415374" lon="11.2374078"><ele>507.0</ele><time>2026-04-25T15:28:45.31Z</time></trkpt><trkpt lat="43.9416034" lon="11.2374132"><ele>507.00000000000006</ele><time>2026-04-25T15:28:46.292Z</time></trkpt><trkpt lat="43.9416687" lon="11.2374037"><ele>507.00000000000006</ele><time>2026-04-25T15:28:47.306Z</time></trkpt><trkpt lat="43.9417783" lon="11.2373384"><ele>507.0</ele><time>2026-04-25T15:28:49.291Z</time></trkpt><trkpt lat="43.9418465" lon="11.2372057"><ele>507.0</ele><time>2026-04-25T15:28:51.292Z</time></trkpt><trkpt lat="43.9419017" lon="11.2370624"><ele>507.0</ele><time>2026-04-25T15:28:53.288Z</time></trkpt><trkpt lat="43.9419363" lon="11.2369126"><ele>507.00000000000006</ele><time>2026-04-25T15:28:55.293Z</time></trkpt><trkpt lat="43.9419607" lon="11.2367839"><ele>507.00000000000006</ele><time>2026-04-25T15:28:57.3Z</time></trkpt><trkpt lat="43.9419927" lon="11.2366599"><ele>507.0</ele><time>2026-04-25T15:28:59.295Z</time></trkpt><trkpt lat="43.9420557" lon="11.2365616"><ele>507.0</ele><time>2026-04-25T15:29:01.3Z</time></trkpt><trkpt lat="43.9421301" lon="11.2364452"><ele>504.6666666666667</ele><time>2026-04-25T15:29:03.302Z</time></trkpt><trkpt lat="43.9421915" lon="11.2363257"><ele>502.33333333333337</ele><time>2026-04-25T15:29:05.296Z</time></trkpt><trkpt lat="43.94227" lon="11.2362035"><ele>500.0</ele><time>2026-04-25T15:29:07.291Z</time></trkpt><trkpt lat="43.9423034" lon="11.2361293"><ele>497.6666666666667</ele><time>2026-04-25T15:29:08.306Z</time></trkpt><trkpt lat="43.9423364" lon="11.2360459"><ele>495.33333333333337</ele><time>2026-04-25T15:29:09.298Z</time></trkpt><trkpt lat="43.9423669" lon="11.2359623"><ele>493.0</ele><time>2026-04-25T15:29:10.298Z</time></trkpt><trkpt lat="43.942429" lon="11.2358386"><ele>493.0</ele><time>2026-04-25T15:29:12.301Z</time></trkpt><trkpt lat="43.9425067" lon="11.2356896"><ele>492.99999999999994</ele><time>2026-04-25T15:29:14.304Z</time></trkpt><trkpt lat="43.9425696" lon="11.2355197"><ele>492.99999999999994</ele><time>2026-04-25T15:29:16.311Z</time></trkpt><trkpt lat="43.9425943" lon="11.2354273"><ele>493.0</ele><time>2026-04-25T15:29:17.298Z</time></trkpt><trkpt lat="43.9426382" lon="11.2353255"><ele>493.0</ele><time>2026-04-25T15:29:18.298Z</time></trkpt><trkpt lat="43.9426681" lon="11.2352363"><ele>492.00000000000006</ele><time>2026-04-25T15:29:19.298Z</time></trkpt><trkpt lat="43.9426987" lon="11.2351436"><ele>491.0</ele><time>2026-04-25T15:29:20.298Z</time></trkpt><trkpt lat="43.9427362" lon="11.2350603"><ele>490.0</ele><time>2026-04-25T15:29:21.302Z</time></trkpt><trkpt lat="43.9427702" lon="11.2349853"><ele>489.0</ele><time>2026-04-25T15:29:22.306Z</time></trkpt><trkpt lat="43.9428322" lon="11.2348566"><ele>488.00000000000006</ele><time>2026-04-25T15:29:24.301Z</time></trkpt><trkpt lat="43.9428585" lon="11.2347687"><ele>487.0</ele><time>2026-04-25T15:29:26.301Z</time></trkpt><trkpt lat="43.9428717" lon="11.2346518"><ele>487.0</ele><time>2026-04-25T15:29:29.306Z</time></trkpt><trkpt lat="43.9429446" lon="11.2346416"><ele>487.00000000000006</ele><time>2026-04-25T15:29:33.29Z</time></trkpt><trkpt lat="43.942963" lon="11.2347408"><ele>487.00000000000006</ele><time>2026-04-25T15:29:35.297Z</time></trkpt><trkpt lat="43.9429694" lon="11.2348738"><ele>487.0</ele><time>2026-04-25T15:29:37.295Z</time></trkpt><trkpt lat="43.9429892" lon="11.2350341"><ele>487.0</ele><time>2026-04-25T15:29:39.298Z</time></trkpt><trkpt lat="43.9430202" lon="11.2351944"><ele>487.00000000000006</ele><time>2026-04-25T15:29:41.298Z</time></trkpt><trkpt lat="43.9430317" lon="11.2352825"><ele>487.0</ele><time>2026-04-25T15:29:42.296Z</time></trkpt><trkpt lat="43.9430485" lon="11.2353673"><ele>487.0</ele><time>2026-04-25T15:29:43.298Z</time></trkpt><trkpt lat="43.9430852" lon="11.2355405"><ele>487.0</ele><time>2026-04-25T15:29:45.302Z</time></trkpt><trkpt lat="43.9431003" lon="11.2356322"><ele>487.00000000000006</ele><time>2026-04-25T15:29:46.309Z</time></trkpt><trkpt lat="43.9431282" lon="11.2357875"><ele>487.0</ele><time>2026-04-25T15:29:48.3Z</time></trkpt><trkpt lat="43.9431656" lon="11.2359499"><ele>488.1666666666667</ele><time>2026-04-25T15:29:50.31Z</time></trkpt><trkpt lat="43.9431882" lon="11.2360369"><ele>489.33333333333337</ele><time>2026-04-25T15:29:51.307Z</time></trkpt><trkpt lat="43.9432149" lon="11.2361429"><ele>490.5</ele><time>2026-04-25T15:29:52.31Z</time></trkpt><trkpt lat="43.9432427" lon="11.2362491"><ele>491.66666666666663</ele><time>2026-04-25T15:29:53.304Z</time></trkpt><trkpt lat="43.943283" lon="11.2363466"><ele>492.8333333333333</ele><time>2026-04-25T15:29:54.31Z</time></trkpt><trkpt lat="43.9433269" lon="11.2364558"><ele>494.0</ele><time>2026-04-25T15:29:55.297Z</time></trkpt><trkpt lat="43.9433805" lon="11.2365528"><ele>493.66666666666663</ele><time>2026-04-25T15:29:56.302Z</time></trkpt><trkpt lat="43.9434432" lon="11.2366561"><ele>493.3333333333333</ele><time>2026-04-25T15:29:57.3Z</time></trkpt><trkpt lat="43.9434927" lon="11.2367544"><ele>493.0</ele><time>2026-04-25T15:29:58.297Z</time></trkpt><trkpt lat="43.9435366" lon="11.2368549"><ele>492.66666666666663</ele><time>2026-04-25T15:29:59.297Z</time></trkpt><trkpt lat="43.9435707" lon="11.2369679"><ele>492.3333333333333</ele><time>2026-04-25T15:30:00.301Z</time></trkpt><trkpt lat="43.9436005" lon="11.237071"><ele>492.0</ele><time>2026-04-25T15:30:01.298Z</time></trkpt><trkpt lat="43.9436218" lon="11.2371739"><ele>492.0</ele><time>2026-04-25T15:30:02.303Z</time></trkpt><trkpt lat="43.9436421" lon="11.2372695"><ele>492.0</ele><time>2026-04-25T15:30:03.304Z</time></trkpt><trkpt lat="43.9436809" lon="11.2373589"><ele>492.0</ele><time>2026-04-25T15:30:04.302Z</time></trkpt><trkpt lat="43.943733" lon="11.2374409"><ele>492.0</ele><time>2026-04-25T15:30:05.301Z</time></trkpt><trkpt lat="43.9438009" lon="11.2374955"><ele>492.0</ele><time>2026-04-25T15:30:06.291Z</time></trkpt><trkpt lat="43.9438718" lon="11.2375305"><ele>492.0</ele><time>2026-04-25T15:30:07.292Z</time></trkpt><trkpt lat="43.9439412" lon="11.2375658"><ele>492.5</ele><time>2026-04-25T15:30:08.293Z</time></trkpt><trkpt lat="43.9440185" lon="11.2376134"><ele>493.0</ele><time>2026-04-25T15:30:09.299Z</time></trkpt><trkpt lat="43.9441057" lon="11.2376567"><ele>493.5</ele><time>2026-04-25T15:30:10.295Z</time></trkpt><trkpt lat="43.9441671" lon="11.2377004"><ele>494.0</ele><time>2026-04-25T15:30:11.293Z</time></trkpt><trkpt lat="43.9442253" lon="11.2377406"><ele>494.5</ele><time>2026-04-25T15:30:12.296Z</time></trkpt><trkpt lat="43.9443158" lon="11.2378485"><ele>495.0</ele><time>2026-04-25T15:30:14.295Z</time></trkpt><trkpt lat="43.9443625" lon="11.2379914"><ele>496.6666666666667</ele><time>2026-04-25T15:30:16.296Z</time></trkpt><trkpt lat="43.9444056" lon="11.2381584"><ele>498.33333333333337</ele><time>2026-04-25T15:30:18.307Z</time></trkpt><trkpt lat="43.9444311" lon="11.2382411"><ele>500.0</ele><time>2026-04-25T15:30:19.291Z</time></trkpt><trkpt lat="43.9444735" lon="11.2383311"><ele>501.6666666666667</ele><time>2026-04-25T15:30:20.3Z</time></trkpt><trkpt lat="43.9445048" lon="11.2384123"><ele>503.33333333333337</ele><time>2026-04-25T15:30:21.296Z</time></trkpt><trkpt lat="43.944543" lon="11.23849"><ele>505.0</ele><time>2026-04-25T15:30:22.305Z</time></trkpt><trkpt lat="43.9445898" lon="11.2385799"><ele>505.0</ele><time>2026-04-25T15:30:23.295Z</time></trkpt><trkpt lat="43.9446509" lon="11.2386661"><ele>505.0</ele><time>2026-04-25T15:30:24.302Z</time></trkpt><trkpt lat="43.9447107" lon="11.2387365"><ele>505.0</ele><time>2026-04-25T15:30:25.298Z</time></trkpt><trkpt lat="43.9448068" lon="11.2388285"><ele>505.0</ele><time>2026-04-25T15:30:27.297Z</time></trkpt><trkpt lat="43.9449055" lon="11.2389264"><ele>505.0</ele><time>2026-04-25T15:30:29.299Z</time></trkpt><trkpt lat="43.9449836" lon="11.2390321"><ele>506.0</ele><time>2026-04-25T15:30:31.299Z</time></trkpt><trkpt lat="43.9450662" lon="11.2391182"><ele>507.0</ele><time>2026-04-25T15:30:33.295Z</time></trkpt><trkpt lat="43.9451388" lon="11.2392095"><ele>508.0</ele><time>2026-04-25T15:30:35.297Z</time></trkpt><trkpt lat="43.9452226" lon="11.2392733"><ele>509.0</ele><time>2026-04-25T15:30:37.296Z</time></trkpt><trkpt lat="43.9452807" lon="11.2393233"><ele>510.0</ele><time>2026-04-25T15:30:39.299Z</time></trkpt><trkpt lat="43.9453468" lon="11.2393962"><ele>510.0</ele><time>2026-04-25T15:30:45.306Z</time></trkpt><trkpt lat="43.9454031" lon="11.2394833"><ele>510.0</ele><time>2026-04-25T15:30:47.309Z</time></trkpt><trkpt lat="43.9454577" lon="11.239568"><ele>510.0</ele><time>2026-04-25T15:30:49.308Z</time></trkpt><trkpt lat="43.9455226" lon="11.2396539"><ele>510.0</ele><time>2026-04-25T15:30:51.308Z</time></trkpt><trkpt lat="43.9456056" lon="11.2397412"><ele>510.0</ele><time>2026-04-25T15:30:53.3Z</time></trkpt><trkpt lat="43.9456894" lon="11.239842"><ele>509.8</ele><time>2026-04-25T15:30:55.296Z</time></trkpt><trkpt lat="43.9457752" lon="11.2399375"><ele>509.6</ele><time>2026-04-25T15:30:57.295Z</time></trkpt><trkpt lat="43.945858" lon="11.2400019"><ele>509.4</ele><time>2026-04-25T15:30:59.298Z</time></trkpt><trkpt lat="43.945939" lon="11.2400737"><ele>509.2</ele><time>2026-04-25T15:31:01.291Z</time></trkpt><trkpt lat="43.9460115" lon="11.2401655"><ele>509.0</ele><time>2026-04-25T15:31:03.29Z</time></trkpt><trkpt lat="43.9460465" lon="11.2402801"><ele>508.99999999999994</ele><time>2026-04-25T15:31:05.284Z</time></trkpt><trkpt lat="43.9460303" lon="11.240425"><ele>509.0</ele><time>2026-04-25T15:31:07.281Z</time></trkpt><trkpt lat="43.9460209" lon="11.2405153"><ele>509.0</ele><time>2026-04-25T15:31:08.281Z</time></trkpt><trkpt lat="43.9460144" lon="11.2406128"><ele>509.0</ele><time>2026-04-25T15:31:09.277Z</time></trkpt><trkpt lat="43.9460183" lon="11.2407414"><ele>508.99999999999994</ele><time>2026-04-25T15:31:10.284Z</time></trkpt><trkpt lat="43.9460397" lon="11.2408885"><ele>509.0</ele><time>2026-04-25T15:31:11.281Z</time></trkpt><trkpt lat="43.9460672" lon="11.2410488"><ele>508.16666666666663</ele><time>2026-04-25T15:31:12.283Z</time></trkpt><trkpt lat="43.9460745" lon="11.2411649"><ele>507.3333333333333</ele><time>2026-04-25T15:31:13.286Z</time></trkpt><trkpt lat="43.9460728" lon="11.2412612"><ele>506.5</ele><time>2026-04-25T15:31:14.288Z</time></trkpt><trkpt lat="43.9460798" lon="11.2414472"><ele>505.66666666666663</ele><time>2026-04-25T15:31:16.286Z</time></trkpt><trkpt lat="43.9461004" lon="11.2415509"><ele>504.8333333333333</ele><time>2026-04-25T15:31:17.277Z</time></trkpt><trkpt lat="43.9461438" lon="11.2416483"><ele>504.0</ele><time>2026-04-25T15:31:18.289Z</time></trkpt><trkpt lat="43.9461895" lon="11.2417412"><ele>504.0</ele><time>2026-04-25T15:31:19.29Z</time></trkpt><trkpt lat="43.9462396" lon="11.2418304"><ele>504.0</ele><time>2026-04-25T15:31:20.301Z</time></trkpt><trkpt lat="43.946294" lon="11.2419271"><ele>504.0</ele><time>2026-04-25T15:31:21.295Z</time></trkpt><trkpt lat="43.946346" lon="11.2420128"><ele>504.0</ele><time>2026-04-25T15:31:22.296Z</time></trkpt><trkpt lat="43.9463897" lon="11.2421137"><ele>504.0</ele><time>2026-04-25T15:31:23.293Z</time></trkpt><trkpt lat="43.9464424" lon="11.2421934"><ele>504.0</ele><time>2026-04-25T15:31:24.301Z</time></trkpt><trkpt lat="43.9464917" lon="11.2422671"><ele>504.0</ele><time>2026-04-25T15:31:25.293Z</time></trkpt><trkpt lat="43.9465964" lon="11.2423627"><ele>504.0</ele><time>2026-04-25T15:31:27.294Z</time></trkpt><trkpt lat="43.9466749" lon="11.242391"><ele>504.0</ele><time>2026-04-25T15:31:28.292Z</time></trkpt><trkpt lat="43.9467579" lon="11.242416"><ele>504.0</ele><time>2026-04-25T15:31:29.292Z</time></trkpt><trkpt lat="43.9468395" lon="11.242456"><ele>504.0</ele><time>2026-04-25T15:31:30.291Z</time></trkpt><trkpt lat="43.9469417" lon="11.2425088"><ele>504.79999999999995</ele><time>2026-04-25T15:31:31.294Z</time></trkpt><trkpt lat="43.9470338" lon="11.2425655"><ele>505.59999999999997</ele><time>2026-04-25T15:31:32.293Z</time></trkpt><trkpt lat="43.9471325" lon="11.2426199"><ele>506.4</ele><time>2026-04-25T15:31:33.295Z</time></trkpt><trkpt lat="43.9472295" lon="11.2426648"><ele>507.2</ele><time>2026-04-25T15:31:34.293Z</time></trkpt><trkpt lat="43.9473196" lon="11.2427014"><ele>508.0</ele><time>2026-04-25T15:31:35.295Z</time></trkpt><trkpt lat="43.9473952" lon="11.2427407"><ele>508.0</ele><time>2026-04-25T15:31:36.285Z</time></trkpt><trkpt lat="43.9474689" lon="11.2427856"><ele>507.99999999999994</ele><time>2026-04-25T15:31:37.281Z</time></trkpt><trkpt lat="43.9475467" lon="11.2428349"><ele>507.99999999999994</ele><time>2026-04-25T15:31:38.304Z</time></trkpt><trkpt lat="43.9476244" lon="11.2429015"><ele>508.0</ele><time>2026-04-25T15:31:39.293Z</time></trkpt><trkpt lat="43.9477037" lon="11.2429778"><ele>508.0</ele><time>2026-04-25T15:31:40.293Z</time></trkpt><trkpt lat="43.9477762" lon="11.2430661"><ele>510.59999999999997</ele><time>2026-04-25T15:31:41.29Z</time></trkpt><trkpt lat="43.9478494" lon="11.2431716"><ele>513.1999999999999</ele><time>2026-04-25T15:31:42.29Z</time></trkpt><trkpt lat="43.9479117" lon="11.2432666"><ele>515.8</ele><time>2026-04-25T15:31:43.289Z</time></trkpt><trkpt lat="43.9479796" lon="11.2433453"><ele>518.4</ele><time>2026-04-25T15:31:44.296Z</time></trkpt><trkpt lat="43.9480846" lon="11.243404"><ele>521.0</ele><time>2026-04-25T15:31:45.291Z</time></trkpt><trkpt lat="43.9481818" lon="11.2434663"><ele>521.0</ele><time>2026-04-25T15:31:46.29Z</time></trkpt><trkpt lat="43.9482809" lon="11.2435111"><ele>521.0</ele><time>2026-04-25T15:31:47.288Z</time></trkpt><trkpt lat="43.9483607" lon="11.2435388"><ele>521.0</ele><time>2026-04-25T15:31:48.282Z</time></trkpt><trkpt lat="43.9484417" lon="11.2435643"><ele>521.0</ele><time>2026-04-25T15:31:49.29Z</time></trkpt><trkpt lat="43.9485121" lon="11.243595"><ele>521.0</ele><time>2026-04-25T15:31:50.281Z</time></trkpt><trkpt lat="43.9485761" lon="11.2436483"><ele>521.0</ele><time>2026-04-25T15:31:51.297Z</time></trkpt><trkpt lat="43.9486697" lon="11.2437181"><ele>520.4285714285714</ele><time>2026-04-25T15:31:53.279Z</time></trkpt><trkpt lat="43.9487303" lon="11.2437818"><ele>519.8571428571429</ele><time>2026-04-25T15:31:55.287Z</time></trkpt><trkpt lat="43.948795" lon="11.2438298"><ele>519.2857142857143</ele><time>2026-04-25T15:31:57.297Z</time></trkpt><trkpt lat="43.9488569" lon="11.243886"><ele>518.7142857142858</ele><time>2026-04-25T15:31:59.293Z</time></trkpt><trkpt lat="43.9489199" lon="11.2439467"><ele>518.1428571428572</ele><time>2026-04-25T15:32:01.292Z</time></trkpt><trkpt lat="43.9489874" lon="11.2440044"><ele>517.5714285714286</ele><time>2026-04-25T15:32:03.286Z</time></trkpt><trkpt lat="43.9490449" lon="11.2440551"><ele>517.0</ele><time>2026-04-25T15:32:05.293Z</time></trkpt><trkpt lat="43.9491096" lon="11.2441131"><ele>517.0</ele><time>2026-04-25T15:32:07.296Z</time></trkpt><trkpt lat="43.949159" lon="11.2441883"><ele>517.0</ele><time>2026-04-25T15:32:09.296Z</time></trkpt><trkpt lat="43.9492101" lon="11.2442911"><ele>517.0</ele><time>2026-04-25T15:32:12.292Z</time></trkpt><trkpt lat="43.9492448" lon="11.244385"><ele>517.0</ele><time>2026-04-25T15:32:14.287Z</time></trkpt><trkpt lat="43.9492629" lon="11.2444954"><ele>517.0</ele><time>2026-04-25T15:32:16.289Z</time></trkpt><trkpt lat="43.9492796" lon="11.2446108"><ele>517.0</ele><time>2026-04-25T15:32:18.284Z</time></trkpt><trkpt lat="43.9493242" lon="11.2447381"><ele>516.5</ele><time>2026-04-25T15:32:20.286Z</time></trkpt><trkpt lat="43.9494154" lon="11.2448435"><ele>516.0</ele><time>2026-04-25T15:32:22.3Z</time></trkpt><trkpt lat="43.9494733" lon="11.2449257"><ele>515.5</ele><time>2026-04-25T15:32:23.287Z</time></trkpt><trkpt lat="43.9495325" lon="11.2450136"><ele>515.0</ele><time>2026-04-25T15:32:24.296Z</time></trkpt><trkpt lat="43.9495759" lon="11.2450854"><ele>514.5</ele><time>2026-04-25T15:32:25.292Z</time></trkpt><trkpt lat="43.949622" lon="11.2451467"><ele>514.0</ele><time>2026-04-25T15:32:26.287Z</time></trkpt><trkpt lat="43.9497005" lon="11.2451786"><ele>514.0</ele><time>2026-04-25T15:32:28.292Z</time></trkpt><trkpt lat="43.9497368" lon="11.2452698"><ele>514.0</ele><time>2026-04-25T15:32:30.298Z</time></trkpt><trkpt lat="43.9498117" lon="11.2453519"><ele>514.0</ele><time>2026-04-25T15:32:32.304Z</time></trkpt><trkpt lat="43.9498852" lon="11.2453892"><ele>514.0</ele><time>2026-04-25T15:32:33.292Z</time></trkpt><trkpt lat="43.9499557" lon="11.2454219"><ele>514.0</ele><time>2026-04-25T15:32:34.295Z</time></trkpt><trkpt lat="43.9500245" lon="11.2454535"><ele>514.0</ele><time>2026-04-25T15:32:35.29Z</time></trkpt><trkpt lat="43.950093" lon="11.2455095"><ele>512.6666666666667</ele><time>2026-04-25T15:32:36.295Z</time></trkpt><trkpt lat="43.9501485" lon="11.2455861"><ele>511.33333333333337</ele><time>2026-04-25T15:32:37.295Z</time></trkpt><trkpt lat="43.9502081" lon="11.245658"><ele>510.0</ele><time>2026-04-25T15:32:38.299Z</time></trkpt><trkpt lat="43.9502587" lon="11.2457245"><ele>508.66666666666663</ele><time>2026-04-25T15:32:39.295Z</time></trkpt><trkpt lat="43.9503202" lon="11.245761"><ele>507.3333333333333</ele><time>2026-04-25T15:32:40.296Z</time></trkpt><trkpt lat="43.9504026" lon="11.2458409"><ele>506.0</ele><time>2026-04-25T15:32:42.294Z</time></trkpt><trkpt lat="43.9504817" lon="11.2459573"><ele>508.99999999999994</ele><time>2026-04-25T15:32:44.286Z</time></trkpt><trkpt lat="43.9505246" lon="11.2461034"><ele>512.0</ele><time>2026-04-25T15:32:46.297Z</time></trkpt><trkpt lat="43.9505429" lon="11.2461993"><ele>515.0</ele><time>2026-04-25T15:32:47.286Z</time></trkpt><trkpt lat="43.9505443" lon="11.2462903"><ele>518.0</ele><time>2026-04-25T15:32:48.294Z</time></trkpt><trkpt lat="43.9505611" lon="11.2464544"><ele>521.0</ele><time>2026-04-25T15:32:50.288Z</time></trkpt><trkpt lat="43.9505752" lon="11.246543"><ele>524.0</ele><time>2026-04-25T15:32:51.286Z</time></trkpt><trkpt lat="43.9505819" lon="11.2466336"><ele>525.3333333333333</ele><time>2026-04-25T15:32:52.287Z</time></trkpt><trkpt lat="43.9505915" lon="11.2467724"><ele>526.6666666666666</ele><time>2026-04-25T15:32:54.295Z</time></trkpt><trkpt lat="43.9506456" lon="11.2468624"><ele>528.0</ele><time>2026-04-25T15:32:56.291Z</time></trkpt><trkpt lat="43.9506884" lon="11.2469968"><ele>529.3333333333334</ele><time>2026-04-25T15:32:58.289Z</time></trkpt><trkpt lat="43.950695" lon="11.2471073"><ele>530.6666666666667</ele><time>2026-04-25T15:33:00.284Z</time></trkpt><trkpt lat="43.9507126" lon="11.2472009"><ele>532.0</ele><time>2026-04-25T15:33:20.29Z</time></trkpt><trkpt lat="43.9507695" lon="11.247269"><ele>534.6</ele><time>2026-04-25T15:33:22.292Z</time></trkpt><trkpt lat="43.9508536" lon="11.2473344"><ele>537.2</ele><time>2026-04-25T15:33:24.297Z</time></trkpt><trkpt lat="43.9509151" lon="11.2473907"><ele>539.8</ele><time>2026-04-25T15:33:26.289Z</time></trkpt><trkpt lat="43.9509148" lon="11.2475186"><ele>542.4</ele><time>2026-04-25T15:33:30.279Z</time></trkpt><trkpt lat="43.9508254" lon="11.24764"><ele>545.0</ele><time>2026-04-25T15:33:32.274Z</time></trkpt><trkpt lat="43.9507694" lon="11.2477157"><ele>545.1428571428571</ele><time>2026-04-25T15:33:33.272Z</time></trkpt><trkpt lat="43.9507087" lon="11.2477876"><ele>545.2857142857143</ele><time>2026-04-25T15:33:34.272Z</time></trkpt><trkpt lat="43.9506475" lon="11.2478208"><ele>545.4285714285714</ele><time>2026-04-25T15:33:35.273Z</time></trkpt><trkpt lat="43.9505741" lon="11.2478512"><ele>545.5714285714286</ele><time>2026-04-25T15:33:36.274Z</time></trkpt><trkpt lat="43.9505097" lon="11.2479102"><ele>545.7142857142858</ele><time>2026-04-25T15:33:37.283Z</time></trkpt><trkpt lat="43.950457" lon="11.2479748"><ele>545.8571428571429</ele><time>2026-04-25T15:33:38.279Z</time></trkpt><trkpt lat="43.9504097" lon="11.2480439"><ele>546.0</ele><time>2026-04-25T15:33:39.279Z</time></trkpt><trkpt lat="43.9503379" lon="11.2481709"><ele>548.5</ele><time>2026-04-25T15:33:41.281Z</time></trkpt><trkpt lat="43.9503081" lon="11.2482711"><ele>551.0</ele><time>2026-04-25T15:33:43.287Z</time></trkpt><trkpt lat="43.9503294" lon="11.248398"><ele>553.5</ele><time>2026-04-25T15:33:46.295Z</time></trkpt><trkpt lat="43.9503536" lon="11.2484828"><ele>556.0</ele><time>2026-04-25T15:33:52.304Z</time></trkpt><trkpt lat="43.9503076" lon="11.2485907"><ele>558.5</ele><time>2026-04-25T15:34:09.287Z</time></trkpt><trkpt lat="43.9502242" lon="11.2487117"><ele>561.0</ele><time>2026-04-25T15:34:11.283Z</time></trkpt><trkpt lat="43.9501764" lon="11.2487807"><ele>561.0</ele><time>2026-04-25T15:34:12.277Z</time></trkpt><trkpt lat="43.9501516" lon="11.2488679"><ele>561.0</ele><time>2026-04-25T15:34:14.291Z</time></trkpt><trkpt lat="43.9501436" lon="11.24898"><ele>561.0</ele><time>2026-04-25T15:34:16.286Z</time></trkpt><trkpt lat="43.9500856" lon="11.2491105"><ele>561.0</ele><time>2026-04-25T15:34:18.285Z</time></trkpt><trkpt lat="43.9500393" lon="11.2492367"><ele>561.0</ele><time>2026-04-25T15:34:20.285Z</time></trkpt><trkpt lat="43.9499885" lon="11.2493887"><ele>561.4</ele><time>2026-04-25T15:34:22.287Z</time></trkpt><trkpt lat="43.9499545" lon="11.2495413"><ele>561.8</ele><time>2026-04-25T15:34:24.293Z</time></trkpt><trkpt lat="43.9499637" lon="11.2497159"><ele>562.1999999999999</ele><time>2026-04-25T15:34:26.295Z</time></trkpt><trkpt lat="43.9500159" lon="11.2498348"><ele>562.6</ele><time>2026-04-25T15:34:28.276Z</time></trkpt><trkpt lat="43.9500802" lon="11.2498915"><ele>563.0</ele><time>2026-04-25T15:34:41.296Z</time></trkpt><trkpt lat="43.9501141" lon="11.2499675"><ele>563.8333333333333</ele><time>2026-04-25T15:34:43.29Z</time></trkpt><trkpt lat="43.9501575" lon="11.2500972"><ele>564.6666666666666</ele><time>2026-04-25T15:34:45.284Z</time></trkpt><trkpt lat="43.9502023" lon="11.2501873"><ele>565.5</ele><time>2026-04-25T15:34:47.291Z</time></trkpt><trkpt lat="43.9502525" lon="11.2502706"><ele>566.3333333333334</ele><time>2026-04-25T15:34:55.294Z</time></trkpt><trkpt lat="43.9502949" lon="11.2503447"><ele>567.1666666666667</ele><time>2026-04-25T15:34:58.296Z</time></trkpt><trkpt lat="43.9503356" lon="11.2504183"><ele>568.0</ele><time>2026-04-25T15:35:00.294Z</time></trkpt><trkpt lat="43.9503905" lon="11.2505401"><ele>568.0</ele><time>2026-04-25T15:35:02.292Z</time></trkpt><trkpt lat="43.9504444" lon="11.2506018"><ele>568.0</ele><time>2026-04-25T15:35:10.295Z</time></trkpt><trkpt lat="43.9505065" lon="11.2506368"><ele>568.0</ele><time>2026-04-25T15:35:14.287Z</time></trkpt><trkpt lat="43.9505505" lon="11.250708"><ele>568.0</ele><time>2026-04-25T15:35:17.293Z</time></trkpt><trkpt lat="43.9506216" lon="11.2506895"><ele>568.0</ele><time>2026-04-25T15:35:20.286Z</time></trkpt><trkpt lat="43.9506958" lon="11.2507517"><ele>568.0</ele><time>2026-04-25T15:35:23.289Z</time></trkpt><trkpt lat="43.9507719" lon="11.2508055"><ele>568.0</ele><time>2026-04-25T15:35:26.291Z</time></trkpt><trkpt lat="43.9508529" lon="11.2508445"><ele>568.8333333333334</ele><time>2026-04-25T15:35:30.297Z</time></trkpt><trkpt lat="43.9509364" lon="11.2508401"><ele>569.6666666666667</ele><time>2026-04-25T15:35:34.29Z</time></trkpt><trkpt lat="43.9510004" lon="11.25084"><ele>570.5</ele><time>2026-04-25T15:35:41.294Z</time></trkpt><trkpt lat="43.9510445" lon="11.2509038"><ele>571.3333333333334</ele><time>2026-04-25T15:35:54.293Z</time></trkpt><trkpt lat="43.9511306" lon="11.2509124"><ele>572.1666666666666</ele><time>2026-04-25T15:36:00.296Z</time></trkpt><trkpt lat="43.9511929" lon="11.250868"><ele>573.0</ele><time>2026-04-25T15:36:02.299Z</time></trkpt><trkpt lat="43.9512768" lon="11.250849"><ele>573.0</ele><time>2026-04-25T15:36:04.296Z</time></trkpt><trkpt lat="43.9514023" lon="11.2508287"><ele>573.0</ele><time>2026-04-25T15:36:06.29Z</time></trkpt><trkpt lat="43.9514621" lon="11.2507943"><ele>573.0</ele><time>2026-04-25T15:36:07.289Z</time></trkpt><trkpt lat="43.9515349" lon="11.2507078"><ele>573.0</ele><time>2026-04-25T15:36:09.285Z</time></trkpt><trkpt lat="43.9515871" lon="11.2506038"><ele>573.0</ele><time>2026-04-25T15:36:11.287Z</time></trkpt><trkpt lat="43.9516828" lon="11.250604"><ele>573.5</ele><time>2026-04-25T15:36:14.291Z</time></trkpt><trkpt lat="43.9518087" lon="11.2506483"><ele>574.0</ele><time>2026-04-25T15:36:16.291Z</time></trkpt><trkpt lat="43.9518798" lon="11.2506633"><ele>574.5</ele><time>2026-04-25T15:36:17.292Z</time></trkpt><trkpt lat="43.9519566" lon="11.2506785"><ele>575.0</ele><time>2026-04-25T15:36:18.287Z</time></trkpt><trkpt lat="43.9520357" lon="11.2507007"><ele>575.5</ele><time>2026-04-25T15:36:19.284Z</time></trkpt><trkpt lat="43.9521168" lon="11.2507289"><ele>576.0</ele><time>2026-04-25T15:36:20.291Z</time></trkpt><trkpt lat="43.9521919" lon="11.2507797"><ele>576.0</ele><time>2026-04-25T15:36:21.295Z</time></trkpt><trkpt lat="43.9522575" lon="11.2508237"><ele>576.0</ele><time>2026-04-25T15:36:22.292Z</time></trkpt><trkpt lat="43.9523234" lon="11.2508507"><ele>576.0</ele><time>2026-04-25T15:36:23.293Z</time></trkpt><trkpt lat="43.9523946" lon="11.2508582"><ele>576.0</ele><time>2026-04-25T15:36:24.296Z</time></trkpt><trkpt lat="43.9524636" lon="11.250852"><ele>576.0</ele><time>2026-04-25T15:36:25.29Z</time></trkpt><trkpt lat="43.9525275" lon="11.2508548"><ele>576.0</ele><time>2026-04-25T15:36:26.291Z</time></trkpt><trkpt lat="43.9526369" lon="11.2507973"><ele>574.8</ele><time>2026-04-25T15:36:28.281Z</time></trkpt><trkpt lat="43.9526981" lon="11.2507631"><ele>573.6</ele><time>2026-04-25T15:36:29.279Z</time></trkpt><trkpt lat="43.9528056" lon="11.2506524"><ele>572.4</ele><time>2026-04-25T15:36:31.27Z</time></trkpt><trkpt lat="43.9528596" lon="11.2505838"><ele>571.2</ele><time>2026-04-25T15:36:32.282Z</time></trkpt><trkpt lat="43.9529438" lon="11.2504727"><ele>570.0</ele><time>2026-04-25T15:36:34.295Z</time></trkpt><trkpt lat="43.952994" lon="11.2504169"><ele>569.6666666666666</ele><time>2026-04-25T15:36:35.287Z</time></trkpt><trkpt lat="43.9530512" lon="11.2503623"><ele>569.3333333333334</ele><time>2026-04-25T15:36:36.288Z</time></trkpt><trkpt lat="43.9531401" lon="11.2502607"><ele>569.0</ele><time>2026-04-25T15:36:38.283Z</time></trkpt><trkpt lat="43.9532066" lon="11.2502476"><ele>568.6666666666667</ele><time>2026-04-25T15:36:39.286Z</time></trkpt><trkpt lat="43.953278" lon="11.2502742"><ele>568.3333333333334</ele><time>2026-04-25T15:36:40.284Z</time></trkpt><trkpt lat="43.9533406" lon="11.2503019"><ele>568.0</ele><time>2026-04-25T15:36:41.283Z</time></trkpt><trkpt lat="43.9534166" lon="11.2503104"><ele>568.0</ele><time>2026-04-25T15:36:43.285Z</time></trkpt><trkpt lat="43.9534657" lon="11.2504122"><ele>568.0</ele><time>2026-04-25T15:36:48.278Z</time></trkpt><trkpt lat="43.9534912" lon="11.2505006"><ele>568.0</ele><time>2026-04-25T15:36:50.287Z</time></trkpt><trkpt lat="43.9535393" lon="11.2506023"><ele>568.0</ele><time>2026-04-25T15:36:52.29Z</time></trkpt><trkpt lat="43.9535665" lon="11.2507047"><ele>568.0</ele><time>2026-04-25T15:36:54.294Z</time></trkpt><trkpt lat="43.9535764" lon="11.2508169"><ele>568.0</ele><time>2026-04-25T15:36:56.292Z</time></trkpt><trkpt lat="43.9535819" lon="11.2509094"><ele>568.8</ele><time>2026-04-25T15:36:58.296Z</time></trkpt><trkpt lat="43.9535988" lon="11.2510171"><ele>569.5999999999999</ele><time>2026-04-25T15:37:00.291Z</time></trkpt><trkpt lat="43.9535752" lon="11.2511813"><ele>570.4000000000001</ele><time>2026-04-25T15:37:02.287Z</time></trkpt><trkpt lat="43.9535783" lon="11.2513523"><ele>571.2</ele><time>2026-04-25T15:37:04.276Z</time></trkpt><trkpt lat="43.9535885" lon="11.2514398"><ele>572.0</ele><time>2026-04-25T15:37:05.274Z</time></trkpt><trkpt lat="43.9536112" lon="11.2515827"><ele>568.8000000000001</ele><time>2026-04-25T15:37:07.285Z</time></trkpt><trkpt lat="43.9536318" lon="11.2517575"><ele>565.6</ele><time>2026-04-25T15:37:09.284Z</time></trkpt><trkpt lat="43.9536541" lon="11.2518795"><ele>562.4000000000001</ele><time>2026-04-25T15:37:11.293Z</time></trkpt><trkpt lat="43.9536421" lon="11.252042"><ele>559.2</ele><time>2026-04-25T15:37:13.294Z</time></trkpt><trkpt lat="43.953626" lon="11.2521747"><ele>556.0</ele><time>2026-04-25T15:37:15.286Z</time></trkpt><trkpt lat="43.9535913" lon="11.2522792"><ele>552.8</ele><time>2026-04-25T15:37:17.286Z</time></trkpt><trkpt lat="43.9535258" lon="11.2523645"><ele>549.6</ele><time>2026-04-25T15:37:19.291Z</time></trkpt><trkpt lat="43.953461" lon="11.252504"><ele>546.4</ele><time>2026-04-25T15:37:21.287Z</time></trkpt><trkpt lat="43.9534345" lon="11.2526197"><ele>543.2</ele><time>2026-04-25T15:37:23.287Z</time></trkpt><trkpt lat="43.9534517" lon="11.2527838"><ele>540.0</ele><time>2026-04-25T15:37:25.288Z</time></trkpt><trkpt lat="43.9534587" lon="11.2528768"><ele>540.0</ele><time>2026-04-25T15:37:26.283Z</time></trkpt><trkpt lat="43.9534607" lon="11.2529752"><ele>540.0</ele><time>2026-04-25T15:37:27.287Z</time></trkpt><trkpt lat="43.9534564" lon="11.2530644"><ele>540.0</ele><time>2026-04-25T15:37:28.283Z</time></trkpt><trkpt lat="43.953426" lon="11.253174"><ele>540.0</ele><time>2026-04-25T15:37:30.286Z</time></trkpt><trkpt lat="43.9533785" lon="11.2532698"><ele>540.0</ele><time>2026-04-25T15:37:33.287Z</time></trkpt><trkpt lat="43.9533306" lon="11.2533374"><ele>540.0</ele><time>2026-04-25T15:37:35.284Z</time></trkpt><trkpt lat="43.953278" lon="11.2534013"><ele>540.0</ele><time>2026-04-25T15:37:58.293Z</time></trkpt><trkpt lat="43.9532292" lon="11.2534781"><ele>541.1666666666666</ele><time>2026-04-25T15:38:01.279Z</time></trkpt><trkpt lat="43.9531652" lon="11.2535259"><ele>542.3333333333334</ele><time>2026-04-25T15:38:03.295Z</time></trkpt><trkpt lat="43.9530933" lon="11.2535707"><ele>543.5</ele><time>2026-04-25T15:38:05.283Z</time></trkpt><trkpt lat="43.9530227" lon="11.2535894"><ele>544.6666666666667</ele><time>2026-04-25T15:38:08.286Z</time></trkpt><trkpt lat="43.9529568" lon="11.2536316"><ele>545.8333333333334</ele><time>2026-04-25T15:38:11.288Z</time></trkpt><trkpt lat="43.9528833" lon="11.2537078"><ele>547.0</ele><time>2026-04-25T15:38:14.291Z</time></trkpt><trkpt lat="43.9528076" lon="11.2537909"><ele>547.0</ele><time>2026-04-25T15:38:16.287Z</time></trkpt><trkpt lat="43.9527526" lon="11.2538958"><ele>547.0</ele><time>2026-04-25T15:38:18.281Z</time></trkpt><trkpt lat="43.952714" lon="11.2540155"><ele>547.0</ele><time>2026-04-25T15:38:20.281Z</time></trkpt><trkpt lat="43.9526757" lon="11.2541362"><ele>547.0</ele><time>2026-04-25T15:38:22.284Z</time></trkpt><trkpt lat="43.9526557" lon="11.2542239"><ele>547.0</ele><time>2026-04-25T15:38:23.284Z</time></trkpt><trkpt lat="43.9526253" lon="11.2543561"><ele>547.0</ele><time>2026-04-25T15:38:25.276Z</time></trkpt><trkpt lat="43.9526267" lon="11.254467"><ele>545.2</ele><time>2026-04-25T15:38:27.284Z</time></trkpt><trkpt lat="43.9526383" lon="11.2545769"><ele>543.4000000000001</ele><time>2026-04-25T15:38:29.293Z</time></trkpt><trkpt lat="43.9526648" lon="11.2547152"><ele>541.5999999999999</ele><time>2026-04-25T15:38:31.287Z</time></trkpt><trkpt lat="43.9526731" lon="11.2548381"><ele>539.8</ele><time>2026-04-25T15:38:33.294Z</time></trkpt><trkpt lat="43.9526601" lon="11.2549937"><ele>538.0</ele><time>2026-04-25T15:38:35.284Z</time></trkpt><trkpt lat="43.9526459" lon="11.2551278"><ele>537.8</ele><time>2026-04-25T15:38:37.293Z</time></trkpt><trkpt lat="43.9526208" lon="11.2552449"><ele>537.5999999999999</ele><time>2026-04-25T15:38:39.288Z</time></trkpt><trkpt lat="43.9525665" lon="11.2553849"><ele>537.4000000000001</ele><time>2026-04-25T15:38:41.292Z</time></trkpt><trkpt lat="43.9525103" lon="11.2554692"><ele>537.2</ele><time>2026-04-25T15:38:43.287Z</time></trkpt><trkpt lat="43.9524395" lon="11.2556454"><ele>537.0</ele><time>2026-04-25T15:38:59.276Z</time></trkpt><trkpt lat="43.9523874" lon="11.2557394"><ele>538.3333333333334</ele><time>2026-04-25T15:39:00.277Z</time></trkpt><trkpt lat="43.9523245" lon="11.2558246"><ele>539.6666666666666</ele><time>2026-04-25T15:39:02.272Z</time></trkpt><trkpt lat="43.9523868" lon="11.2559583"><ele>541.0</ele><time>2026-04-25T15:39:04.283Z</time></trkpt><trkpt lat="43.9524426" lon="11.2560158"><ele>542.3333333333333</ele><time>2026-04-25T15:39:05.301Z</time></trkpt><trkpt lat="43.9525153" lon="11.2560645"><ele>543.6666666666666</ele><time>2026-04-25T15:39:06.291Z</time></trkpt><trkpt lat="43.9525792" lon="11.2561336"><ele>545.0</ele><time>2026-04-25T15:39:07.284Z</time></trkpt><trkpt lat="43.9526353" lon="11.2561986"><ele>545.0</ele><time>2026-04-25T15:39:08.296Z</time></trkpt><trkpt lat="43.9526734" lon="11.2562757"><ele>545.0</ele><time>2026-04-25T15:39:09.29Z</time></trkpt><trkpt lat="43.9526908" lon="11.2563709"><ele>545.0</ele><time>2026-04-25T15:39:10.299Z</time></trkpt><trkpt lat="43.952751" lon="11.2565148"><ele>545.0</ele><time>2026-04-25T15:39:12.291Z</time></trkpt><trkpt lat="43.9527992" lon="11.2565763"><ele>545.0</ele><time>2026-04-25T15:39:13.299Z</time></trkpt><trkpt lat="43.952858" lon="11.256705"><ele>545.0</ele><time>2026-04-25T15:39:15.288Z</time></trkpt><trkpt lat="43.9528749" lon="11.2568075"><ele>547.1666666666666</ele><time>2026-04-25T15:39:17.307Z</time></trkpt><trkpt lat="43.9529105" lon="11.2569075"><ele>549.3333333333333</ele><time>2026-04-25T15:39:19.298Z</time></trkpt><trkpt lat="43.9529682" lon="11.2569777"><ele>551.5</ele><time>2026-04-25T15:39:21.303Z</time></trkpt><trkpt lat="43.9530224" lon="11.2570558"><ele>553.6666666666666</ele><time>2026-04-25T15:39:24.296Z</time></trkpt><trkpt lat="43.9530651" lon="11.2571661"><ele>555.8333333333334</ele><time>2026-04-25T15:39:29.292Z</time></trkpt><trkpt lat="43.9531052" lon="11.2572637"><ele>558.0</ele><time>2026-04-25T15:39:32.286Z</time></trkpt><trkpt lat="43.9531473" lon="11.2573496"><ele>557.0</ele><time>2026-04-25T15:39:34.286Z</time></trkpt><trkpt lat="43.9531858" lon="11.2574236"><ele>556.0</ele><time>2026-04-25T15:39:35.286Z</time></trkpt><trkpt lat="43.9532403" lon="11.2575003"><ele>555.0</ele><time>2026-04-25T15:39:36.301Z</time></trkpt><trkpt lat="43.953289" lon="11.2575654"><ele>554.0</ele><time>2026-04-25T15:39:37.295Z</time></trkpt><trkpt lat="43.9533344" lon="11.2576466"><ele>553.0</ele><time>2026-04-25T15:39:38.291Z</time></trkpt><trkpt lat="43.9533744" lon="11.257716"><ele>552.0</ele><time>2026-04-25T15:39:39.283Z</time></trkpt><trkpt lat="43.9534287" lon="11.2578625"><ele>552.0</ele><time>2026-04-25T15:39:41.288Z</time></trkpt><trkpt lat="43.9535019" lon="11.2579822"><ele>552.0</ele><time>2026-04-25T15:39:43.298Z</time></trkpt><trkpt lat="43.9535667" lon="11.2580915"><ele>552.0</ele><time>2026-04-25T15:39:45.286Z</time></trkpt><trkpt lat="43.9536184" lon="11.2581761"><ele>552.0</ele><time>2026-04-25T15:39:47.297Z</time></trkpt><trkpt lat="43.953654" lon="11.2582568"><ele>552.0</ele><time>2026-04-25T15:39:52.303Z</time></trkpt><trkpt lat="43.9537083" lon="11.2583466"><ele>552.0</ele><time>2026-04-25T15:39:55.296Z</time></trkpt><trkpt lat="43.9537699" lon="11.2584405"><ele>554.0</ele><time>2026-04-25T15:39:57.297Z</time></trkpt><trkpt lat="43.9538118" lon="11.2585562"><ele>556.0</ele><time>2026-04-25T15:39:59.3Z</time></trkpt><trkpt lat="43.9538325" lon="11.2586507"><ele>558.0</ele><time>2026-04-25T15:40:02.285Z</time></trkpt><trkpt lat="43.9538562" lon="11.258739"><ele>560.0</ele><time>2026-04-25T15:40:04.283Z</time></trkpt><trkpt lat="43.9539311" lon="11.2588709"><ele>562.0</ele><time>2026-04-25T15:40:06.283Z</time></trkpt><trkpt lat="43.9539752" lon="11.2589406"><ele>564.0</ele><time>2026-04-25T15:40:07.295Z</time></trkpt><trkpt lat="43.9540054" lon="11.2590306"><ele>565.3333333333334</ele><time>2026-04-25T15:40:08.289Z</time></trkpt><trkpt lat="43.9540314" lon="11.2591332"><ele>566.6666666666666</ele><time>2026-04-25T15:40:09.285Z</time></trkpt><trkpt lat="43.9540564" lon="11.2592535"><ele>568.0</ele><time>2026-04-25T15:40:10.292Z</time></trkpt><trkpt lat="43.9540865" lon="11.2593674"><ele>569.3333333333333</ele><time>2026-04-25T15:40:11.294Z</time></trkpt><trkpt lat="43.9541011" lon="11.2594882"><ele>570.6666666666666</ele><time>2026-04-25T15:40:12.283Z</time></trkpt><trkpt lat="43.9541072" lon="11.2595971"><ele>572.0</ele><time>2026-04-25T15:40:13.293Z</time></trkpt><trkpt lat="43.954114" lon="11.2597045"><ele>572.8000000000001</ele><time>2026-04-25T15:40:14.288Z</time></trkpt><trkpt lat="43.9541228" lon="11.2597959"><ele>573.6</ele><time>2026-04-25T15:40:16.294Z</time></trkpt><trkpt lat="43.9541284" lon="11.2599208"><ele>574.4000000000001</ele><time>2026-04-25T15:40:18.295Z</time></trkpt><trkpt lat="43.9541455" lon="11.260076"><ele>575.2</ele><time>2026-04-25T15:40:20.301Z</time></trkpt><trkpt lat="43.9541749" lon="11.2602027"><ele>576.0</ele><time>2026-04-25T15:40:22.296Z</time></trkpt><trkpt lat="43.9542043" lon="11.2603263"><ele>574.4</ele><time>2026-04-25T15:40:24.302Z</time></trkpt><trkpt lat="43.9542442" lon="11.2604683"><ele>572.8</ele><time>2026-04-25T15:40:26.294Z</time></trkpt><trkpt lat="43.9542614" lon="11.2606057"><ele>571.1999999999999</ele><time>2026-04-25T15:40:28.283Z</time></trkpt><trkpt lat="43.9543117" lon="11.2607536"><ele>569.6</ele><time>2026-04-25T15:40:30.282Z</time></trkpt><trkpt lat="43.9543577" lon="11.2608604"><ele>568.0</ele><time>2026-04-25T15:40:32.28Z</time></trkpt><trkpt lat="43.9542929" lon="11.2609191"><ele>566.6666666666667</ele><time>2026-04-25T15:40:51.294Z</time></trkpt><trkpt lat="43.9542654" lon="11.2610025"><ele>565.3333333333334</ele><time>2026-04-25T15:40:55.299Z</time></trkpt><trkpt lat="43.954299" lon="11.261123"><ele>564.0</ele><time>2026-04-25T15:40:59.292Z</time></trkpt><trkpt lat="43.9543519" lon="11.2612025"><ele>562.6666666666666</ele><time>2026-04-25T15:41:02.297Z</time></trkpt><trkpt lat="43.9543565" lon="11.2613112"><ele>561.3333333333333</ele><time>2026-04-25T15:41:05.295Z</time></trkpt><trkpt lat="43.9543463" lon="11.2614121"><ele>560.0</ele><time>2026-04-25T15:41:07.294Z</time></trkpt><trkpt lat="43.9543421" lon="11.2615716"><ele>558.8</ele><time>2026-04-25T15:41:09.302Z</time></trkpt><trkpt lat="43.954314" lon="11.2617069"><ele>557.6</ele><time>2026-04-25T15:41:11.295Z</time></trkpt><trkpt lat="43.9542884" lon="11.2618727"><ele>556.4</ele><time>2026-04-25T15:41:13.292Z</time></trkpt><trkpt lat="43.9542821" lon="11.262017"><ele>555.2</ele><time>2026-04-25T15:41:15.295Z</time></trkpt><trkpt lat="43.9543034" lon="11.2621249"><ele>554.0</ele><time>2026-04-25T15:41:17.308Z</time></trkpt><trkpt lat="43.9543173" lon="11.2622502"><ele>554.1666666666666</ele><time>2026-04-25T15:41:19.3Z</time></trkpt><trkpt lat="43.954321" lon="11.2623508"><ele>554.3333333333333</ele><time>2026-04-25T15:41:21.299Z</time></trkpt><trkpt lat="43.9543156" lon="11.2624454"><ele>554.5</ele><time>2026-04-25T15:41:23.297Z</time></trkpt><trkpt lat="43.9543096" lon="11.2625761"><ele>554.6666666666666</ele><time>2026-04-25T15:41:26.303Z</time></trkpt><trkpt lat="43.954293" lon="11.2626735"><ele>554.8333333333334</ele><time>2026-04-25T15:41:28.298Z</time></trkpt><trkpt lat="43.9542999" lon="11.2627807"><ele>555.0</ele><time>2026-04-25T15:41:30.303Z</time></trkpt><trkpt lat="43.9542892" lon="11.262877"><ele>555.0</ele><time>2026-04-25T15:41:32.301Z</time></trkpt><trkpt lat="43.9542534" lon="11.2629828"><ele>555.0</ele><time>2026-04-25T15:41:34.307Z</time></trkpt><trkpt lat="43.9542306" lon="11.263151"><ele>555.0</ele><time>2026-04-25T15:41:36.289Z</time></trkpt><trkpt lat="43.9542253" lon="11.2632625"><ele>555.0</ele><time>2026-04-25T15:41:37.286Z</time></trkpt><trkpt lat="43.9542248" lon="11.2633603"><ele>555.0</ele><time>2026-04-25T15:41:38.289Z</time></trkpt><trkpt lat="43.9542176" lon="11.2634561"><ele>555.0</ele><time>2026-04-25T15:41:39.29Z</time></trkpt><trkpt lat="43.9542052" lon="11.2635463"><ele>557.0</ele><time>2026-04-25T15:41:40.294Z</time></trkpt><trkpt lat="43.9541867" lon="11.2636429"><ele>559.0</ele><time>2026-04-25T15:41:41.29Z</time></trkpt><trkpt lat="43.9541641" lon="11.2637305"><ele>561.0</ele><time>2026-04-25T15:41:42.286Z</time></trkpt><trkpt lat="43.9540946" lon="11.2638508"><ele>563.0</ele><time>2026-04-25T15:41:44.286Z</time></trkpt><trkpt lat="43.9540137" lon="11.2639735"><ele>565.0</ele><time>2026-04-25T15:41:46.284Z</time></trkpt><trkpt lat="43.9539592" lon="11.2641246"><ele>564.9999999999999</ele><time>2026-04-25T15:41:48.285Z</time></trkpt><trkpt lat="43.9539331" lon="11.2642096"><ele>565.0</ele><time>2026-04-25T15:41:49.279Z</time></trkpt><trkpt lat="43.9539106" lon="11.264302"><ele>565.0</ele><time>2026-04-25T15:41:50.288Z</time></trkpt><trkpt lat="43.9538872" lon="11.2643895"><ele>565.0</ele><time>2026-04-25T15:41:51.283Z</time></trkpt><trkpt lat="43.953863" lon="11.2644826"><ele>565.0</ele><time>2026-04-25T15:41:52.294Z</time></trkpt><trkpt lat="43.9538377" lon="11.2645812"><ele>564.9999999999999</ele><time>2026-04-25T15:41:53.289Z</time></trkpt><trkpt lat="43.9538033" lon="11.2646709"><ele>565.0</ele><time>2026-04-25T15:41:54.283Z</time></trkpt><trkpt lat="43.9537505" lon="11.2647481"><ele>563.8333333333334</ele><time>2026-04-25T15:41:55.28Z</time></trkpt><trkpt lat="43.9536918" lon="11.2648269"><ele>562.6666666666667</ele><time>2026-04-25T15:41:56.283Z</time></trkpt><trkpt lat="43.9536171" lon="11.2649822"><ele>561.5</ele><time>2026-04-25T15:41:58.292Z</time></trkpt><trkpt lat="43.9535739" lon="11.2650714"><ele>560.3333333333334</ele><time>2026-04-25T15:41:59.277Z</time></trkpt><trkpt lat="43.9535217" lon="11.2651495"><ele>559.1666666666666</ele><time>2026-04-25T15:42:00.285Z</time></trkpt><trkpt lat="43.9534639" lon="11.26522"><ele>558.0</ele><time>2026-04-25T15:42:01.282Z</time></trkpt><trkpt lat="43.9534111" lon="11.2652923"><ele>557.8333333333334</ele><time>2026-04-25T15:42:02.284Z</time></trkpt><trkpt lat="43.9533651" lon="11.2653704"><ele>557.6666666666666</ele><time>2026-04-25T15:42:03.289Z</time></trkpt><trkpt lat="43.9533179" lon="11.2654576"><ele>557.5</ele><time>2026-04-25T15:42:04.289Z</time></trkpt><trkpt lat="43.9532746" lon="11.265533"><ele>557.3333333333333</ele><time>2026-04-25T15:42:05.286Z</time></trkpt><trkpt lat="43.9532162" lon="11.2656273"><ele>557.1666666666666</ele><time>2026-04-25T15:42:07.291Z</time></trkpt><trkpt lat="43.9531776" lon="11.2656999"><ele>557.0</ele><time>2026-04-25T15:42:09.296Z</time></trkpt><trkpt lat="43.9531445" lon="11.2657971"><ele>556.6</ele><time>2026-04-25T15:42:11.313Z</time></trkpt><trkpt lat="43.9531054" lon="11.2659452"><ele>556.2</ele><time>2026-04-25T15:42:13.298Z</time></trkpt><trkpt lat="43.9530329" lon="11.2660568"><ele>555.8</ele><time>2026-04-25T15:42:15.301Z</time></trkpt><trkpt lat="43.9529592" lon="11.266144"><ele>555.4</ele><time>2026-04-25T15:42:17.289Z</time></trkpt><trkpt lat="43.9528731" lon="11.2662288"><ele>555.0</ele><time>2026-04-25T15:42:19.287Z</time></trkpt><trkpt lat="43.9528215" lon="11.2662853"><ele>555.0</ele><time>2026-04-25T15:42:20.283Z</time></trkpt><trkpt lat="43.9527701" lon="11.26635"><ele>555.0</ele><time>2026-04-25T15:42:21.288Z</time></trkpt><trkpt lat="43.9527267" lon="11.2664184"><ele>555.0</ele><time>2026-04-25T15:42:22.29Z</time></trkpt><trkpt lat="43.9526655" lon="11.2665556"><ele>555.0</ele><time>2026-04-25T15:42:24.296Z</time></trkpt><trkpt lat="43.9525797" lon="11.2666717"><ele>555.0</ele><time>2026-04-25T15:42:26.28Z</time></trkpt><trkpt lat="43.9524937" lon="11.2667369"><ele>552.4</ele><time>2026-04-25T15:42:28.287Z</time></trkpt><trkpt lat="43.9524298" lon="11.2668298"><ele>549.8</ele><time>2026-04-25T15:42:30.291Z</time></trkpt><trkpt lat="43.9523957" lon="11.2669476"><ele>547.2</ele><time>2026-04-25T15:42:32.292Z</time></trkpt><trkpt lat="43.9523641" lon="11.2670505"><ele>544.6</ele><time>2026-04-25T15:42:34.286Z</time></trkpt><trkpt lat="43.9523517" lon="11.2671601"><ele>542.0</ele><time>2026-04-25T15:42:36.284Z</time></trkpt><trkpt lat="43.952342" lon="11.2673281"><ele>540.8333333333333</ele><time>2026-04-25T15:42:38.282Z</time></trkpt><trkpt lat="43.9523139" lon="11.2674861"><ele>539.6666666666666</ele><time>2026-04-25T15:42:40.285Z</time></trkpt><trkpt lat="43.9523014" lon="11.2675731"><ele>538.5</ele><time>2026-04-25T15:42:41.283Z</time></trkpt><trkpt lat="43.9522727" lon="11.267656"><ele>537.3333333333334</ele><time>2026-04-25T15:42:42.287Z</time></trkpt><trkpt lat="43.9522477" lon="11.2677762"><ele>536.1666666666667</ele><time>2026-04-25T15:42:44.28Z</time></trkpt><trkpt lat="43.9522592" lon="11.2678911"><ele>535.0</ele><time>2026-04-25T15:42:46.291Z</time></trkpt><trkpt lat="43.9522813" lon="11.2680294"><ele>533.6666666666667</ele><time>2026-04-25T15:42:48.287Z</time></trkpt><trkpt lat="43.9522944" lon="11.2681396"><ele>532.3333333333334</ele><time>2026-04-25T15:42:50.288Z</time></trkpt><trkpt lat="43.9522668" lon="11.2682528"><ele>531.0</ele><time>2026-04-25T15:43:03.285Z</time></trkpt><trkpt lat="43.9522443" lon="11.2683635"><ele>529.6666666666666</ele><time>2026-04-25T15:43:05.291Z</time></trkpt><trkpt lat="43.9522138" lon="11.2684889"><ele>528.3333333333333</ele><time>2026-04-25T15:43:07.284Z</time></trkpt><trkpt lat="43.9521735" lon="11.2686057"><ele>527.0</ele><time>2026-04-25T15:43:09.282Z</time></trkpt><trkpt lat="43.9521182" lon="11.2687212"><ele>527.0</ele><time>2026-04-25T15:43:11.287Z</time></trkpt><trkpt lat="43.9520575" lon="11.2688506"><ele>527.0</ele><time>2026-04-25T15:43:13.297Z</time></trkpt><trkpt lat="43.9519916" lon="11.2689869"><ele>527.0</ele><time>2026-04-25T15:43:15.279Z</time></trkpt><trkpt lat="43.9519527" lon="11.269062"><ele>527.0</ele><time>2026-04-25T15:43:16.286Z</time></trkpt><trkpt lat="43.951907" lon="11.2691279"><ele>527.0</ele><time>2026-04-25T15:43:17.277Z</time></trkpt><trkpt lat="43.951861" lon="11.2691961"><ele>527.0</ele><time>2026-04-25T15:43:18.276Z</time></trkpt><trkpt lat="43.9517684" lon="11.2693198"><ele>526.8000000000001</ele><time>2026-04-25T15:43:20.275Z</time></trkpt><trkpt lat="43.9516918" lon="11.2694412"><ele>526.6</ele><time>2026-04-25T15:43:22.281Z</time></trkpt><trkpt lat="43.9516449" lon="11.2695463"><ele>526.4000000000001</ele><time>2026-04-25T15:43:24.28Z</time></trkpt><trkpt lat="43.9516186" lon="11.2697024"><ele>526.2</ele><time>2026-04-25T15:43:26.272Z</time></trkpt><trkpt lat="43.9516211" lon="11.2697995"><ele>526.0</ele><time>2026-04-25T15:43:27.278Z</time></trkpt><trkpt lat="43.9516441" lon="11.2698987"><ele>526.0</ele><time>2026-04-25T15:43:28.279Z</time></trkpt><trkpt lat="43.951676" lon="11.270022"><ele>526.0</ele><time>2026-04-25T15:43:29.28Z</time></trkpt><trkpt lat="43.9516879" lon="11.2701292"><ele>526.0</ele><time>2026-04-25T15:43:30.275Z</time></trkpt><trkpt lat="43.9516807" lon="11.2702234"><ele>526.0</ele><time>2026-04-25T15:43:31.277Z</time></trkpt><trkpt lat="43.9516484" lon="11.2703089"><ele>526.0</ele><time>2026-04-25T15:43:32.27Z</time></trkpt><trkpt lat="43.9515869" lon="11.2703683"><ele>526.0</ele><time>2026-04-25T15:43:33.276Z</time></trkpt><trkpt lat="43.9515164" lon="11.270469"><ele>526.0</ele><time>2026-04-25T15:43:34.28Z</time></trkpt><trkpt lat="43.9514431" lon="11.2705842"><ele>526.0</ele><time>2026-04-25T15:43:35.273Z</time></trkpt><trkpt lat="43.9513774" lon="11.2707097"><ele>526.0</ele><time>2026-04-25T15:43:36.273Z</time></trkpt><trkpt lat="43.9513292" lon="11.2708456"><ele>526.0</ele><time>2026-04-25T15:43:37.278Z</time></trkpt><trkpt lat="43.9512871" lon="11.2709616"><ele>526.0</ele><time>2026-04-25T15:43:38.273Z</time></trkpt><trkpt lat="43.9512428" lon="11.2710903"><ele>524.5</ele><time>2026-04-25T15:43:39.277Z</time></trkpt><trkpt lat="43.9512154" lon="11.2711934"><ele>523.0</ele><time>2026-04-25T15:43:40.283Z</time></trkpt><trkpt lat="43.9511964" lon="11.2712841"><ele>521.5</ele><time>2026-04-25T15:43:41.273Z</time></trkpt><trkpt lat="43.9511883" lon="11.2713788"><ele>520.0</ele><time>2026-04-25T15:43:42.276Z</time></trkpt><trkpt lat="43.9511792" lon="11.2714696"><ele>518.5</ele><time>2026-04-25T15:43:43.285Z</time></trkpt><trkpt lat="43.9511221" lon="11.2715776"><ele>517.0</ele><time>2026-04-25T15:43:45.275Z</time></trkpt><trkpt lat="43.9510437" lon="11.2716024"><ele>514.8000000000001</ele><time>2026-04-25T15:43:46.271Z</time></trkpt><trkpt lat="43.9509575" lon="11.271653"><ele>512.6</ele><time>2026-04-25T15:43:47.279Z</time></trkpt><trkpt lat="43.9508628" lon="11.2717258"><ele>510.40000000000003</ele><time>2026-04-25T15:43:48.276Z</time></trkpt><trkpt lat="43.950797" lon="11.2717965"><ele>508.20000000000005</ele><time>2026-04-25T15:43:49.273Z</time></trkpt><trkpt lat="43.9507361" lon="11.2718628"><ele>506.0</ele><time>2026-04-25T15:43:50.278Z</time></trkpt><trkpt lat="43.9506545" lon="11.2719337"><ele>506.0</ele><time>2026-04-25T15:43:52.278Z</time></trkpt><trkpt lat="43.9506484" lon="11.272047"><ele>506.0</ele><time>2026-04-25T15:43:54.286Z</time></trkpt><trkpt lat="43.9506893" lon="11.2721219"><ele>506.0</ele><time>2026-04-25T15:43:56.288Z</time></trkpt><trkpt lat="43.9507651" lon="11.2721945"><ele>506.0</ele><time>2026-04-25T15:43:58.284Z</time></trkpt><trkpt lat="43.950889" lon="11.2722726"><ele>506.0</ele><time>2026-04-25T15:44:00.28Z</time></trkpt><trkpt lat="43.950962" lon="11.2723196"><ele>503.0</ele><time>2026-04-25T15:44:01.285Z</time></trkpt><trkpt lat="43.9510501" lon="11.2723496"><ele>500.0</ele><time>2026-04-25T15:44:02.274Z</time></trkpt><trkpt lat="43.9511417" lon="11.2723728"><ele>497.0</ele><time>2026-04-25T15:44:03.28Z</time></trkpt><trkpt lat="43.9512481" lon="11.2724216"><ele>494.0</ele><time>2026-04-25T15:44:04.274Z</time></trkpt><trkpt lat="43.9513613" lon="11.2724855"><ele>491.0</ele><time>2026-04-25T15:44:05.28Z</time></trkpt><trkpt lat="43.9514677" lon="11.2725404"><ele>490.99999999999994</ele><time>2026-04-25T15:44:06.272Z</time></trkpt><trkpt lat="43.9515668" lon="11.2725735"><ele>491.0</ele><time>2026-04-25T15:44:07.275Z</time></trkpt><trkpt lat="43.9516514" lon="11.2725905"><ele>491.0</ele><time>2026-04-25T15:44:08.273Z</time></trkpt><trkpt lat="43.9517233" lon="11.2725923"><ele>491.0</ele><time>2026-04-25T15:44:09.272Z</time></trkpt><trkpt lat="43.9517884" lon="11.2726021"><ele>490.99999999999994</ele><time>2026-04-25T15:44:10.271Z</time></trkpt><trkpt lat="43.9518529" lon="11.2726206"><ele>491.0</ele><time>2026-04-25T15:44:11.277Z</time></trkpt><trkpt lat="43.9519192" lon="11.2726608"><ele>491.6</ele><time>2026-04-25T15:44:12.275Z</time></trkpt><trkpt lat="43.9519875" lon="11.2727364"><ele>492.20000000000005</ele><time>2026-04-25T15:44:13.279Z</time></trkpt><trkpt lat="43.9520668" lon="11.2728153"><ele>492.79999999999995</ele><time>2026-04-25T15:44:14.28Z</time></trkpt><trkpt lat="43.9521526" lon="11.272889"><ele>493.4</ele><time>2026-04-25T15:44:15.287Z</time></trkpt><trkpt lat="43.9522299" lon="11.2729544"><ele>494.0</ele><time>2026-04-25T15:44:16.266Z</time></trkpt><trkpt lat="43.9523072" lon="11.2730347"><ele>491.2</ele><time>2026-04-25T15:44:17.275Z</time></trkpt><trkpt lat="43.9523936" lon="11.2731156"><ele>488.4</ele><time>2026-04-25T15:44:18.273Z</time></trkpt><trkpt lat="43.9524625" lon="11.2731972"><ele>485.6</ele><time>2026-04-25T15:44:19.267Z</time></trkpt><trkpt lat="43.9525393" lon="11.2732898"><ele>482.8</ele><time>2026-04-25T15:44:20.278Z</time></trkpt><trkpt lat="43.9526217" lon="11.2733848"><ele>480.0</ele><time>2026-04-25T15:44:21.282Z</time></trkpt><trkpt lat="43.9527044" lon="11.2734651"><ele>479.8333333333333</ele><time>2026-04-25T15:44:22.278Z</time></trkpt><trkpt lat="43.9527704" lon="11.2735309"><ele>479.66666666666663</ele><time>2026-04-25T15:44:23.278Z</time></trkpt><trkpt lat="43.9528356" lon="11.2735985"><ele>479.5</ele><time>2026-04-25T15:44:24.288Z</time></trkpt><trkpt lat="43.9528984" lon="11.2736778"><ele>479.3333333333333</ele><time>2026-04-25T15:44:25.281Z</time></trkpt><trkpt lat="43.9529605" lon="11.2737298"><ele>479.16666666666663</ele><time>2026-04-25T15:44:26.278Z</time></trkpt><trkpt lat="43.9530308" lon="11.2737565"><ele>479.0</ele><time>2026-04-25T15:44:27.28Z</time></trkpt><trkpt lat="43.9531029" lon="11.2737603"><ele>478.99999999999994</ele><time>2026-04-25T15:44:28.281Z</time></trkpt><trkpt lat="43.9531781" lon="11.2737721"><ele>479.0</ele><time>2026-04-25T15:44:29.28Z</time></trkpt><trkpt lat="43.9532493" lon="11.2737918"><ele>479.0</ele><time>2026-04-25T15:44:30.276Z</time></trkpt><trkpt lat="43.953315" lon="11.2738359"><ele>479.0</ele><time>2026-04-25T15:44:31.268Z</time></trkpt><trkpt lat="43.9533742" lon="11.2738948"><ele>478.99999999999994</ele><time>2026-04-25T15:44:32.27Z</time></trkpt><trkpt lat="43.9534534" lon="11.2740094"><ele>479.0</ele><time>2026-04-25T15:44:34.276Z</time></trkpt><trkpt lat="43.9535272" lon="11.2740966"><ele>474.8333333333333</ele><time>2026-04-25T15:44:36.273Z</time></trkpt><trkpt lat="43.9535936" lon="11.2741583"><ele>470.66666666666663</ele><time>2026-04-25T15:44:38.277Z</time></trkpt><trkpt lat="43.9536439" lon="11.2742421"><ele>466.5</ele><time>2026-04-25T15:44:40.278Z</time></trkpt><trkpt lat="43.9536688" lon="11.2743228"><ele>462.33333333333337</ele><time>2026-04-25T15:44:42.279Z</time></trkpt><trkpt lat="43.9536675" lon="11.274468"><ele>458.1666666666667</ele><time>2026-04-25T15:44:45.283Z</time></trkpt><trkpt lat="43.9536723" lon="11.2746028"><ele>454.0</ele><time>2026-04-25T15:44:47.281Z</time></trkpt><trkpt lat="43.9536996" lon="11.2747463"><ele>452.33333333333337</ele><time>2026-04-25T15:44:49.273Z</time></trkpt><trkpt lat="43.9537211" lon="11.2748595"><ele>450.6666666666667</ele><time>2026-04-25T15:44:50.274Z</time></trkpt><trkpt lat="43.9537377" lon="11.2749907"><ele>449.0</ele><time>2026-04-25T15:44:51.278Z</time></trkpt><trkpt lat="43.9537629" lon="11.2751164"><ele>447.33333333333337</ele><time>2026-04-25T15:44:52.279Z</time></trkpt><trkpt lat="43.9537758" lon="11.2752246"><ele>445.6666666666667</ele><time>2026-04-25T15:44:53.277Z</time></trkpt><trkpt lat="43.9537852" lon="11.2753208"><ele>444.0</ele><time>2026-04-25T15:44:54.277Z</time></trkpt><trkpt lat="43.953782" lon="11.2754106"><ele>444.0</ele><time>2026-04-25T15:44:55.27Z</time></trkpt><trkpt lat="43.9537674" lon="11.2754991"><ele>444.0</ele><time>2026-04-25T15:44:56.273Z</time></trkpt><trkpt lat="43.9537325" lon="11.2755961"><ele>444.0</ele><time>2026-04-25T15:44:57.281Z</time></trkpt><trkpt lat="43.9536904" lon="11.2756956"><ele>444.0</ele><time>2026-04-25T15:44:58.282Z</time></trkpt><trkpt lat="43.9536557" lon="11.2757846"><ele>444.0</ele><time>2026-04-25T15:44:59.274Z</time></trkpt><trkpt lat="43.953619" lon="11.2758578"><ele>444.0</ele><time>2026-04-25T15:45:00.274Z</time></trkpt><trkpt lat="43.953583" lon="11.2759343"><ele>444.0</ele><time>2026-04-25T15:45:01.274Z</time></trkpt><trkpt lat="43.9535603" lon="11.2760292"><ele>444.3333333333333</ele><time>2026-04-25T15:45:02.276Z</time></trkpt><trkpt lat="43.9535275" lon="11.2761269"><ele>444.66666666666663</ele><time>2026-04-25T15:45:03.273Z</time></trkpt><trkpt lat="43.9534857" lon="11.2762289"><ele>445.0</ele><time>2026-04-25T15:45:04.277Z</time></trkpt><trkpt lat="43.9534472" lon="11.2763185"><ele>445.3333333333333</ele><time>2026-04-25T15:45:05.272Z</time></trkpt><trkpt lat="43.9534139" lon="11.2764098"><ele>445.66666666666663</ele><time>2026-04-25T15:45:06.27Z</time></trkpt><trkpt lat="43.9533827" lon="11.2764985"><ele>446.0</ele><time>2026-04-25T15:45:07.276Z</time></trkpt><trkpt lat="43.9533454" lon="11.2765891"><ele>445.99999999999994</ele><time>2026-04-25T15:45:08.272Z</time></trkpt><trkpt lat="43.9533086" lon="11.276681"><ele>446.0</ele><time>2026-04-25T15:45:09.275Z</time></trkpt><trkpt lat="43.9532638" lon="11.2767733"><ele>446.0</ele><time>2026-04-25T15:45:10.272Z</time></trkpt><trkpt lat="43.9532282" lon="11.276855"><ele>446.0</ele><time>2026-04-25T15:45:11.277Z</time></trkpt><trkpt lat="43.9531994" lon="11.2769353"><ele>445.99999999999994</ele><time>2026-04-25T15:45:12.273Z</time></trkpt><trkpt lat="43.9531546" lon="11.2770974"><ele>446.0</ele><time>2026-04-25T15:45:14.274Z</time></trkpt><trkpt lat="43.9531112" lon="11.2771768"><ele>446.0</ele><time>2026-04-25T15:45:15.267Z</time></trkpt><trkpt lat="43.9530379" lon="11.2772642"><ele>446.0</ele><time>2026-04-25T15:45:16.275Z</time></trkpt><trkpt lat="43.9529644" lon="11.2773332"><ele>446.0</ele><time>2026-04-25T15:45:17.283Z</time></trkpt><trkpt lat="43.9529032" lon="11.277381"><ele>446.0</ele><time>2026-04-25T15:45:18.275Z</time></trkpt><trkpt lat="43.9528477" lon="11.2775225"><ele>446.0</ele><time>2026-04-25T15:45:20.266Z</time></trkpt><trkpt lat="43.9528625" lon="11.2776665"><ele>443.8</ele><time>2026-04-25T15:45:21.271Z</time></trkpt><trkpt lat="43.9528713" lon="11.2777794"><ele>441.6</ele><time>2026-04-25T15:45:22.272Z</time></trkpt><trkpt lat="43.952869" lon="11.2778841"><ele>439.4</ele><time>2026-04-25T15:45:23.271Z</time></trkpt><trkpt lat="43.9528421" lon="11.2779885"><ele>437.2</ele><time>2026-04-25T15:45:24.269Z</time></trkpt><trkpt lat="43.9528097" lon="11.2781119"><ele>435.0</ele><time>2026-04-25T15:45:25.275Z</time></trkpt><trkpt lat="43.9527596" lon="11.2782634"><ele>432.25</ele><time>2026-04-25T15:45:26.272Z</time></trkpt><trkpt lat="43.9527077" lon="11.2784299"><ele>429.5</ele><time>2026-04-25T15:45:27.276Z</time></trkpt><trkpt lat="43.9526724" lon="11.2785874"><ele>426.75</ele><time>2026-04-25T15:45:28.275Z</time></trkpt><trkpt lat="43.9526329" lon="11.278732"><ele>424.0</ele><time>2026-04-25T15:45:29.275Z</time></trkpt><trkpt lat="43.9525824" lon="11.2788664"><ele>425.0</ele><time>2026-04-25T15:45:30.27Z</time></trkpt><trkpt lat="43.952526" lon="11.2790142"><ele>426.0</ele><time>2026-04-25T15:45:31.263Z</time></trkpt><trkpt lat="43.9524622" lon="11.2791816"><ele>427.0</ele><time>2026-04-25T15:45:32.269Z</time></trkpt><trkpt lat="43.9524002" lon="11.279334"><ele>428.0</ele><time>2026-04-25T15:45:33.272Z</time></trkpt><trkpt lat="43.9523371" lon="11.279493"><ele>428.0</ele><time>2026-04-25T15:45:34.271Z</time></trkpt><trkpt lat="43.9522807" lon="11.2796221"><ele>427.99999999999994</ele><time>2026-04-25T15:45:35.272Z</time></trkpt><trkpt lat="43.9522516" lon="11.2798134"><ele>427.99999999999994</ele><time>2026-04-25T15:45:37.268Z</time></trkpt><trkpt lat="43.9522754" lon="11.279925"><ele>428.0</ele><time>2026-04-25T15:45:38.268Z</time></trkpt><trkpt lat="43.9523254" lon="11.2800531"><ele>428.0</ele><time>2026-04-25T15:45:39.266Z</time></trkpt><trkpt lat="43.9523706" lon="11.2802114"><ele>429.0</ele><time>2026-04-25T15:45:40.271Z</time></trkpt><trkpt lat="43.9524383" lon="11.2803575"><ele>430.0</ele><time>2026-04-25T15:45:41.27Z</time></trkpt><trkpt lat="43.9524959" lon="11.2805095"><ele>431.0</ele><time>2026-04-25T15:45:42.264Z</time></trkpt><trkpt lat="43.9525518" lon="11.2806619"><ele>432.0</ele><time>2026-04-25T15:45:43.267Z</time></trkpt><trkpt lat="43.9525859" lon="11.2807819"><ele>428.6</ele><time>2026-04-25T15:45:44.269Z</time></trkpt><trkpt lat="43.9526163" lon="11.2808875"><ele>425.20000000000005</ele><time>2026-04-25T15:45:45.277Z</time></trkpt><trkpt lat="43.9526307" lon="11.280997"><ele>421.8</ele><time>2026-04-25T15:45:46.272Z</time></trkpt><trkpt lat="43.9526183" lon="11.2811021"><ele>418.4</ele><time>2026-04-25T15:45:47.278Z</time></trkpt><trkpt lat="43.9526057" lon="11.281238"><ele>415.0</ele><time>2026-04-25T15:45:48.282Z</time></trkpt><trkpt lat="43.9525725" lon="11.2814068"><ele>421.5</ele><time>2026-04-25T15:45:49.271Z</time></trkpt><trkpt lat="43.9525278" lon="11.281579"><ele>428.0</ele><time>2026-04-25T15:45:50.272Z</time></trkpt><trkpt lat="43.9524868" lon="11.28173"><ele>434.5</ele><time>2026-04-25T15:45:51.276Z</time></trkpt><trkpt lat="43.9524344" lon="11.2818702"><ele>441.0</ele><time>2026-04-25T15:45:52.27Z</time></trkpt><trkpt lat="43.952372" lon="11.2820263"><ele>441.0</ele><time>2026-04-25T15:45:53.269Z</time></trkpt><trkpt lat="43.9523112" lon="11.2821894"><ele>441.0</ele><time>2026-04-25T15:45:54.275Z</time></trkpt><trkpt lat="43.9522549" lon="11.2823383"><ele>441.0</ele><time>2026-04-25T15:45:55.265Z</time></trkpt><trkpt lat="43.9521902" lon="11.2824704"><ele>441.0</ele><time>2026-04-25T15:45:56.266Z</time></trkpt><trkpt lat="43.9521137" lon="11.2825937"><ele>440.5</ele><time>2026-04-25T15:45:57.268Z</time></trkpt><trkpt lat="43.9520315" lon="11.2827317"><ele>440.0</ele><time>2026-04-25T15:45:58.267Z</time></trkpt><trkpt lat="43.9519466" lon="11.282883"><ele>439.5</ele><time>2026-04-25T15:45:59.267Z</time></trkpt><trkpt lat="43.9518905" lon="11.2830307"><ele>439.0</ele><time>2026-04-25T15:46:00.262Z</time></trkpt><trkpt lat="43.9518438" lon="11.2831639"><ele>438.2</ele><time>2026-04-25T15:46:01.262Z</time></trkpt><trkpt lat="43.9518099" lon="11.2833095"><ele>437.4</ele><time>2026-04-25T15:46:02.266Z</time></trkpt><trkpt lat="43.9517723" lon="11.2834615"><ele>436.6</ele><time>2026-04-25T15:46:03.267Z</time></trkpt><trkpt lat="43.9517509" lon="11.2835997"><ele>435.8</ele><time>2026-04-25T15:46:04.262Z</time></trkpt><trkpt lat="43.951748" lon="11.2837433"><ele>435.0</ele><time>2026-04-25T15:46:05.256Z</time></trkpt><trkpt lat="43.9517286" lon="11.2838786"><ele>434.25</ele><time>2026-04-25T15:46:06.266Z</time></trkpt><trkpt lat="43.9517514" lon="11.2840142"><ele>433.5</ele><time>2026-04-25T15:46:07.26Z</time></trkpt><trkpt lat="43.9518148" lon="11.2841742"><ele>432.75</ele><time>2026-04-25T15:46:08.265Z</time></trkpt><trkpt lat="43.9518935" lon="11.2843283"><ele>432.0</ele><time>2026-04-25T15:46:09.264Z</time></trkpt><trkpt lat="43.9519773" lon="11.2844675"><ele>432.0</ele><time>2026-04-25T15:46:10.28Z</time></trkpt><trkpt lat="43.952038" lon="11.2845956"><ele>432.00000000000006</ele><time>2026-04-25T15:46:11.277Z</time></trkpt><trkpt lat="43.9520873" lon="11.2847097"><ele>432.00000000000006</ele><time>2026-04-25T15:46:12.28Z</time></trkpt><trkpt lat="43.9521368" lon="11.2848103"><ele>432.0</ele><time>2026-04-25T15:46:13.285Z</time></trkpt><trkpt lat="43.9521848" lon="11.2849071"><ele>432.0</ele><time>2026-04-25T15:46:14.281Z</time></trkpt><trkpt lat="43.9522317" lon="11.2850056"><ele>432.1666666666667</ele><time>2026-04-25T15:46:15.277Z</time></trkpt><trkpt lat="43.9522814" lon="11.2851039"><ele>432.33333333333337</ele><time>2026-04-25T15:46:16.276Z</time></trkpt><trkpt lat="43.9523242" lon="11.2851832"><ele>432.5</ele><time>2026-04-25T15:46:17.285Z</time></trkpt><trkpt lat="43.9523591" lon="11.285257"><ele>432.6666666666667</ele><time>2026-04-25T15:46:18.278Z</time></trkpt><trkpt lat="43.9524074" lon="11.2853812"><ele>432.83333333333337</ele><time>2026-04-25T15:46:20.275Z</time></trkpt><trkpt lat="43.9524283" lon="11.2855325"><ele>433.0</ele><time>2026-04-25T15:46:22.283Z</time></trkpt><trkpt lat="43.9524367" lon="11.2856449"><ele>433.50000000000006</ele><time>2026-04-25T15:46:24.278Z</time></trkpt><trkpt lat="43.9524381" lon="11.2857523"><ele>434.0</ele><time>2026-04-25T15:46:26.279Z</time></trkpt><trkpt lat="43.952426" lon="11.2858608"><ele>434.5</ele><time>2026-04-25T15:49:03.278Z</time></trkpt><trkpt lat="43.9524477" lon="11.2860444"><ele>435.0</ele><time>2026-04-25T15:49:05.279Z</time></trkpt><trkpt lat="43.9524536" lon="11.2861367"><ele>435.50000000000006</ele><time>2026-04-25T15:49:06.282Z</time></trkpt><trkpt lat="43.9524628" lon="11.2862266"><ele>436.0</ele><time>2026-04-25T15:49:07.28Z</time></trkpt><trkpt lat="43.9524735" lon="11.2863889"><ele>436.75</ele><time>2026-04-25T15:49:09.282Z</time></trkpt><trkpt lat="43.9524792" lon="11.2865412"><ele>437.5</ele><time>2026-04-25T15:49:11.283Z</time></trkpt><trkpt lat="43.9524611" lon="11.2867005"><ele>438.25</ele><time>2026-04-25T15:49:13.285Z</time></trkpt><trkpt lat="43.9524504" lon="11.2868499"><ele>439.0</ele><time>2026-04-25T15:49:15.278Z</time></trkpt><trkpt lat="43.9524794" lon="11.2870057"><ele>439.0</ele><time>2026-04-25T15:49:17.293Z</time></trkpt><trkpt lat="43.9525179" lon="11.2871564"><ele>439.0</ele><time>2026-04-25T15:49:19.285Z</time></trkpt><trkpt lat="43.9525399" lon="11.2872971"><ele>439.0</ele><time>2026-04-25T15:49:21.281Z</time></trkpt><trkpt lat="43.952545" lon="11.2874641"><ele>439.0</ele><time>2026-04-25T15:49:23.282Z</time></trkpt><trkpt lat="43.9525638" lon="11.2876371"><ele>439.6</ele><time>2026-04-25T15:49:25.282Z</time></trkpt><trkpt lat="43.9526208" lon="11.2877686"><ele>440.2</ele><time>2026-04-25T15:49:27.281Z</time></trkpt><trkpt lat="43.9526991" lon="11.2878998"><ele>440.80000000000007</ele><time>2026-04-25T15:49:29.277Z</time></trkpt><trkpt lat="43.9527474" lon="11.287969"><ele>441.40000000000003</ele><time>2026-04-25T15:49:30.278Z</time></trkpt><trkpt lat="43.9528158" lon="11.2880185"><ele>442.0</ele><time>2026-04-25T15:49:31.28Z</time></trkpt><trkpt lat="43.9528837" lon="11.2880515"><ele>442.00000000000006</ele><time>2026-04-25T15:49:32.28Z</time></trkpt><trkpt lat="43.9529562" lon="11.2880819"><ele>442.0</ele><time>2026-04-25T15:49:33.277Z</time></trkpt><trkpt lat="43.9530265" lon="11.2881154"><ele>442.0</ele><time>2026-04-25T15:49:34.275Z</time></trkpt><trkpt lat="43.9531155" lon="11.2881508"><ele>442.0</ele><time>2026-04-25T15:49:35.278Z</time></trkpt><trkpt lat="43.9531986" lon="11.2881929"><ele>442.00000000000006</ele><time>2026-04-25T15:49:36.279Z</time></trkpt><trkpt lat="43.9532931" lon="11.2882672"><ele>442.0</ele><time>2026-04-25T15:49:37.279Z</time></trkpt><trkpt lat="43.9533796" lon="11.2883345"><ele>434.20000000000005</ele><time>2026-04-25T15:49:38.263Z</time></trkpt><trkpt lat="43.9534654" lon="11.288434"><ele>426.40000000000003</ele><time>2026-04-25T15:49:39.287Z</time></trkpt><trkpt lat="43.9535454" lon="11.2885287"><ele>418.6</ele><time>2026-04-25T15:49:40.28Z</time></trkpt><trkpt lat="43.9536103" lon="11.2886085"><ele>410.79999999999995</ele><time>2026-04-25T15:49:41.277Z</time></trkpt><trkpt lat="43.9536698" lon="11.2887007"><ele>403.0</ele><time>2026-04-25T15:49:42.278Z</time></trkpt><trkpt lat="43.953724" lon="11.2888079"><ele>402.79999999999995</ele><time>2026-04-25T15:49:43.274Z</time></trkpt><trkpt lat="43.9537716" lon="11.2889294"><ele>402.6</ele><time>2026-04-25T15:49:44.278Z</time></trkpt><trkpt lat="43.9538204" lon="11.2890644"><ele>402.4</ele><time>2026-04-25T15:49:45.28Z</time></trkpt><trkpt lat="43.9538616" lon="11.2891838"><ele>402.20000000000005</ele><time>2026-04-25T15:49:46.282Z</time></trkpt><trkpt lat="43.9539002" lon="11.2892934"><ele>402.0</ele><time>2026-04-25T15:49:47.281Z</time></trkpt><trkpt lat="43.9539377" lon="11.2894253"><ele>402.0</ele><time>2026-04-25T15:49:48.277Z</time></trkpt><trkpt lat="43.9539875" lon="11.2895592"><ele>402.0</ele><time>2026-04-25T15:49:49.273Z</time></trkpt><trkpt lat="43.9540412" lon="11.2897127"><ele>402.0</ele><time>2026-04-25T15:49:50.287Z</time></trkpt><trkpt lat="43.9540953" lon="11.2898539"><ele>402.0</ele><time>2026-04-25T15:49:51.284Z</time></trkpt><trkpt lat="43.9541414" lon="11.2899732"><ele>402.0</ele><time>2026-04-25T15:49:52.287Z</time></trkpt><trkpt lat="43.9541912" lon="11.2900997"><ele>401.1666666666667</ele><time>2026-04-25T15:49:53.277Z</time></trkpt><trkpt lat="43.9542289" lon="11.2902278"><ele>400.33333333333337</ele><time>2026-04-25T15:49:54.286Z</time></trkpt><trkpt lat="43.9542683" lon="11.2903329"><ele>399.5</ele><time>2026-04-25T15:49:55.281Z</time></trkpt><trkpt lat="43.9543059" lon="11.2904361"><ele>398.6666666666667</ele><time>2026-04-25T15:49:56.286Z</time></trkpt><trkpt lat="43.9543253" lon="11.2905402"><ele>397.83333333333337</ele><time>2026-04-25T15:49:57.279Z</time></trkpt><trkpt lat="43.9543302" lon="11.2906462"><ele>397.0</ele><time>2026-04-25T15:49:58.274Z</time></trkpt><trkpt lat="43.9543285" lon="11.2907501"><ele>397.0</ele><time>2026-04-25T15:49:59.275Z</time></trkpt><trkpt lat="43.9543236" lon="11.2908543"><ele>397.0</ele><time>2026-04-25T15:50:00.281Z</time></trkpt><trkpt lat="43.9543118" lon="11.2909599"><ele>397.0</ele><time>2026-04-25T15:50:01.277Z</time></trkpt><trkpt lat="43.9543106" lon="11.2910542"><ele>397.0</ele><time>2026-04-25T15:50:02.279Z</time></trkpt><trkpt lat="43.9543115" lon="11.2911491"><ele>397.0</ele><time>2026-04-25T15:50:03.281Z</time></trkpt><trkpt lat="43.9543103" lon="11.2912587"><ele>397.0</ele><time>2026-04-25T15:50:04.278Z</time></trkpt><trkpt lat="43.954305" lon="11.2913607"><ele>397.0</ele><time>2026-04-25T15:50:05.278Z</time></trkpt><trkpt lat="43.9543091" lon="11.2914673"><ele>395.85714285714283</ele><time>2026-04-25T15:50:06.275Z</time></trkpt><trkpt lat="43.954314" lon="11.2915634"><ele>394.71428571428567</ele><time>2026-04-25T15:50:07.28Z</time></trkpt><trkpt lat="43.9543162" lon="11.291662"><ele>393.57142857142856</ele><time>2026-04-25T15:50:08.278Z</time></trkpt><trkpt lat="43.9543175" lon="11.2917576"><ele>392.42857142857144</ele><time>2026-04-25T15:50:09.28Z</time></trkpt><trkpt lat="43.9543266" lon="11.2918625"><ele>391.2857142857143</ele><time>2026-04-25T15:50:10.284Z</time></trkpt><trkpt lat="43.954329" lon="11.291954"><ele>390.14285714285717</ele><time>2026-04-25T15:50:11.279Z</time></trkpt><trkpt lat="43.9543292" lon="11.2920527"><ele>389.0</ele><time>2026-04-25T15:50:12.285Z</time></trkpt><trkpt lat="43.9543356" lon="11.2921511"><ele>389.0</ele><time>2026-04-25T15:50:13.279Z</time></trkpt><trkpt lat="43.9543395" lon="11.2922522"><ele>389.0</ele><time>2026-04-25T15:50:14.28Z</time></trkpt><trkpt lat="43.954321" lon="11.292426"><ele>389.0</ele><time>2026-04-25T15:50:16.283Z</time></trkpt><trkpt lat="43.9543156" lon="11.2925312"><ele>389.0</ele><time>2026-04-25T15:50:17.286Z</time></trkpt><trkpt lat="43.9543162" lon="11.2926292"><ele>389.0</ele><time>2026-04-25T15:50:18.285Z</time></trkpt><trkpt lat="43.9543349" lon="11.2927978"><ele>389.3333333333333</ele><time>2026-04-25T15:50:20.288Z</time></trkpt><trkpt lat="43.9543639" lon="11.2928939"><ele>389.66666666666663</ele><time>2026-04-25T15:50:21.287Z</time></trkpt><trkpt lat="43.9543901" lon="11.292996"><ele>390.0</ele><time>2026-04-25T15:50:22.287Z</time></trkpt><trkpt lat="43.9544245" lon="11.293105"><ele>390.33333333333337</ele><time>2026-04-25T15:50:23.275Z</time></trkpt><trkpt lat="43.954442" lon="11.2932301"><ele>390.6666666666667</ele><time>2026-04-25T15:50:24.291Z</time></trkpt><trkpt lat="43.9544599" lon="11.2933542"><ele>391.0</ele><time>2026-04-25T15:50:25.279Z</time></trkpt><trkpt lat="43.9544759" lon="11.293445"><ele>391.6</ele><time>2026-04-25T15:50:26.288Z</time></trkpt><trkpt lat="43.9544718" lon="11.2935469"><ele>392.20000000000005</ele><time>2026-04-25T15:50:27.283Z</time></trkpt><trkpt lat="43.9544472" lon="11.2936705"><ele>392.79999999999995</ele><time>2026-04-25T15:50:28.275Z</time></trkpt><trkpt lat="43.9544043" lon="11.293803"><ele>393.4</ele><time>2026-04-25T15:50:29.277Z</time></trkpt><trkpt lat="43.9543756" lon="11.2939238"><ele>394.0</ele><time>2026-04-25T15:50:30.278Z</time></trkpt><trkpt lat="43.9543554" lon="11.2940455"><ele>395.0</ele><time>2026-04-25T15:50:31.274Z</time></trkpt><trkpt lat="43.9543438" lon="11.2941843"><ele>396.0</ele><time>2026-04-25T15:50:32.272Z</time></trkpt><trkpt lat="43.9543523" lon="11.2943415"><ele>397.0</ele><time>2026-04-25T15:50:33.273Z</time></trkpt><trkpt lat="43.9543504" lon="11.2944972"><ele>398.0</ele><time>2026-04-25T15:50:34.274Z</time></trkpt><trkpt lat="43.9543664" lon="11.2946305"><ele>399.0</ele><time>2026-04-25T15:50:35.274Z</time></trkpt><trkpt lat="43.954378" lon="11.2947432"><ele>396.4</ele><time>2026-04-25T15:50:36.27Z</time></trkpt><trkpt lat="43.9543986" lon="11.2948503"><ele>393.79999999999995</ele><time>2026-04-25T15:50:37.275Z</time></trkpt><trkpt lat="43.9544294" lon="11.2949409"><ele>391.20000000000005</ele><time>2026-04-25T15:50:38.277Z</time></trkpt><trkpt lat="43.9545002" lon="11.2950492"><ele>388.6</ele><time>2026-04-25T15:50:39.272Z</time></trkpt><trkpt lat="43.9546044" lon="11.2951788"><ele>386.0</ele><time>2026-04-25T15:50:40.284Z</time></trkpt><trkpt lat="43.9547243" lon="11.2953199"><ele>386.0</ele><time>2026-04-25T15:50:41.273Z</time></trkpt><trkpt lat="43.9548321" lon="11.2954875"><ele>386.0</ele><time>2026-04-25T15:50:42.274Z</time></trkpt><trkpt lat="43.9549274" lon="11.2956563"><ele>386.0</ele><time>2026-04-25T15:50:43.277Z</time></trkpt><trkpt lat="43.9550061" lon="11.2957902"><ele>386.0</ele><time>2026-04-25T15:50:44.267Z</time></trkpt><trkpt lat="43.9550496" lon="11.2959115"><ele>384.0</ele><time>2026-04-25T15:50:45.267Z</time></trkpt><trkpt lat="43.9550871" lon="11.2960294"><ele>382.0</ele><time>2026-04-25T15:50:46.27Z</time></trkpt><trkpt lat="43.9550803" lon="11.29614"><ele>380.0</ele><time>2026-04-25T15:50:47.278Z</time></trkpt><trkpt lat="43.9550497" lon="11.2962585"><ele>378.0</ele><time>2026-04-25T15:50:48.268Z</time></trkpt><trkpt lat="43.955012" lon="11.2963933"><ele>376.0</ele><time>2026-04-25T15:50:49.275Z</time></trkpt><trkpt lat="43.9549818" lon="11.2965123"><ele>374.8</ele><time>2026-04-25T15:50:50.271Z</time></trkpt><trkpt lat="43.9549797" lon="11.2966319"><ele>373.6</ele><time>2026-04-25T15:50:51.268Z</time></trkpt><trkpt lat="43.9550042" lon="11.2967656"><ele>372.4</ele><time>2026-04-25T15:50:52.277Z</time></trkpt><trkpt lat="43.9550599" lon="11.2969009"><ele>371.2</ele><time>2026-04-25T15:50:53.274Z</time></trkpt><trkpt lat="43.955114" lon="11.297053"><ele>370.0</ele><time>2026-04-25T15:50:54.281Z</time></trkpt><trkpt lat="43.9551447" lon="11.2972142"><ele>369.2</ele><time>2026-04-25T15:50:55.277Z</time></trkpt><trkpt lat="43.9551665" lon="11.2973688"><ele>368.4</ele><time>2026-04-25T15:50:56.279Z</time></trkpt><trkpt lat="43.9551844" lon="11.2975221"><ele>367.6</ele><time>2026-04-25T15:50:57.282Z</time></trkpt><trkpt lat="43.9552019" lon="11.2976756"><ele>366.8</ele><time>2026-04-25T15:50:58.29Z</time></trkpt><trkpt lat="43.9552113" lon="11.2978264"><ele>366.0</ele><time>2026-04-25T15:50:59.275Z</time></trkpt><trkpt lat="43.955226" lon="11.2979664"><ele>366.0</ele><time>2026-04-25T15:51:00.28Z</time></trkpt><trkpt lat="43.9552391" lon="11.2980827"><ele>366.0</ele><time>2026-04-25T15:51:01.277Z</time></trkpt><trkpt lat="43.9552425" lon="11.2982055"><ele>366.0</ele><time>2026-04-25T15:51:02.274Z</time></trkpt><trkpt lat="43.9552392" lon="11.2983338"><ele>366.0</ele><time>2026-04-25T15:51:03.269Z</time></trkpt><trkpt lat="43.9551888" lon="11.2984991"><ele>366.0</ele><time>2026-04-25T15:51:04.267Z</time></trkpt><trkpt lat="43.9551109" lon="11.2986889"><ele>363.0</ele><time>2026-04-25T15:51:05.272Z</time></trkpt><trkpt lat="43.9550401" lon="11.298883"><ele>360.0</ele><time>2026-04-25T15:51:06.28Z</time></trkpt><trkpt lat="43.9549585" lon="11.2990371"><ele>357.0</ele><time>2026-04-25T15:51:07.271Z</time></trkpt><trkpt lat="43.9549009" lon="11.2991767"><ele>354.0</ele><time>2026-04-25T15:51:08.278Z</time></trkpt><trkpt lat="43.9548493" lon="11.2992809"><ele>349.0</ele><time>2026-04-25T15:51:09.275Z</time></trkpt><trkpt lat="43.9548033" lon="11.2993652"><ele>344.0</ele><time>2026-04-25T15:51:10.274Z</time></trkpt><trkpt lat="43.954767" lon="11.2994377"><ele>339.0</ele><time>2026-04-25T15:51:11.271Z</time></trkpt><trkpt lat="43.9547952" lon="11.2996166"><ele>334.0</ele><time>2026-04-25T15:51:13.275Z</time></trkpt><trkpt lat="43.9548454" lon="11.2996797"><ele>329.0</ele><time>2026-04-25T15:51:14.277Z</time></trkpt><trkpt lat="43.9549213" lon="11.2997057"><ele>324.0</ele><time>2026-04-25T15:51:15.276Z</time></trkpt><trkpt lat="43.9550041" lon="11.2996997"><ele>325.79999999999995</ele><time>2026-04-25T15:51:16.282Z</time></trkpt><trkpt lat="43.9550969" lon="11.2996408"><ele>327.59999999999997</ele><time>2026-04-25T15:51:17.279Z</time></trkpt><trkpt lat="43.9551914" lon="11.2995692"><ele>329.4</ele><time>2026-04-25T15:51:18.278Z</time></trkpt><trkpt lat="43.9552967" lon="11.2995221"><ele>331.2</ele><time>2026-04-25T15:51:19.268Z</time></trkpt><trkpt lat="43.9554125" lon="11.2995058"><ele>333.0</ele><time>2026-04-25T15:51:20.272Z</time></trkpt><trkpt lat="43.955505" lon="11.2995076"><ele>333.0</ele><time>2026-04-25T15:51:21.278Z</time></trkpt><trkpt lat="43.955584" lon="11.2995343"><ele>333.0</ele><time>2026-04-25T15:51:22.271Z</time></trkpt><trkpt lat="43.9556481" lon="11.2995929"><ele>333.0</ele><time>2026-04-25T15:51:23.268Z</time></trkpt><trkpt lat="43.955691" lon="11.2996699"><ele>333.0</ele><time>2026-04-25T15:51:24.277Z</time></trkpt><trkpt lat="43.9557153" lon="11.2997794"><ele>333.0</ele><time>2026-04-25T15:51:25.274Z</time></trkpt><trkpt lat="43.9557121" lon="11.2999262"><ele>333.0</ele><time>2026-04-25T15:51:26.276Z</time></trkpt><trkpt lat="43.9556826" lon="11.3001093"><ele>327.5</ele><time>2026-04-25T15:51:27.273Z</time></trkpt><trkpt lat="43.9556566" lon="11.3002943"><ele>322.0</ele><time>2026-04-25T15:51:28.271Z</time></trkpt><trkpt lat="43.9556687" lon="11.3004502"><ele>316.5</ele><time>2026-04-25T15:51:29.281Z</time></trkpt><trkpt lat="43.9556833" lon="11.3006102"><ele>311.0</ele><time>2026-04-25T15:51:30.283Z</time></trkpt><trkpt lat="43.9556877" lon="11.3007659"><ele>308.5</ele><time>2026-04-25T15:51:31.277Z</time></trkpt><trkpt lat="43.95569" lon="11.300886"><ele>306.0</ele><time>2026-04-25T15:51:32.276Z</time></trkpt><trkpt lat="43.9556579" lon="11.3009736"><ele>303.5</ele><time>2026-04-25T15:51:33.271Z</time></trkpt><trkpt lat="43.9555517" lon="11.3010043"><ele>301.0</ele><time>2026-04-25T15:51:35.276Z</time></trkpt><trkpt lat="43.9554814" lon="11.3009561"><ele>298.5</ele><time>2026-04-25T15:51:36.28Z</time></trkpt><trkpt lat="43.9554146" lon="11.3009396"><ele>296.0</ele><time>2026-04-25T15:51:37.271Z</time></trkpt><trkpt lat="43.9553399" lon="11.3009792"><ele>296.0</ele><time>2026-04-25T15:51:38.269Z</time></trkpt><trkpt lat="43.9552945" lon="11.3010659"><ele>296.0</ele><time>2026-04-25T15:51:39.275Z</time></trkpt><trkpt lat="43.9552519" lon="11.3011613"><ele>296.0</ele><time>2026-04-25T15:51:40.269Z</time></trkpt><trkpt lat="43.9552077" lon="11.3012498"><ele>296.0</ele><time>2026-04-25T15:51:41.269Z</time></trkpt><trkpt lat="43.9551587" lon="11.3013441"><ele>296.0</ele><time>2026-04-25T15:51:42.283Z</time></trkpt><trkpt lat="43.9551064" lon="11.301431"><ele>296.0</ele><time>2026-04-25T15:51:43.279Z</time></trkpt><trkpt lat="43.9550489" lon="11.3015067"><ele>294.0</ele><time>2026-04-25T15:51:44.277Z</time></trkpt><trkpt lat="43.9549824" lon="11.301553"><ele>292.0</ele><time>2026-04-25T15:51:45.272Z</time></trkpt><trkpt lat="43.9549144" lon="11.3015911"><ele>290.0</ele><time>2026-04-25T15:51:46.277Z</time></trkpt><trkpt lat="43.9548426" lon="11.3016465"><ele>288.0</ele><time>2026-04-25T15:51:48.281Z</time></trkpt><trkpt lat="43.9547654" lon="11.3016988"><ele>286.0</ele><time>2026-04-25T15:51:51.282Z</time></trkpt><trkpt lat="43.9547005" lon="11.3017261"><ele>284.0</ele><time>2026-04-25T15:51:53.281Z</time></trkpt><trkpt lat="43.9546261" lon="11.3017546"><ele>284.0</ele><time>2026-04-25T15:51:55.286Z</time></trkpt><trkpt lat="43.9545367" lon="11.3017961"><ele>284.0</ele><time>2026-04-25T15:51:57.284Z</time></trkpt><trkpt lat="43.9544326" lon="11.3018649"><ele>284.0</ele><time>2026-04-25T15:51:59.282Z</time></trkpt><trkpt lat="43.9543799" lon="11.3019291"><ele>284.0</ele><time>2026-04-25T15:52:00.293Z</time></trkpt><trkpt lat="43.954294" lon="11.302047"><ele>284.0</ele><time>2026-04-25T15:52:02.284Z</time></trkpt><trkpt lat="43.9542316" lon="11.3021462"><ele>282.5</ele><time>2026-04-25T15:52:04.271Z</time></trkpt><trkpt lat="43.9542468" lon="11.3022883"><ele>281.0</ele><time>2026-04-25T15:52:06.277Z</time></trkpt><trkpt lat="43.9542667" lon="11.3023849"><ele>279.5</ele><time>2026-04-25T15:52:07.282Z</time></trkpt><trkpt lat="43.954294" lon="11.3024909"><ele>278.0</ele><time>2026-04-25T15:52:08.282Z</time></trkpt><trkpt lat="43.9543236" lon="11.3026113"><ele>276.5</ele><time>2026-04-25T15:52:09.276Z</time></trkpt><trkpt lat="43.9543425" lon="11.3027159"><ele>275.0</ele><time>2026-04-25T15:52:10.285Z</time></trkpt><trkpt lat="43.9543586" lon="11.3028228"><ele>275.0</ele><time>2026-04-25T15:52:11.277Z</time></trkpt><trkpt lat="43.954382" lon="11.3029164"><ele>275.0</ele><time>2026-04-25T15:52:12.281Z</time></trkpt><trkpt lat="43.9544098" lon="11.3030139"><ele>275.0</ele><time>2026-04-25T15:52:13.283Z</time></trkpt><trkpt lat="43.9544349" lon="11.3031157"><ele>275.0</ele><time>2026-04-25T15:52:14.275Z</time></trkpt><trkpt lat="43.9544671" lon="11.3031913"><ele>275.0</ele><time>2026-04-25T15:52:15.279Z</time></trkpt><trkpt lat="43.9545359" lon="11.3033235"><ele>275.0</ele><time>2026-04-25T15:52:17.278Z</time></trkpt><trkpt lat="43.9545957" lon="11.3034698"><ele>273.5</ele><time>2026-04-25T15:52:19.276Z</time></trkpt><trkpt lat="43.9546199" lon="11.3035574"><ele>272.0</ele><time>2026-04-25T15:52:20.277Z</time></trkpt><trkpt lat="43.9546448" lon="11.3036386"><ele>270.5</ele><time>2026-04-25T15:52:21.28Z</time></trkpt><trkpt lat="43.9546959" lon="11.3037904"><ele>269.0</ele><time>2026-04-25T15:52:23.278Z</time></trkpt><trkpt lat="43.9547319" lon="11.3039358"><ele>267.5</ele><time>2026-04-25T15:52:25.277Z</time></trkpt><trkpt lat="43.9547363" lon="11.3040295"><ele>266.0</ele><time>2026-04-25T15:52:26.28Z</time></trkpt><trkpt lat="43.9547277" lon="11.3041237"><ele>265.5</ele><time>2026-04-25T15:52:27.276Z</time></trkpt><trkpt lat="43.9547467" lon="11.3042952"><ele>265.0</ele><time>2026-04-25T15:52:29.27Z</time></trkpt><trkpt lat="43.9547686" lon="11.3043977"><ele>264.5</ele><time>2026-04-25T15:52:30.275Z</time></trkpt><trkpt lat="43.9547979" lon="11.3044985"><ele>264.0</ele><time>2026-04-25T15:52:31.281Z</time></trkpt><trkpt lat="43.9548335" lon="11.304579"><ele>263.5</ele><time>2026-04-25T15:52:32.274Z</time></trkpt><trkpt lat="43.9548563" lon="11.304673"><ele>263.0</ele><time>2026-04-25T15:52:33.276Z</time></trkpt><trkpt lat="43.9548865" lon="11.3047679"><ele>262.33333333333337</ele><time>2026-04-25T15:52:34.277Z</time></trkpt><trkpt lat="43.9549111" lon="11.304858"><ele>261.6666666666667</ele><time>2026-04-25T15:52:35.276Z</time></trkpt><trkpt lat="43.9549363" lon="11.3049483"><ele>261.0</ele><time>2026-04-25T15:52:36.277Z</time></trkpt><trkpt lat="43.9549708" lon="11.3051009"><ele>260.3333333333333</ele><time>2026-04-25T15:52:38.281Z</time></trkpt><trkpt lat="43.954978" lon="11.3051889"><ele>259.66666666666663</ele><time>2026-04-25T15:52:39.284Z</time></trkpt><trkpt lat="43.9549598" lon="11.3053499"><ele>259.0</ele><time>2026-04-25T15:52:41.283Z</time></trkpt><trkpt lat="43.9549349" lon="11.305502"><ele>258.5</ele><time>2026-04-25T15:52:43.286Z</time></trkpt><trkpt lat="43.9549603" lon="11.3056444"><ele>258.0</ele><time>2026-04-25T15:52:45.284Z</time></trkpt><trkpt lat="43.9550631" lon="11.3057408"><ele>257.5</ele><time>2026-04-25T15:52:47.277Z</time></trkpt><trkpt lat="43.9551309" lon="11.3057538"><ele>257.0</ele><time>2026-04-25T15:52:48.289Z</time></trkpt><trkpt lat="43.9552018" lon="11.3057293"><ele>256.5</ele><time>2026-04-25T15:52:49.278Z</time></trkpt><trkpt lat="43.9552729" lon="11.3056865"><ele>256.0</ele><time>2026-04-25T15:52:50.278Z</time></trkpt><trkpt lat="43.9553358" lon="11.3056556"><ele>254.8</ele><time>2026-04-25T15:52:51.285Z</time></trkpt><trkpt lat="43.9554346" lon="11.3056106"><ele>253.60000000000002</ele><time>2026-04-25T15:52:53.285Z</time></trkpt><trkpt lat="43.9555094" lon="11.3056172"><ele>252.4</ele><time>2026-04-25T15:52:55.282Z</time></trkpt><trkpt lat="43.9554927" lon="11.3057235"><ele>251.2</ele><time>2026-04-25T15:53:05.284Z</time></trkpt><trkpt lat="43.9553638" lon="11.3057354"><ele>250.0</ele><time>2026-04-25T15:53:07.281Z</time></trkpt><trkpt lat="43.9552517" lon="11.3057929"><ele>249.99999999999997</ele><time>2026-04-25T15:53:09.281Z</time></trkpt><trkpt lat="43.9551607" lon="11.305846"><ele>250.0</ele><time>2026-04-25T15:53:11.289Z</time></trkpt><trkpt lat="43.9551324" lon="11.3059325"><ele>250.0</ele><time>2026-04-25T15:53:13.285Z</time></trkpt><trkpt lat="43.9551917" lon="11.3060788"><ele>250.0</ele><time>2026-04-25T15:53:15.277Z</time></trkpt><trkpt lat="43.9552239" lon="11.3061653"><ele>249.99999999999997</ele><time>2026-04-25T15:53:16.28Z</time></trkpt><trkpt lat="43.9552636" lon="11.3062674"><ele>250.0</ele><time>2026-04-25T15:53:17.278Z</time></trkpt><trkpt lat="43.9552951" lon="11.3063677"><ele>250.83333333333331</ele><time>2026-04-25T15:53:18.271Z</time></trkpt><trkpt lat="43.9553364" lon="11.3064724"><ele>251.66666666666666</ele><time>2026-04-25T15:53:19.281Z</time></trkpt><trkpt lat="43.9553873" lon="11.306577"><ele>252.5</ele><time>2026-04-25T15:53:20.269Z</time></trkpt><trkpt lat="43.9554261" lon="11.306682"><ele>253.33333333333331</ele><time>2026-04-25T15:53:21.277Z</time></trkpt><trkpt lat="43.9554735" lon="11.3067749"><ele>254.16666666666666</ele><time>2026-04-25T15:53:22.276Z</time></trkpt><trkpt lat="43.9555033" lon="11.3068821"><ele>255.0</ele><time>2026-04-25T15:53:23.277Z</time></trkpt><trkpt lat="43.9555451" lon="11.3069861"><ele>255.0</ele><time>2026-04-25T15:53:24.287Z</time></trkpt><trkpt lat="43.9555831" lon="11.3070799"><ele>255.0</ele><time>2026-04-25T15:53:25.283Z</time></trkpt><trkpt lat="43.9556133" lon="11.3071733"><ele>255.0</ele><time>2026-04-25T15:53:26.279Z</time></trkpt><trkpt lat="43.9556403" lon="11.3072643"><ele>255.0</ele><time>2026-04-25T15:53:27.281Z</time></trkpt><trkpt lat="43.9556805" lon="11.307352"><ele>255.0</ele><time>2026-04-25T15:53:28.279Z</time></trkpt><trkpt lat="43.9557329" lon="11.3074347"><ele>255.0</ele><time>2026-04-25T15:53:29.277Z</time></trkpt><trkpt lat="43.9557907" lon="11.3075061"><ele>257.1666666666667</ele><time>2026-04-25T15:53:30.275Z</time></trkpt><trkpt lat="43.9558553" lon="11.3075645"><ele>259.3333333333333</ele><time>2026-04-25T15:53:31.275Z</time></trkpt><trkpt lat="43.9559231" lon="11.3076256"><ele>261.5</ele><time>2026-04-25T15:53:32.286Z</time></trkpt><trkpt lat="43.9559815" lon="11.3076855"><ele>263.66666666666663</ele><time>2026-04-25T15:53:33.273Z</time></trkpt><trkpt lat="43.956025" lon="11.3077502"><ele>265.8333333333333</ele><time>2026-04-25T15:53:34.275Z</time></trkpt><trkpt lat="43.9561141" lon="11.3078544"><ele>268.0</ele><time>2026-04-25T15:53:36.273Z</time></trkpt><trkpt lat="43.9561974" lon="11.3079315"><ele>268.3333333333333</ele><time>2026-04-25T15:53:38.28Z</time></trkpt><trkpt lat="43.95626" lon="11.3080097"><ele>268.66666666666663</ele><time>2026-04-25T15:53:40.28Z</time></trkpt><trkpt lat="43.956317" lon="11.3080664"><ele>269.0</ele><time>2026-04-25T15:53:42.285Z</time></trkpt><trkpt lat="43.9563813" lon="11.3080636"><ele>269.3333333333333</ele><time>2026-04-25T15:53:44.287Z</time></trkpt><trkpt lat="43.9564754" lon="11.308067"><ele>269.6666666666667</ele><time>2026-04-25T15:53:46.283Z</time></trkpt><trkpt lat="43.9566003" lon="11.3080766"><ele>270.0</ele><time>2026-04-25T15:53:48.289Z</time></trkpt><trkpt lat="43.9566768" lon="11.3080772"><ele>271.0</ele><time>2026-04-25T15:53:49.284Z</time></trkpt><trkpt lat="43.9567576" lon="11.3080882"><ele>272.0</ele><time>2026-04-25T15:53:50.282Z</time></trkpt><trkpt lat="43.9568354" lon="11.308105"><ele>273.0</ele><time>2026-04-25T15:53:51.281Z</time></trkpt><trkpt lat="43.9569045" lon="11.3081221"><ele>274.0</ele><time>2026-04-25T15:53:52.279Z</time></trkpt><trkpt lat="43.9569766" lon="11.3081486"><ele>275.0</ele><time>2026-04-25T15:53:53.28Z</time></trkpt><trkpt lat="43.9570601" lon="11.3081836"><ele>276.0</ele><time>2026-04-25T15:53:54.279Z</time></trkpt><trkpt lat="43.9571384" lon="11.3082276"><ele>276.0</ele><time>2026-04-25T15:53:55.28Z</time></trkpt><trkpt lat="43.9572087" lon="11.3082673"><ele>276.0</ele><time>2026-04-25T15:53:56.283Z</time></trkpt><trkpt lat="43.9572715" lon="11.3083257"><ele>276.0</ele><time>2026-04-25T15:53:57.276Z</time></trkpt><trkpt lat="43.9573236" lon="11.3083846"><ele>276.0</ele><time>2026-04-25T15:53:58.275Z</time></trkpt><trkpt lat="43.9573688" lon="11.3084649"><ele>276.0</ele><time>2026-04-25T15:53:59.271Z</time></trkpt><trkpt lat="43.9574381" lon="11.3085496"><ele>276.0</ele><time>2026-04-25T15:54:00.278Z</time></trkpt><trkpt lat="43.9574982" lon="11.3086289"><ele>274.6666666666667</ele><time>2026-04-25T15:54:01.265Z</time></trkpt><trkpt lat="43.9575487" lon="11.3086986"><ele>273.3333333333333</ele><time>2026-04-25T15:54:02.273Z</time></trkpt><trkpt lat="43.9576062" lon="11.3087643"><ele>272.0</ele><time>2026-04-25T15:54:03.292Z</time></trkpt><trkpt lat="43.9577089" lon="11.3088064"><ele>270.66666666666663</ele><time>2026-04-25T15:54:05.275Z</time></trkpt><trkpt lat="43.9577889" lon="11.308758"><ele>269.3333333333333</ele><time>2026-04-25T15:54:08.286Z</time></trkpt><trkpt lat="43.9578482" lon="11.3086592"><ele>268.0</ele><time>2026-04-25T15:54:10.282Z</time></trkpt><trkpt lat="43.957929" lon="11.3086239"><ele>268.0</ele><time>2026-04-25T15:54:12.281Z</time></trkpt><trkpt lat="43.9580209" lon="11.3086768"><ele>268.0</ele><time>2026-04-25T15:54:14.279Z</time></trkpt><trkpt lat="43.958131" lon="11.3087648"><ele>268.0</ele><time>2026-04-25T15:54:16.277Z</time></trkpt><trkpt lat="43.9581993" lon="11.3088166"><ele>268.0</ele><time>2026-04-25T15:54:17.278Z</time></trkpt><trkpt lat="43.958283" lon="11.3088719"><ele>268.0</ele><time>2026-04-25T15:54:18.275Z</time></trkpt><trkpt lat="43.9583658" lon="11.3089248"><ele>267.0</ele><time>2026-04-25T15:54:19.283Z</time></trkpt><trkpt lat="43.9584294" lon="11.3089868"><ele>266.0</ele><time>2026-04-25T15:54:20.276Z</time></trkpt><trkpt lat="43.9584755" lon="11.3090666"><ele>265.0</ele><time>2026-04-25T15:54:21.278Z</time></trkpt><trkpt lat="43.9584983" lon="11.3091493"><ele>264.0</ele><time>2026-04-25T15:54:22.28Z</time></trkpt><trkpt lat="43.9584744" lon="11.3093048"><ele>263.0</ele><time>2026-04-25T15:54:24.293Z</time></trkpt><trkpt lat="43.9584135" lon="11.3094509"><ele>263.83333333333337</ele><time>2026-04-25T15:54:26.282Z</time></trkpt><trkpt lat="43.9583525" lon="11.3095742"><ele>264.6666666666667</ele><time>2026-04-25T15:54:28.272Z</time></trkpt><trkpt lat="43.9583561" lon="11.3097045"><ele>265.5</ele><time>2026-04-25T15:54:30.276Z</time></trkpt><trkpt lat="43.9583833" lon="11.3098085"><ele>266.3333333333333</ele><time>2026-04-25T15:54:31.273Z</time></trkpt><trkpt lat="43.9584108" lon="11.309898"><ele>267.16666666666663</ele><time>2026-04-25T15:54:32.272Z</time></trkpt><trkpt lat="43.9584335" lon="11.30998"><ele>268.0</ele><time>2026-04-25T15:54:33.265Z</time></trkpt><trkpt lat="43.9585085" lon="11.3101332"><ele>268.0</ele><time>2026-04-25T15:54:35.278Z</time></trkpt><trkpt lat="43.9585613" lon="11.310217"><ele>268.0</ele><time>2026-04-25T15:54:36.269Z</time></trkpt><trkpt lat="43.9586248" lon="11.3102808"><ele>268.0</ele><time>2026-04-25T15:54:37.275Z</time></trkpt><trkpt lat="43.9586985" lon="11.3103442"><ele>268.0</ele><time>2026-04-25T15:54:38.277Z</time></trkpt><trkpt lat="43.9587697" lon="11.3104052"><ele>268.0</ele><time>2026-04-25T15:54:39.271Z</time></trkpt><trkpt lat="43.9588308" lon="11.3104731"><ele>268.0</ele><time>2026-04-25T15:54:40.265Z</time></trkpt><trkpt lat="43.9588881" lon="11.3105384"><ele>270.16666666666663</ele><time>2026-04-25T15:54:41.274Z</time></trkpt><trkpt lat="43.958967" lon="11.3106696"><ele>272.3333333333333</ele><time>2026-04-25T15:54:43.273Z</time></trkpt><trkpt lat="43.9590066" lon="11.3107434"><ele>274.5</ele><time>2026-04-25T15:54:44.282Z</time></trkpt><trkpt lat="43.9590492" lon="11.3108169"><ele>276.6666666666667</ele><time>2026-04-25T15:54:45.283Z</time></trkpt><trkpt lat="43.9590991" lon="11.3108834"><ele>278.83333333333337</ele><time>2026-04-25T15:54:46.287Z</time></trkpt><trkpt lat="43.9591425" lon="11.3109608"><ele>281.0</ele><time>2026-04-25T15:54:47.286Z</time></trkpt><trkpt lat="43.9591891" lon="11.3110631"><ele>278.5</ele><time>2026-04-25T15:54:48.283Z</time></trkpt><trkpt lat="43.959224" lon="11.311164"><ele>276.0</ele><time>2026-04-25T15:54:49.284Z</time></trkpt><trkpt lat="43.9592714" lon="11.3112725"><ele>273.5</ele><time>2026-04-25T15:54:50.286Z</time></trkpt><trkpt lat="43.9593142" lon="11.3113622"><ele>271.0</ele><time>2026-04-25T15:54:51.285Z</time></trkpt><trkpt lat="43.9593555" lon="11.311462"><ele>268.5</ele><time>2026-04-25T15:54:52.283Z</time></trkpt><trkpt lat="43.9594052" lon="11.3115764"><ele>266.0</ele><time>2026-04-25T15:54:53.288Z</time></trkpt><trkpt lat="43.9594653" lon="11.3116953"><ele>266.0</ele><time>2026-04-25T15:54:54.295Z</time></trkpt><trkpt lat="43.9595181" lon="11.3117991"><ele>266.0</ele><time>2026-04-25T15:54:55.278Z</time></trkpt><trkpt lat="43.9595672" lon="11.3119138"><ele>266.0</ele><time>2026-04-25T15:54:56.293Z</time></trkpt><trkpt lat="43.9596173" lon="11.3120222"><ele>266.0</ele><time>2026-04-25T15:54:57.289Z</time></trkpt><trkpt lat="43.9596669" lon="11.3121292"><ele>266.0</ele><time>2026-04-25T15:54:58.287Z</time></trkpt><trkpt lat="43.9597073" lon="11.3122454"><ele>268.40000000000003</ele><time>2026-04-25T15:54:59.287Z</time></trkpt><trkpt lat="43.9597436" lon="11.3123512"><ele>270.8</ele><time>2026-04-25T15:55:00.286Z</time></trkpt><trkpt lat="43.9597824" lon="11.3124666"><ele>273.20000000000005</ele><time>2026-04-25T15:55:01.29Z</time></trkpt><trkpt lat="43.9598257" lon="11.3125879"><ele>275.6</ele><time>2026-04-25T15:55:02.288Z</time></trkpt><trkpt lat="43.9598659" lon="11.3127013"><ele>278.0</ele><time>2026-04-25T15:55:03.284Z</time></trkpt><trkpt lat="43.9599116" lon="11.3128189"><ele>278.0</ele><time>2026-04-25T15:55:04.284Z</time></trkpt><trkpt lat="43.9599532" lon="11.3129331"><ele>278.0</ele><time>2026-04-25T15:55:05.291Z</time></trkpt><trkpt lat="43.9600037" lon="11.3130389"><ele>278.0</ele><time>2026-04-25T15:55:06.29Z</time></trkpt><trkpt lat="43.960045" lon="11.3131404"><ele>278.0</ele><time>2026-04-25T15:55:07.289Z</time></trkpt><trkpt lat="43.9600745" lon="11.3132545"><ele>278.0</ele><time>2026-04-25T15:55:08.282Z</time></trkpt><trkpt lat="43.9600976" lon="11.3133741"><ele>278.0</ele><time>2026-04-25T15:55:09.281Z</time></trkpt><trkpt lat="43.9601269" lon="11.3134929"><ele>277.6666666666667</ele><time>2026-04-25T15:55:10.281Z</time></trkpt><trkpt lat="43.9601583" lon="11.3136132"><ele>277.33333333333337</ele><time>2026-04-25T15:55:11.282Z</time></trkpt><trkpt lat="43.960189" lon="11.3137182"><ele>277.0</ele><time>2026-04-25T15:55:12.286Z</time></trkpt><trkpt lat="43.9602169" lon="11.3138199"><ele>276.6666666666667</ele><time>2026-04-25T15:55:13.288Z</time></trkpt><trkpt lat="43.9602513" lon="11.3138981"><ele>276.3333333333333</ele><time>2026-04-25T15:55:14.284Z</time></trkpt><trkpt lat="43.9603015" lon="11.3139516"><ele>276.0</ele><time>2026-04-25T15:55:15.281Z</time></trkpt><trkpt lat="43.9604248" lon="11.3140097"><ele>277.1666666666667</ele><time>2026-04-25T15:55:17.286Z</time></trkpt><trkpt lat="43.9605095" lon="11.3140183"><ele>278.3333333333333</ele><time>2026-04-25T15:55:18.287Z</time></trkpt><trkpt lat="43.9606004" lon="11.3139992"><ele>279.5</ele><time>2026-04-25T15:55:19.283Z</time></trkpt><trkpt lat="43.9606982" lon="11.3139879"><ele>280.66666666666663</ele><time>2026-04-25T15:55:20.283Z</time></trkpt><trkpt lat="43.9607851" lon="11.3139876"><ele>281.8333333333333</ele><time>2026-04-25T15:55:21.292Z</time></trkpt><trkpt lat="43.9608702" lon="11.3139848"><ele>283.0</ele><time>2026-04-25T15:55:22.286Z</time></trkpt><trkpt lat="43.9609503" lon="11.3139904"><ele>283.0</ele><time>2026-04-25T15:55:23.287Z</time></trkpt><trkpt lat="43.9610204" lon="11.3139977"><ele>283.0</ele><time>2026-04-25T15:55:24.29Z</time></trkpt><trkpt lat="43.9610874" lon="11.3140371"><ele>283.0</ele><time>2026-04-25T15:55:25.29Z</time></trkpt><trkpt lat="43.9611636" lon="11.3140924"><ele>283.0</ele><time>2026-04-25T15:55:26.296Z</time></trkpt><trkpt lat="43.9612338" lon="11.3141418"><ele>283.0</ele><time>2026-04-25T15:55:27.287Z</time></trkpt><trkpt lat="43.9613043" lon="11.3141864"><ele>283.0</ele><time>2026-04-25T15:55:28.292Z</time></trkpt><trkpt lat="43.961373" lon="11.3142089"><ele>283.0</ele><time>2026-04-25T15:55:29.293Z</time></trkpt><trkpt lat="43.9614443" lon="11.3142079"><ele>283.0</ele><time>2026-04-25T15:55:30.288Z</time></trkpt><trkpt lat="43.9615085" lon="11.3142106"><ele>283.0</ele><time>2026-04-25T15:55:31.291Z</time></trkpt><trkpt lat="43.9615798" lon="11.3142404"><ele>283.0</ele><time>2026-04-25T15:55:32.296Z</time></trkpt><trkpt lat="43.9616454" lon="11.3142692"><ele>283.0</ele><time>2026-04-25T15:55:33.291Z</time></trkpt><trkpt lat="43.9616947" lon="11.3143299"><ele>283.0</ele><time>2026-04-25T15:55:34.306Z</time></trkpt><trkpt lat="43.9617686" lon="11.3144055"><ele>283.0</ele><time>2026-04-25T15:55:36.309Z</time></trkpt><trkpt lat="43.9618209" lon="11.3145022"><ele>284.0</ele><time>2026-04-25T15:55:39.296Z</time></trkpt><trkpt lat="43.9619071" lon="11.3145938"><ele>285.0</ele><time>2026-04-25T15:55:41.28Z</time></trkpt><trkpt lat="43.9619557" lon="11.3146731"><ele>286.0</ele><time>2026-04-25T15:55:42.28Z</time></trkpt><trkpt lat="43.9620252" lon="11.3148194"><ele>287.0</ele><time>2026-04-25T15:55:43.284Z</time></trkpt><trkpt lat="43.9621012" lon="11.3149649"><ele>288.0</ele><time>2026-04-25T15:55:44.276Z</time></trkpt><trkpt lat="43.9621555" lon="11.3150751"><ele>288.0</ele><time>2026-04-25T15:55:45.284Z</time></trkpt><trkpt lat="43.9621959" lon="11.3151875"><ele>288.0</ele><time>2026-04-25T15:55:46.29Z</time></trkpt><trkpt lat="43.9622259" lon="11.3153016"><ele>288.0</ele><time>2026-04-25T15:55:47.298Z</time></trkpt><trkpt lat="43.9622459" lon="11.3154016"><ele>288.0</ele><time>2026-04-25T15:55:48.285Z</time></trkpt><trkpt lat="43.9623023" lon="11.3155237"><ele>288.0</ele><time>2026-04-25T15:55:50.293Z</time></trkpt><trkpt lat="43.9624179" lon="11.315561"><ele>293.0</ele><time>2026-04-25T15:55:52.29Z</time></trkpt><trkpt lat="43.9625315" lon="11.3155967"><ele>298.0</ele><time>2026-04-25T15:55:54.292Z</time></trkpt><trkpt lat="43.962606" lon="11.3156342"><ele>303.0</ele><time>2026-04-25T15:55:55.285Z</time></trkpt><trkpt lat="43.9626905" lon="11.3156751"><ele>308.0</ele><time>2026-04-25T15:55:56.285Z</time></trkpt><trkpt lat="43.9627833" lon="11.3157189"><ele>313.0</ele><time>2026-04-25T15:55:57.295Z</time></trkpt><trkpt lat="43.9628577" lon="11.3157649"><ele>313.0</ele><time>2026-04-25T15:55:58.293Z</time></trkpt><trkpt lat="43.9629249" lon="11.3158119"><ele>313.0</ele><time>2026-04-25T15:55:59.282Z</time></trkpt><trkpt lat="43.9629946" lon="11.3158606"><ele>313.0</ele><time>2026-04-25T15:56:00.287Z</time></trkpt><trkpt lat="43.9630547" lon="11.3159086"><ele>313.0</ele><time>2026-04-25T15:56:01.292Z</time></trkpt><trkpt lat="43.9631239" lon="11.3159614"><ele>313.0</ele><time>2026-04-25T15:56:02.285Z</time></trkpt><trkpt lat="43.9631996" lon="11.3160279"><ele>313.0</ele><time>2026-04-25T15:56:03.285Z</time></trkpt><trkpt lat="43.9632669" lon="11.3160774"><ele>313.0</ele><time>2026-04-25T15:56:04.287Z</time></trkpt><trkpt lat="43.9633592" lon="11.3161132"><ele>313.0</ele><time>2026-04-25T15:56:06.286Z</time></trkpt><trkpt lat="43.9634156" lon="11.3160406"><ele>313.0</ele><time>2026-04-25T15:56:09.302Z</time></trkpt><trkpt lat="43.9633864" lon="11.3159171"><ele>313.0</ele><time>2026-04-25T15:56:30.298Z</time></trkpt><trkpt lat="43.9633951" lon="11.3157743"><ele>313.0</ele><time>2026-04-25T15:56:32.302Z</time></trkpt><trkpt lat="43.9634194" lon="11.3156141"><ele>312.0</ele><time>2026-04-25T15:56:34.3Z</time></trkpt><trkpt lat="43.9634284" lon="11.3154656"><ele>311.0</ele><time>2026-04-25T15:56:36.29Z</time></trkpt><trkpt lat="43.9634417" lon="11.3153111"><ele>310.0</ele><time>2026-04-25T15:56:38.316Z</time></trkpt><trkpt lat="43.9634707" lon="11.3151593"><ele>309.0</ele><time>2026-04-25T15:56:40.301Z</time></trkpt><trkpt lat="43.9634904" lon="11.3149825"><ele>309.0</ele><time>2026-04-25T15:56:42.297Z</time></trkpt><trkpt lat="43.9635056" lon="11.314887"><ele>309.0</ele><time>2026-04-25T15:56:43.291Z</time></trkpt><trkpt lat="43.9635224" lon="11.3147894"><ele>309.0</ele><time>2026-04-25T15:56:44.295Z</time></trkpt><trkpt lat="43.9635519" lon="11.3147064"><ele>309.0</ele><time>2026-04-25T15:56:45.285Z</time></trkpt><trkpt lat="43.9636059" lon="11.3146532"><ele>309.0</ele><time>2026-04-25T15:56:46.28Z</time></trkpt><trkpt lat="43.9637219" lon="11.3145628"><ele>309.0</ele><time>2026-04-25T15:56:48.287Z</time></trkpt><trkpt lat="43.9637878" lon="11.3145185"><ele>307.42857142857144</ele><time>2026-04-25T15:56:49.282Z</time></trkpt><trkpt lat="43.9638547" lon="11.3144785"><ele>305.8571428571429</ele><time>2026-04-25T15:56:50.276Z</time></trkpt><trkpt lat="43.9639167" lon="11.3144395"><ele>304.2857142857143</ele><time>2026-04-25T15:56:51.282Z</time></trkpt><trkpt lat="43.9639718" lon="11.3143784"><ele>302.7142857142857</ele><time>2026-04-25T15:56:52.281Z</time></trkpt><trkpt lat="43.9640216" lon="11.3142934"><ele>301.1428571428571</ele><time>2026-04-25T15:56:53.286Z</time></trkpt><trkpt lat="43.9640645" lon="11.3142032"><ele>299.57142857142856</ele><time>2026-04-25T15:56:54.288Z</time></trkpt><trkpt lat="43.9641071" lon="11.3141159"><ele>298.0</ele><time>2026-04-25T15:56:55.28Z</time></trkpt><trkpt lat="43.9641471" lon="11.3140275"><ele>298.0</ele><time>2026-04-25T15:56:56.287Z</time></trkpt><trkpt lat="43.964186" lon="11.3139407"><ele>298.0</ele><time>2026-04-25T15:56:57.29Z</time></trkpt><trkpt lat="43.9642232" lon="11.3138619"><ele>298.0</ele><time>2026-04-25T15:56:58.286Z</time></trkpt><trkpt lat="43.9642876" lon="11.3137326"><ele>298.0</ele><time>2026-04-25T15:57:00.278Z</time></trkpt><trkpt lat="43.9643341" lon="11.3136507"><ele>298.0</ele><time>2026-04-25T15:57:03.279Z</time></trkpt><trkpt lat="43.9644368" lon="11.3137053"><ele>298.0</ele><time>2026-04-25T15:57:05.272Z</time></trkpt><trkpt lat="43.9645018" lon="11.3137319"><ele>291.8</ele><time>2026-04-25T15:57:06.271Z</time></trkpt><trkpt lat="43.9645662" lon="11.3137533"><ele>285.6</ele><time>2026-04-25T15:57:07.274Z</time></trkpt><trkpt lat="43.9646953" lon="11.3137792"><ele>279.4</ele><time>2026-04-25T15:57:09.295Z</time></trkpt><trkpt lat="43.9648091" lon="11.3137859"><ele>273.2</ele><time>2026-04-25T15:57:11.284Z</time></trkpt><trkpt lat="43.9649046" lon="11.3137766"><ele>267.0</ele><time>2026-04-25T15:57:13.288Z</time></trkpt><trkpt lat="43.9649886" lon="11.3137445"><ele>260.3333333333333</ele><time>2026-04-25T15:57:15.296Z</time></trkpt><trkpt lat="43.9650511" lon="11.3137254"><ele>253.66666666666669</ele><time>2026-04-25T15:57:16.281Z</time></trkpt><trkpt lat="43.9651631" lon="11.3136691"><ele>247.0</ele><time>2026-04-25T15:57:18.279Z</time></trkpt><trkpt lat="43.9652472" lon="11.3135985"><ele>240.33333333333334</ele><time>2026-04-25T15:57:20.276Z</time></trkpt><trkpt lat="43.9653058" lon="11.3136355"><ele>233.66666666666669</ele><time>2026-04-25T15:57:22.295Z</time></trkpt><trkpt lat="43.9653448" lon="11.3137598"><ele>227.0</ele><time>2026-04-25T15:57:24.3Z</time></trkpt><trkpt lat="43.9653681" lon="11.3138917"><ele>231.6</ele><time>2026-04-25T15:57:26.298Z</time></trkpt><trkpt lat="43.9654305" lon="11.3140163"><ele>236.2</ele><time>2026-04-25T15:57:28.283Z</time></trkpt><trkpt lat="43.9654942" lon="11.3140668"><ele>240.8</ele><time>2026-04-25T15:57:29.285Z</time></trkpt><trkpt lat="43.9655927" lon="11.3141428"><ele>245.4</ele><time>2026-04-25T15:57:31.279Z</time></trkpt><trkpt lat="43.9655903" lon="11.3142981"><ele>250.0</ele><time>2026-04-25T15:57:33.3Z</time></trkpt><trkpt lat="43.9655601" lon="11.3144041"><ele>250.0</ele><time>2026-04-25T15:57:34.284Z</time></trkpt><trkpt lat="43.9655191" lon="11.3145303"><ele>250.0</ele><time>2026-04-25T15:57:35.286Z</time></trkpt><trkpt lat="43.9654765" lon="11.3146649"><ele>250.0</ele><time>2026-04-25T15:57:36.296Z</time></trkpt><trkpt lat="43.9654297" lon="11.3147882"><ele>250.0</ele><time>2026-04-25T15:57:37.29Z</time></trkpt><trkpt lat="43.9653895" lon="11.3148936"><ele>250.0</ele><time>2026-04-25T15:57:38.298Z</time></trkpt><trkpt lat="43.9653512" lon="11.3149937"><ele>251.33333333333331</ele><time>2026-04-25T15:57:39.307Z</time></trkpt><trkpt lat="43.9653213" lon="11.3150892"><ele>252.66666666666666</ele><time>2026-04-25T15:57:40.308Z</time></trkpt><trkpt lat="43.9653059" lon="11.3151906"><ele>254.0</ele><time>2026-04-25T15:57:41.297Z</time></trkpt><trkpt lat="43.9652871" lon="11.3152744"><ele>255.33333333333331</ele><time>2026-04-25T15:57:42.298Z</time></trkpt><trkpt lat="43.9653011" lon="11.3154331"><ele>256.6666666666667</ele><time>2026-04-25T15:57:44.291Z</time></trkpt><trkpt lat="43.9653369" lon="11.3155233"><ele>258.0</ele><time>2026-04-25T15:57:45.291Z</time></trkpt><trkpt lat="43.965382" lon="11.3156548"><ele>258.3333333333333</ele><time>2026-04-25T15:57:46.293Z</time></trkpt><trkpt lat="43.9654151" lon="11.3157907"><ele>258.6666666666667</ele><time>2026-04-25T15:57:47.279Z</time></trkpt><trkpt lat="43.9654591" lon="11.3158899"><ele>259.0</ele><time>2026-04-25T15:57:48.276Z</time></trkpt><trkpt lat="43.9654983" lon="11.3159613"><ele>259.33333333333337</ele><time>2026-04-25T15:57:49.276Z</time></trkpt><trkpt lat="43.9655312" lon="11.3160724"><ele>259.6666666666667</ele><time>2026-04-25T15:57:51.28Z</time></trkpt><trkpt lat="43.9654539" lon="11.316176"><ele>260.0</ele><time>2026-04-25T15:57:53.276Z</time></trkpt><trkpt lat="43.9653983" lon="11.3162401"><ele>260.00000000000006</ele><time>2026-04-25T15:57:54.281Z</time></trkpt><trkpt lat="43.9653382" lon="11.316305"><ele>260.0</ele><time>2026-04-25T15:57:55.279Z</time></trkpt><trkpt lat="43.9652819" lon="11.3163692"><ele>260.0</ele><time>2026-04-25T15:57:56.283Z</time></trkpt><trkpt lat="43.965216" lon="11.3164087"><ele>260.0</ele><time>2026-04-25T15:57:57.29Z</time></trkpt><trkpt lat="43.9651463" lon="11.3164528"><ele>260.0</ele><time>2026-04-25T15:57:59.301Z</time></trkpt><trkpt lat="43.9651961" lon="11.3165196"><ele>260.00000000000006</ele><time>2026-04-25T15:58:03.299Z</time></trkpt><trkpt lat="43.965261" lon="11.3165792"><ele>260.0</ele><time>2026-04-25T15:58:05.294Z</time></trkpt><trkpt lat="43.9653019" lon="11.3166726"><ele>260.2</ele><time>2026-04-25T15:58:06.291Z</time></trkpt><trkpt lat="43.9653351" lon="11.3167828"><ele>260.4</ele><time>2026-04-25T15:58:07.289Z</time></trkpt><trkpt lat="43.965381" lon="11.3169054"><ele>260.6</ele><time>2026-04-25T15:58:08.292Z</time></trkpt><trkpt lat="43.9654348" lon="11.3170278"><ele>260.8</ele><time>2026-04-25T15:58:09.292Z</time></trkpt><trkpt lat="43.9654842" lon="11.3171523"><ele>261.0</ele><time>2026-04-25T15:58:10.281Z</time></trkpt><trkpt lat="43.9655395" lon="11.3172686"><ele>260.1666666666667</ele><time>2026-04-25T15:58:11.303Z</time></trkpt><trkpt lat="43.9655781" lon="11.3173738"><ele>259.3333333333333</ele><time>2026-04-25T15:58:12.284Z</time></trkpt><trkpt lat="43.965617" lon="11.3174704"><ele>258.5</ele><time>2026-04-25T15:58:13.296Z</time></trkpt><trkpt lat="43.9656599" lon="11.3175786"><ele>257.66666666666663</ele><time>2026-04-25T15:58:14.297Z</time></trkpt><trkpt lat="43.9657022" lon="11.3176866"><ele>256.8333333333333</ele><time>2026-04-25T15:58:15.296Z</time></trkpt><trkpt lat="43.9657533" lon="11.3178021"><ele>256.0</ele><time>2026-04-25T15:58:16.29Z</time></trkpt><trkpt lat="43.9657957" lon="11.3179119"><ele>255.99999999999997</ele><time>2026-04-25T15:58:17.29Z</time></trkpt><trkpt lat="43.9658285" lon="11.3180257"><ele>256.0</ele><time>2026-04-25T15:58:18.288Z</time></trkpt><trkpt lat="43.9658506" lon="11.3181248"><ele>256.0</ele><time>2026-04-25T15:58:19.281Z</time></trkpt><trkpt lat="43.9658715" lon="11.3182226"><ele>256.0</ele><time>2026-04-25T15:58:20.294Z</time></trkpt><trkpt lat="43.9658952" lon="11.3183182"><ele>255.99999999999997</ele><time>2026-04-25T15:58:21.294Z</time></trkpt><trkpt lat="43.9659234" lon="11.318417"><ele>256.0</ele><time>2026-04-25T15:58:22.299Z</time></trkpt><trkpt lat="43.9659472" lon="11.3185182"><ele>250.66666666666666</ele><time>2026-04-25T15:58:23.298Z</time></trkpt><trkpt lat="43.9659703" lon="11.3186063"><ele>245.33333333333331</ele><time>2026-04-25T15:58:24.299Z</time></trkpt><trkpt lat="43.9659856" lon="11.3187605"><ele>240.0</ele><time>2026-04-25T15:58:26.297Z</time></trkpt><trkpt lat="43.9660111" lon="11.3188711"><ele>234.66666666666669</ele><time>2026-04-25T15:58:28.299Z</time></trkpt><trkpt lat="43.9660507" lon="11.3189718"><ele>229.33333333333334</ele><time>2026-04-25T15:58:30.288Z</time></trkpt><trkpt lat="43.9661227" lon="11.3189473"><ele>224.0</ele><time>2026-04-25T15:58:32.297Z</time></trkpt><trkpt lat="43.9661922" lon="11.3188545"><ele>224.00000000000003</ele><time>2026-04-25T15:58:34.301Z</time></trkpt><trkpt lat="43.9662544" lon="11.3187921"><ele>224.0</ele><time>2026-04-25T15:58:36.301Z</time></trkpt><trkpt lat="43.9663077" lon="11.3187195"><ele>224.0</ele><time>2026-04-25T15:58:39.3Z</time></trkpt><trkpt lat="43.9663652" lon="11.3186408"><ele>224.0</ele><time>2026-04-25T15:58:43.3Z</time></trkpt><trkpt lat="43.966396" lon="11.3187248"><ele>224.00000000000003</ele><time>2026-04-25T15:58:46.301Z</time></trkpt><trkpt lat="43.9663811" lon="11.3188117"><ele>224.0</ele><time>2026-04-25T15:58:48.307Z</time></trkpt><trkpt lat="43.9663509" lon="11.318966"><ele>223.00000000000003</ele><time>2026-04-25T15:58:50.296Z</time></trkpt><trkpt lat="43.966322" lon="11.3190643"><ele>222.0</ele><time>2026-04-25T15:58:51.301Z</time></trkpt><trkpt lat="43.96629" lon="11.3191623"><ele>221.0</ele><time>2026-04-25T15:58:52.301Z</time></trkpt><trkpt lat="43.9662609" lon="11.3192537"><ele>220.0</ele><time>2026-04-25T15:58:53.3Z</time></trkpt><trkpt lat="43.9662098" lon="11.3193795"><ele>219.00000000000003</ele><time>2026-04-25T15:58:55.293Z</time></trkpt><trkpt lat="43.9662076" lon="11.319471"><ele>218.0</ele><time>2026-04-25T15:58:57.299Z</time></trkpt><trkpt lat="43.9662762" lon="11.3195035"><ele>218.0</ele><time>2026-04-25T15:58:59.294Z</time></trkpt><trkpt lat="43.9663894" lon="11.3193894"><ele>218.0</ele><time>2026-04-25T15:59:01.291Z</time></trkpt><trkpt lat="43.9664419" lon="11.3192888"><ele>218.0</ele><time>2026-04-25T15:59:02.293Z</time></trkpt><trkpt lat="43.9664999" lon="11.3191998"><ele>218.0</ele><time>2026-04-25T15:59:03.302Z</time></trkpt><trkpt lat="43.9665483" lon="11.3191238"><ele>218.0</ele><time>2026-04-25T15:59:04.291Z</time></trkpt><trkpt lat="43.9666152" lon="11.3190658"><ele>218.00000000000003</ele><time>2026-04-25T15:59:05.299Z</time></trkpt><trkpt lat="43.9666712" lon="11.3190106"><ele>218.0</ele><time>2026-04-25T15:59:06.299Z</time></trkpt><trkpt lat="43.9667265" lon="11.3189539"><ele>218.0</ele><time>2026-04-25T15:59:07.301Z</time></trkpt><trkpt lat="43.9667767" lon="11.3188922"><ele>218.0</ele><time>2026-04-25T15:59:08.3Z</time></trkpt><trkpt lat="43.9668317" lon="11.3188277"><ele>218.00000000000003</ele><time>2026-04-25T15:59:09.299Z</time></trkpt><trkpt lat="43.9668826" lon="11.3187687"><ele>218.0</ele><time>2026-04-25T15:59:10.301Z</time></trkpt><trkpt lat="43.966977" lon="11.3186476"><ele>208.0</ele><time>2026-04-25T15:59:12.298Z</time></trkpt><trkpt lat="43.9670706" lon="11.3185801"><ele>208.0</ele><time>2026-04-25T15:59:14.298Z</time></trkpt><trkpt lat="43.9671397" lon="11.3185845"><ele>208.0</ele><time>2026-04-25T15:59:16.31Z</time></trkpt><trkpt lat="43.9672081" lon="11.3185613"><ele>208.0</ele><time>2026-04-25T15:59:20.314Z</time></trkpt><trkpt lat="43.9672639" lon="11.3185127"><ele>208.0</ele><time>2026-04-25T16:00:45.306Z</time></trkpt></trkseg><trkseg><trkpt lat="43.9118304" lon="11.2806765"><ele>284.0</ele><time>2026-04-25T16:13:24.275Z</time></trkpt><trkpt lat="43.911771" lon="11.2806252"><ele>284.0</ele><time>2026-04-25T16:13:49.273Z</time></trkpt><trkpt lat="43.9117049" lon="11.2806055"><ele>284.0</ele><time>2026-04-25T16:13:50.273Z</time></trkpt><trkpt lat="43.9115704" lon="11.2805131"><ele>284.0</ele><time>2026-04-25T16:13:52.259Z</time></trkpt><trkpt lat="43.9114912" lon="11.2804559"><ele>284.0</ele><time>2026-04-25T16:13:53.259Z</time></trkpt><trkpt lat="43.9113243" lon="11.2803406"><ele>284.5</ele><time>2026-04-25T16:13:55.268Z</time></trkpt><trkpt lat="43.9112518" lon="11.2802896"><ele>285.0</ele><time>2026-04-25T16:13:56.265Z</time></trkpt><trkpt lat="43.9111047" lon="11.2801866"><ele>285.5</ele><time>2026-04-25T16:13:58.27Z</time></trkpt><trkpt lat="43.911017" lon="11.2801424"><ele>286.0</ele><time>2026-04-25T16:13:59.268Z</time></trkpt><trkpt lat="43.9108668" lon="11.2800583"><ele>286.0</ele><time>2026-04-25T16:14:01.264Z</time></trkpt><trkpt lat="43.9108824" lon="11.2799561"><ele>286.0</ele><time>2026-04-25T16:14:04.271Z</time></trkpt><trkpt lat="43.9109867" lon="11.2799248"><ele>286.0</ele><time>2026-04-25T16:14:06.269Z</time></trkpt><trkpt lat="43.9110497" lon="11.2799337"><ele>286.0</ele><time>2026-04-25T16:14:07.268Z</time></trkpt><trkpt lat="43.9111632" lon="11.2798739"><ele>286.0</ele><time>2026-04-25T16:14:09.256Z</time></trkpt><trkpt lat="43.9112585" lon="11.2796621"><ele>288.0</ele><time>2026-04-25T16:14:11.266Z</time></trkpt><trkpt lat="43.9112901" lon="11.279545"><ele>290.0</ele><time>2026-04-25T16:14:12.271Z</time></trkpt><trkpt lat="43.9113262" lon="11.279441"><ele>292.0</ele><time>2026-04-25T16:14:13.269Z</time></trkpt><trkpt lat="43.9113496" lon="11.2793414"><ele>294.0</ele><time>2026-04-25T16:14:14.259Z</time></trkpt><trkpt lat="43.9114029" lon="11.2791664"><ele>296.0</ele><time>2026-04-25T16:14:16.268Z</time></trkpt><trkpt lat="43.9114408" lon="11.2790906"><ele>296.0</ele><time>2026-04-25T16:14:17.277Z</time></trkpt><trkpt lat="43.9114969" lon="11.2789558"><ele>296.0</ele><time>2026-04-25T16:14:19.282Z</time></trkpt><trkpt lat="43.9115104" lon="11.2788303"><ele>296.0</ele><time>2026-04-25T16:14:21.261Z</time></trkpt><trkpt lat="43.9115194" lon="11.2786695"><ele>296.0</ele><time>2026-04-25T16:14:23.28Z</time></trkpt><trkpt lat="43.9114807" lon="11.2785949"><ele>296.0</ele><time>2026-04-25T16:14:24.278Z</time></trkpt><trkpt lat="43.911421" lon="11.2784309"><ele>297.6</ele><time>2026-04-25T16:14:26.281Z</time></trkpt><trkpt lat="43.9113602" lon="11.2782643"><ele>299.20000000000005</ele><time>2026-04-25T16:14:28.281Z</time></trkpt><trkpt lat="43.9113177" lon="11.2781854"><ele>300.79999999999995</ele><time>2026-04-25T16:14:29.281Z</time></trkpt><trkpt lat="43.9112303" lon="11.278043"><ele>302.4</ele><time>2026-04-25T16:14:31.284Z</time></trkpt><trkpt lat="43.9111861" lon="11.2779576"><ele>304.0</ele><time>2026-04-25T16:14:32.277Z</time></trkpt><trkpt lat="43.9110929" lon="11.2777265"><ele>306.0</ele><time>2026-04-25T16:14:34.287Z</time></trkpt><trkpt lat="43.9110457" lon="11.2776096"><ele>308.0</ele><time>2026-04-25T16:14:35.282Z</time></trkpt><trkpt lat="43.9109467" lon="11.277378"><ele>310.0</ele><time>2026-04-25T16:14:37.285Z</time></trkpt><trkpt lat="43.9108954" lon="11.2772617"><ele>312.0</ele><time>2026-04-25T16:14:38.278Z</time></trkpt><trkpt lat="43.9107785" lon="11.2770593"><ele>314.4</ele><time>2026-04-25T16:14:40.283Z</time></trkpt><trkpt lat="43.9107157" lon="11.2769799"><ele>316.79999999999995</ele><time>2026-04-25T16:14:41.279Z</time></trkpt><trkpt lat="43.910646" lon="11.2769031"><ele>319.2</ele><time>2026-04-25T16:14:42.273Z</time></trkpt><trkpt lat="43.9105721" lon="11.2768373"><ele>321.59999999999997</ele><time>2026-04-25T16:14:43.272Z</time></trkpt><trkpt lat="43.910494" lon="11.2767673"><ele>324.0</ele><time>2026-04-25T16:14:44.271Z</time></trkpt><trkpt lat="43.9104148" lon="11.2766938"><ele>324.0</ele><time>2026-04-25T16:14:45.269Z</time></trkpt><trkpt lat="43.9103359" lon="11.2766226"><ele>324.0</ele><time>2026-04-25T16:14:46.267Z</time></trkpt><trkpt lat="43.9102803" lon="11.2765604"><ele>324.0</ele><time>2026-04-25T16:14:47.288Z</time></trkpt><trkpt lat="43.910219" lon="11.2764038"><ele>324.0</ele><time>2026-04-25T16:14:49.269Z</time></trkpt><trkpt lat="43.9102044" lon="11.2763053"><ele>324.0</ele><time>2026-04-25T16:14:50.283Z</time></trkpt><trkpt lat="43.9102075" lon="11.2761987"><ele>324.0</ele><time>2026-04-25T16:14:51.281Z</time></trkpt><trkpt lat="43.9102135" lon="11.2760876"><ele>325.8333333333333</ele><time>2026-04-25T16:14:52.281Z</time></trkpt><trkpt lat="43.9102077" lon="11.2759598"><ele>327.6666666666667</ele><time>2026-04-25T16:14:53.278Z</time></trkpt><trkpt lat="43.9101939" lon="11.2758536"><ele>329.5</ele><time>2026-04-25T16:14:54.282Z</time></trkpt><trkpt lat="43.9101875" lon="11.2757463"><ele>331.33333333333337</ele><time>2026-04-25T16:14:55.274Z</time></trkpt><trkpt lat="43.9101868" lon="11.2756383"><ele>333.1666666666667</ele><time>2026-04-25T16:14:56.276Z</time></trkpt><trkpt lat="43.9101997" lon="11.2755437"><ele>335.0</ele><time>2026-04-25T16:14:57.271Z</time></trkpt><trkpt lat="43.9102284" lon="11.2754507"><ele>337.33333333333337</ele><time>2026-04-25T16:14:58.277Z</time></trkpt><trkpt lat="43.9102775" lon="11.2753414"><ele>339.6666666666667</ele><time>2026-04-25T16:15:00.276Z</time></trkpt><trkpt lat="43.9103557" lon="11.2752657"><ele>342.0</ele><time>2026-04-25T16:15:02.276Z</time></trkpt><trkpt lat="43.9104593" lon="11.2752424"><ele>344.3333333333333</ele><time>2026-04-25T16:15:04.28Z</time></trkpt><trkpt lat="43.9105413" lon="11.2752204"><ele>346.66666666666663</ele><time>2026-04-25T16:15:06.287Z</time></trkpt><trkpt lat="43.9106088" lon="11.2752054"><ele>349.0</ele><time>2026-04-25T16:15:26.296Z</time></trkpt><trkpt lat="43.9107367" lon="11.2751825"><ele>349.0</ele><time>2026-04-25T16:15:28.295Z</time></trkpt><trkpt lat="43.9108368" lon="11.2751609"><ele>349.0</ele><time>2026-04-25T16:15:29.282Z</time></trkpt><trkpt lat="43.9109424" lon="11.2751456"><ele>349.0</ele><time>2026-04-25T16:15:30.285Z</time></trkpt><trkpt lat="43.9110591" lon="11.2751312"><ele>349.0</ele><time>2026-04-25T16:15:31.282Z</time></trkpt><trkpt lat="43.9111794" lon="11.2751096"><ele>349.0</ele><time>2026-04-25T16:15:32.283Z</time></trkpt><trkpt lat="43.911284" lon="11.2750984"><ele>350.5</ele><time>2026-04-25T16:15:33.285Z</time></trkpt><trkpt lat="43.9113749" lon="11.2750969"><ele>352.0</ele><time>2026-04-25T16:15:34.28Z</time></trkpt><trkpt lat="43.9114554" lon="11.2751133"><ele>353.5</ele><time>2026-04-25T16:15:35.28Z</time></trkpt><trkpt lat="43.911535" lon="11.2751462"><ele>355.0</ele><time>2026-04-25T16:15:36.284Z</time></trkpt><trkpt lat="43.9116118" lon="11.2751751"><ele>356.5</ele><time>2026-04-25T16:15:37.288Z</time></trkpt><trkpt lat="43.9116895" lon="11.2752093"><ele>358.0</ele><time>2026-04-25T16:15:38.282Z</time></trkpt><trkpt lat="43.9117819" lon="11.275229"><ele>359.2</ele><time>2026-04-25T16:15:39.281Z</time></trkpt><trkpt lat="43.9118718" lon="11.2752556"><ele>360.4</ele><time>2026-04-25T16:15:40.278Z</time></trkpt><trkpt lat="43.9119664" lon="11.2752543"><ele>361.59999999999997</ele><time>2026-04-25T16:15:41.28Z</time></trkpt><trkpt lat="43.9120738" lon="11.2752207"><ele>362.79999999999995</ele><time>2026-04-25T16:15:42.283Z</time></trkpt><trkpt lat="43.9121826" lon="11.2752091"><ele>364.0</ele><time>2026-04-25T16:15:43.281Z</time></trkpt><trkpt lat="43.9122644" lon="11.2751997"><ele>364.0</ele><time>2026-04-25T16:15:44.284Z</time></trkpt><trkpt lat="43.9123287" lon="11.2751759"><ele>364.0</ele><time>2026-04-25T16:15:45.278Z</time></trkpt><trkpt lat="43.9123949" lon="11.2750619"><ele>364.0</ele><time>2026-04-25T16:15:47.29Z</time></trkpt><trkpt lat="43.9123983" lon="11.2749702"><ele>364.0</ele><time>2026-04-25T16:15:48.285Z</time></trkpt><trkpt lat="43.9123762" lon="11.2748112"><ele>364.0</ele><time>2026-04-25T16:15:50.287Z</time></trkpt><trkpt lat="43.9123792" lon="11.274692"><ele>364.0</ele><time>2026-04-25T16:15:52.285Z</time></trkpt><trkpt lat="43.9123589" lon="11.2745761"><ele>365.0</ele><time>2026-04-25T16:15:55.289Z</time></trkpt><trkpt lat="43.9123477" lon="11.2744611"><ele>366.0</ele><time>2026-04-25T16:15:58.276Z</time></trkpt><trkpt lat="43.9123443" lon="11.2742901"><ele>367.0</ele><time>2026-04-25T16:16:00.288Z</time></trkpt><trkpt lat="43.9123486" lon="11.2741846"><ele>368.0</ele><time>2026-04-25T16:16:01.287Z</time></trkpt><trkpt lat="43.9123457" lon="11.2740597"><ele>369.0</ele><time>2026-04-25T16:16:02.289Z</time></trkpt><trkpt lat="43.9123377" lon="11.2739535"><ele>370.3333333333333</ele><time>2026-04-25T16:16:03.29Z</time></trkpt><trkpt lat="43.9123013" lon="11.2738105"><ele>371.6666666666667</ele><time>2026-04-25T16:16:05.286Z</time></trkpt><trkpt lat="43.9122462" lon="11.2737532"><ele>373.0</ele><time>2026-04-25T16:16:06.279Z</time></trkpt><trkpt lat="43.9121791" lon="11.2736985"><ele>374.33333333333337</ele><time>2026-04-25T16:16:07.283Z</time></trkpt><trkpt lat="43.9121038" lon="11.2736415"><ele>375.6666666666667</ele><time>2026-04-25T16:16:08.285Z</time></trkpt><trkpt lat="43.9120245" lon="11.2735662"><ele>377.0</ele><time>2026-04-25T16:16:09.279Z</time></trkpt><trkpt lat="43.9119411" lon="11.2734746"><ele>377.0</ele><time>2026-04-25T16:16:10.276Z</time></trkpt><trkpt lat="43.9118584" lon="11.273375"><ele>377.0</ele><time>2026-04-25T16:16:11.291Z</time></trkpt><trkpt lat="43.9117778" lon="11.2732742"><ele>377.0</ele><time>2026-04-25T16:16:12.288Z</time></trkpt><trkpt lat="43.9117043" lon="11.2731667"><ele>377.0</ele><time>2026-04-25T16:16:13.286Z</time></trkpt><trkpt lat="43.9116469" lon="11.2730509"><ele>377.0</ele><time>2026-04-25T16:16:14.283Z</time></trkpt><trkpt lat="43.911601" lon="11.2729144"><ele>378.8</ele><time>2026-04-25T16:16:15.284Z</time></trkpt><trkpt lat="43.9115563" lon="11.2727631"><ele>380.6</ele><time>2026-04-25T16:16:16.292Z</time></trkpt><trkpt lat="43.9115077" lon="11.272624"><ele>382.40000000000003</ele><time>2026-04-25T16:16:17.307Z</time></trkpt><trkpt lat="43.9114599" lon="11.2724989"><ele>384.20000000000005</ele><time>2026-04-25T16:16:18.289Z</time></trkpt><trkpt lat="43.9114091" lon="11.2723959"><ele>386.0</ele><time>2026-04-25T16:16:19.288Z</time></trkpt><trkpt lat="43.9113586" lon="11.2722981"><ele>388.49999999999994</ele><time>2026-04-25T16:16:20.288Z</time></trkpt><trkpt lat="43.9113102" lon="11.2722118"><ele>391.0</ele><time>2026-04-25T16:16:21.281Z</time></trkpt><trkpt lat="43.9112466" lon="11.2721215"><ele>393.5</ele><time>2026-04-25T16:16:23.277Z</time></trkpt><trkpt lat="43.9111773" lon="11.2721147"><ele>396.0</ele><time>2026-04-25T16:17:04.282Z</time></trkpt><trkpt lat="43.9110959" lon="11.2720809"><ele>398.49999999999994</ele><time>2026-04-25T16:17:06.277Z</time></trkpt><trkpt lat="43.9110195" lon="11.2720299"><ele>401.0</ele><time>2026-04-25T16:17:08.285Z</time></trkpt><trkpt lat="43.9109561" lon="11.2719768"><ele>402.16666666666663</ele><time>2026-04-25T16:17:10.29Z</time></trkpt><trkpt lat="43.9108896" lon="11.2719313"><ele>403.3333333333333</ele><time>2026-04-25T16:17:12.289Z</time></trkpt><trkpt lat="43.9108058" lon="11.2718699"><ele>404.5</ele><time>2026-04-25T16:17:14.292Z</time></trkpt><trkpt lat="43.9107277" lon="11.27182"><ele>405.66666666666663</ele><time>2026-04-25T16:17:16.291Z</time></trkpt><trkpt lat="43.9106324" lon="11.2717889"><ele>406.8333333333333</ele><time>2026-04-25T16:17:18.287Z</time></trkpt><trkpt lat="43.9105599" lon="11.2717545"><ele>408.0</ele><time>2026-04-25T16:17:20.289Z</time></trkpt><trkpt lat="43.9104869" lon="11.2717025"><ele>408.0</ele><time>2026-04-25T16:17:24.317Z</time></trkpt><trkpt lat="43.9104136" lon="11.2716486"><ele>408.0</ele><time>2026-04-25T16:17:28.291Z</time></trkpt><trkpt lat="43.9103951" lon="11.2715527"><ele>408.0</ele><time>2026-04-25T16:18:15.291Z</time></trkpt><trkpt lat="43.9104684" lon="11.2714689"><ele>408.0</ele><time>2026-04-25T16:18:17.293Z</time></trkpt><trkpt lat="43.9104812" lon="11.2713229"><ele>408.0</ele><time>2026-04-25T16:18:19.284Z</time></trkpt><trkpt lat="43.9104459" lon="11.2712501"><ele>408.0</ele><time>2026-04-25T16:18:20.281Z</time></trkpt><trkpt lat="43.9103875" lon="11.2711771"><ele>409.2</ele><time>2026-04-25T16:18:21.275Z</time></trkpt><trkpt lat="43.9103092" lon="11.2711084"><ele>410.4</ele><time>2026-04-25T16:18:22.287Z</time></trkpt><trkpt lat="43.9102344" lon="11.2710268"><ele>411.59999999999997</ele><time>2026-04-25T16:18:23.279Z</time></trkpt><trkpt lat="43.9101535" lon="11.2709542"><ele>412.79999999999995</ele><time>2026-04-25T16:18:24.288Z</time></trkpt><trkpt lat="43.9100728" lon="11.2708812"><ele>414.0</ele><time>2026-04-25T16:18:25.278Z</time></trkpt><trkpt lat="43.9099982" lon="11.2708176"><ele>414.0</ele><time>2026-04-25T16:18:26.293Z</time></trkpt><trkpt lat="43.9099423" lon="11.2707646"><ele>414.0</ele><time>2026-04-25T16:18:27.275Z</time></trkpt><trkpt lat="43.9098902" lon="11.2707039"><ele>414.0</ele><time>2026-04-25T16:18:28.277Z</time></trkpt><trkpt lat="43.9098259" lon="11.2706068"><ele>414.0</ele><time>2026-04-25T16:18:30.277Z</time></trkpt><trkpt lat="43.9097878" lon="11.270522"><ele>414.0</ele><time>2026-04-25T16:18:33.284Z</time></trkpt><trkpt lat="43.9097459" lon="11.2704334"><ele>414.0</ele><time>2026-04-25T16:18:35.278Z</time></trkpt><trkpt lat="43.9097018" lon="11.2703087"><ele>416.5</ele><time>2026-04-25T16:18:37.273Z</time></trkpt><trkpt lat="43.9096523" lon="11.2702288"><ele>419.0</ele><time>2026-04-25T16:18:39.278Z</time></trkpt><trkpt lat="43.9095783" lon="11.2701826"><ele>421.5</ele><time>2026-04-25T16:18:41.285Z</time></trkpt><trkpt lat="43.9094957" lon="11.2701492"><ele>424.0</ele><time>2026-04-25T16:18:43.286Z</time></trkpt><trkpt lat="43.9094072" lon="11.2701483"><ele>426.5</ele><time>2026-04-25T16:18:45.282Z</time></trkpt><trkpt lat="43.9093412" lon="11.2701734"><ele>429.0</ele><time>2026-04-25T16:18:47.288Z</time></trkpt><trkpt lat="43.9092532" lon="11.2702078"><ele>427.4</ele><time>2026-04-25T16:18:57.31Z</time></trkpt><trkpt lat="43.9091706" lon="11.2702837"><ele>425.79999999999995</ele><time>2026-04-25T16:18:59.297Z</time></trkpt><trkpt lat="43.9090811" lon="11.2704092"><ele>424.20000000000005</ele><time>2026-04-25T16:19:01.295Z</time></trkpt><trkpt lat="43.9090242" lon="11.2704594"><ele>422.6</ele><time>2026-04-25T16:19:05.307Z</time></trkpt><trkpt lat="43.9089612" lon="11.270541"><ele>421.0</ele><time>2026-04-25T16:19:22.301Z</time></trkpt><trkpt lat="43.9090382" lon="11.270449"><ele>421.0</ele><time>2026-04-25T16:19:59.304Z</time></trkpt><trkpt lat="43.9091527" lon="11.2703132"><ele>421.0</ele><time>2026-04-25T16:20:02.277Z</time></trkpt><trkpt lat="43.9092154" lon="11.270226"><ele>421.0</ele><time>2026-04-25T16:20:04.275Z</time></trkpt><trkpt lat="43.9092477" lon="11.2701269"><ele>421.0</ele><time>2026-04-25T16:20:06.274Z</time></trkpt><trkpt lat="43.9092122" lon="11.2700298"><ele>421.0</ele><time>2026-04-25T16:20:08.276Z</time></trkpt><trkpt lat="43.9091082" lon="11.2699105"><ele>421.0</ele><time>2026-04-25T16:20:10.281Z</time></trkpt><trkpt lat="43.9090558" lon="11.2698454"><ele>421.0</ele><time>2026-04-25T16:20:11.286Z</time></trkpt><trkpt lat="43.908961" lon="11.2696796"><ele>421.0</ele><time>2026-04-25T16:20:13.286Z</time></trkpt><trkpt lat="43.9088925" lon="11.2695554"><ele>421.0</ele><time>2026-04-25T16:20:15.285Z</time></trkpt><trkpt lat="43.9088093" lon="11.2694837"><ele>421.0</ele><time>2026-04-25T16:20:17.288Z</time></trkpt><trkpt lat="43.9087095" lon="11.26946"><ele>423.5</ele><time>2026-04-25T16:20:19.28Z</time></trkpt><trkpt lat="43.9086026" lon="11.2694127"><ele>426.0</ele><time>2026-04-25T16:20:21.283Z</time></trkpt><trkpt lat="43.9084959" lon="11.2693257"><ele>428.5</ele><time>2026-04-25T16:20:23.288Z</time></trkpt><trkpt lat="43.9084009" lon="11.269222"><ele>431.0</ele><time>2026-04-25T16:20:25.288Z</time></trkpt><trkpt lat="43.9083083" lon="11.2691435"><ele>431.0</ele><time>2026-04-25T16:20:27.283Z</time></trkpt><trkpt lat="43.9082174" lon="11.2690951"><ele>431.0</ele><time>2026-04-25T16:20:29.276Z</time></trkpt><trkpt lat="43.908157" lon="11.2690439"><ele>431.0</ele><time>2026-04-25T16:20:31.283Z</time></trkpt><trkpt lat="43.9080972" lon="11.2689457"><ele>431.0</ele><time>2026-04-25T16:20:35.282Z</time></trkpt><trkpt lat="43.908044" lon="11.2688275"><ele>431.0</ele><time>2026-04-25T16:20:37.282Z</time></trkpt><trkpt lat="43.9079855" lon="11.2686778"><ele>433.25</ele><time>2026-04-25T16:20:39.278Z</time></trkpt><trkpt lat="43.9079507" lon="11.2685086"><ele>435.5</ele><time>2026-04-25T16:20:41.28Z</time></trkpt><trkpt lat="43.9079009" lon="11.2683339"><ele>437.75</ele><time>2026-04-25T16:20:43.282Z</time></trkpt><trkpt lat="43.9078431" lon="11.2681946"><ele>440.0</ele><time>2026-04-25T16:20:45.284Z</time></trkpt><trkpt lat="43.907788" lon="11.2680935"><ele>443.6</ele><time>2026-04-25T16:20:47.284Z</time></trkpt><trkpt lat="43.9077627" lon="11.2680059"><ele>447.2</ele><time>2026-04-25T16:20:49.28Z</time></trkpt><trkpt lat="43.9077225" lon="11.2679011"><ele>450.79999999999995</ele><time>2026-04-25T16:20:52.286Z</time></trkpt><trkpt lat="43.9076804" lon="11.2678129"><ele>454.4</ele><time>2026-04-25T16:20:54.283Z</time></trkpt><trkpt lat="43.9076308" lon="11.2676745"><ele>458.0</ele><time>2026-04-25T16:20:56.28Z</time></trkpt><trkpt lat="43.9075905" lon="11.267521"><ele>457.99999999999994</ele><time>2026-04-25T16:20:58.277Z</time></trkpt><trkpt lat="43.9075986" lon="11.2674263"><ele>458.0</ele><time>2026-04-25T16:20:59.279Z</time></trkpt><trkpt lat="43.9076189" lon="11.2673352"><ele>458.0</ele><time>2026-04-25T16:21:00.284Z</time></trkpt><trkpt lat="43.9076458" lon="11.2672414"><ele>458.0</ele><time>2026-04-25T16:21:01.295Z</time></trkpt><trkpt lat="43.9077045" lon="11.267072"><ele>457.99999999999994</ele><time>2026-04-25T16:21:03.27Z</time></trkpt><trkpt lat="43.9077169" lon="11.2669749"><ele>458.0</ele><time>2026-04-25T16:21:04.273Z</time></trkpt><trkpt lat="43.9077342" lon="11.2668825"><ele>457.4</ele><time>2026-04-25T16:21:05.276Z</time></trkpt><trkpt lat="43.9077339" lon="11.2667914"><ele>456.79999999999995</ele><time>2026-04-25T16:21:06.268Z</time></trkpt><trkpt lat="43.9076569" lon="11.2666268"><ele>456.2</ele><time>2026-04-25T16:21:08.273Z</time></trkpt><trkpt lat="43.9075709" lon="11.2665351"><ele>455.6</ele><time>2026-04-25T16:21:09.271Z</time></trkpt><trkpt lat="43.9074751" lon="11.2664177"><ele>455.0</ele><time>2026-04-25T16:21:10.271Z</time></trkpt><trkpt lat="43.907388" lon="11.2663039"><ele>455.0</ele><time>2026-04-25T16:21:11.264Z</time></trkpt><trkpt lat="43.907324" lon="11.2661981"><ele>455.0</ele><time>2026-04-25T16:21:12.266Z</time></trkpt><trkpt lat="43.9072727" lon="11.266085"><ele>455.0</ele><time>2026-04-25T16:21:13.274Z</time></trkpt><trkpt lat="43.9072346" lon="11.2659728"><ele>455.0</ele><time>2026-04-25T16:21:14.267Z</time></trkpt><trkpt lat="43.9072108" lon="11.2658577"><ele>455.0</ele><time>2026-04-25T16:21:15.269Z</time></trkpt><trkpt lat="43.9071808" lon="11.2657323"><ele>456.8</ele><time>2026-04-25T16:21:16.274Z</time></trkpt><trkpt lat="43.9071452" lon="11.2656112"><ele>458.6</ele><time>2026-04-25T16:21:17.274Z</time></trkpt><trkpt lat="43.9071162" lon="11.2654925"><ele>460.4</ele><time>2026-04-25T16:21:18.277Z</time></trkpt><trkpt lat="43.9071044" lon="11.2653627"><ele>462.2</ele><time>2026-04-25T16:21:19.274Z</time></trkpt><trkpt lat="43.907101" lon="11.2652163"><ele>464.0</ele><time>2026-04-25T16:21:20.28Z</time></trkpt><trkpt lat="43.9070893" lon="11.2650747"><ele>464.0</ele><time>2026-04-25T16:21:21.263Z</time></trkpt><trkpt lat="43.9070559" lon="11.2649465"><ele>464.0</ele><time>2026-04-25T16:21:22.273Z</time></trkpt><trkpt lat="43.9070005" lon="11.2648211"><ele>464.0</ele><time>2026-04-25T16:21:23.273Z</time></trkpt><trkpt lat="43.9069264" lon="11.2646955"><ele>464.0</ele><time>2026-04-25T16:21:24.277Z</time></trkpt><trkpt lat="43.9068385" lon="11.2645826"><ele>464.0</ele><time>2026-04-25T16:21:25.27Z</time></trkpt><trkpt lat="43.9067543" lon="11.2644617"><ele>461.6</ele><time>2026-04-25T16:21:26.267Z</time></trkpt><trkpt lat="43.9066884" lon="11.2643518"><ele>459.2</ele><time>2026-04-25T16:21:27.263Z</time></trkpt><trkpt lat="43.9066435" lon="11.2642393"><ele>456.80000000000007</ele><time>2026-04-25T16:21:28.271Z</time></trkpt><trkpt lat="43.9066368" lon="11.2641319"><ele>454.40000000000003</ele><time>2026-04-25T16:21:29.271Z</time></trkpt><trkpt lat="43.9066613" lon="11.2640232"><ele>452.0</ele><time>2026-04-25T16:21:30.271Z</time></trkpt><trkpt lat="43.9066877" lon="11.26389"><ele>452.0</ele><time>2026-04-25T16:21:31.27Z</time></trkpt><trkpt lat="43.9067049" lon="11.2637538"><ele>452.00000000000006</ele><time>2026-04-25T16:21:32.287Z</time></trkpt><trkpt lat="43.906717" lon="11.2636101"><ele>452.00000000000006</ele><time>2026-04-25T16:21:33.26Z</time></trkpt><trkpt lat="43.9067118" lon="11.2634651"><ele>452.0</ele><time>2026-04-25T16:21:34.266Z</time></trkpt><trkpt lat="43.9066939" lon="11.2633196"><ele>452.0</ele><time>2026-04-25T16:21:35.269Z</time></trkpt><trkpt lat="43.9066846" lon="11.2631784"><ele>453.40000000000003</ele><time>2026-04-25T16:21:36.268Z</time></trkpt><trkpt lat="43.9066772" lon="11.2630444"><ele>454.80000000000007</ele><time>2026-04-25T16:21:37.267Z</time></trkpt><trkpt lat="43.90665" lon="11.262938"><ele>456.2</ele><time>2026-04-25T16:21:38.266Z</time></trkpt><trkpt lat="43.906593" lon="11.2628251"><ele>457.6</ele><time>2026-04-25T16:21:39.281Z</time></trkpt><trkpt lat="43.9065089" lon="11.2627158"><ele>459.0</ele><time>2026-04-25T16:21:40.265Z</time></trkpt><trkpt lat="43.9064165" lon="11.2626132"><ele>459.0</ele><time>2026-04-25T16:21:41.268Z</time></trkpt><trkpt lat="43.9063246" lon="11.2625303"><ele>459.0</ele><time>2026-04-25T16:21:42.272Z</time></trkpt><trkpt lat="43.9062549" lon="11.2624691"><ele>459.0</ele><time>2026-04-25T16:21:43.271Z</time></trkpt><trkpt lat="43.9061754" lon="11.2623766"><ele>459.0</ele><time>2026-04-25T16:21:45.266Z</time></trkpt><trkpt lat="43.9061525" lon="11.2622535"><ele>459.0</ele><time>2026-04-25T16:21:47.278Z</time></trkpt><trkpt lat="43.906176" lon="11.2620718"><ele>461.6666666666667</ele><time>2026-04-25T16:21:49.267Z</time></trkpt><trkpt lat="43.9062046" lon="11.2619765"><ele>464.33333333333337</ele><time>2026-04-25T16:21:50.278Z</time></trkpt><trkpt lat="43.9062238" lon="11.2618737"><ele>467.0</ele><time>2026-04-25T16:21:51.276Z</time></trkpt><trkpt lat="43.9062351" lon="11.2617689"><ele>469.6666666666667</ele><time>2026-04-25T16:21:52.271Z</time></trkpt><trkpt lat="43.9062201" lon="11.261663"><ele>472.33333333333337</ele><time>2026-04-25T16:21:53.268Z</time></trkpt><trkpt lat="43.906183" lon="11.2615685"><ele>475.0</ele><time>2026-04-25T16:21:54.253Z</time></trkpt><trkpt lat="43.9061367" lon="11.2614815"><ele>472.1666666666667</ele><time>2026-04-25T16:21:55.264Z</time></trkpt><trkpt lat="43.9060751" lon="11.2614166"><ele>469.33333333333337</ele><time>2026-04-25T16:21:56.267Z</time></trkpt><trkpt lat="43.906005" lon="11.2613522"><ele>466.5</ele><time>2026-04-25T16:21:57.275Z</time></trkpt><trkpt lat="43.905933" lon="11.2612968"><ele>463.66666666666663</ele><time>2026-04-25T16:21:58.271Z</time></trkpt><trkpt lat="43.9058549" lon="11.2612297"><ele>460.8333333333333</ele><time>2026-04-25T16:21:59.272Z</time></trkpt><trkpt lat="43.9057825" lon="11.2611812"><ele>458.0</ele><time>2026-04-25T16:22:00.272Z</time></trkpt><trkpt lat="43.9057122" lon="11.2611279"><ele>458.0</ele><time>2026-04-25T16:22:01.272Z</time></trkpt><trkpt lat="43.9056439" lon="11.261068"><ele>457.99999999999994</ele><time>2026-04-25T16:22:02.271Z</time></trkpt><trkpt lat="43.9055668" lon="11.2609921"><ele>457.99999999999994</ele><time>2026-04-25T16:22:03.284Z</time></trkpt><trkpt lat="43.9054914" lon="11.260903"><ele>458.0</ele><time>2026-04-25T16:22:04.266Z</time></trkpt><trkpt lat="43.9054296" lon="11.2607781"><ele>458.0</ele><time>2026-04-25T16:22:05.258Z</time></trkpt><trkpt lat="43.905385" lon="11.2606522"><ele>458.0</ele><time>2026-04-25T16:22:06.26Z</time></trkpt><trkpt lat="43.9053421" lon="11.2605383"><ele>457.99999999999994</ele><time>2026-04-25T16:22:07.248Z</time></trkpt><trkpt lat="43.9052999" lon="11.2604466"><ele>457.99999999999994</ele><time>2026-04-25T16:22:08.263Z</time></trkpt><trkpt lat="43.9052171" lon="11.2604128"><ele>458.0</ele><time>2026-04-25T16:22:09.263Z</time></trkpt><trkpt lat="43.9050956" lon="11.260425"><ele>458.0</ele><time>2026-04-25T16:22:10.263Z</time></trkpt><trkpt lat="43.9049538" lon="11.2604289"><ele>458.0</ele><time>2026-04-25T16:22:11.26Z</time></trkpt><trkpt lat="43.9048047" lon="11.2604254"><ele>458.0</ele><time>2026-04-25T16:22:12.259Z</time></trkpt><trkpt lat="43.9046783" lon="11.2604069"><ele>458.0</ele><time>2026-04-25T16:22:13.261Z</time></trkpt><trkpt lat="43.9045637" lon="11.2604138"><ele>458.0</ele><time>2026-04-25T16:22:14.259Z</time></trkpt><trkpt lat="43.9044594" lon="11.2604285"><ele>458.0</ele><time>2026-04-25T16:22:15.278Z</time></trkpt><trkpt lat="43.9043541" lon="11.2605114"><ele>457.99999999999994</ele><time>2026-04-25T16:22:16.274Z</time></trkpt><trkpt lat="43.9042505" lon="11.2605822"><ele>457.99999999999994</ele><time>2026-04-25T16:22:17.275Z</time></trkpt><trkpt lat="43.9041549" lon="11.2606692"><ele>458.0</ele><time>2026-04-25T16:22:18.275Z</time></trkpt><trkpt lat="43.9040947" lon="11.2607747"><ele>458.0</ele><time>2026-04-25T16:22:19.271Z</time></trkpt><trkpt lat="43.9040151" lon="11.2608677"><ele>457.2</ele><time>2026-04-25T16:22:20.273Z</time></trkpt><trkpt lat="43.9039424" lon="11.2609216"><ele>456.4</ele><time>2026-04-25T16:22:21.272Z</time></trkpt><trkpt lat="43.9038678" lon="11.2609449"><ele>455.59999999999997</ele><time>2026-04-25T16:22:22.272Z</time></trkpt><trkpt lat="43.9037827" lon="11.2609325"><ele>454.79999999999995</ele><time>2026-04-25T16:22:23.267Z</time></trkpt><trkpt lat="43.9036938" lon="11.2608788"><ele>454.0</ele><time>2026-04-25T16:22:24.282Z</time></trkpt><trkpt lat="43.9035962" lon="11.2607842"><ele>454.0</ele><time>2026-04-25T16:22:25.263Z</time></trkpt><trkpt lat="43.9034811" lon="11.2606637"><ele>454.0</ele><time>2026-04-25T16:22:26.277Z</time></trkpt><trkpt lat="43.9033544" lon="11.2605775"><ele>454.0</ele><time>2026-04-25T16:22:27.272Z</time></trkpt><trkpt lat="43.9032366" lon="11.260559"><ele>454.0</ele><time>2026-04-25T16:22:28.276Z</time></trkpt><trkpt lat="43.9031061" lon="11.2605717"><ele>458.2</ele><time>2026-04-25T16:22:29.271Z</time></trkpt><trkpt lat="43.9029848" lon="11.260576"><ele>462.4</ele><time>2026-04-25T16:22:30.269Z</time></trkpt><trkpt lat="43.9028963" lon="11.2605603"><ele>466.6</ele><time>2026-04-25T16:22:31.28Z</time></trkpt><trkpt lat="43.9028172" lon="11.2605026"><ele>470.8</ele><time>2026-04-25T16:22:32.278Z</time></trkpt><trkpt lat="43.9027471" lon="11.2604258"><ele>475.0</ele><time>2026-04-25T16:22:33.277Z</time></trkpt><trkpt lat="43.9026865" lon="11.2603273"><ele>475.0</ele><time>2026-04-25T16:22:34.295Z</time></trkpt><trkpt lat="43.9026423" lon="11.2602045"><ele>475.0</ele><time>2026-04-25T16:22:35.277Z</time></trkpt><trkpt lat="43.9025992" lon="11.260078"><ele>475.0</ele><time>2026-04-25T16:22:36.273Z</time></trkpt><trkpt lat="43.9025494" lon="11.2599649"><ele>475.0</ele><time>2026-04-25T16:22:37.278Z</time></trkpt><trkpt lat="43.9025031" lon="11.2598679"><ele>475.0</ele><time>2026-04-25T16:22:38.265Z</time></trkpt><trkpt lat="43.9024658" lon="11.2597817"><ele>474.8</ele><time>2026-04-25T16:22:39.273Z</time></trkpt><trkpt lat="43.9023546" lon="11.2597875"><ele>474.6</ele><time>2026-04-25T16:22:41.281Z</time></trkpt><trkpt lat="43.9022759" lon="11.2598559"><ele>474.4</ele><time>2026-04-25T16:22:42.282Z</time></trkpt><trkpt lat="43.902171" lon="11.2599599"><ele>474.2</ele><time>2026-04-25T16:22:43.275Z</time></trkpt><trkpt lat="43.9020792" lon="11.2600346"><ele>474.0</ele><time>2026-04-25T16:22:44.277Z</time></trkpt><trkpt lat="43.902004" lon="11.2600599"><ele>474.0</ele><time>2026-04-25T16:22:45.288Z</time></trkpt><trkpt lat="43.9019296" lon="11.2600419"><ele>474.0</ele><time>2026-04-25T16:22:46.274Z</time></trkpt><trkpt lat="43.9018542" lon="11.2599938"><ele>474.0</ele><time>2026-04-25T16:22:47.283Z</time></trkpt><trkpt lat="43.9017793" lon="11.2599273"><ele>474.0</ele><time>2026-04-25T16:22:48.276Z</time></trkpt><trkpt lat="43.9016976" lon="11.2599077"><ele>474.0</ele><time>2026-04-25T16:22:49.278Z</time></trkpt><trkpt lat="43.901609" lon="11.2599196"><ele>474.0</ele><time>2026-04-25T16:22:50.29Z</time></trkpt><trkpt lat="43.9015266" lon="11.2599416"><ele>474.5</ele><time>2026-04-25T16:22:51.282Z</time></trkpt><trkpt lat="43.9014438" lon="11.2599387"><ele>475.0</ele><time>2026-04-25T16:22:52.28Z</time></trkpt><trkpt lat="43.9013545" lon="11.2599129"><ele>475.5</ele><time>2026-04-25T16:22:53.283Z</time></trkpt><trkpt lat="43.901262" lon="11.259879"><ele>476.0</ele><time>2026-04-25T16:22:54.279Z</time></trkpt><trkpt lat="43.9011839" lon="11.2598484"><ele>476.5</ele><time>2026-04-25T16:22:55.275Z</time></trkpt><trkpt lat="43.9011166" lon="11.2598416"><ele>477.0</ele><time>2026-04-25T16:22:56.275Z</time></trkpt><trkpt lat="43.9010374" lon="11.2598353"><ele>477.0</ele><time>2026-04-25T16:22:58.286Z</time></trkpt><trkpt lat="43.900957" lon="11.2598285"><ele>477.00000000000006</ele><time>2026-04-25T16:23:15.281Z</time></trkpt><trkpt lat="43.9010558" lon="11.2598596"><ele>477.00000000000006</ele><time>2026-04-25T16:23:34.277Z</time></trkpt><trkpt lat="43.901171" lon="11.2598926"><ele>477.0</ele><time>2026-04-25T16:23:36.296Z</time></trkpt><trkpt lat="43.901279" lon="11.2599392"><ele>477.0</ele><time>2026-04-25T16:23:38.282Z</time></trkpt><trkpt lat="43.9013917" lon="11.259969"><ele>477.0</ele><time>2026-04-25T16:23:40.286Z</time></trkpt><trkpt lat="43.9014557" lon="11.2599808"><ele>476.99999999999994</ele><time>2026-04-25T16:23:41.28Z</time></trkpt><trkpt lat="43.9015458" lon="11.2599826"><ele>477.0</ele><time>2026-04-25T16:23:43.289Z</time></trkpt><trkpt lat="43.9016113" lon="11.2599806"><ele>477.0</ele><time>2026-04-25T16:23:45.286Z</time></trkpt><trkpt lat="43.9016985" lon="11.2599539"><ele>476.99999999999994</ele><time>2026-04-25T16:23:48.284Z</time></trkpt><trkpt lat="43.9017618" lon="11.2599635"><ele>477.0</ele><time>2026-04-25T16:23:50.29Z</time></trkpt><trkpt lat="43.901818" lon="11.259917"><ele>477.0</ele><time>2026-04-25T16:23:53.289Z</time></trkpt><trkpt lat="43.9018156" lon="11.2598161"><ele>479.20000000000005</ele><time>2026-04-25T16:23:55.28Z</time></trkpt><trkpt lat="43.9017923" lon="11.2596515"><ele>481.40000000000003</ele><time>2026-04-25T16:23:57.283Z</time></trkpt><trkpt lat="43.9017564" lon="11.2595754"><ele>483.59999999999997</ele><time>2026-04-25T16:23:58.276Z</time></trkpt><trkpt lat="43.9017141" lon="11.2595004"><ele>485.79999999999995</ele><time>2026-04-25T16:23:59.279Z</time></trkpt><trkpt lat="43.901625" lon="11.2594337"><ele>488.0</ele><time>2026-04-25T16:24:01.281Z</time></trkpt><trkpt lat="43.9015521" lon="11.2595253"><ele>488.66666666666663</ele><time>2026-04-25T16:24:03.29Z</time></trkpt><trkpt lat="43.9014879" lon="11.259598"><ele>489.3333333333333</ele><time>2026-04-25T16:24:05.281Z</time></trkpt><trkpt lat="43.901461" lon="11.2594929"><ele>490.0</ele><time>2026-04-25T16:24:08.288Z</time></trkpt><trkpt lat="43.9014661" lon="11.2593915"><ele>490.66666666666663</ele><time>2026-04-25T16:24:10.286Z</time></trkpt><trkpt lat="43.9014262" lon="11.2593012"><ele>491.3333333333333</ele><time>2026-04-25T16:24:12.278Z</time></trkpt><trkpt lat="43.9013525" lon="11.2592796"><ele>492.0</ele><time>2026-04-25T16:24:14.287Z</time></trkpt><trkpt lat="43.9012922" lon="11.2591917"><ele>492.0</ele><time>2026-04-25T16:24:17.297Z</time></trkpt><trkpt lat="43.9012516" lon="11.2591182"><ele>492.00000000000006</ele><time>2026-04-25T16:24:19.286Z</time></trkpt><trkpt lat="43.9011663" lon="11.2590491"><ele>492.00000000000006</ele><time>2026-04-25T16:24:21.285Z</time></trkpt><trkpt lat="43.9010559" lon="11.2590134"><ele>492.0</ele><time>2026-04-25T16:24:23.287Z</time></trkpt><trkpt lat="43.9009638" lon="11.2590084"><ele>492.0</ele><time>2026-04-25T16:24:25.292Z</time></trkpt><trkpt lat="43.9008703" lon="11.2590018"><ele>493.40000000000003</ele><time>2026-04-25T16:24:27.293Z</time></trkpt><trkpt lat="43.9007537" lon="11.258954"><ele>494.80000000000007</ele><time>2026-04-25T16:24:29.29Z</time></trkpt><trkpt lat="43.900635" lon="11.2589555"><ele>496.2</ele><time>2026-04-25T16:24:31.284Z</time></trkpt><trkpt lat="43.9005709" lon="11.2590516"><ele>497.6</ele><time>2026-04-25T16:24:33.288Z</time></trkpt><trkpt lat="43.9004983" lon="11.259066"><ele>499.0</ele><time>2026-04-25T16:24:35.297Z</time></trkpt><trkpt lat="43.9004361" lon="11.2589497"><ele>502.2</ele><time>2026-04-25T16:24:37.296Z</time></trkpt><trkpt lat="43.9004339" lon="11.2588231"><ele>505.4</ele><time>2026-04-25T16:24:39.288Z</time></trkpt><trkpt lat="43.9004318" lon="11.2586653"><ele>508.6</ele><time>2026-04-25T16:24:41.29Z</time></trkpt><trkpt lat="43.9004022" lon="11.2585663"><ele>511.8</ele><time>2026-04-25T16:24:43.28Z</time></trkpt><trkpt lat="43.9003121" lon="11.2585336"><ele>515.0</ele><time>2026-04-25T16:24:45.288Z</time></trkpt><trkpt lat="43.9002239" lon="11.2585353"><ele>515.0</ele><time>2026-04-25T16:24:47.288Z</time></trkpt><trkpt lat="43.9001416" lon="11.258473"><ele>515.0</ele><time>2026-04-25T16:24:50.289Z</time></trkpt><trkpt lat="43.9000603" lon="11.2584172"><ele>515.0</ele><time>2026-04-25T16:24:52.298Z</time></trkpt><trkpt lat="43.9000011" lon="11.2583829"><ele>515.0</ele><time>2026-04-25T16:24:53.289Z</time></trkpt><trkpt lat="43.8999256" lon="11.2583108"><ele>515.0</ele><time>2026-04-25T16:24:55.3Z</time></trkpt><trkpt lat="43.8998467" lon="11.2582213"><ele>515.0</ele><time>2026-04-25T16:24:57.288Z</time></trkpt><trkpt lat="43.8997502" lon="11.2581428"><ele>517.6666666666666</ele><time>2026-04-25T16:24:59.281Z</time></trkpt><trkpt lat="43.8997332" lon="11.2580487"><ele>520.3333333333333</ele><time>2026-04-25T16:25:01.29Z</time></trkpt><trkpt lat="43.8998467" lon="11.257978"><ele>523.0</ele><time>2026-04-25T16:25:03.289Z</time></trkpt><trkpt lat="43.8999246" lon="11.2579547"><ele>525.6666666666666</ele><time>2026-04-25T16:25:04.288Z</time></trkpt><trkpt lat="43.9000141" lon="11.2578756"><ele>528.3333333333334</ele><time>2026-04-25T16:25:06.295Z</time></trkpt><trkpt lat="43.9000587" lon="11.2578111"><ele>531.0</ele><time>2026-04-25T16:25:07.294Z</time></trkpt><trkpt lat="43.9001007" lon="11.2577452"><ele>531.0</ele><time>2026-04-25T16:25:08.294Z</time></trkpt><trkpt lat="43.9001588" lon="11.2576106"><ele>531.0</ele><time>2026-04-25T16:25:10.298Z</time></trkpt><trkpt lat="43.9001817" lon="11.2574367"><ele>531.0</ele><time>2026-04-25T16:25:12.296Z</time></trkpt><trkpt lat="43.9001904" lon="11.2573423"><ele>531.0</ele><time>2026-04-25T16:25:13.294Z</time></trkpt><trkpt lat="43.9002084" lon="11.257243"><ele>531.0</ele><time>2026-04-25T16:25:14.293Z</time></trkpt><trkpt lat="43.9002612" lon="11.2571113"><ele>534.0</ele><time>2026-04-25T16:25:16.287Z</time></trkpt><trkpt lat="43.9003319" lon="11.2570335"><ele>537.0</ele><time>2026-04-25T16:25:18.306Z</time></trkpt><trkpt lat="43.9003986" lon="11.2569542"><ele>540.0</ele><time>2026-04-25T16:25:20.289Z</time></trkpt><trkpt lat="43.9004223" lon="11.2568164"><ele>543.0</ele><time>2026-04-25T16:25:22.295Z</time></trkpt><trkpt lat="43.9004401" lon="11.2566441"><ele>546.0</ele><time>2026-04-25T16:25:24.294Z</time></trkpt><trkpt lat="43.9004539" lon="11.2565079"><ele>546.1666666666666</ele><time>2026-04-25T16:25:26.292Z</time></trkpt><trkpt lat="43.9005081" lon="11.2563877"><ele>546.3333333333334</ele><time>2026-04-25T16:25:48.289Z</time></trkpt><trkpt lat="43.9005486" lon="11.2563048"><ele>546.5</ele><time>2026-04-25T16:25:49.288Z</time></trkpt><trkpt lat="43.9005798" lon="11.2562087"><ele>546.6666666666667</ele><time>2026-04-25T16:25:50.287Z</time></trkpt><trkpt lat="43.9006138" lon="11.2561037"><ele>546.8333333333334</ele><time>2026-04-25T16:25:51.285Z</time></trkpt><trkpt lat="43.900639" lon="11.2560098"><ele>547.0</ele><time>2026-04-25T16:25:52.28Z</time></trkpt><trkpt lat="43.9006488" lon="11.2558768"><ele>547.0</ele><time>2026-04-25T16:25:54.274Z</time></trkpt><trkpt lat="43.9006492" lon="11.2557627"><ele>547.0</ele><time>2026-04-25T16:25:57.276Z</time></trkpt><trkpt lat="43.9006603" lon="11.2556674"><ele>547.0</ele><time>2026-04-25T16:26:07.29Z</time></trkpt><trkpt lat="43.9006967" lon="11.2555709"><ele>547.0</ele><time>2026-04-25T16:26:10.287Z</time></trkpt><trkpt lat="43.9007312" lon="11.2554975"><ele>547.0</ele><time>2026-04-25T16:26:12.29Z</time></trkpt><trkpt lat="43.9007639" lon="11.2553938"><ele>547.0</ele><time>2026-04-25T16:26:14.287Z</time></trkpt><trkpt lat="43.9008247" lon="11.2552857"><ele>548.1666666666667</ele><time>2026-04-25T16:26:16.291Z</time></trkpt><trkpt lat="43.9008851" lon="11.2552196"><ele>549.3333333333334</ele><time>2026-04-25T16:26:18.285Z</time></trkpt><trkpt lat="43.9009357" lon="11.2551129"><ele>550.5</ele><time>2026-04-25T16:26:21.287Z</time></trkpt><trkpt lat="43.9009755" lon="11.2550309"><ele>551.6666666666666</ele><time>2026-04-25T16:26:23.279Z</time></trkpt><trkpt lat="43.9010489" lon="11.2549485"><ele>552.8333333333333</ele><time>2026-04-25T16:26:25.277Z</time></trkpt><trkpt lat="43.9011242" lon="11.2548476"><ele>554.0</ele><time>2026-04-25T16:26:27.265Z</time></trkpt><trkpt lat="43.901148" lon="11.2547506"><ele>551.2</ele><time>2026-04-25T16:26:29.27Z</time></trkpt><trkpt lat="43.9011882" lon="11.254625"><ele>548.4</ele><time>2026-04-25T16:26:31.282Z</time></trkpt><trkpt lat="43.9012299" lon="11.2545038"><ele>545.6</ele><time>2026-04-25T16:26:33.279Z</time></trkpt><trkpt lat="43.9012918" lon="11.2543931"><ele>542.8</ele><time>2026-04-25T16:26:35.276Z</time></trkpt><trkpt lat="43.9013446" lon="11.2543128"><ele>540.0</ele><time>2026-04-25T16:26:37.275Z</time></trkpt><trkpt lat="43.9013797" lon="11.254221"><ele>540.0</ele><time>2026-04-25T16:26:39.276Z</time></trkpt><trkpt lat="43.9014301" lon="11.2541487"><ele>540.0</ele><time>2026-04-25T16:26:41.278Z</time></trkpt><trkpt lat="43.9015171" lon="11.2540902"><ele>540.0</ele><time>2026-04-25T16:26:43.271Z</time></trkpt><trkpt lat="43.9015888" lon="11.254019"><ele>540.0</ele><time>2026-04-25T16:26:45.268Z</time></trkpt><trkpt lat="43.9016651" lon="11.25395"><ele>540.0</ele><time>2026-04-25T16:26:47.275Z</time></trkpt><trkpt lat="43.9017313" lon="11.2538568"><ele>540.0</ele><time>2026-04-25T16:26:49.269Z</time></trkpt><trkpt lat="43.9017601" lon="11.2537457"><ele>539.3333333333334</ele><time>2026-04-25T16:26:51.274Z</time></trkpt><trkpt lat="43.9017723" lon="11.2536092"><ele>538.6666666666666</ele><time>2026-04-25T16:26:53.277Z</time></trkpt><trkpt lat="43.9017925" lon="11.2535044"><ele>538.0</ele><time>2026-04-25T16:26:55.273Z</time></trkpt><trkpt lat="43.9017923" lon="11.2534075"><ele>537.3333333333333</ele><time>2026-04-25T16:26:57.278Z</time></trkpt><trkpt lat="43.9017808" lon="11.2532933"><ele>536.6666666666666</ele><time>2026-04-25T16:27:00.281Z</time></trkpt><trkpt lat="43.9017478" lon="11.2531993"><ele>536.0</ele><time>2026-04-25T16:27:02.281Z</time></trkpt><trkpt lat="43.9016997" lon="11.2530837"><ele>539.0</ele><time>2026-04-25T16:27:09.281Z</time></trkpt><trkpt lat="43.9016473" lon="11.2529682"><ele>542.0</ele><time>2026-04-25T16:27:11.283Z</time></trkpt><trkpt lat="43.9015795" lon="11.252876"><ele>545.0</ele><time>2026-04-25T16:27:13.296Z</time></trkpt><trkpt lat="43.9015049" lon="11.25279"><ele>548.0</ele><time>2026-04-25T16:27:15.282Z</time></trkpt><trkpt lat="43.9014276" lon="11.2527237"><ele>551.0</ele><time>2026-04-25T16:27:17.284Z</time></trkpt><trkpt lat="43.9013495" lon="11.2526218"><ele>551.0</ele><time>2026-04-25T16:27:19.274Z</time></trkpt><trkpt lat="43.9012823" lon="11.252572"><ele>551.0</ele><time>2026-04-25T16:27:21.281Z</time></trkpt><trkpt lat="43.9012281" lon="11.252475"><ele>551.0</ele><time>2026-04-25T16:27:23.283Z</time></trkpt><trkpt lat="43.901246" lon="11.2523438"><ele>551.0</ele><time>2026-04-25T16:27:26.282Z</time></trkpt><trkpt lat="43.9012503" lon="11.2522379"><ele>551.0</ele><time>2026-04-25T16:27:28.283Z</time></trkpt><trkpt lat="43.9012344" lon="11.2521437"><ele>551.0</ele><time>2026-04-25T16:27:30.283Z</time></trkpt><trkpt lat="43.9012154" lon="11.2520477"><ele>553.6666666666666</ele><time>2026-04-25T16:27:32.283Z</time></trkpt><trkpt lat="43.9011769" lon="11.2519656"><ele>556.3333333333333</ele><time>2026-04-25T16:27:34.28Z</time></trkpt><trkpt lat="43.9011376" lon="11.2518723"><ele>559.0</ele><time>2026-04-25T16:27:36.277Z</time></trkpt><trkpt lat="43.9010947" lon="11.2517674"><ele>561.6666666666666</ele><time>2026-04-25T16:27:38.277Z</time></trkpt><trkpt lat="43.9010359" lon="11.2516281"><ele>564.3333333333334</ele><time>2026-04-25T16:27:40.279Z</time></trkpt><trkpt lat="43.9009759" lon="11.2515213"><ele>567.0</ele><time>2026-04-25T16:27:42.283Z</time></trkpt><trkpt lat="43.9009183" lon="11.2514074"><ele>564.0</ele><time>2026-04-25T16:27:44.295Z</time></trkpt><trkpt lat="43.9008547" lon="11.251309"><ele>561.0</ele><time>2026-04-25T16:27:46.279Z</time></trkpt><trkpt lat="43.9007764" lon="11.2512333"><ele>558.0</ele><time>2026-04-25T16:27:48.282Z</time></trkpt><trkpt lat="43.9006671" lon="11.251172"><ele>555.0</ele><time>2026-04-25T16:27:50.276Z</time></trkpt><trkpt lat="43.9005671" lon="11.2511009"><ele>552.0</ele><time>2026-04-25T16:27:52.274Z</time></trkpt><trkpt lat="43.9004628" lon="11.2510425"><ele>552.0</ele><time>2026-04-25T16:27:54.277Z</time></trkpt><trkpt lat="43.9003943" lon="11.2509885"><ele>552.0</ele><time>2026-04-25T16:27:56.288Z</time></trkpt><trkpt lat="43.9003197" lon="11.2509275"><ele>552.0</ele><time>2026-04-25T16:27:58.283Z</time></trkpt><trkpt lat="43.9002583" lon="11.2508586"><ele>552.0</ele><time>2026-04-25T16:28:00.289Z</time></trkpt><trkpt lat="43.9001695" lon="11.2508369"><ele>552.0</ele><time>2026-04-25T16:28:02.283Z</time></trkpt><trkpt lat="43.900075" lon="11.2508157"><ele>552.0</ele><time>2026-04-25T16:28:04.277Z</time></trkpt><trkpt lat="43.8999844" lon="11.2507416"><ele>550.8333333333334</ele><time>2026-04-25T16:28:06.274Z</time></trkpt><trkpt lat="43.8998933" lon="11.2506378"><ele>549.6666666666666</ele><time>2026-04-25T16:28:08.281Z</time></trkpt><trkpt lat="43.8998097" lon="11.250551"><ele>548.5</ele><time>2026-04-25T16:28:10.283Z</time></trkpt><trkpt lat="43.8997504" lon="11.2504802"><ele>547.3333333333333</ele><time>2026-04-25T16:28:12.298Z</time></trkpt><trkpt lat="43.8996888" lon="11.2504566"><ele>546.1666666666666</ele><time>2026-04-25T16:28:14.302Z</time></trkpt><trkpt lat="43.899622" lon="11.2504227"><ele>545.0</ele><time>2026-04-25T16:28:16.303Z</time></trkpt><trkpt lat="43.8995485" lon="11.2503825"><ele>544.0</ele><time>2026-04-25T16:28:18.303Z</time></trkpt><trkpt lat="43.899455" lon="11.2503969"><ele>543.0</ele><time>2026-04-25T16:28:20.294Z</time></trkpt><trkpt lat="43.8993578" lon="11.2503829"><ele>542.0</ele><time>2026-04-25T16:28:22.292Z</time></trkpt><trkpt lat="43.8992532" lon="11.2503083"><ele>541.0</ele><time>2026-04-25T16:28:24.286Z</time></trkpt><trkpt lat="43.8991591" lon="11.250217"><ele>540.0</ele><time>2026-04-25T16:28:26.296Z</time></trkpt><trkpt lat="43.8990466" lon="11.2501562"><ele>539.8</ele><time>2026-04-25T16:28:28.292Z</time></trkpt><trkpt lat="43.8989569" lon="11.2500733"><ele>539.6</ele><time>2026-04-25T16:28:30.291Z</time></trkpt><trkpt lat="43.8989255" lon="11.2499955"><ele>539.4</ele><time>2026-04-25T16:28:34.298Z</time></trkpt><trkpt lat="43.898905" lon="11.2499032"><ele>539.2</ele><time>2026-04-25T16:28:37.296Z</time></trkpt><trkpt lat="43.8988307" lon="11.2498201"><ele>539.0</ele><time>2026-04-25T16:28:40.29Z</time></trkpt><trkpt lat="43.8986991" lon="11.2497144"><ele>539.4</ele><time>2026-04-25T16:28:42.29Z</time></trkpt><trkpt lat="43.8986234" lon="11.2496403"><ele>539.8</ele><time>2026-04-25T16:28:43.286Z</time></trkpt><trkpt lat="43.8985558" lon="11.2495701"><ele>540.2</ele><time>2026-04-25T16:28:44.292Z</time></trkpt><trkpt lat="43.8984882" lon="11.2495111"><ele>540.6</ele><time>2026-04-25T16:28:45.29Z</time></trkpt><trkpt lat="43.8983822" lon="11.2494401"><ele>541.0</ele><time>2026-04-25T16:28:47.3Z</time></trkpt><trkpt lat="43.8983162" lon="11.2493499"><ele>541.0</ele><time>2026-04-25T16:28:49.292Z</time></trkpt><trkpt lat="43.8982477" lon="11.2492245"><ele>541.0</ele><time>2026-04-25T16:28:51.285Z</time></trkpt><trkpt lat="43.89818" lon="11.2491202"><ele>541.0</ele><time>2026-04-25T16:28:53.282Z</time></trkpt><trkpt lat="43.8981189" lon="11.2490314"><ele>541.0</ele><time>2026-04-25T16:28:55.283Z</time></trkpt><trkpt lat="43.8980232" lon="11.2489574"><ele>541.0</ele><time>2026-04-25T16:28:57.28Z</time></trkpt><trkpt lat="43.8979064" lon="11.2488607"><ele>541.0</ele><time>2026-04-25T16:28:59.278Z</time></trkpt><trkpt lat="43.897844" lon="11.2488365"><ele>541.0</ele><time>2026-04-25T16:29:00.279Z</time></trkpt><trkpt lat="43.8977738" lon="11.2488344"><ele>541.0</ele><time>2026-04-25T16:29:01.282Z</time></trkpt><trkpt lat="43.8977036" lon="11.2488216"><ele>541.0</ele><time>2026-04-25T16:29:02.281Z</time></trkpt><trkpt lat="43.8976285" lon="11.2487589"><ele>541.0</ele><time>2026-04-25T16:29:04.281Z</time></trkpt><trkpt lat="43.8975857" lon="11.2486937"><ele>541.0</ele><time>2026-04-25T16:29:06.293Z</time></trkpt><trkpt lat="43.8974848" lon="11.2486974"><ele>541.0</ele><time>2026-04-25T16:29:19.299Z</time></trkpt><trkpt lat="43.897422" lon="11.2486833"><ele>541.0</ele><time>2026-04-25T16:29:21.296Z</time></trkpt><trkpt lat="43.8973398" lon="11.2486796"><ele>541.0</ele><time>2026-04-25T16:29:25.297Z</time></trkpt><trkpt lat="43.8972706" lon="11.2486517"><ele>541.0</ele><time>2026-04-25T16:29:28.3Z</time></trkpt><trkpt lat="43.8971983" lon="11.2485886"><ele>541.0</ele><time>2026-04-25T16:29:30.297Z</time></trkpt><trkpt lat="43.897118" lon="11.2484847"><ele>541.0</ele><time>2026-04-25T16:29:32.292Z</time></trkpt><trkpt lat="43.8970624" lon="11.248434"><ele>541.0</ele><time>2026-04-25T16:29:33.286Z</time></trkpt><trkpt lat="43.8969862" lon="11.2483679"><ele>541.0</ele><time>2026-04-25T16:29:34.287Z</time></trkpt><trkpt lat="43.8969061" lon="11.2482915"><ele>541.0</ele><time>2026-04-25T16:29:35.292Z</time></trkpt><trkpt lat="43.8968173" lon="11.2481984"><ele>541.0</ele><time>2026-04-25T16:29:36.299Z</time></trkpt><trkpt lat="43.8967356" lon="11.2481162"><ele>541.0</ele><time>2026-04-25T16:29:37.295Z</time></trkpt><trkpt lat="43.8966669" lon="11.2480491"><ele>541.8571428571429</ele><time>2026-04-25T16:29:38.293Z</time></trkpt><trkpt lat="43.8966022" lon="11.2479969"><ele>542.7142857142858</ele><time>2026-04-25T16:29:39.287Z</time></trkpt><trkpt lat="43.8965375" lon="11.2479695"><ele>543.5714285714286</ele><time>2026-04-25T16:29:40.292Z</time></trkpt><trkpt lat="43.8964816" lon="11.2479234"><ele>544.4285714285714</ele><time>2026-04-25T16:29:41.288Z</time></trkpt><trkpt lat="43.89642" lon="11.2478659"><ele>545.2857142857142</ele><time>2026-04-25T16:29:42.292Z</time></trkpt><trkpt lat="43.8963593" lon="11.2478335"><ele>546.1428571428571</ele><time>2026-04-25T16:29:43.289Z</time></trkpt><trkpt lat="43.8962708" lon="11.2478123"><ele>547.0</ele><time>2026-04-25T16:29:44.29Z</time></trkpt><trkpt lat="43.896189" lon="11.2477677"><ele>547.0</ele><time>2026-04-25T16:29:45.281Z</time></trkpt><trkpt lat="43.8961206" lon="11.2477004"><ele>547.0</ele><time>2026-04-25T16:29:46.285Z</time></trkpt><trkpt lat="43.896062" lon="11.2476477"><ele>547.0</ele><time>2026-04-25T16:29:47.284Z</time></trkpt><trkpt lat="43.895976" lon="11.2476251"><ele>547.0</ele><time>2026-04-25T16:29:48.299Z</time></trkpt><trkpt lat="43.8958969" lon="11.2476152"><ele>547.0</ele><time>2026-04-25T16:29:49.274Z</time></trkpt><trkpt lat="43.8957535" lon="11.2476154"><ele>547.5</ele><time>2026-04-25T16:29:51.281Z</time></trkpt><trkpt lat="43.8956716" lon="11.2476332"><ele>548.0</ele><time>2026-04-25T16:29:52.28Z</time></trkpt><trkpt lat="43.8955948" lon="11.24765"><ele>548.5</ele><time>2026-04-25T16:29:53.278Z</time></trkpt><trkpt lat="43.8955181" lon="11.247643"><ele>549.0</ele><time>2026-04-25T16:29:54.28Z</time></trkpt><trkpt lat="43.8954416" lon="11.2476519"><ele>549.5</ele><time>2026-04-25T16:29:55.278Z</time></trkpt><trkpt lat="43.8953617" lon="11.2476876"><ele>550.0</ele><time>2026-04-25T16:29:56.274Z</time></trkpt><trkpt lat="43.8952819" lon="11.2477453"><ele>550.0</ele><time>2026-04-25T16:29:57.276Z</time></trkpt><trkpt lat="43.8952064" lon="11.2477827"><ele>550.0</ele><time>2026-04-25T16:29:58.282Z</time></trkpt><trkpt lat="43.8951381" lon="11.2478191"><ele>550.0</ele><time>2026-04-25T16:29:59.287Z</time></trkpt><trkpt lat="43.8950767" lon="11.2478422"><ele>550.0</ele><time>2026-04-25T16:30:00.286Z</time></trkpt><trkpt lat="43.8949784" lon="11.2479322"><ele>550.0</ele><time>2026-04-25T16:30:02.289Z</time></trkpt><trkpt lat="43.8948558" lon="11.2479581"><ele>548.2</ele><time>2026-04-25T16:30:04.282Z</time></trkpt><trkpt lat="43.8947813" lon="11.247928"><ele>546.4</ele><time>2026-04-25T16:30:05.284Z</time></trkpt><trkpt lat="43.8946735" lon="11.2479199"><ele>544.6</ele><time>2026-04-25T16:30:07.279Z</time></trkpt><trkpt lat="43.8945933" lon="11.2479881"><ele>542.8</ele><time>2026-04-25T16:30:09.276Z</time></trkpt><trkpt lat="43.8944961" lon="11.2481402"><ele>541.0</ele><time>2026-04-25T16:30:11.271Z</time></trkpt><trkpt lat="43.8944417" lon="11.24824"><ele>539.5</ele><time>2026-04-25T16:30:12.282Z</time></trkpt><trkpt lat="43.8943934" lon="11.2483542"><ele>538.0</ele><time>2026-04-25T16:30:13.276Z</time></trkpt><trkpt lat="43.8943372" lon="11.2484461"><ele>536.5</ele><time>2026-04-25T16:30:14.286Z</time></trkpt><trkpt lat="43.8942764" lon="11.2485253"><ele>535.0</ele><time>2026-04-25T16:30:15.291Z</time></trkpt><trkpt lat="43.8942104" lon="11.2486061"><ele>533.5</ele><time>2026-04-25T16:30:16.285Z</time></trkpt><trkpt lat="43.8941448" lon="11.248673"><ele>532.0</ele><time>2026-04-25T16:30:17.292Z</time></trkpt><trkpt lat="43.8940796" lon="11.2487286"><ele>531.1666666666667</ele><time>2026-04-25T16:30:18.29Z</time></trkpt><trkpt lat="43.8940122" lon="11.248766"><ele>530.3333333333334</ele><time>2026-04-25T16:30:19.302Z</time></trkpt><trkpt lat="43.893942" lon="11.2488"><ele>529.5</ele><time>2026-04-25T16:30:20.289Z</time></trkpt><trkpt lat="43.8938733" lon="11.248851"><ele>528.6666666666666</ele><time>2026-04-25T16:30:21.288Z</time></trkpt><trkpt lat="43.8938265" lon="11.2489125"><ele>527.8333333333333</ele><time>2026-04-25T16:30:22.288Z</time></trkpt><trkpt lat="43.8937457" lon="11.2490252"><ele>527.0</ele><time>2026-04-25T16:30:24.292Z</time></trkpt><trkpt lat="43.8936938" lon="11.2490767"><ele>526.3333333333333</ele><time>2026-04-25T16:30:27.295Z</time></trkpt><trkpt lat="43.8936223" lon="11.2490342"><ele>525.6666666666666</ele><time>2026-04-25T16:30:30.29Z</time></trkpt><trkpt lat="43.8935454" lon="11.2490062"><ele>525.0</ele><time>2026-04-25T16:30:33.274Z</time></trkpt><trkpt lat="43.8935329" lon="11.2491232"><ele>524.3333333333334</ele><time>2026-04-25T16:30:36.286Z</time></trkpt><trkpt lat="43.8935932" lon="11.2492215"><ele>523.6666666666667</ele><time>2026-04-25T16:30:38.291Z</time></trkpt><trkpt lat="43.8936663" lon="11.2493369"><ele>523.0</ele><time>2026-04-25T16:30:40.284Z</time></trkpt><trkpt lat="43.8937293" lon="11.2493861"><ele>523.0</ele><time>2026-04-25T16:30:41.275Z</time></trkpt><trkpt lat="43.8937944" lon="11.2494364"><ele>523.0</ele><time>2026-04-25T16:30:42.279Z</time></trkpt><trkpt lat="43.893853" lon="11.2494804"><ele>523.0</ele><time>2026-04-25T16:30:43.275Z</time></trkpt><trkpt lat="43.8939289" lon="11.2495728"><ele>523.0</ele><time>2026-04-25T16:30:45.286Z</time></trkpt><trkpt lat="43.893984" lon="11.2497146"><ele>523.0</ele><time>2026-04-25T16:30:47.295Z</time></trkpt><trkpt lat="43.8940173" lon="11.249795"><ele>523.0</ele><time>2026-04-25T16:30:48.292Z</time></trkpt><trkpt lat="43.8940514" lon="11.2498753"><ele>520.5</ele><time>2026-04-25T16:30:49.29Z</time></trkpt><trkpt lat="43.8941019" lon="11.2499614"><ele>518.0</ele><time>2026-04-25T16:30:50.306Z</time></trkpt><trkpt lat="43.894154" lon="11.2500184"><ele>515.5</ele><time>2026-04-25T16:30:51.282Z</time></trkpt><trkpt lat="43.894224" lon="11.2500504"><ele>513.0</ele><time>2026-04-25T16:30:52.289Z</time></trkpt><trkpt lat="43.8942893" lon="11.2500465"><ele>510.50000000000006</ele><time>2026-04-25T16:30:53.286Z</time></trkpt><trkpt lat="43.8943916" lon="11.2499903"><ele>508.0</ele><time>2026-04-25T16:30:55.287Z</time></trkpt><trkpt lat="43.8944903" lon="11.2498614"><ele>507.14285714285717</ele><time>2026-04-25T16:30:57.284Z</time></trkpt><trkpt lat="43.8945532" lon="11.2498036"><ele>506.2857142857142</ele><time>2026-04-25T16:30:58.279Z</time></trkpt><trkpt lat="43.8946103" lon="11.2497664"><ele>505.4285714285714</ele><time>2026-04-25T16:30:59.273Z</time></trkpt><trkpt lat="43.8946803" lon="11.2497647"><ele>504.57142857142856</ele><time>2026-04-25T16:31:00.289Z</time></trkpt><trkpt lat="43.8947415" lon="11.2498088"><ele>503.71428571428567</ele><time>2026-04-25T16:31:01.277Z</time></trkpt><trkpt lat="43.894801" lon="11.2498712"><ele>502.8571428571428</ele><time>2026-04-25T16:31:02.286Z</time></trkpt><trkpt lat="43.8948665" lon="11.2499342"><ele>501.99999999999994</ele><time>2026-04-25T16:31:03.285Z</time></trkpt><trkpt lat="43.8949292" lon="11.2499998"><ele>502.00000000000006</ele><time>2026-04-25T16:31:04.282Z</time></trkpt><trkpt lat="43.8949832" lon="11.2500509"><ele>502.0</ele><time>2026-04-25T16:31:05.28Z</time></trkpt><trkpt lat="43.8950255" lon="11.2501186"><ele>502.0</ele><time>2026-04-25T16:31:06.271Z</time></trkpt><trkpt lat="43.8950444" lon="11.2502665"><ele>502.0</ele><time>2026-04-25T16:31:08.265Z</time></trkpt><trkpt lat="43.8950156" lon="11.2503578"><ele>502.00000000000006</ele><time>2026-04-25T16:31:09.277Z</time></trkpt><trkpt lat="43.8949487" lon="11.2504527"><ele>502.0</ele><time>2026-04-25T16:31:10.267Z</time></trkpt><trkpt lat="43.8948814" lon="11.2505575"><ele>500.25</ele><time>2026-04-25T16:31:11.273Z</time></trkpt><trkpt lat="43.8948197" lon="11.2506879"><ele>498.5</ele><time>2026-04-25T16:31:12.268Z</time></trkpt><trkpt lat="43.8947566" lon="11.2508275"><ele>496.75</ele><time>2026-04-25T16:31:13.276Z</time></trkpt><trkpt lat="43.89468" lon="11.2509639"><ele>495.0</ele><time>2026-04-25T16:31:14.276Z</time></trkpt><trkpt lat="43.8945988" lon="11.2511239"><ele>495.0</ele><time>2026-04-25T16:31:15.275Z</time></trkpt><trkpt lat="43.8945205" lon="11.2512709"><ele>495.0</ele><time>2026-04-25T16:31:16.278Z</time></trkpt><trkpt lat="43.8944515" lon="11.2514155"><ele>495.0</ele><time>2026-04-25T16:31:17.283Z</time></trkpt><trkpt lat="43.8943992" lon="11.2515638"><ele>495.0</ele><time>2026-04-25T16:31:18.28Z</time></trkpt><trkpt lat="43.8943521" lon="11.2516934"><ele>493.6666666666667</ele><time>2026-04-25T16:31:19.274Z</time></trkpt><trkpt lat="43.8943097" lon="11.2518059"><ele>492.33333333333337</ele><time>2026-04-25T16:31:20.276Z</time></trkpt><trkpt lat="43.8942744" lon="11.2519035"><ele>491.0</ele><time>2026-04-25T16:31:21.291Z</time></trkpt><trkpt lat="43.8942473" lon="11.2519952"><ele>489.6666666666667</ele><time>2026-04-25T16:31:22.277Z</time></trkpt><trkpt lat="43.8942229" lon="11.252081"><ele>488.33333333333337</ele><time>2026-04-25T16:31:23.283Z</time></trkpt><trkpt lat="43.8941806" lon="11.2521676"><ele>487.0</ele><time>2026-04-25T16:31:24.266Z</time></trkpt><trkpt lat="43.8941219" lon="11.2522391"><ele>483.1666666666667</ele><time>2026-04-25T16:31:25.275Z</time></trkpt><trkpt lat="43.8940559" lon="11.2522961"><ele>479.33333333333337</ele><time>2026-04-25T16:31:26.282Z</time></trkpt><trkpt lat="43.8939938" lon="11.252358"><ele>475.5</ele><time>2026-04-25T16:31:27.276Z</time></trkpt><trkpt lat="43.8939386" lon="11.2524345"><ele>471.66666666666663</ele><time>2026-04-25T16:31:28.279Z</time></trkpt><trkpt lat="43.8938921" lon="11.2525154"><ele>467.8333333333333</ele><time>2026-04-25T16:31:29.276Z</time></trkpt><trkpt lat="43.8938548" lon="11.2526248"><ele>464.0</ele><time>2026-04-25T16:31:30.276Z</time></trkpt><trkpt lat="43.8938342" lon="11.2527536"><ele>463.99999999999994</ele><time>2026-04-25T16:31:31.275Z</time></trkpt><trkpt lat="43.8938299" lon="11.2528553"><ele>464.0</ele><time>2026-04-25T16:31:32.27Z</time></trkpt><trkpt lat="43.8938364" lon="11.2530037"><ele>464.0</ele><time>2026-04-25T16:31:34.271Z</time></trkpt><trkpt lat="43.8938709" lon="11.2531178"><ele>464.0</ele><time>2026-04-25T16:31:36.29Z</time></trkpt><trkpt lat="43.8939374" lon="11.2532079"><ele>463.99999999999994</ele><time>2026-04-25T16:31:38.295Z</time></trkpt><trkpt lat="43.8939812" lon="11.2532993"><ele>464.0</ele><time>2026-04-25T16:31:40.278Z</time></trkpt><trkpt lat="43.8939621" lon="11.2534193"><ele>461.79999999999995</ele><time>2026-04-25T16:31:42.27Z</time></trkpt><trkpt lat="43.8938931" lon="11.2535213"><ele>459.59999999999997</ele><time>2026-04-25T16:31:44.274Z</time></trkpt><trkpt lat="43.8937891" lon="11.2535926"><ele>457.4</ele><time>2026-04-25T16:31:46.283Z</time></trkpt><trkpt lat="43.8937288" lon="11.2536262"><ele>455.2</ele><time>2026-04-25T16:31:47.287Z</time></trkpt><trkpt lat="43.8936665" lon="11.2536532"><ele>453.0</ele><time>2026-04-25T16:31:48.285Z</time></trkpt><trkpt lat="43.8935582" lon="11.2537144"><ele>453.0</ele><time>2026-04-25T16:31:50.278Z</time></trkpt><trkpt lat="43.8934582" lon="11.2537956"><ele>453.0</ele><time>2026-04-25T16:31:52.287Z</time></trkpt><trkpt lat="43.8934116" lon="11.2538712"><ele>453.0</ele><time>2026-04-25T16:31:56.28Z</time></trkpt><trkpt lat="43.8933587" lon="11.2539188"><ele>453.0</ele><time>2026-04-25T16:34:31.285Z</time></trkpt><trkpt lat="43.8933494" lon="11.2540483"><ele>453.0</ele><time>2026-04-25T16:34:35.281Z</time></trkpt><trkpt lat="43.8933315" lon="11.254175"><ele>453.0</ele><time>2026-04-25T16:34:37.279Z</time></trkpt><trkpt lat="43.8933032" lon="11.2542641"><ele>451.1666666666667</ele><time>2026-04-25T16:34:38.277Z</time></trkpt><trkpt lat="43.8932598" lon="11.2543561"><ele>449.33333333333337</ele><time>2026-04-25T16:34:39.281Z</time></trkpt><trkpt lat="43.8932089" lon="11.2544584"><ele>447.5</ele><time>2026-04-25T16:34:40.269Z</time></trkpt><trkpt lat="43.8931495" lon="11.2545441"><ele>445.6666666666667</ele><time>2026-04-25T16:34:41.278Z</time></trkpt><trkpt lat="43.8930836" lon="11.2546128"><ele>443.83333333333337</ele><time>2026-04-25T16:34:42.272Z</time></trkpt><trkpt lat="43.8930304" lon="11.2546869"><ele>442.0</ele><time>2026-04-25T16:34:43.277Z</time></trkpt><trkpt lat="43.8929895" lon="11.2547584"><ele>440.6666666666667</ele><time>2026-04-25T16:34:44.281Z</time></trkpt><trkpt lat="43.8929395" lon="11.2548289"><ele>439.33333333333337</ele><time>2026-04-25T16:34:45.274Z</time></trkpt><trkpt lat="43.8928865" lon="11.2549015"><ele>438.0</ele><time>2026-04-25T16:34:46.284Z</time></trkpt><trkpt lat="43.8928089" lon="11.255018"><ele>436.66666666666663</ele><time>2026-04-25T16:34:48.268Z</time></trkpt><trkpt lat="43.892787" lon="11.2551015"><ele>435.3333333333333</ele><time>2026-04-25T16:34:49.269Z</time></trkpt><trkpt lat="43.8927862" lon="11.2552162"><ele>434.0</ele><time>2026-04-25T16:34:50.275Z</time></trkpt><trkpt lat="43.8927847" lon="11.255333"><ele>433.99999999999994</ele><time>2026-04-25T16:34:51.273Z</time></trkpt><trkpt lat="43.8927697" lon="11.2554419"><ele>434.0</ele><time>2026-04-25T16:34:52.283Z</time></trkpt><trkpt lat="43.8927434" lon="11.2555505"><ele>434.0</ele><time>2026-04-25T16:34:53.282Z</time></trkpt><trkpt lat="43.8927062" lon="11.255667"><ele>434.0</ele><time>2026-04-25T16:34:54.282Z</time></trkpt><trkpt lat="43.8926624" lon="11.2557681"><ele>433.99999999999994</ele><time>2026-04-25T16:34:55.285Z</time></trkpt><trkpt lat="43.8926037" lon="11.2558643"><ele>434.0</ele><time>2026-04-25T16:34:56.277Z</time></trkpt><trkpt lat="43.8925356" lon="11.2559301"><ele>431.6</ele><time>2026-04-25T16:34:57.276Z</time></trkpt><trkpt lat="43.8924633" lon="11.2559698"><ele>429.2</ele><time>2026-04-25T16:34:58.288Z</time></trkpt><trkpt lat="43.8923905" lon="11.2559926"><ele>426.8</ele><time>2026-04-25T16:34:59.274Z</time></trkpt><trkpt lat="43.8923035" lon="11.2560732"><ele>424.40000000000003</ele><time>2026-04-25T16:35:01.271Z</time></trkpt><trkpt lat="43.8923745" lon="11.2562162"><ele>422.0</ele><time>2026-04-25T16:35:03.264Z</time></trkpt><trkpt lat="43.8924606" lon="11.2562593"><ele>422.0</ele><time>2026-04-25T16:35:04.278Z</time></trkpt><trkpt lat="43.892575" lon="11.256276"><ele>422.0</ele><time>2026-04-25T16:35:05.271Z</time></trkpt><trkpt lat="43.8926823" lon="11.2562876"><ele>422.0</ele><time>2026-04-25T16:35:06.271Z</time></trkpt><trkpt lat="43.8927833" lon="11.256291"><ele>422.0</ele><time>2026-04-25T16:35:07.275Z</time></trkpt><trkpt lat="43.8928859" lon="11.2562923"><ele>422.0</ele><time>2026-04-25T16:35:08.279Z</time></trkpt><trkpt lat="43.8929815" lon="11.2563013"><ele>421.3333333333333</ele><time>2026-04-25T16:35:09.284Z</time></trkpt><trkpt lat="43.8930733" lon="11.2563024"><ele>420.66666666666663</ele><time>2026-04-25T16:35:10.282Z</time></trkpt><trkpt lat="43.893158" lon="11.2563037"><ele>420.0</ele><time>2026-04-25T16:35:11.278Z</time></trkpt><trkpt lat="43.8932255" lon="11.2563008"><ele>419.33333333333337</ele><time>2026-04-25T16:35:12.28Z</time></trkpt><trkpt lat="43.8932887" lon="11.2563052"><ele>418.6666666666667</ele><time>2026-04-25T16:35:13.28Z</time></trkpt><trkpt lat="43.8933599" lon="11.2563641"><ele>418.0</ele><time>2026-04-25T16:35:15.269Z</time></trkpt><trkpt lat="43.893313" lon="11.2564981"><ele>414.6666666666667</ele><time>2026-04-25T16:35:17.27Z</time></trkpt><trkpt lat="43.8932501" lon="11.2565589"><ele>411.33333333333337</ele><time>2026-04-25T16:35:18.282Z</time></trkpt><trkpt lat="43.893195" lon="11.2566306"><ele>408.0</ele><time>2026-04-25T16:35:19.275Z</time></trkpt><trkpt lat="43.8931382" lon="11.2567031"><ele>404.66666666666663</ele><time>2026-04-25T16:35:20.276Z</time></trkpt><trkpt lat="43.8930757" lon="11.2567709"><ele>401.3333333333333</ele><time>2026-04-25T16:35:21.276Z</time></trkpt><trkpt lat="43.893" lon="11.2568299"><ele>398.0</ele><time>2026-04-25T16:35:22.276Z</time></trkpt><trkpt lat="43.8929197" lon="11.2568916"><ele>398.0</ele><time>2026-04-25T16:35:23.277Z</time></trkpt><trkpt lat="43.8928367" lon="11.256955"><ele>398.0</ele><time>2026-04-25T16:35:24.277Z</time></trkpt><trkpt lat="43.8927418" lon="11.2570061"><ele>398.0</ele><time>2026-04-25T16:35:25.272Z</time></trkpt><trkpt lat="43.8926476" lon="11.2570452"><ele>398.0</ele><time>2026-04-25T16:35:26.273Z</time></trkpt><trkpt lat="43.8925534" lon="11.2570783"><ele>398.0</ele><time>2026-04-25T16:35:27.274Z</time></trkpt><trkpt lat="43.8924601" lon="11.257098"><ele>398.0</ele><time>2026-04-25T16:35:28.266Z</time></trkpt><trkpt lat="43.8923663" lon="11.2571074"><ele>398.0</ele><time>2026-04-25T16:35:29.285Z</time></trkpt><trkpt lat="43.8922598" lon="11.2571124"><ele>398.0</ele><time>2026-04-25T16:35:30.266Z</time></trkpt><trkpt lat="43.8921539" lon="11.2571006"><ele>398.0</ele><time>2026-04-25T16:35:31.264Z</time></trkpt><trkpt lat="43.8920594" lon="11.2570718"><ele>398.0</ele><time>2026-04-25T16:35:32.263Z</time></trkpt><trkpt lat="43.8919749" lon="11.2570338"><ele>397.99999999999994</ele><time>2026-04-25T16:35:33.264Z</time></trkpt><trkpt lat="43.8918878" lon="11.2569985"><ele>398.0</ele><time>2026-04-25T16:35:34.258Z</time></trkpt><trkpt lat="43.8918039" lon="11.256984"><ele>398.0</ele><time>2026-04-25T16:35:35.259Z</time></trkpt><trkpt lat="43.8917197" lon="11.2569935"><ele>398.0</ele><time>2026-04-25T16:35:36.262Z</time></trkpt><trkpt lat="43.8916292" lon="11.2570083"><ele>397.99999999999994</ele><time>2026-04-25T16:35:37.258Z</time></trkpt><trkpt lat="43.8915486" lon="11.2570409"><ele>398.0</ele><time>2026-04-25T16:35:38.259Z</time></trkpt><trkpt lat="43.8914497" lon="11.2570762"><ele>395.8333333333333</ele><time>2026-04-25T16:35:39.261Z</time></trkpt><trkpt lat="43.8913562" lon="11.257095"><ele>393.66666666666663</ele><time>2026-04-25T16:35:40.266Z</time></trkpt><trkpt lat="43.8912836" lon="11.2571157"><ele>391.5</ele><time>2026-04-25T16:35:41.269Z</time></trkpt><trkpt lat="43.8912201" lon="11.2571498"><ele>389.33333333333337</ele><time>2026-04-25T16:35:42.265Z</time></trkpt><trkpt lat="43.8911576" lon="11.2571667"><ele>387.1666666666667</ele><time>2026-04-25T16:35:43.271Z</time></trkpt><trkpt lat="43.8910467" lon="11.2571776"><ele>385.0</ele><time>2026-04-25T16:35:45.259Z</time></trkpt><trkpt lat="43.8909478" lon="11.2571716"><ele>383.4</ele><time>2026-04-25T16:35:47.264Z</time></trkpt><trkpt lat="43.8908242" lon="11.2571799"><ele>381.8</ele><time>2026-04-25T16:35:49.255Z</time></trkpt><trkpt lat="43.8907526" lon="11.2572008"><ele>380.20000000000005</ele><time>2026-04-25T16:35:50.26Z</time></trkpt><trkpt lat="43.890669" lon="11.2572235"><ele>378.6</ele><time>2026-04-25T16:35:51.252Z</time></trkpt><trkpt lat="43.8905725" lon="11.2572578"><ele>377.0</ele><time>2026-04-25T16:35:52.271Z</time></trkpt><trkpt lat="43.8904832" lon="11.2572865"><ele>377.0</ele><time>2026-04-25T16:35:53.27Z</time></trkpt><trkpt lat="43.8903909" lon="11.2573045"><ele>377.0</ele><time>2026-04-25T16:35:54.269Z</time></trkpt><trkpt lat="43.8902938" lon="11.2573208"><ele>377.0</ele><time>2026-04-25T16:35:55.273Z</time></trkpt><trkpt lat="43.8901972" lon="11.2573451"><ele>377.0</ele><time>2026-04-25T16:35:56.276Z</time></trkpt><trkpt lat="43.8901069" lon="11.2573768"><ele>377.0</ele><time>2026-04-25T16:35:57.275Z</time></trkpt><trkpt lat="43.8900356" lon="11.257431"><ele>376.1666666666667</ele><time>2026-04-25T16:35:58.278Z</time></trkpt><trkpt lat="43.8899588" lon="11.2574838"><ele>375.33333333333337</ele><time>2026-04-25T16:35:59.272Z</time></trkpt><trkpt lat="43.8898836" lon="11.2575561"><ele>374.5</ele><time>2026-04-25T16:36:00.29Z</time></trkpt><trkpt lat="43.8898154" lon="11.2576287"><ele>373.6666666666667</ele><time>2026-04-25T16:36:01.269Z</time></trkpt><trkpt lat="43.8897454" lon="11.2576985"><ele>372.8333333333333</ele><time>2026-04-25T16:36:02.273Z</time></trkpt><trkpt lat="43.8896845" lon="11.2577803"><ele>372.0</ele><time>2026-04-25T16:36:03.268Z</time></trkpt><trkpt lat="43.8896242" lon="11.2578521"><ele>372.0</ele><time>2026-04-25T16:36:04.273Z</time></trkpt><trkpt lat="43.8895676" lon="11.2579171"><ele>372.0</ele><time>2026-04-25T16:36:05.264Z</time></trkpt><trkpt lat="43.8894973" lon="11.2579804"><ele>372.0</ele><time>2026-04-25T16:36:06.268Z</time></trkpt><trkpt lat="43.8894227" lon="11.2580682"><ele>372.0</ele><time>2026-04-25T16:36:07.271Z</time></trkpt><trkpt lat="43.8893524" lon="11.2581432"><ele>372.0</ele><time>2026-04-25T16:36:08.266Z</time></trkpt><trkpt lat="43.8892842" lon="11.2582221"><ele>372.0</ele><time>2026-04-25T16:36:09.272Z</time></trkpt><trkpt lat="43.8892194" lon="11.2583063"><ele>371.1666666666667</ele><time>2026-04-25T16:36:10.266Z</time></trkpt><trkpt lat="43.889173" lon="11.2583797"><ele>370.3333333333333</ele><time>2026-04-25T16:36:11.262Z</time></trkpt><trkpt lat="43.8891316" lon="11.2584678"><ele>369.5</ele><time>2026-04-25T16:36:12.266Z</time></trkpt><trkpt lat="43.8891044" lon="11.2585584"><ele>368.66666666666663</ele><time>2026-04-25T16:36:13.268Z</time></trkpt><trkpt lat="43.8890815" lon="11.25865"><ele>367.8333333333333</ele><time>2026-04-25T16:36:14.264Z</time></trkpt><trkpt lat="43.8890399" lon="11.2587671"><ele>367.0</ele><time>2026-04-25T16:36:15.263Z</time></trkpt><trkpt lat="43.8889841" lon="11.2588958"><ele>369.0</ele><time>2026-04-25T16:36:16.263Z</time></trkpt><trkpt lat="43.8889164" lon="11.2590185"><ele>371.0</ele><time>2026-04-25T16:36:17.269Z</time></trkpt><trkpt lat="43.8888419" lon="11.2591449"><ele>373.0</ele><time>2026-04-25T16:36:18.266Z</time></trkpt><trkpt lat="43.88877" lon="11.2592567"><ele>375.0</ele><time>2026-04-25T16:36:19.266Z</time></trkpt><trkpt lat="43.8887027" lon="11.2593679"><ele>377.0</ele><time>2026-04-25T16:36:20.268Z</time></trkpt><trkpt lat="43.888634" lon="11.259496"><ele>377.0</ele><time>2026-04-25T16:36:21.269Z</time></trkpt><trkpt lat="43.8885633" lon="11.2596058"><ele>377.0</ele><time>2026-04-25T16:36:22.272Z</time></trkpt><trkpt lat="43.8884831" lon="11.259699"><ele>377.0</ele><time>2026-04-25T16:36:23.267Z</time></trkpt><trkpt lat="43.8884073" lon="11.2598004"><ele>377.0</ele><time>2026-04-25T16:36:24.262Z</time></trkpt><trkpt lat="43.8883451" lon="11.2598872"><ele>377.0</ele><time>2026-04-25T16:36:25.267Z</time></trkpt><trkpt lat="43.8882786" lon="11.259949"><ele>375.0</ele><time>2026-04-25T16:36:26.266Z</time></trkpt><trkpt lat="43.888213" lon="11.2600246"><ele>373.0</ele><time>2026-04-25T16:36:27.268Z</time></trkpt><trkpt lat="43.8881431" lon="11.2601082"><ele>371.0</ele><time>2026-04-25T16:36:28.264Z</time></trkpt><trkpt lat="43.8880775" lon="11.2601902"><ele>369.0</ele><time>2026-04-25T16:36:29.266Z</time></trkpt><trkpt lat="43.8880218" lon="11.2602711"><ele>367.0</ele><time>2026-04-25T16:36:30.258Z</time></trkpt><trkpt lat="43.8879762" lon="11.2603743"><ele>365.0</ele><time>2026-04-25T16:36:31.27Z</time></trkpt><trkpt lat="43.8879395" lon="11.2605097"><ele>367.8</ele><time>2026-04-25T16:36:32.263Z</time></trkpt><trkpt lat="43.8878971" lon="11.2606498"><ele>370.6</ele><time>2026-04-25T16:36:33.261Z</time></trkpt><trkpt lat="43.8878634" lon="11.2607906"><ele>373.4</ele><time>2026-04-25T16:36:34.254Z</time></trkpt><trkpt lat="43.8878228" lon="11.2609347"><ele>376.2</ele><time>2026-04-25T16:36:35.254Z</time></trkpt><trkpt lat="43.8877875" lon="11.261072"><ele>379.0</ele><time>2026-04-25T16:36:36.253Z</time></trkpt><trkpt lat="43.887736" lon="11.2611967"><ele>379.0</ele><time>2026-04-25T16:36:37.25Z</time></trkpt><trkpt lat="43.8876847" lon="11.2612837"><ele>379.0</ele><time>2026-04-25T16:36:38.254Z</time></trkpt><trkpt lat="43.8876461" lon="11.261373"><ele>379.0</ele><time>2026-04-25T16:36:39.254Z</time></trkpt><trkpt lat="43.8876271" lon="11.2614861"><ele>379.0</ele><time>2026-04-25T16:36:40.254Z</time></trkpt><trkpt lat="43.8876001" lon="11.2615911"><ele>379.0</ele><time>2026-04-25T16:36:41.254Z</time></trkpt><trkpt lat="43.8875784" lon="11.2616858"><ele>379.0</ele><time>2026-04-25T16:36:42.254Z</time></trkpt><trkpt lat="43.8875573" lon="11.26177"><ele>375.5</ele><time>2026-04-25T16:36:43.253Z</time></trkpt><trkpt lat="43.8875204" lon="11.261881"><ele>372.0</ele><time>2026-04-25T16:36:45.256Z</time></trkpt><trkpt lat="43.8874926" lon="11.2619611"><ele>368.5</ele><time>2026-04-25T16:36:47.267Z</time></trkpt><trkpt lat="43.8874869" lon="11.2620664"><ele>365.0</ele><time>2026-04-25T16:36:49.259Z</time></trkpt><trkpt lat="43.8874524" lon="11.2622088"><ele>361.5</ele><time>2026-04-25T16:36:51.256Z</time></trkpt><trkpt lat="43.8874221" lon="11.2623564"><ele>358.0</ele><time>2026-04-25T16:36:53.255Z</time></trkpt><trkpt lat="43.8873849" lon="11.2625079"><ele>358.0</ele><time>2026-04-25T16:36:55.258Z</time></trkpt><trkpt lat="43.8873735" lon="11.262607"><ele>358.0</ele><time>2026-04-25T16:36:56.258Z</time></trkpt><trkpt lat="43.8873587" lon="11.2626935"><ele>358.0</ele><time>2026-04-25T16:36:57.248Z</time></trkpt><trkpt lat="43.8873418" lon="11.2628325"><ele>358.0</ele><time>2026-04-25T16:36:59.254Z</time></trkpt><trkpt lat="43.8873343" lon="11.2629776"><ele>358.0</ele><time>2026-04-25T16:37:01.256Z</time></trkpt><trkpt lat="43.8873203" lon="11.2631318"><ele>358.4</ele><time>2026-04-25T16:37:03.25Z</time></trkpt><trkpt lat="43.8873096" lon="11.2632292"><ele>358.79999999999995</ele><time>2026-04-25T16:37:06.255Z</time></trkpt><trkpt lat="43.887282" lon="11.2633851"><ele>359.2</ele><time>2026-04-25T16:37:31.252Z</time></trkpt><trkpt lat="43.8872556" lon="11.2635075"><ele>359.6</ele><time>2026-04-25T16:37:32.253Z</time></trkpt><trkpt lat="43.8872265" lon="11.2636562"><ele>360.0</ele><time>2026-04-25T16:37:33.267Z</time></trkpt><trkpt lat="43.887201" lon="11.263812"><ele>360.0</ele><time>2026-04-25T16:37:34.255Z</time></trkpt><trkpt lat="43.887174" lon="11.2639651"><ele>360.0</ele><time>2026-04-25T16:37:35.252Z</time></trkpt><trkpt lat="43.8871552" lon="11.264104"><ele>360.0</ele><time>2026-04-25T16:37:36.253Z</time></trkpt><trkpt lat="43.8871295" lon="11.2642246"><ele>360.0</ele><time>2026-04-25T16:37:37.253Z</time></trkpt><trkpt lat="43.8871151" lon="11.264345"><ele>360.0</ele><time>2026-04-25T16:37:38.258Z</time></trkpt><trkpt lat="43.8871035" lon="11.2644547"><ele>360.0</ele><time>2026-04-25T16:37:39.254Z</time></trkpt><trkpt lat="43.8870868" lon="11.2645646"><ele>360.0</ele><time>2026-04-25T16:37:40.255Z</time></trkpt><trkpt lat="43.8870706" lon="11.2646847"><ele>360.0</ele><time>2026-04-25T16:37:41.262Z</time></trkpt><trkpt lat="43.8870526" lon="11.264809"><ele>360.0</ele><time>2026-04-25T16:37:42.262Z</time></trkpt><trkpt lat="43.8870402" lon="11.2649275"><ele>360.0</ele><time>2026-04-25T16:37:43.26Z</time></trkpt><trkpt lat="43.8870304" lon="11.2650442"><ele>360.0</ele><time>2026-04-25T16:37:44.258Z</time></trkpt><trkpt lat="43.8870232" lon="11.2651678"><ele>358.3333333333333</ele><time>2026-04-25T16:37:45.259Z</time></trkpt><trkpt lat="43.8870158" lon="11.2652756"><ele>356.6666666666667</ele><time>2026-04-25T16:37:46.268Z</time></trkpt><trkpt lat="43.8870268" lon="11.2653903"><ele>355.0</ele><time>2026-04-25T16:37:47.279Z</time></trkpt><trkpt lat="43.8870557" lon="11.2655031"><ele>353.33333333333337</ele><time>2026-04-25T16:37:48.271Z</time></trkpt><trkpt lat="43.8870969" lon="11.2656129"><ele>351.6666666666667</ele><time>2026-04-25T16:37:49.265Z</time></trkpt><trkpt lat="43.8871378" lon="11.2657099"><ele>350.0</ele><time>2026-04-25T16:37:50.266Z</time></trkpt><trkpt lat="43.8871826" lon="11.2658147"><ele>348.6666666666667</ele><time>2026-04-25T16:37:51.266Z</time></trkpt><trkpt lat="43.8872261" lon="11.2659222"><ele>347.33333333333337</ele><time>2026-04-25T16:37:52.27Z</time></trkpt><trkpt lat="43.8872728" lon="11.2660332"><ele>346.0</ele><time>2026-04-25T16:37:53.269Z</time></trkpt><trkpt lat="43.8873104" lon="11.2661431"><ele>344.6666666666667</ele><time>2026-04-25T16:37:54.268Z</time></trkpt><trkpt lat="43.8873419" lon="11.2662591"><ele>343.3333333333333</ele><time>2026-04-25T16:37:55.266Z</time></trkpt><trkpt lat="43.8873759" lon="11.2663661"><ele>342.0</ele><time>2026-04-25T16:37:56.267Z</time></trkpt><trkpt lat="43.8874064" lon="11.2664617"><ele>341.1666666666667</ele><time>2026-04-25T16:37:57.27Z</time></trkpt><trkpt lat="43.8874355" lon="11.2665617"><ele>340.3333333333333</ele><time>2026-04-25T16:37:58.267Z</time></trkpt><trkpt lat="43.8874502" lon="11.2666697"><ele>339.5</ele><time>2026-04-25T16:37:59.266Z</time></trkpt><trkpt lat="43.8874616" lon="11.2667582"><ele>338.66666666666663</ele><time>2026-04-25T16:38:00.268Z</time></trkpt><trkpt lat="43.8874762" lon="11.2668826"><ele>337.8333333333333</ele><time>2026-04-25T16:38:02.266Z</time></trkpt><trkpt lat="43.8874253" lon="11.2669458"><ele>337.0</ele><time>2026-04-25T16:38:04.289Z</time></trkpt><trkpt lat="43.8872756" lon="11.2668935"><ele>337.0</ele><time>2026-04-25T16:38:06.263Z</time></trkpt><trkpt lat="43.8871727" lon="11.2668267"><ele>337.0</ele><time>2026-04-25T16:38:07.264Z</time></trkpt><trkpt lat="43.8870606" lon="11.2667699"><ele>337.0</ele><time>2026-04-25T16:38:08.272Z</time></trkpt><trkpt lat="43.8869484" lon="11.2667083"><ele>337.0</ele><time>2026-04-25T16:38:09.268Z</time></trkpt><trkpt lat="43.886832" lon="11.2666379"><ele>336.75</ele><time>2026-04-25T16:38:10.266Z</time></trkpt><trkpt lat="43.8867096" lon="11.2665755"><ele>336.5</ele><time>2026-04-25T16:38:11.268Z</time></trkpt><trkpt lat="43.8865867" lon="11.2665106"><ele>336.25</ele><time>2026-04-25T16:38:12.264Z</time></trkpt><trkpt lat="43.8864685" lon="11.2664461"><ele>336.0</ele><time>2026-04-25T16:38:13.273Z</time></trkpt><trkpt lat="43.8863602" lon="11.2663784"><ele>336.0</ele><time>2026-04-25T16:38:14.275Z</time></trkpt><trkpt lat="43.88626" lon="11.266305"><ele>336.0</ele><time>2026-04-25T16:38:15.274Z</time></trkpt><trkpt lat="43.8861626" lon="11.2662306"><ele>336.0</ele><time>2026-04-25T16:38:16.279Z</time></trkpt><trkpt lat="43.8860677" lon="11.2661341"><ele>336.0</ele><time>2026-04-25T16:38:17.274Z</time></trkpt><trkpt lat="43.8859705" lon="11.2660298"><ele>337.75</ele><time>2026-04-25T16:38:18.277Z</time></trkpt><trkpt lat="43.8858714" lon="11.2659247"><ele>339.5</ele><time>2026-04-25T16:38:19.276Z</time></trkpt><trkpt lat="43.8857847" lon="11.2658206"><ele>341.25</ele><time>2026-04-25T16:38:20.274Z</time></trkpt><trkpt lat="43.8857057" lon="11.2657243"><ele>343.0</ele><time>2026-04-25T16:38:21.266Z</time></trkpt><trkpt lat="43.8856213" lon="11.2656337"><ele>347.4</ele><time>2026-04-25T16:38:22.273Z</time></trkpt><trkpt lat="43.8855399" lon="11.2655362"><ele>351.79999999999995</ele><time>2026-04-25T16:38:23.266Z</time></trkpt><trkpt lat="43.8854685" lon="11.2654265"><ele>356.2</ele><time>2026-04-25T16:38:24.267Z</time></trkpt><trkpt lat="43.8854144" lon="11.2653055"><ele>360.6</ele><time>2026-04-25T16:38:25.27Z</time></trkpt><trkpt lat="43.8853464" lon="11.265196"><ele>365.0</ele><time>2026-04-25T16:38:26.264Z</time></trkpt><trkpt lat="43.8852773" lon="11.2651045"><ele>365.0</ele><time>2026-04-25T16:38:27.267Z</time></trkpt><trkpt lat="43.8851899" lon="11.2650496"><ele>365.0</ele><time>2026-04-25T16:38:28.255Z</time></trkpt><trkpt lat="43.8850989" lon="11.2650064"><ele>365.0</ele><time>2026-04-25T16:38:29.258Z</time></trkpt><trkpt lat="43.8849948" lon="11.2649865"><ele>365.0</ele><time>2026-04-25T16:38:30.265Z</time></trkpt><trkpt lat="43.8848822" lon="11.2649657"><ele>365.0</ele><time>2026-04-25T16:38:31.258Z</time></trkpt><trkpt lat="43.8847691" lon="11.264942"><ele>364.0</ele><time>2026-04-25T16:38:32.263Z</time></trkpt><trkpt lat="43.8846572" lon="11.2649075"><ele>363.0</ele><time>2026-04-25T16:38:33.264Z</time></trkpt><trkpt lat="43.8845519" lon="11.26486"><ele>362.0</ele><time>2026-04-25T16:38:34.255Z</time></trkpt><trkpt lat="43.8844492" lon="11.2648009"><ele>361.0</ele><time>2026-04-25T16:38:35.274Z</time></trkpt><trkpt lat="43.8843521" lon="11.2647399"><ele>360.0</ele><time>2026-04-25T16:38:36.261Z</time></trkpt><trkpt lat="43.8842599" lon="11.2646889"><ele>366.8</ele><time>2026-04-25T16:38:37.264Z</time></trkpt><trkpt lat="43.8841577" lon="11.2646497"><ele>373.6</ele><time>2026-04-25T16:38:38.257Z</time></trkpt><trkpt lat="43.8840561" lon="11.2645992"><ele>380.4</ele><time>2026-04-25T16:38:39.254Z</time></trkpt><trkpt lat="43.8839588" lon="11.2645687"><ele>387.2</ele><time>2026-04-25T16:38:40.251Z</time></trkpt><trkpt lat="43.8838464" lon="11.2645407"><ele>394.0</ele><time>2026-04-25T16:38:41.253Z</time></trkpt><trkpt lat="43.8837366" lon="11.264526"><ele>394.00000000000006</ele><time>2026-04-25T16:38:42.251Z</time></trkpt><trkpt lat="43.8836352" lon="11.264503"><ele>394.0</ele><time>2026-04-25T16:38:43.25Z</time></trkpt><trkpt lat="43.8835428" lon="11.2644858"><ele>394.0</ele><time>2026-04-25T16:38:44.256Z</time></trkpt><trkpt lat="43.8834634" lon="11.2644729"><ele>394.0</ele><time>2026-04-25T16:38:45.253Z</time></trkpt><trkpt lat="43.8833824" lon="11.2644531"><ele>394.00000000000006</ele><time>2026-04-25T16:38:46.259Z</time></trkpt><trkpt lat="43.8833124" lon="11.264414"><ele>394.0</ele><time>2026-04-25T16:38:47.256Z</time></trkpt><trkpt lat="43.8832341" lon="11.2643551"><ele>389.2</ele><time>2026-04-25T16:38:48.254Z</time></trkpt><trkpt lat="43.8831521" lon="11.2642871"><ele>384.4</ele><time>2026-04-25T16:38:49.25Z</time></trkpt><trkpt lat="43.8830792" lon="11.2642306"><ele>379.6</ele><time>2026-04-25T16:38:50.249Z</time></trkpt><trkpt lat="43.8829991" lon="11.264174"><ele>374.8</ele><time>2026-04-25T16:38:51.244Z</time></trkpt><trkpt lat="43.88292" lon="11.2641274"><ele>370.0</ele><time>2026-04-25T16:38:52.248Z</time></trkpt><trkpt lat="43.8828199" lon="11.2640961"><ele>370.0</ele><time>2026-04-25T16:38:53.252Z</time></trkpt><trkpt lat="43.8826957" lon="11.2640433"><ele>370.0</ele><time>2026-04-25T16:38:54.242Z</time></trkpt><trkpt lat="43.882543" lon="11.2639683"><ele>370.0</ele><time>2026-04-25T16:38:55.249Z</time></trkpt><trkpt lat="43.88238" lon="11.2638418"><ele>375.75</ele><time>2026-04-25T16:38:56.245Z</time></trkpt><trkpt lat="43.8822421" lon="11.2637356"><ele>381.5</ele><time>2026-04-25T16:38:57.251Z</time></trkpt><trkpt lat="43.8821591" lon="11.2636238"><ele>387.25</ele><time>2026-04-25T16:38:58.248Z</time></trkpt><trkpt lat="43.882079" lon="11.2635317"><ele>393.0</ele><time>2026-04-25T16:38:59.249Z</time></trkpt><trkpt lat="43.8819805" lon="11.2634024"><ele>393.0</ele><time>2026-04-25T16:39:00.251Z</time></trkpt><trkpt lat="43.8818988" lon="11.2633063"><ele>393.0</ele><time>2026-04-25T16:39:01.246Z</time></trkpt><trkpt lat="43.8818174" lon="11.2632085"><ele>393.0</ele><time>2026-04-25T16:39:02.253Z</time></trkpt><trkpt lat="43.8817589" lon="11.2631325"><ele>393.0</ele><time>2026-04-25T16:39:03.26Z</time></trkpt><trkpt lat="43.8816708" lon="11.263092"><ele>393.0</ele><time>2026-04-25T16:39:04.256Z</time></trkpt><trkpt lat="43.8815894" lon="11.2630665"><ele>392.28571428571433</ele><time>2026-04-25T16:39:05.255Z</time></trkpt><trkpt lat="43.8815135" lon="11.2630681"><ele>391.57142857142856</ele><time>2026-04-25T16:39:06.279Z</time></trkpt><trkpt lat="43.881444" lon="11.2630687"><ele>390.8571428571429</ele><time>2026-04-25T16:39:07.26Z</time></trkpt><trkpt lat="43.881373" lon="11.2630645"><ele>390.14285714285717</ele><time>2026-04-25T16:39:08.264Z</time></trkpt><trkpt lat="43.8813062" lon="11.2630578"><ele>389.42857142857144</ele><time>2026-04-25T16:39:09.258Z</time></trkpt><trkpt lat="43.8812355" lon="11.2630563"><ele>388.7142857142857</ele><time>2026-04-25T16:39:10.261Z</time></trkpt><trkpt lat="43.8811677" lon="11.2630366"><ele>388.0</ele><time>2026-04-25T16:39:11.268Z</time></trkpt><trkpt lat="43.8810999" lon="11.2630198"><ele>388.00000000000006</ele><time>2026-04-25T16:39:12.27Z</time></trkpt><trkpt lat="43.8810387" lon="11.2629938"><ele>388.0</ele><time>2026-04-25T16:39:13.264Z</time></trkpt><trkpt lat="43.8809693" lon="11.2629589"><ele>388.0</ele><time>2026-04-25T16:39:14.26Z</time></trkpt><trkpt lat="43.8808979" lon="11.2629103"><ele>388.0</ele><time>2026-04-25T16:39:15.261Z</time></trkpt><trkpt lat="43.8808189" lon="11.2628791"><ele>388.00000000000006</ele><time>2026-04-25T16:39:16.268Z</time></trkpt><trkpt lat="43.8807428" lon="11.2628452"><ele>388.0</ele><time>2026-04-25T16:39:17.268Z</time></trkpt><trkpt lat="43.8806697" lon="11.2628192"><ele>387.1428571428571</ele><time>2026-04-25T16:39:18.265Z</time></trkpt><trkpt lat="43.8805919" lon="11.2628164"><ele>386.28571428571433</ele><time>2026-04-25T16:39:19.264Z</time></trkpt><trkpt lat="43.8805166" lon="11.2628201"><ele>385.42857142857144</ele><time>2026-04-25T16:39:20.262Z</time></trkpt><trkpt lat="43.880441" lon="11.2628355"><ele>384.57142857142856</ele><time>2026-04-25T16:39:21.263Z</time></trkpt><trkpt lat="43.8803684" lon="11.2628465"><ele>383.71428571428567</ele><time>2026-04-25T16:39:22.266Z</time></trkpt><trkpt lat="43.8803028" lon="11.2628508"><ele>382.8571428571429</ele><time>2026-04-25T16:39:23.261Z</time></trkpt><trkpt lat="43.8802274" lon="11.2628229"><ele>382.0</ele><time>2026-04-25T16:39:24.268Z</time></trkpt><trkpt lat="43.8801487" lon="11.262799"><ele>381.0</ele><time>2026-04-25T16:39:25.263Z</time></trkpt><trkpt lat="43.8800734" lon="11.2627201"><ele>380.0</ele><time>2026-04-25T16:39:26.261Z</time></trkpt><trkpt lat="43.8799797" lon="11.2626257"><ele>379.0</ele><time>2026-04-25T16:39:27.253Z</time></trkpt><trkpt lat="43.8798658" lon="11.2625362"><ele>378.0</ele><time>2026-04-25T16:39:28.261Z</time></trkpt><trkpt lat="43.8797346" lon="11.2624725"><ele>378.0</ele><time>2026-04-25T16:39:29.256Z</time></trkpt><trkpt lat="43.8795918" lon="11.2624045"><ele>378.0</ele><time>2026-04-25T16:39:30.253Z</time></trkpt><trkpt lat="43.8794356" lon="11.2623489"><ele>378.0</ele><time>2026-04-25T16:39:31.247Z</time></trkpt><trkpt lat="43.879287" lon="11.2623017"><ele>375.75</ele><time>2026-04-25T16:39:32.259Z</time></trkpt><trkpt lat="43.8791491" lon="11.2622975"><ele>373.5</ele><time>2026-04-25T16:39:33.253Z</time></trkpt><trkpt lat="43.8790199" lon="11.2622906"><ele>371.25</ele><time>2026-04-25T16:39:34.253Z</time></trkpt><trkpt lat="43.8789008" lon="11.2622698"><ele>369.0</ele><time>2026-04-25T16:39:35.259Z</time></trkpt><trkpt lat="43.8787672" lon="11.2622131"><ele>376.0</ele><time>2026-04-25T16:39:36.253Z</time></trkpt><trkpt lat="43.8786168" lon="11.2621974"><ele>383.0</ele><time>2026-04-25T16:39:37.26Z</time></trkpt><trkpt lat="43.8784707" lon="11.26212"><ele>390.0</ele><time>2026-04-25T16:39:38.253Z</time></trkpt><trkpt lat="43.8783298" lon="11.2620033"><ele>390.0</ele><time>2026-04-25T16:39:39.254Z</time></trkpt><trkpt lat="43.8781821" lon="11.2619173"><ele>390.0</ele><time>2026-04-25T16:39:40.255Z</time></trkpt><trkpt lat="43.8780327" lon="11.2618296"><ele>390.0</ele><time>2026-04-25T16:39:41.249Z</time></trkpt><trkpt lat="43.8779096" lon="11.2617884"><ele>390.0</ele><time>2026-04-25T16:39:42.263Z</time></trkpt><trkpt lat="43.8778027" lon="11.2617926"><ele>390.0</ele><time>2026-04-25T16:39:43.256Z</time></trkpt><trkpt lat="43.8776832" lon="11.2617879"><ele>390.0</ele><time>2026-04-25T16:39:44.253Z</time></trkpt><trkpt lat="43.8775569" lon="11.2617872"><ele>390.0</ele><time>2026-04-25T16:39:45.25Z</time></trkpt><trkpt lat="43.8774261" lon="11.2617975"><ele>390.0</ele><time>2026-04-25T16:39:46.253Z</time></trkpt><trkpt lat="43.8772954" lon="11.2618088"><ele>388.75</ele><time>2026-04-25T16:39:47.252Z</time></trkpt><trkpt lat="43.8771677" lon="11.2618143"><ele>387.5</ele><time>2026-04-25T16:39:48.258Z</time></trkpt><trkpt lat="43.8770426" lon="11.2617934"><ele>386.25</ele><time>2026-04-25T16:39:49.255Z</time></trkpt><trkpt lat="43.8769159" lon="11.2617641"><ele>385.0</ele><time>2026-04-25T16:39:50.259Z</time></trkpt><trkpt lat="43.8767901" lon="11.2617219"><ele>385.8</ele><time>2026-04-25T16:39:51.246Z</time></trkpt><trkpt lat="43.876669" lon="11.2616854"><ele>386.6</ele><time>2026-04-25T16:39:52.248Z</time></trkpt><trkpt lat="43.8765533" lon="11.2616683"><ele>387.4</ele><time>2026-04-25T16:39:53.246Z</time></trkpt><trkpt lat="43.8764499" lon="11.2616817"><ele>388.2</ele><time>2026-04-25T16:39:54.25Z</time></trkpt><trkpt lat="43.8763454" lon="11.2616815"><ele>389.0</ele><time>2026-04-25T16:39:55.252Z</time></trkpt><trkpt lat="43.8762503" lon="11.2617053"><ele>389.0</ele><time>2026-04-25T16:39:56.258Z</time></trkpt><trkpt lat="43.8761731" lon="11.2617337"><ele>389.0</ele><time>2026-04-25T16:39:57.252Z</time></trkpt><trkpt lat="43.8760885" lon="11.2617925"><ele>389.0</ele><time>2026-04-25T16:39:58.25Z</time></trkpt><trkpt lat="43.8759868" lon="11.2618462"><ele>389.0</ele><time>2026-04-25T16:39:59.259Z</time></trkpt><trkpt lat="43.8758735" lon="11.2619319"><ele>389.0</ele><time>2026-04-25T16:40:00.257Z</time></trkpt><trkpt lat="43.8757635" lon="11.2620089"><ele>391.5</ele><time>2026-04-25T16:40:01.252Z</time></trkpt><trkpt lat="43.8756436" lon="11.2620684"><ele>394.0</ele><time>2026-04-25T16:40:02.258Z</time></trkpt><trkpt lat="43.875532" lon="11.2621213"><ele>396.5</ele><time>2026-04-25T16:40:03.257Z</time></trkpt><trkpt lat="43.8754038" lon="11.2621212"><ele>399.0</ele><time>2026-04-25T16:40:04.253Z</time></trkpt><trkpt lat="43.8752818" lon="11.262117"><ele>399.0</ele><time>2026-04-25T16:40:05.25Z</time></trkpt><trkpt lat="43.8751617" lon="11.2621303"><ele>399.0</ele><time>2026-04-25T16:40:06.248Z</time></trkpt><trkpt lat="43.8750758" lon="11.2621345"><ele>399.0</ele><time>2026-04-25T16:40:07.24Z</time></trkpt><trkpt lat="43.8749595" lon="11.2621009"><ele>399.0</ele><time>2026-04-25T16:40:09.25Z</time></trkpt><trkpt lat="43.8748532" lon="11.2620075"><ele>399.6</ele><time>2026-04-25T16:40:11.26Z</time></trkpt><trkpt lat="43.8748045" lon="11.2619424"><ele>400.2</ele><time>2026-04-25T16:40:12.255Z</time></trkpt><trkpt lat="43.8747746" lon="11.2618355"><ele>400.8</ele><time>2026-04-25T16:40:13.256Z</time></trkpt><trkpt lat="43.8747383" lon="11.2617238"><ele>401.40000000000003</ele><time>2026-04-25T16:40:14.255Z</time></trkpt><trkpt lat="43.874702" lon="11.2615833"><ele>402.0</ele><time>2026-04-25T16:40:15.25Z</time></trkpt><trkpt lat="43.8746484" lon="11.2614306"><ele>407.40000000000003</ele><time>2026-04-25T16:40:16.254Z</time></trkpt><trkpt lat="43.874598" lon="11.2612856"><ele>412.8</ele><time>2026-04-25T16:40:17.252Z</time></trkpt><trkpt lat="43.8745472" lon="11.2611486"><ele>418.2</ele><time>2026-04-25T16:40:18.251Z</time></trkpt><trkpt lat="43.8744822" lon="11.2610207"><ele>423.6</ele><time>2026-04-25T16:40:19.255Z</time></trkpt><trkpt lat="43.8744197" lon="11.2608967"><ele>429.0</ele><time>2026-04-25T16:40:20.255Z</time></trkpt><trkpt lat="43.8743604" lon="11.2607898"><ele>429.0</ele><time>2026-04-25T16:40:21.253Z</time></trkpt><trkpt lat="43.8742997" lon="11.2607076"><ele>429.0</ele><time>2026-04-25T16:40:22.257Z</time></trkpt><trkpt lat="43.8742414" lon="11.2606529"><ele>429.0</ele><time>2026-04-25T16:40:23.248Z</time></trkpt><trkpt lat="43.8741251" lon="11.2606526"><ele>429.0</ele><time>2026-04-25T16:40:25.245Z</time></trkpt><trkpt lat="43.8740649" lon="11.2607172"><ele>429.0</ele><time>2026-04-25T16:40:26.258Z</time></trkpt><trkpt lat="43.8740096" lon="11.2608148"><ele>429.0</ele><time>2026-04-25T16:40:27.258Z</time></trkpt><trkpt lat="43.8739138" lon="11.2609527"><ele>424.4</ele><time>2026-04-25T16:40:28.259Z</time></trkpt><trkpt lat="43.8738517" lon="11.2610309"><ele>419.79999999999995</ele><time>2026-04-25T16:40:29.252Z</time></trkpt><trkpt lat="43.8737256" lon="11.2610123"><ele>415.20000000000005</ele><time>2026-04-25T16:40:31.253Z</time></trkpt><trkpt lat="43.8736805" lon="11.2609247"><ele>410.6</ele><time>2026-04-25T16:40:32.252Z</time></trkpt><trkpt lat="43.8736793" lon="11.2608186"><ele>406.0</ele><time>2026-04-25T16:40:33.256Z</time></trkpt><trkpt lat="43.8737281" lon="11.260694"><ele>410.8</ele><time>2026-04-25T16:40:34.245Z</time></trkpt><trkpt lat="43.8737586" lon="11.2605927"><ele>415.6</ele><time>2026-04-25T16:40:35.245Z</time></trkpt><trkpt lat="43.8737746" lon="11.2604903"><ele>420.4</ele><time>2026-04-25T16:40:36.252Z</time></trkpt><trkpt lat="43.8737201" lon="11.2603617"><ele>425.2</ele><time>2026-04-25T16:40:38.259Z</time></trkpt><trkpt lat="43.8736124" lon="11.2604455"><ele>430.0</ele><time>2026-04-25T16:40:40.26Z</time></trkpt><trkpt lat="43.8735376" lon="11.2605358"><ele>425.2</ele><time>2026-04-25T16:40:41.253Z</time></trkpt><trkpt lat="43.8734911" lon="11.260647"><ele>420.4</ele><time>2026-04-25T16:40:42.252Z</time></trkpt><trkpt lat="43.8734612" lon="11.2607579"><ele>415.6</ele><time>2026-04-25T16:40:43.251Z</time></trkpt><trkpt lat="43.8734551" lon="11.2608954"><ele>410.8</ele><time>2026-04-25T16:40:44.256Z</time></trkpt><trkpt lat="43.873489" lon="11.2610518"><ele>406.0</ele><time>2026-04-25T16:40:45.255Z</time></trkpt><trkpt lat="43.8735723" lon="11.2612641"><ele>405.6</ele><time>2026-04-25T16:40:46.252Z</time></trkpt><trkpt lat="43.8736717" lon="11.2614715"><ele>405.20000000000005</ele><time>2026-04-25T16:40:47.27Z</time></trkpt><trkpt lat="43.873728" lon="11.2615939"><ele>404.79999999999995</ele><time>2026-04-25T16:40:48.264Z</time></trkpt><trkpt lat="43.8737599" lon="11.2616777"><ele>404.4</ele><time>2026-04-25T16:40:49.272Z</time></trkpt><trkpt lat="43.8737383" lon="11.2617844"><ele>404.0</ele><time>2026-04-25T16:40:50.263Z</time></trkpt><trkpt lat="43.8736531" lon="11.2618818"><ele>404.0</ele><time>2026-04-25T16:40:52.257Z</time></trkpt><trkpt lat="43.8735887" lon="11.2618705"><ele>404.0</ele><time>2026-04-25T16:40:53.266Z</time></trkpt><trkpt lat="43.8734988" lon="11.2617101"><ele>404.0</ele><time>2026-04-25T16:40:55.267Z</time></trkpt><trkpt lat="43.8734297" lon="11.2615754"><ele>404.0</ele><time>2026-04-25T16:40:56.264Z</time></trkpt><trkpt lat="43.8733392" lon="11.2614255"><ele>412.0</ele><time>2026-04-25T16:40:57.269Z</time></trkpt><trkpt lat="43.8732469" lon="11.2612587"><ele>420.0</ele><time>2026-04-25T16:40:58.259Z</time></trkpt><trkpt lat="43.8731556" lon="11.2610522"><ele>428.0</ele><time>2026-04-25T16:40:59.254Z</time></trkpt><trkpt lat="43.8730597" lon="11.260895"><ele>428.0</ele><time>2026-04-25T16:41:00.253Z</time></trkpt><trkpt lat="43.8729785" lon="11.2607262"><ele>428.0</ele><time>2026-04-25T16:41:01.265Z</time></trkpt><trkpt lat="43.8729373" lon="11.2606087"><ele>428.0</ele><time>2026-04-25T16:41:02.262Z</time></trkpt><trkpt lat="43.8729301" lon="11.2604579"><ele>428.0</ele><time>2026-04-25T16:41:03.253Z</time></trkpt><trkpt lat="43.8729484" lon="11.2603065"><ele>428.25</ele><time>2026-04-25T16:41:04.265Z</time></trkpt><trkpt lat="43.8729448" lon="11.2601277"><ele>428.5</ele><time>2026-04-25T16:41:05.265Z</time></trkpt><trkpt lat="43.8728945" lon="11.2599879"><ele>428.75</ele><time>2026-04-25T16:41:06.256Z</time></trkpt><trkpt lat="43.8728531" lon="11.2598583"><ele>429.0</ele><time>2026-04-25T16:41:07.261Z</time></trkpt><trkpt lat="43.8727895" lon="11.2597124"><ele>430.75</ele><time>2026-04-25T16:41:08.252Z</time></trkpt><trkpt lat="43.8727415" lon="11.2595796"><ele>432.5</ele><time>2026-04-25T16:41:09.26Z</time></trkpt><trkpt lat="43.8727075" lon="11.2594246"><ele>434.25</ele><time>2026-04-25T16:41:10.269Z</time></trkpt><trkpt lat="43.872683" lon="11.2592641"><ele>436.0</ele><time>2026-04-25T16:41:11.262Z</time></trkpt><trkpt lat="43.8726655" lon="11.2591012"><ele>436.0</ele><time>2026-04-25T16:41:12.254Z</time></trkpt><trkpt lat="43.8726509" lon="11.2589538"><ele>436.0</ele><time>2026-04-25T16:41:13.263Z</time></trkpt><trkpt lat="43.8726253" lon="11.2588151"><ele>436.0</ele><time>2026-04-25T16:41:14.258Z</time></trkpt><trkpt lat="43.8725723" lon="11.258666"><ele>436.0</ele><time>2026-04-25T16:41:15.265Z</time></trkpt><trkpt lat="43.8724925" lon="11.2585086"><ele>440.0</ele><time>2026-04-25T16:41:16.268Z</time></trkpt><trkpt lat="43.8724152" lon="11.258361"><ele>444.0</ele><time>2026-04-25T16:41:17.267Z</time></trkpt><trkpt lat="43.8723475" lon="11.2582269"><ele>448.0</ele><time>2026-04-25T16:41:18.273Z</time></trkpt><trkpt lat="43.8722966" lon="11.2581141"><ele>452.0</ele><time>2026-04-25T16:41:19.264Z</time></trkpt><trkpt lat="43.872258" lon="11.2580115"><ele>456.0</ele><time>2026-04-25T16:41:20.268Z</time></trkpt><trkpt lat="43.8721979" lon="11.2579283"><ele>456.6</ele><time>2026-04-25T16:41:21.271Z</time></trkpt><trkpt lat="43.8721293" lon="11.2578606"><ele>457.20000000000005</ele><time>2026-04-25T16:41:22.268Z</time></trkpt><trkpt lat="43.8720671" lon="11.2578117"><ele>457.79999999999995</ele><time>2026-04-25T16:41:23.268Z</time></trkpt><trkpt lat="43.8719636" lon="11.2577656"><ele>458.4</ele><time>2026-04-25T16:41:25.265Z</time></trkpt><trkpt lat="43.8718638" lon="11.2579141"><ele>459.0</ele><time>2026-04-25T16:41:29.272Z</time></trkpt><trkpt lat="43.8717788" lon="11.2580482"><ele>461.4</ele><time>2026-04-25T16:41:30.255Z</time></trkpt><trkpt lat="43.8717055" lon="11.2581942"><ele>463.79999999999995</ele><time>2026-04-25T16:41:31.253Z</time></trkpt><trkpt lat="43.8716434" lon="11.2583333"><ele>466.20000000000005</ele><time>2026-04-25T16:41:32.255Z</time></trkpt><trkpt lat="43.8716091" lon="11.2584754"><ele>468.6</ele><time>2026-04-25T16:41:33.255Z</time></trkpt><trkpt lat="43.8715977" lon="11.2585899"><ele>471.0</ele><time>2026-04-25T16:41:34.257Z</time></trkpt><trkpt lat="43.8715659" lon="11.2587336"><ele>471.0</ele><time>2026-04-25T16:41:36.269Z</time></trkpt><trkpt lat="43.8714565" lon="11.2586307"><ele>471.0</ele><time>2026-04-25T16:41:39.257Z</time></trkpt><trkpt lat="43.8714128" lon="11.2584987"><ele>471.0</ele><time>2026-04-25T16:41:40.264Z</time></trkpt><trkpt lat="43.8714088" lon="11.2583101"><ele>471.0</ele><time>2026-04-25T16:41:41.27Z</time></trkpt><trkpt lat="43.8714251" lon="11.2581095"><ele>473.5</ele><time>2026-04-25T16:41:42.254Z</time></trkpt><trkpt lat="43.8714584" lon="11.2578973"><ele>476.0</ele><time>2026-04-25T16:41:43.258Z</time></trkpt><trkpt lat="43.8714927" lon="11.2577033"><ele>478.5</ele><time>2026-04-25T16:41:44.257Z</time></trkpt><trkpt lat="43.8715301" lon="11.2575267"><ele>481.0</ele><time>2026-04-25T16:41:45.257Z</time></trkpt><trkpt lat="43.8715703" lon="11.257377"><ele>483.6</ele><time>2026-04-25T16:41:46.266Z</time></trkpt><trkpt lat="43.8716011" lon="11.2572513"><ele>486.20000000000005</ele><time>2026-04-25T16:41:47.269Z</time></trkpt><trkpt lat="43.8716113" lon="11.2571345"><ele>488.79999999999995</ele><time>2026-04-25T16:41:48.269Z</time></trkpt><trkpt lat="43.8715762" lon="11.2570303"><ele>491.4</ele><time>2026-04-25T16:41:49.259Z</time></trkpt><trkpt lat="43.8715375" lon="11.2568929"><ele>494.0</ele><time>2026-04-25T16:41:50.261Z</time></trkpt><trkpt lat="43.8714984" lon="11.2567401"><ele>493.99999999999994</ele><time>2026-04-25T16:41:51.258Z</time></trkpt><trkpt lat="43.8714656" lon="11.2566004"><ele>494.0</ele><time>2026-04-25T16:41:52.268Z</time></trkpt><trkpt lat="43.8714309" lon="11.2564826"><ele>494.0</ele><time>2026-04-25T16:41:53.272Z</time></trkpt><trkpt lat="43.871413" lon="11.2563889"><ele>494.0</ele><time>2026-04-25T16:41:54.267Z</time></trkpt><trkpt lat="43.8713491" lon="11.2562884"><ele>493.99999999999994</ele><time>2026-04-25T16:41:56.268Z</time></trkpt><trkpt lat="43.8712865" lon="11.2562714"><ele>494.0</ele><time>2026-04-25T16:41:57.268Z</time></trkpt><trkpt lat="43.8711929" lon="11.2562746"><ele>495.8333333333333</ele><time>2026-04-25T16:41:58.259Z</time></trkpt><trkpt lat="43.8710962" lon="11.2562827"><ele>497.66666666666663</ele><time>2026-04-25T16:41:59.27Z</time></trkpt><trkpt lat="43.8710044" lon="11.2562941"><ele>499.5</ele><time>2026-04-25T16:42:00.252Z</time></trkpt><trkpt lat="43.8709288" lon="11.2563013"><ele>501.33333333333337</ele><time>2026-04-25T16:42:01.259Z</time></trkpt><trkpt lat="43.870842" lon="11.2563094"><ele>503.1666666666667</ele><time>2026-04-25T16:42:02.261Z</time></trkpt><trkpt lat="43.8707508" lon="11.2563265"><ele>505.0</ele><time>2026-04-25T16:42:03.259Z</time></trkpt><trkpt lat="43.8706611" lon="11.2563562"><ele>504.00000000000006</ele><time>2026-04-25T16:42:04.256Z</time></trkpt><trkpt lat="43.8705706" lon="11.2563714"><ele>503.0</ele><time>2026-04-25T16:42:05.25Z</time></trkpt><trkpt lat="43.8704906" lon="11.2563925"><ele>502.0</ele><time>2026-04-25T16:42:06.248Z</time></trkpt><trkpt lat="43.8704127" lon="11.2564135"><ele>501.0</ele><time>2026-04-25T16:42:07.252Z</time></trkpt><trkpt lat="43.8703538" lon="11.256466"><ele>500.00000000000006</ele><time>2026-04-25T16:42:08.251Z</time></trkpt><trkpt lat="43.8703093" lon="11.2565459"><ele>499.0</ele><time>2026-04-25T16:42:09.25Z</time></trkpt><trkpt lat="43.8702749" lon="11.2566529"><ele>499.0</ele><time>2026-04-25T16:42:10.257Z</time></trkpt><trkpt lat="43.8702438" lon="11.2567758"><ele>499.0</ele><time>2026-04-25T16:42:11.258Z</time></trkpt><trkpt lat="43.8702231" lon="11.256881"><ele>499.0</ele><time>2026-04-25T16:42:12.269Z</time></trkpt><trkpt lat="43.8701953" lon="11.2569612"><ele>499.0</ele><time>2026-04-25T16:42:13.263Z</time></trkpt><trkpt lat="43.870116" lon="11.2570396"><ele>499.0</ele><time>2026-04-25T16:42:15.258Z</time></trkpt><trkpt lat="43.8699999" lon="11.257079"><ele>499.00000000000006</ele><time>2026-04-25T16:42:17.267Z</time></trkpt><trkpt lat="43.8698986" lon="11.2570697"><ele>499.0</ele><time>2026-04-25T16:42:19.254Z</time></trkpt><trkpt lat="43.8698281" lon="11.257031"><ele>499.0</ele><time>2026-04-25T16:42:22.262Z</time></trkpt><trkpt lat="43.8697796" lon="11.2569547"><ele>499.0</ele><time>2026-04-25T16:43:03.265Z</time></trkpt><trkpt lat="43.8697317" lon="11.2570122"><ele>499.00000000000006</ele><time>2026-04-25T16:43:21.27Z</time></trkpt><trkpt lat="43.8696738" lon="11.2570492"><ele>499.0</ele><time>2026-04-25T16:43:23.277Z</time></trkpt><trkpt lat="43.8695752" lon="11.2570696"><ele>499.00000000000006</ele><time>2026-04-25T16:43:25.264Z</time></trkpt><trkpt lat="43.8694624" lon="11.2571213"><ele>499.0</ele><time>2026-04-25T16:43:27.264Z</time></trkpt><trkpt lat="43.8693975" lon="11.257164"><ele>499.0</ele><time>2026-04-25T16:43:28.268Z</time></trkpt><trkpt lat="43.8693233" lon="11.2571704"><ele>499.0</ele><time>2026-04-25T16:43:29.263Z</time></trkpt><trkpt lat="43.8692484" lon="11.2571478"><ele>499.00000000000006</ele><time>2026-04-25T16:43:30.263Z</time></trkpt><trkpt lat="43.8691776" lon="11.2571249"><ele>499.0</ele><time>2026-04-25T16:43:31.27Z</time></trkpt><trkpt lat="43.8691128" lon="11.2571105"><ele>497.50000000000006</ele><time>2026-04-25T16:43:32.272Z</time></trkpt><trkpt lat="43.869021" lon="11.257086"><ele>496.0</ele><time>2026-04-25T16:43:34.266Z</time></trkpt><trkpt lat="43.8689337" lon="11.2571186"><ele>494.5</ele><time>2026-04-25T16:43:36.269Z</time></trkpt><trkpt lat="43.8688917" lon="11.2572448"><ele>493.0</ele><time>2026-04-25T16:43:38.263Z</time></trkpt><trkpt lat="43.8688495" lon="11.2573172"><ele>491.50000000000006</ele><time>2026-04-25T16:43:40.264Z</time></trkpt><trkpt lat="43.8687871" lon="11.2572556"><ele>490.0</ele><time>2026-04-25T16:43:42.281Z</time></trkpt><trkpt lat="43.8687386" lon="11.2571658"><ele>490.0</ele><time>2026-04-25T16:43:43.265Z</time></trkpt><trkpt lat="43.8686682" lon="11.2570644"><ele>490.0</ele><time>2026-04-25T16:43:44.265Z</time></trkpt><trkpt lat="43.8685736" lon="11.2569566"><ele>490.0</ele><time>2026-04-25T16:43:45.281Z</time></trkpt><trkpt lat="43.8684812" lon="11.256876"><ele>490.0</ele><time>2026-04-25T16:43:46.261Z</time></trkpt><trkpt lat="43.8684018" lon="11.2568022"><ele>490.0</ele><time>2026-04-25T16:43:47.269Z</time></trkpt><trkpt lat="43.8683332" lon="11.2567466"><ele>486.25</ele><time>2026-04-25T16:43:48.264Z</time></trkpt><trkpt lat="43.8682492" lon="11.2567553"><ele>482.5</ele><time>2026-04-25T16:43:50.263Z</time></trkpt><trkpt lat="43.8681831" lon="11.2569113"><ele>478.75</ele><time>2026-04-25T16:43:52.266Z</time></trkpt><trkpt lat="43.868123" lon="11.2570639"><ele>475.0</ele><time>2026-04-25T16:43:53.261Z</time></trkpt><trkpt lat="43.8680758" lon="11.2572136"><ele>471.6</ele><time>2026-04-25T16:43:54.263Z</time></trkpt><trkpt lat="43.8680161" lon="11.257363"><ele>468.2</ele><time>2026-04-25T16:43:55.262Z</time></trkpt><trkpt lat="43.8679548" lon="11.2574966"><ele>464.79999999999995</ele><time>2026-04-25T16:43:56.264Z</time></trkpt><trkpt lat="43.8678801" lon="11.2576002"><ele>461.4</ele><time>2026-04-25T16:43:57.271Z</time></trkpt><trkpt lat="43.8678132" lon="11.2576903"><ele>458.0</ele><time>2026-04-25T16:43:58.263Z</time></trkpt><trkpt lat="43.8677375" lon="11.2577708"><ele>458.0</ele><time>2026-04-25T16:43:59.272Z</time></trkpt><trkpt lat="43.8676626" lon="11.2578077"><ele>457.99999999999994</ele><time>2026-04-25T16:44:00.281Z</time></trkpt><trkpt lat="43.8675698" lon="11.2578045"><ele>457.99999999999994</ele><time>2026-04-25T16:44:01.27Z</time></trkpt><trkpt lat="43.8674632" lon="11.2577824"><ele>458.0</ele><time>2026-04-25T16:44:02.265Z</time></trkpt><trkpt lat="43.8673679" lon="11.2577571"><ele>458.0</ele><time>2026-04-25T16:44:03.264Z</time></trkpt><trkpt lat="43.8672753" lon="11.2577343"><ele>456.79999999999995</ele><time>2026-04-25T16:44:04.271Z</time></trkpt><trkpt lat="43.8671808" lon="11.2577018"><ele>455.59999999999997</ele><time>2026-04-25T16:44:05.269Z</time></trkpt><trkpt lat="43.8670964" lon="11.2576572"><ele>454.40000000000003</ele><time>2026-04-25T16:44:06.273Z</time></trkpt><trkpt lat="43.867016" lon="11.2576135"><ele>453.20000000000005</ele><time>2026-04-25T16:44:07.271Z</time></trkpt><trkpt lat="43.8669393" lon="11.2575567"><ele>452.0</ele><time>2026-04-25T16:44:08.267Z</time></trkpt><trkpt lat="43.8668475" lon="11.2574847"><ele>454.6</ele><time>2026-04-25T16:44:09.26Z</time></trkpt><trkpt lat="43.8667653" lon="11.2573999"><ele>457.20000000000005</ele><time>2026-04-25T16:44:10.27Z</time></trkpt><trkpt lat="43.8666848" lon="11.257333"><ele>459.8</ele><time>2026-04-25T16:44:11.268Z</time></trkpt><trkpt lat="43.8666132" lon="11.2573012"><ele>462.4</ele><time>2026-04-25T16:44:12.264Z</time></trkpt><trkpt lat="43.8665205" lon="11.2572847"><ele>465.0</ele><time>2026-04-25T16:44:13.274Z</time></trkpt><trkpt lat="43.8663878" lon="11.2573063"><ele>459.4</ele><time>2026-04-25T16:44:14.262Z</time></trkpt><trkpt lat="43.8662572" lon="11.2573414"><ele>453.8</ele><time>2026-04-25T16:44:15.259Z</time></trkpt><trkpt lat="43.8661643" lon="11.2573713"><ele>448.20000000000005</ele><time>2026-04-25T16:44:16.28Z</time></trkpt><trkpt lat="43.8660821" lon="11.2573682"><ele>442.6</ele><time>2026-04-25T16:44:17.271Z</time></trkpt><trkpt lat="43.8659903" lon="11.2573483"><ele>437.0</ele><time>2026-04-25T16:44:18.263Z</time></trkpt><trkpt lat="43.8658958" lon="11.2573163"><ele>440.6</ele><time>2026-04-25T16:44:19.268Z</time></trkpt><trkpt lat="43.8657923" lon="11.2572694"><ele>444.20000000000005</ele><time>2026-04-25T16:44:20.262Z</time></trkpt><trkpt lat="43.8656876" lon="11.25722"><ele>447.8</ele><time>2026-04-25T16:44:21.267Z</time></trkpt><trkpt lat="43.8655874" lon="11.2571471"><ele>451.4</ele><time>2026-04-25T16:44:22.271Z</time></trkpt><trkpt lat="43.8654878" lon="11.2570668"><ele>455.0</ele><time>2026-04-25T16:44:23.269Z</time></trkpt><trkpt lat="43.8654076" lon="11.2569997"><ele>455.0</ele><time>2026-04-25T16:44:24.263Z</time></trkpt><trkpt lat="43.865336" lon="11.2569556"><ele>455.0</ele><time>2026-04-25T16:44:25.266Z</time></trkpt><trkpt lat="43.8652679" lon="11.25694"><ele>455.0</ele><time>2026-04-25T16:44:26.262Z</time></trkpt><trkpt lat="43.8651866" lon="11.2569482"><ele>455.0</ele><time>2026-04-25T16:44:27.259Z</time></trkpt><trkpt lat="43.8650842" lon="11.2569574"><ele>455.0</ele><time>2026-04-25T16:44:28.264Z</time></trkpt><trkpt lat="43.8649649" lon="11.2569821"><ele>452.8</ele><time>2026-04-25T16:44:29.259Z</time></trkpt><trkpt lat="43.8648581" lon="11.2569842"><ele>450.6</ele><time>2026-04-25T16:44:30.256Z</time></trkpt><trkpt lat="43.8647649" lon="11.2569927"><ele>448.4</ele><time>2026-04-25T16:44:31.257Z</time></trkpt><trkpt lat="43.8646893" lon="11.2569843"><ele>446.2</ele><time>2026-04-25T16:44:32.267Z</time></trkpt><trkpt lat="43.8645557" lon="11.2570225"><ele>444.0</ele><time>2026-04-25T16:44:34.26Z</time></trkpt><trkpt lat="43.8644799" lon="11.2570772"><ele>444.0</ele><time>2026-04-25T16:44:35.261Z</time></trkpt><trkpt lat="43.8644321" lon="11.2571582"><ele>444.0</ele><time>2026-04-25T16:44:36.261Z</time></trkpt><trkpt lat="43.8643616" lon="11.2572563"><ele>444.0</ele><time>2026-04-25T16:44:38.257Z</time></trkpt><trkpt lat="43.8642701" lon="11.2573341"><ele>444.0</ele><time>2026-04-25T16:44:40.26Z</time></trkpt><trkpt lat="43.864125" lon="11.257376"><ele>444.0</ele><time>2026-04-25T16:44:42.251Z</time></trkpt><trkpt lat="43.8640254" lon="11.257387"><ele>441.4</ele><time>2026-04-25T16:44:43.254Z</time></trkpt><trkpt lat="43.863936" lon="11.2574052"><ele>438.79999999999995</ele><time>2026-04-25T16:44:44.252Z</time></trkpt><trkpt lat="43.8638499" lon="11.2574824"><ele>436.20000000000005</ele><time>2026-04-25T16:44:46.256Z</time></trkpt><trkpt lat="43.8638663" lon="11.2576302"><ele>433.6</ele><time>2026-04-25T16:44:48.269Z</time></trkpt><trkpt lat="43.8639127" lon="11.2577287"><ele>431.0</ele><time>2026-04-25T16:44:49.261Z</time></trkpt><trkpt lat="43.8639784" lon="11.257818"><ele>431.0</ele><time>2026-04-25T16:44:50.269Z</time></trkpt><trkpt lat="43.8640283" lon="11.2579483"><ele>431.0</ele><time>2026-04-25T16:44:51.266Z</time></trkpt><trkpt lat="43.864065" lon="11.258074"><ele>431.0</ele><time>2026-04-25T16:44:52.264Z</time></trkpt><trkpt lat="43.8640914" lon="11.2582194"><ele>431.0</ele><time>2026-04-25T16:44:53.264Z</time></trkpt><trkpt lat="43.864115" lon="11.2583427"><ele>431.0</ele><time>2026-04-25T16:44:54.258Z</time></trkpt><trkpt lat="43.8641518" lon="11.2584375"><ele>430.3333333333333</ele><time>2026-04-25T16:44:55.264Z</time></trkpt><trkpt lat="43.8642258" lon="11.2585272"><ele>429.66666666666663</ele><time>2026-04-25T16:44:56.263Z</time></trkpt><trkpt lat="43.8642873" lon="11.258615"><ele>429.0</ele><time>2026-04-25T16:44:57.265Z</time></trkpt><trkpt lat="43.8643315" lon="11.2586965"><ele>428.33333333333337</ele><time>2026-04-25T16:44:58.259Z</time></trkpt><trkpt lat="43.8643061" lon="11.2587847"><ele>427.6666666666667</ele><time>2026-04-25T16:45:00.264Z</time></trkpt><trkpt lat="43.8642428" lon="11.2587943"><ele>427.0</ele><time>2026-04-25T16:45:01.252Z</time></trkpt><trkpt lat="43.8641602" lon="11.2587851"><ele>431.0</ele><time>2026-04-25T16:45:02.256Z</time></trkpt><trkpt lat="43.8640661" lon="11.2587343"><ele>435.00000000000006</ele><time>2026-04-25T16:45:03.251Z</time></trkpt><trkpt lat="43.8639797" lon="11.2586687"><ele>439.00000000000006</ele><time>2026-04-25T16:45:04.259Z</time></trkpt><trkpt lat="43.8638953" lon="11.2586579"><ele>443.0</ele><time>2026-04-25T16:45:05.257Z</time></trkpt><trkpt lat="43.8638051" lon="11.2586895"><ele>447.0</ele><time>2026-04-25T16:45:06.252Z</time></trkpt><trkpt lat="43.8637125" lon="11.2587276"><ele>447.0</ele><time>2026-04-25T16:45:07.257Z</time></trkpt><trkpt lat="43.8636257" lon="11.25876"><ele>447.0</ele><time>2026-04-25T16:45:08.257Z</time></trkpt><trkpt lat="43.8635537" lon="11.2587224"><ele>447.0</ele><time>2026-04-25T16:45:09.255Z</time></trkpt><trkpt lat="43.8634831" lon="11.2586782"><ele>447.0</ele><time>2026-04-25T16:45:10.26Z</time></trkpt><trkpt lat="43.8634052" lon="11.2586473"><ele>447.0</ele><time>2026-04-25T16:45:11.265Z</time></trkpt><trkpt lat="43.8633323" lon="11.2586871"><ele>447.0</ele><time>2026-04-25T16:45:12.256Z</time></trkpt><trkpt lat="43.8632721" lon="11.2587627"><ele>452.20000000000005</ele><time>2026-04-25T16:45:13.254Z</time></trkpt><trkpt lat="43.863194" lon="11.2588326"><ele>457.40000000000003</ele><time>2026-04-25T16:45:14.26Z</time></trkpt><trkpt lat="43.8631246" lon="11.2588643"><ele>462.59999999999997</ele><time>2026-04-25T16:45:15.255Z</time></trkpt><trkpt lat="43.8630535" lon="11.2588869"><ele>467.79999999999995</ele><time>2026-04-25T16:45:16.273Z</time></trkpt><trkpt lat="43.8629974" lon="11.2589631"><ele>473.0</ele><time>2026-04-25T16:45:18.284Z</time></trkpt><trkpt lat="43.863097" lon="11.2590919"><ele>477.4</ele><time>2026-04-25T16:45:20.27Z</time></trkpt><trkpt lat="43.8631962" lon="11.2591171"><ele>481.79999999999995</ele><time>2026-04-25T16:45:21.263Z</time></trkpt><trkpt lat="43.8633245" lon="11.2591446"><ele>486.2</ele><time>2026-04-25T16:45:22.26Z</time></trkpt><trkpt lat="43.8634089" lon="11.2591907"><ele>490.6</ele><time>2026-04-25T16:45:23.262Z</time></trkpt><trkpt lat="43.8634235" lon="11.2592845"><ele>495.0</ele><time>2026-04-25T16:45:25.266Z</time></trkpt><trkpt lat="43.8633226" lon="11.259298"><ele>495.0</ele><time>2026-04-25T16:45:28.258Z</time></trkpt><trkpt lat="43.8632468" lon="11.2593008"><ele>495.0</ele><time>2026-04-25T16:45:29.262Z</time></trkpt><trkpt lat="43.8631631" lon="11.259344"><ele>495.0</ele><time>2026-04-25T16:45:30.266Z</time></trkpt><trkpt lat="43.8630813" lon="11.2594253"><ele>495.0</ele><time>2026-04-25T16:45:31.272Z</time></trkpt><trkpt lat="43.8630125" lon="11.2595013"><ele>495.0</ele><time>2026-04-25T16:45:32.26Z</time></trkpt><trkpt lat="43.8629462" lon="11.2595535"><ele>495.0</ele><time>2026-04-25T16:45:33.255Z</time></trkpt><trkpt lat="43.8628794" lon="11.2595586"><ele>495.0</ele><time>2026-04-25T16:45:34.26Z</time></trkpt><trkpt lat="43.8627863" lon="11.2595842"><ele>495.0</ele><time>2026-04-25T16:45:35.264Z</time></trkpt><trkpt lat="43.8626883" lon="11.2596231"><ele>495.0</ele><time>2026-04-25T16:45:36.258Z</time></trkpt><trkpt lat="43.8625963" lon="11.2596895"><ele>495.0</ele><time>2026-04-25T16:45:37.27Z</time></trkpt><trkpt lat="43.8624818" lon="11.2597653"><ele>495.0</ele><time>2026-04-25T16:45:38.27Z</time></trkpt><trkpt lat="43.8623666" lon="11.2598353"><ele>500.25</ele><time>2026-04-25T16:45:39.27Z</time></trkpt><trkpt lat="43.8622638" lon="11.2599441"><ele>505.5</ele><time>2026-04-25T16:45:40.28Z</time></trkpt><trkpt lat="43.8621613" lon="11.2600568"><ele>510.75</ele><time>2026-04-25T16:45:41.274Z</time></trkpt><trkpt lat="43.8620668" lon="11.2601817"><ele>516.0</ele><time>2026-04-25T16:45:42.271Z</time></trkpt><trkpt lat="43.8619921" lon="11.2602843"><ele>516.0</ele><time>2026-04-25T16:45:43.281Z</time></trkpt><trkpt lat="43.861927" lon="11.2603697"><ele>516.0</ele><time>2026-04-25T16:45:44.281Z</time></trkpt><trkpt lat="43.8618591" lon="11.2604382"><ele>516.0</ele><time>2026-04-25T16:45:45.272Z</time></trkpt><trkpt lat="43.8617619" lon="11.260466"><ele>516.0</ele><time>2026-04-25T16:45:46.284Z</time></trkpt><trkpt lat="43.8616341" lon="11.2604816"><ele>516.0</ele><time>2026-04-25T16:45:47.276Z</time></trkpt><trkpt lat="43.8615077" lon="11.2605126"><ele>517.2</ele><time>2026-04-25T16:45:48.276Z</time></trkpt><trkpt lat="43.8614058" lon="11.2605423"><ele>518.4000000000001</ele><time>2026-04-25T16:45:49.291Z</time></trkpt><trkpt lat="43.8613056" lon="11.2605897"><ele>519.6</ele><time>2026-04-25T16:45:50.271Z</time></trkpt><trkpt lat="43.8612139" lon="11.2606616"><ele>520.8000000000001</ele><time>2026-04-25T16:45:51.28Z</time></trkpt><trkpt lat="43.8611278" lon="11.2607688"><ele>522.0</ele><time>2026-04-25T16:45:52.28Z</time></trkpt><trkpt lat="43.8610311" lon="11.2609436"><ele>526.3333333333334</ele><time>2026-04-25T16:45:53.27Z</time></trkpt><trkpt lat="43.860925" lon="11.2611358"><ele>530.6666666666667</ele><time>2026-04-25T16:45:54.269Z</time></trkpt><trkpt lat="43.860824" lon="11.2613506"><ele>535.0</ele><time>2026-04-25T16:45:55.267Z</time></trkpt><trkpt lat="43.860696" lon="11.2615224"><ele>537.0</ele><time>2026-04-25T16:45:56.262Z</time></trkpt><trkpt lat="43.8605993" lon="11.261661"><ele>539.0</ele><time>2026-04-25T16:45:57.26Z</time></trkpt><trkpt lat="43.8604883" lon="11.2617922"><ele>541.0</ele><time>2026-04-25T16:45:58.254Z</time></trkpt><trkpt lat="43.8603802" lon="11.2618619"><ele>543.0</ele><time>2026-04-25T16:45:59.26Z</time></trkpt><trkpt lat="43.8602732" lon="11.2619224"><ele>543.0</ele><time>2026-04-25T16:46:00.256Z</time></trkpt><trkpt lat="43.8601956" lon="11.2619971"><ele>543.0</ele><time>2026-04-25T16:46:01.261Z</time></trkpt><trkpt lat="43.8601248" lon="11.2620877"><ele>543.0</ele><time>2026-04-25T16:46:02.265Z</time></trkpt><trkpt lat="43.8600535" lon="11.2622123"><ele>543.0</ele><time>2026-04-25T16:46:03.263Z</time></trkpt><trkpt lat="43.8600129" lon="11.2623378"><ele>543.0</ele><time>2026-04-25T16:46:04.26Z</time></trkpt><trkpt lat="43.8599469" lon="11.2625092"><ele>544.0</ele><time>2026-04-25T16:46:05.261Z</time></trkpt><trkpt lat="43.8598722" lon="11.2626473"><ele>545.0</ele><time>2026-04-25T16:46:06.265Z</time></trkpt><trkpt lat="43.8598166" lon="11.2627619"><ele>546.0</ele><time>2026-04-25T16:46:07.271Z</time></trkpt><trkpt lat="43.8597701" lon="11.2628668"><ele>547.0</ele><time>2026-04-25T16:46:08.272Z</time></trkpt><trkpt lat="43.8596803" lon="11.2629479"><ele>548.0</ele><time>2026-04-25T16:46:10.278Z</time></trkpt><trkpt lat="43.8596012" lon="11.2629492"><ele>548.0</ele><time>2026-04-25T16:46:11.279Z</time></trkpt><trkpt lat="43.8594924" lon="11.2629272"><ele>548.0</ele><time>2026-04-25T16:46:12.278Z</time></trkpt><trkpt lat="43.859362" lon="11.2629212"><ele>548.0</ele><time>2026-04-25T16:46:13.272Z</time></trkpt><trkpt lat="43.8592458" lon="11.262956"><ele>548.0</ele><time>2026-04-25T16:46:14.281Z</time></trkpt><trkpt lat="43.8591474" lon="11.2629793"><ele>558.0</ele><time>2026-04-25T16:46:15.277Z</time></trkpt><trkpt lat="43.859072" lon="11.2629947"><ele>558.0</ele><time>2026-04-25T16:46:16.278Z</time></trkpt><trkpt lat="43.8590074" lon="11.2630104"><ele>558.0</ele><time>2026-04-25T16:46:17.283Z</time></trkpt><trkpt lat="43.8589326" lon="11.2630071"><ele>558.0</ele><time>2026-04-25T16:46:19.273Z</time></trkpt></trkseg></trk></gpx>